<?xml version="1.0" encoding="UTF-8" standalone="no" ?>
<gpx xmlns="http://www.topografix.com/GPX/1/1" xmlns:xsi="http://www.w3.org/2001/XMLSchema-instance" xsi:schemaLocation="http://www.topografix.com/GPX/1/1 http://www.topografix.com/GPX/1/1/gpx.xsd" version="1.1" creator="VisuGPX - https://www.visugpx.com">
  <metadata>
    <name>Pointe de la Gay 2024</name>
    <desc><![CDATA[AlpineQuest Track 12/27/24 10:22:19]]></desc>
  </metadata>
  <trk>
    <name><![CDATA[Pointe de la Gay 2024]]></name>
    <trkseg>
      <trkpt lat="46.22198" lon="6.55597">
        <ele>1163.879</ele>
        <time>2024-12-27T09:22:19Z</time>
      </trkpt>
      <trkpt lat="46.22205" lon="6.55599">
        <ele>1116.853</ele>
        <time>2024-12-27T09:22:24Z</time>
      </trkpt>
      <trkpt lat="46.22209" lon="6.55602">
        <ele>1093.593</ele>
        <time>2024-12-27T09:22:29Z</time>
      </trkpt>
      <trkpt lat="46.22213" lon="6.55604">
        <ele>1071.876</ele>
        <time>2024-12-27T09:22:34Z</time>
      </trkpt>
      <trkpt lat="46.22213" lon="6.55604">
        <ele>1074.559</ele>
        <time>2024-12-27T09:22:39Z</time>
      </trkpt>
      <trkpt lat="46.22215" lon="6.55604">
        <ele>1056.536</ele>
        <time>2024-12-27T09:22:44Z</time>
      </trkpt>
      <trkpt lat="46.22215" lon="6.55602">
        <ele>1058.308</ele>
        <time>2024-12-27T09:22:49Z</time>
      </trkpt>
      <trkpt lat="46.22216" lon="6.55602">
        <ele>1060.82</ele>
        <time>2024-12-27T09:22:54Z</time>
      </trkpt>
      <trkpt lat="46.22219" lon="6.556">
        <ele>1028.166</ele>
        <time>2024-12-27T09:22:59Z</time>
      </trkpt>
      <trkpt lat="46.22219" lon="6.55603">
        <ele>1021.341</ele>
        <time>2024-12-27T09:23:04Z</time>
      </trkpt>
      <trkpt lat="46.22214" lon="6.55608">
        <ele>1062.049</ele>
        <time>2024-12-27T09:23:09Z</time>
      </trkpt>
      <trkpt lat="46.22199" lon="6.55673">
        <ele>1080.85</ele>
        <time>2024-12-27T09:23:14Z</time>
      </trkpt>
      <trkpt lat="46.22189" lon="6.55689">
        <ele>1101.09</ele>
        <time>2024-12-27T09:23:19Z</time>
      </trkpt>
      <trkpt lat="46.22186" lon="6.55703">
        <ele>1117.975</ele>
        <time>2024-12-27T09:23:24Z</time>
      </trkpt>
      <trkpt lat="46.22183" lon="6.55709">
        <ele>1143.927</ele>
        <time>2024-12-27T09:23:29Z</time>
      </trkpt>
      <trkpt lat="46.2215" lon="6.55645">
        <ele>1207.324</ele>
        <time>2024-12-27T09:23:39Z</time>
      </trkpt>
      <trkpt lat="46.22161" lon="6.55649">
        <ele>1159.749</ele>
        <time>2024-12-27T09:23:43Z</time>
      </trkpt>
      <trkpt lat="46.22161" lon="6.55649">
        <ele>1169.362</ele>
        <time>2024-12-27T09:23:47Z</time>
      </trkpt>
      <trkpt lat="46.22161" lon="6.55649">
        <ele>1143.681</ele>
        <time>2024-12-27T09:23:52Z</time>
      </trkpt>
      <trkpt lat="46.22161" lon="6.55649">
        <ele>1146.99</ele>
        <time>2024-12-27T09:23:57Z</time>
      </trkpt>
      <trkpt lat="46.22161" lon="6.55649">
        <ele>1147.81</ele>
        <time>2024-12-27T09:24:02Z</time>
      </trkpt>
      <trkpt lat="46.22161" lon="6.55649">
        <ele>1148.29</ele>
        <time>2024-12-27T09:24:07Z</time>
      </trkpt>
      <trkpt lat="46.22165" lon="6.55665">
        <ele>1147.283</ele>
        <time>2024-12-27T09:24:12Z</time>
      </trkpt>
      <trkpt lat="46.22165" lon="6.55666">
        <ele>1147.668</ele>
        <time>2024-12-27T09:24:17Z</time>
      </trkpt>
      <trkpt lat="46.22165" lon="6.55666">
        <ele>1147.711</ele>
        <time>2024-12-27T09:24:22Z</time>
      </trkpt>
      <trkpt lat="46.22165" lon="6.55667">
        <ele>1148.631</ele>
        <time>2024-12-27T09:24:27Z</time>
      </trkpt>
      <trkpt lat="46.22165" lon="6.55668">
        <ele>1147.898</ele>
        <time>2024-12-27T09:24:32Z</time>
      </trkpt>
      <trkpt lat="46.22166" lon="6.55667">
        <ele>1146.044</ele>
        <time>2024-12-27T09:24:37Z</time>
      </trkpt>
      <trkpt lat="46.22166" lon="6.55667">
        <ele>1143.852</ele>
        <time>2024-12-27T09:24:42Z</time>
      </trkpt>
      <trkpt lat="46.22183" lon="6.55701">
        <ele>1161.332</ele>
        <time>2024-12-27T09:24:47Z</time>
      </trkpt>
      <trkpt lat="46.22189" lon="6.55699">
        <ele>1159.341</ele>
        <time>2024-12-27T09:24:52Z</time>
      </trkpt>
      <trkpt lat="46.2219" lon="6.55698">
        <ele>1160.013</ele>
        <time>2024-12-27T09:24:57Z</time>
      </trkpt>
      <trkpt lat="46.22193" lon="6.55697">
        <ele>1160.104</ele>
        <time>2024-12-27T09:25:02Z</time>
      </trkpt>
      <trkpt lat="46.22196" lon="6.55695">
        <ele>1160.656</ele>
        <time>2024-12-27T09:25:07Z</time>
      </trkpt>
      <trkpt lat="46.22199" lon="6.55696">
        <ele>1161.084</ele>
        <time>2024-12-27T09:25:12Z</time>
      </trkpt>
      <trkpt lat="46.22201" lon="6.55693">
        <ele>1162.049</ele>
        <time>2024-12-27T09:25:17Z</time>
      </trkpt>
      <trkpt lat="46.22204" lon="6.5569">
        <ele>1161.345</ele>
        <time>2024-12-27T09:25:22Z</time>
      </trkpt>
      <trkpt lat="46.22212" lon="6.5568">
        <ele>1160.028</ele>
        <time>2024-12-27T09:25:27Z</time>
      </trkpt>
      <trkpt lat="46.22217" lon="6.55679">
        <ele>1158.384</ele>
        <time>2024-12-27T09:25:32Z</time>
      </trkpt>
      <trkpt lat="46.22219" lon="6.55683">
        <ele>1161.605</ele>
        <time>2024-12-27T09:25:37Z</time>
      </trkpt>
      <trkpt lat="46.2222" lon="6.55688">
        <ele>1161.955</ele>
        <time>2024-12-27T09:25:42Z</time>
      </trkpt>
      <trkpt lat="46.22224" lon="6.5569">
        <ele>1160.779</ele>
        <time>2024-12-27T09:25:47Z</time>
      </trkpt>
      <trkpt lat="46.2223" lon="6.55687">
        <ele>1163.489</ele>
        <time>2024-12-27T09:25:52Z</time>
      </trkpt>
      <trkpt lat="46.22234" lon="6.55685">
        <ele>1164.254</ele>
        <time>2024-12-27T09:25:57Z</time>
      </trkpt>
      <trkpt lat="46.22238" lon="6.55684">
        <ele>1164.91</ele>
        <time>2024-12-27T09:26:02Z</time>
      </trkpt>
      <trkpt lat="46.2224" lon="6.55689">
        <ele>1161.584</ele>
        <time>2024-12-27T09:26:07Z</time>
      </trkpt>
      <trkpt lat="46.2224" lon="6.55696">
        <ele>1164.822</ele>
        <time>2024-12-27T09:26:12Z</time>
      </trkpt>
      <trkpt lat="46.22239" lon="6.55702">
        <ele>1167.07</ele>
        <time>2024-12-27T09:26:17Z</time>
      </trkpt>
      <trkpt lat="46.2224" lon="6.55707">
        <ele>1169.199</ele>
        <time>2024-12-27T09:26:22Z</time>
      </trkpt>
      <trkpt lat="46.22242" lon="6.55715">
        <ele>1164.901</ele>
        <time>2024-12-27T09:26:27Z</time>
      </trkpt>
      <trkpt lat="46.22245" lon="6.55716">
        <ele>1163.523</ele>
        <time>2024-12-27T09:26:32Z</time>
      </trkpt>
      <trkpt lat="46.22248" lon="6.55717">
        <ele>1162.899</ele>
        <time>2024-12-27T09:26:37Z</time>
      </trkpt>
      <trkpt lat="46.22251" lon="6.55723">
        <ele>1161.283</ele>
        <time>2024-12-27T09:26:42Z</time>
      </trkpt>
      <trkpt lat="46.22253" lon="6.55727">
        <ele>1159.727</ele>
        <time>2024-12-27T09:26:47Z</time>
      </trkpt>
      <trkpt lat="46.22252" lon="6.55733">
        <ele>1162.161</ele>
        <time>2024-12-27T09:26:52Z</time>
      </trkpt>
      <trkpt lat="46.22252" lon="6.55742">
        <ele>1162.705</ele>
        <time>2024-12-27T09:26:57Z</time>
      </trkpt>
      <trkpt lat="46.22252" lon="6.55749">
        <ele>1162.89</ele>
        <time>2024-12-27T09:27:02Z</time>
      </trkpt>
      <trkpt lat="46.22255" lon="6.55747">
        <ele>1164.736</ele>
        <time>2024-12-27T09:27:07Z</time>
      </trkpt>
      <trkpt lat="46.22257" lon="6.5575">
        <ele>1165.051</ele>
        <time>2024-12-27T09:27:12Z</time>
      </trkpt>
      <trkpt lat="46.22262" lon="6.55748">
        <ele>1167.267</ele>
        <time>2024-12-27T09:27:17Z</time>
      </trkpt>
      <trkpt lat="46.22264" lon="6.55751">
        <ele>1171.511</ele>
        <time>2024-12-27T09:27:22Z</time>
      </trkpt>
      <trkpt lat="46.22262" lon="6.55758">
        <ele>1170.604</ele>
        <time>2024-12-27T09:27:27Z</time>
      </trkpt>
      <trkpt lat="46.22261" lon="6.55766">
        <ele>1173.543</ele>
        <time>2024-12-27T09:27:32Z</time>
      </trkpt>
      <trkpt lat="46.22264" lon="6.55762">
        <ele>1174.352</ele>
        <time>2024-12-27T09:27:37Z</time>
      </trkpt>
      <trkpt lat="46.22268" lon="6.55762">
        <ele>1176.657</ele>
        <time>2024-12-27T09:27:42Z</time>
      </trkpt>
      <trkpt lat="46.22272" lon="6.55755">
        <ele>1178.898</ele>
        <time>2024-12-27T09:27:47Z</time>
      </trkpt>
      <trkpt lat="46.22275" lon="6.55754">
        <ele>1179.859</ele>
        <time>2024-12-27T09:27:52Z</time>
      </trkpt>
      <trkpt lat="46.22278" lon="6.55751">
        <ele>1182.468</ele>
        <time>2024-12-27T09:27:57Z</time>
      </trkpt>
      <trkpt lat="46.2228" lon="6.55746">
        <ele>1184.029</ele>
        <time>2024-12-27T09:28:02Z</time>
      </trkpt>
      <trkpt lat="46.22285" lon="6.55743">
        <ele>1188.827</ele>
        <time>2024-12-27T09:28:07Z</time>
      </trkpt>
      <trkpt lat="46.22289" lon="6.55739">
        <ele>1186.694</ele>
        <time>2024-12-27T09:28:12Z</time>
      </trkpt>
      <trkpt lat="46.22287" lon="6.55736">
        <ele>1186.144</ele>
        <time>2024-12-27T09:28:17Z</time>
      </trkpt>
      <trkpt lat="46.22287" lon="6.55731">
        <ele>1186.61</ele>
        <time>2024-12-27T09:28:22Z</time>
      </trkpt>
      <trkpt lat="46.22285" lon="6.55728">
        <ele>1184.614</ele>
        <time>2024-12-27T09:28:27Z</time>
      </trkpt>
      <trkpt lat="46.22283" lon="6.55725">
        <ele>1185.708</ele>
        <time>2024-12-27T09:28:32Z</time>
      </trkpt>
      <trkpt lat="46.22283" lon="6.55718">
        <ele>1185.916</ele>
        <time>2024-12-27T09:28:37Z</time>
      </trkpt>
      <trkpt lat="46.22282" lon="6.55714">
        <ele>1181.351</ele>
        <time>2024-12-27T09:28:42Z</time>
      </trkpt>
      <trkpt lat="46.22283" lon="6.5571">
        <ele>1178.972</ele>
        <time>2024-12-27T09:28:47Z</time>
      </trkpt>
      <trkpt lat="46.22283" lon="6.55704">
        <ele>1178.979</ele>
        <time>2024-12-27T09:28:52Z</time>
      </trkpt>
      <trkpt lat="46.22283" lon="6.55697">
        <ele>1181.763</ele>
        <time>2024-12-27T09:28:57Z</time>
      </trkpt>
      <trkpt lat="46.22285" lon="6.5569">
        <ele>1178.104</ele>
        <time>2024-12-27T09:29:02Z</time>
      </trkpt>
      <trkpt lat="46.22286" lon="6.55684">
        <ele>1177.946</ele>
        <time>2024-12-27T09:29:07Z</time>
      </trkpt>
      <trkpt lat="46.22287" lon="6.5568">
        <ele>1178.233</ele>
        <time>2024-12-27T09:29:12Z</time>
      </trkpt>
      <trkpt lat="46.22287" lon="6.55675">
        <ele>1179.889</ele>
        <time>2024-12-27T09:29:17Z</time>
      </trkpt>
      <trkpt lat="46.22289" lon="6.55668">
        <ele>1179.09</ele>
        <time>2024-12-27T09:29:22Z</time>
      </trkpt>
      <trkpt lat="46.22291" lon="6.55662">
        <ele>1176.911</ele>
        <time>2024-12-27T09:29:27Z</time>
      </trkpt>
      <trkpt lat="46.22293" lon="6.55657">
        <ele>1179.047</ele>
        <time>2024-12-27T09:29:32Z</time>
      </trkpt>
      <trkpt lat="46.22294" lon="6.55651">
        <ele>1179.009</ele>
        <time>2024-12-27T09:29:37Z</time>
      </trkpt>
      <trkpt lat="46.22297" lon="6.55649">
        <ele>1180.353</ele>
        <time>2024-12-27T09:29:42Z</time>
      </trkpt>
      <trkpt lat="46.22301" lon="6.55647">
        <ele>1178.653</ele>
        <time>2024-12-27T09:29:47Z</time>
      </trkpt>
      <trkpt lat="46.22303" lon="6.55642">
        <ele>1177.931</ele>
        <time>2024-12-27T09:29:52Z</time>
      </trkpt>
      <trkpt lat="46.22307" lon="6.55638">
        <ele>1177.854</ele>
        <time>2024-12-27T09:29:57Z</time>
      </trkpt>
      <trkpt lat="46.22309" lon="6.55634">
        <ele>1177.901</ele>
        <time>2024-12-27T09:30:02Z</time>
      </trkpt>
      <trkpt lat="46.2231" lon="6.55635">
        <ele>1177.382</ele>
        <time>2024-12-27T09:30:07Z</time>
      </trkpt>
      <trkpt lat="46.22311" lon="6.55641">
        <ele>1177.604</ele>
        <time>2024-12-27T09:30:12Z</time>
      </trkpt>
      <trkpt lat="46.22312" lon="6.55644">
        <ele>1179.723</ele>
        <time>2024-12-27T09:30:17Z</time>
      </trkpt>
      <trkpt lat="46.22316" lon="6.55642">
        <ele>1180.07</ele>
        <time>2024-12-27T09:30:22Z</time>
      </trkpt>
      <trkpt lat="46.2232" lon="6.55638">
        <ele>1179.614</ele>
        <time>2024-12-27T09:30:27Z</time>
      </trkpt>
      <trkpt lat="46.22321" lon="6.55637">
        <ele>1179.688</ele>
        <time>2024-12-27T09:30:32Z</time>
      </trkpt>
      <trkpt lat="46.22322" lon="6.55639">
        <ele>1183.867</ele>
        <time>2024-12-27T09:30:37Z</time>
      </trkpt>
      <trkpt lat="46.22324" lon="6.55642">
        <ele>1183.073</ele>
        <time>2024-12-27T09:30:42Z</time>
      </trkpt>
      <trkpt lat="46.22325" lon="6.55643">
        <ele>1183.779</ele>
        <time>2024-12-27T09:30:47Z</time>
      </trkpt>
      <trkpt lat="46.22326" lon="6.55645">
        <ele>1183.387</ele>
        <time>2024-12-27T09:30:52Z</time>
      </trkpt>
      <trkpt lat="46.2233" lon="6.55644">
        <ele>1184.208</ele>
        <time>2024-12-27T09:30:57Z</time>
      </trkpt>
      <trkpt lat="46.22333" lon="6.55644">
        <ele>1185.953</ele>
        <time>2024-12-27T09:31:02Z</time>
      </trkpt>
      <trkpt lat="46.22335" lon="6.55647">
        <ele>1186.713</ele>
        <time>2024-12-27T09:31:07Z</time>
      </trkpt>
      <trkpt lat="46.22338" lon="6.55646">
        <ele>1188.801</ele>
        <time>2024-12-27T09:31:12Z</time>
      </trkpt>
      <trkpt lat="46.22342" lon="6.55645">
        <ele>1188.817</ele>
        <time>2024-12-27T09:31:17Z</time>
      </trkpt>
      <trkpt lat="46.22346" lon="6.55644">
        <ele>1187.989</ele>
        <time>2024-12-27T09:31:22Z</time>
      </trkpt>
      <trkpt lat="46.2235" lon="6.55646">
        <ele>1188.501</ele>
        <time>2024-12-27T09:31:27Z</time>
      </trkpt>
      <trkpt lat="46.22354" lon="6.55643">
        <ele>1189.693</ele>
        <time>2024-12-27T09:31:32Z</time>
      </trkpt>
      <trkpt lat="46.22356" lon="6.55645">
        <ele>1191.28</ele>
        <time>2024-12-27T09:31:37Z</time>
      </trkpt>
      <trkpt lat="46.22354" lon="6.55655">
        <ele>1191.845</ele>
        <time>2024-12-27T09:31:42Z</time>
      </trkpt>
      <trkpt lat="46.22356" lon="6.55655">
        <ele>1193.015</ele>
        <time>2024-12-27T09:31:47Z</time>
      </trkpt>
      <trkpt lat="46.22359" lon="6.55655">
        <ele>1193.324</ele>
        <time>2024-12-27T09:31:52Z</time>
      </trkpt>
      <trkpt lat="46.22361" lon="6.55655">
        <ele>1193.534</ele>
        <time>2024-12-27T09:31:57Z</time>
      </trkpt>
      <trkpt lat="46.22366" lon="6.55653">
        <ele>1194.425</ele>
        <time>2024-12-27T09:32:02Z</time>
      </trkpt>
      <trkpt lat="46.22367" lon="6.55652">
        <ele>1197.186</ele>
        <time>2024-12-27T09:32:07Z</time>
      </trkpt>
      <trkpt lat="46.2237" lon="6.55651">
        <ele>1196.832</ele>
        <time>2024-12-27T09:32:12Z</time>
      </trkpt>
      <trkpt lat="46.22372" lon="6.55651">
        <ele>1197.387</ele>
        <time>2024-12-27T09:32:17Z</time>
      </trkpt>
      <trkpt lat="46.22373" lon="6.55653">
        <ele>1195.829</ele>
        <time>2024-12-27T09:32:22Z</time>
      </trkpt>
      <trkpt lat="46.22375" lon="6.55653">
        <ele>1194.263</ele>
        <time>2024-12-27T09:32:27Z</time>
      </trkpt>
      <trkpt lat="46.22379" lon="6.55653">
        <ele>1193.644</ele>
        <time>2024-12-27T09:32:32Z</time>
      </trkpt>
      <trkpt lat="46.22382" lon="6.55654">
        <ele>1195.139</ele>
        <time>2024-12-27T09:32:37Z</time>
      </trkpt>
      <trkpt lat="46.22385" lon="6.55652">
        <ele>1194.237</ele>
        <time>2024-12-27T09:32:42Z</time>
      </trkpt>
      <trkpt lat="46.22387" lon="6.55651">
        <ele>1194.785</ele>
        <time>2024-12-27T09:32:47Z</time>
      </trkpt>
      <trkpt lat="46.22389" lon="6.55653">
        <ele>1197.628</ele>
        <time>2024-12-27T09:32:52Z</time>
      </trkpt>
      <trkpt lat="46.22391" lon="6.55654">
        <ele>1197.509</ele>
        <time>2024-12-27T09:32:57Z</time>
      </trkpt>
      <trkpt lat="46.22393" lon="6.55656">
        <ele>1199.481</ele>
        <time>2024-12-27T09:33:02Z</time>
      </trkpt>
      <trkpt lat="46.22395" lon="6.55658">
        <ele>1199.587</ele>
        <time>2024-12-27T09:33:07Z</time>
      </trkpt>
      <trkpt lat="46.22396" lon="6.5566">
        <ele>1200.135</ele>
        <time>2024-12-27T09:33:12Z</time>
      </trkpt>
      <trkpt lat="46.22397" lon="6.55662">
        <ele>1201.319</ele>
        <time>2024-12-27T09:33:17Z</time>
      </trkpt>
      <trkpt lat="46.224" lon="6.55663">
        <ele>1202.752</ele>
        <time>2024-12-27T09:33:22Z</time>
      </trkpt>
      <trkpt lat="46.22402" lon="6.55663">
        <ele>1204.45</ele>
        <time>2024-12-27T09:33:27Z</time>
      </trkpt>
      <trkpt lat="46.22405" lon="6.55662">
        <ele>1204.725</ele>
        <time>2024-12-27T09:33:32Z</time>
      </trkpt>
      <trkpt lat="46.22409" lon="6.55661">
        <ele>1206.163</ele>
        <time>2024-12-27T09:33:37Z</time>
      </trkpt>
      <trkpt lat="46.22412" lon="6.55662">
        <ele>1203.844</ele>
        <time>2024-12-27T09:33:42Z</time>
      </trkpt>
      <trkpt lat="46.22415" lon="6.55663">
        <ele>1201.265</ele>
        <time>2024-12-27T09:33:47Z</time>
      </trkpt>
      <trkpt lat="46.22417" lon="6.55664">
        <ele>1203.349</ele>
        <time>2024-12-27T09:33:52Z</time>
      </trkpt>
      <trkpt lat="46.22419" lon="6.55666">
        <ele>1203.46</ele>
        <time>2024-12-27T09:33:57Z</time>
      </trkpt>
      <trkpt lat="46.22422" lon="6.55666">
        <ele>1202.424</ele>
        <time>2024-12-27T09:34:02Z</time>
      </trkpt>
      <trkpt lat="46.22427" lon="6.55666">
        <ele>1201.265</ele>
        <time>2024-12-27T09:34:07Z</time>
      </trkpt>
      <trkpt lat="46.2243" lon="6.55666">
        <ele>1201.07</ele>
        <time>2024-12-27T09:34:12Z</time>
      </trkpt>
      <trkpt lat="46.22432" lon="6.55667">
        <ele>1200.875</ele>
        <time>2024-12-27T09:34:17Z</time>
      </trkpt>
      <trkpt lat="46.22436" lon="6.55667">
        <ele>1199.509</ele>
        <time>2024-12-27T09:34:22Z</time>
      </trkpt>
      <trkpt lat="46.22438" lon="6.55669">
        <ele>1202.199</ele>
        <time>2024-12-27T09:34:27Z</time>
      </trkpt>
      <trkpt lat="46.22441" lon="6.55669">
        <ele>1201.032</ele>
        <time>2024-12-27T09:34:32Z</time>
      </trkpt>
      <trkpt lat="46.22445" lon="6.55669">
        <ele>1201.589</ele>
        <time>2024-12-27T09:34:37Z</time>
      </trkpt>
      <trkpt lat="46.22449" lon="6.55668">
        <ele>1201.878</ele>
        <time>2024-12-27T09:34:42Z</time>
      </trkpt>
      <trkpt lat="46.22452" lon="6.55666">
        <ele>1201.265</ele>
        <time>2024-12-27T09:34:47Z</time>
      </trkpt>
      <trkpt lat="46.22454" lon="6.55667">
        <ele>1200.339</ele>
        <time>2024-12-27T09:34:52Z</time>
      </trkpt>
      <trkpt lat="46.22456" lon="6.55669">
        <ele>1203.248</ele>
        <time>2024-12-27T09:34:57Z</time>
      </trkpt>
      <trkpt lat="46.22457" lon="6.5567">
        <ele>1208.785</ele>
        <time>2024-12-27T09:35:02Z</time>
      </trkpt>
      <trkpt lat="46.22457" lon="6.5567">
        <ele>1210.011</ele>
        <time>2024-12-27T09:35:07Z</time>
      </trkpt>
      <trkpt lat="46.22457" lon="6.5567">
        <ele>1210.461</ele>
        <time>2024-12-27T09:35:12Z</time>
      </trkpt>
      <trkpt lat="46.22457" lon="6.5567">
        <ele>1212.08</ele>
        <time>2024-12-27T09:35:17Z</time>
      </trkpt>
      <trkpt lat="46.22457" lon="6.5567">
        <ele>1212.043</ele>
        <time>2024-12-27T09:35:22Z</time>
      </trkpt>
      <trkpt lat="46.22457" lon="6.5567">
        <ele>1210.871</ele>
        <time>2024-12-27T09:35:27Z</time>
      </trkpt>
      <trkpt lat="46.22457" lon="6.5567">
        <ele>1212.394</ele>
        <time>2024-12-27T09:35:32Z</time>
      </trkpt>
      <trkpt lat="46.22457" lon="6.5567">
        <ele>1212.21</ele>
        <time>2024-12-27T09:35:37Z</time>
      </trkpt>
      <trkpt lat="46.22459" lon="6.5567">
        <ele>1208.694</ele>
        <time>2024-12-27T09:35:42Z</time>
      </trkpt>
      <trkpt lat="46.22461" lon="6.55672">
        <ele>1209.591</ele>
        <time>2024-12-27T09:35:47Z</time>
      </trkpt>
      <trkpt lat="46.22461" lon="6.55673">
        <ele>1209.877</ele>
        <time>2024-12-27T09:35:52Z</time>
      </trkpt>
      <trkpt lat="46.22461" lon="6.55678">
        <ele>1212.349</ele>
        <time>2024-12-27T09:35:57Z</time>
      </trkpt>
      <trkpt lat="46.2246" lon="6.55681">
        <ele>1212.304</ele>
        <time>2024-12-27T09:36:02Z</time>
      </trkpt>
      <trkpt lat="46.22459" lon="6.55687">
        <ele>1211.855</ele>
        <time>2024-12-27T09:36:07Z</time>
      </trkpt>
      <trkpt lat="46.22458" lon="6.55692">
        <ele>1210.997</ele>
        <time>2024-12-27T09:36:12Z</time>
      </trkpt>
      <trkpt lat="46.22457" lon="6.55698">
        <ele>1210.437</ele>
        <time>2024-12-27T09:36:17Z</time>
      </trkpt>
      <trkpt lat="46.22456" lon="6.55702">
        <ele>1212.461</ele>
        <time>2024-12-27T09:36:22Z</time>
      </trkpt>
      <trkpt lat="46.22457" lon="6.55707">
        <ele>1211.804</ele>
        <time>2024-12-27T09:36:27Z</time>
      </trkpt>
      <trkpt lat="46.22457" lon="6.55712">
        <ele>1213.638</ele>
        <time>2024-12-27T09:36:32Z</time>
      </trkpt>
      <trkpt lat="46.22457" lon="6.55717">
        <ele>1215.241</ele>
        <time>2024-12-27T09:36:37Z</time>
      </trkpt>
      <trkpt lat="46.22457" lon="6.55722">
        <ele>1216.115</ele>
        <time>2024-12-27T09:36:42Z</time>
      </trkpt>
      <trkpt lat="46.22458" lon="6.55727">
        <ele>1215.521</ele>
        <time>2024-12-27T09:36:47Z</time>
      </trkpt>
      <trkpt lat="46.2246" lon="6.55731">
        <ele>1216.097</ele>
        <time>2024-12-27T09:36:52Z</time>
      </trkpt>
      <trkpt lat="46.22464" lon="6.5573">
        <ele>1218.593</ele>
        <time>2024-12-27T09:36:57Z</time>
      </trkpt>
      <trkpt lat="46.22467" lon="6.55727">
        <ele>1218.161</ele>
        <time>2024-12-27T09:37:02Z</time>
      </trkpt>
      <trkpt lat="46.22469" lon="6.55724">
        <ele>1218.587</ele>
        <time>2024-12-27T09:37:07Z</time>
      </trkpt>
      <trkpt lat="46.22471" lon="6.55719">
        <ele>1220.032</ele>
        <time>2024-12-27T09:37:12Z</time>
      </trkpt>
      <trkpt lat="46.22472" lon="6.55713">
        <ele>1221.488</ele>
        <time>2024-12-27T09:37:17Z</time>
      </trkpt>
      <trkpt lat="46.22474" lon="6.55708">
        <ele>1221.148</ele>
        <time>2024-12-27T09:37:22Z</time>
      </trkpt>
      <trkpt lat="46.22475" lon="6.55703">
        <ele>1223.162</ele>
        <time>2024-12-27T09:37:27Z</time>
      </trkpt>
      <trkpt lat="46.22477" lon="6.55699">
        <ele>1223.46</ele>
        <time>2024-12-27T09:37:32Z</time>
      </trkpt>
      <trkpt lat="46.22479" lon="6.55694">
        <ele>1223.11</ele>
        <time>2024-12-27T09:37:37Z</time>
      </trkpt>
      <trkpt lat="46.22481" lon="6.5569">
        <ele>1221.559</ele>
        <time>2024-12-27T09:37:42Z</time>
      </trkpt>
      <trkpt lat="46.22481" lon="6.55685">
        <ele>1222.493</ele>
        <time>2024-12-27T09:37:47Z</time>
      </trkpt>
      <trkpt lat="46.2248" lon="6.55681">
        <ele>1224.22</ele>
        <time>2024-12-27T09:37:52Z</time>
      </trkpt>
      <trkpt lat="46.22483" lon="6.55678">
        <ele>1223.427</ele>
        <time>2024-12-27T09:37:57Z</time>
      </trkpt>
      <trkpt lat="46.22485" lon="6.55673">
        <ele>1223.893</ele>
        <time>2024-12-27T09:38:02Z</time>
      </trkpt>
      <trkpt lat="46.22487" lon="6.55671">
        <ele>1224.068</ele>
        <time>2024-12-27T09:38:07Z</time>
      </trkpt>
      <trkpt lat="46.22491" lon="6.55667">
        <ele>1223.075</ele>
        <time>2024-12-27T09:38:12Z</time>
      </trkpt>
      <trkpt lat="46.22494" lon="6.55664">
        <ele>1223.072</ele>
        <time>2024-12-27T09:38:17Z</time>
      </trkpt>
      <trkpt lat="46.22497" lon="6.5566">
        <ele>1222.003</ele>
        <time>2024-12-27T09:38:22Z</time>
      </trkpt>
      <trkpt lat="46.22498" lon="6.55656">
        <ele>1223.053</ele>
        <time>2024-12-27T09:38:27Z</time>
      </trkpt>
      <trkpt lat="46.22499" lon="6.55652">
        <ele>1225.084</ele>
        <time>2024-12-27T09:38:32Z</time>
      </trkpt>
      <trkpt lat="46.225" lon="6.55647">
        <ele>1225.498</ele>
        <time>2024-12-27T09:38:37Z</time>
      </trkpt>
      <trkpt lat="46.22504" lon="6.55648">
        <ele>1225.651</ele>
        <time>2024-12-27T09:38:42Z</time>
      </trkpt>
      <trkpt lat="46.22507" lon="6.55648">
        <ele>1224.912</ele>
        <time>2024-12-27T09:38:47Z</time>
      </trkpt>
      <trkpt lat="46.22509" lon="6.55645">
        <ele>1225.819</ele>
        <time>2024-12-27T09:38:52Z</time>
      </trkpt>
      <trkpt lat="46.22509" lon="6.55644">
        <ele>1225.731</ele>
        <time>2024-12-27T09:38:57Z</time>
      </trkpt>
      <trkpt lat="46.2251" lon="6.55642">
        <ele>1226.588</ele>
        <time>2024-12-27T09:39:02Z</time>
      </trkpt>
      <trkpt lat="46.22511" lon="6.5564">
        <ele>1227.289</ele>
        <time>2024-12-27T09:39:07Z</time>
      </trkpt>
      <trkpt lat="46.22513" lon="6.55639">
        <ele>1227.947</ele>
        <time>2024-12-27T09:39:12Z</time>
      </trkpt>
      <trkpt lat="46.22515" lon="6.55637">
        <ele>1229.6</ele>
        <time>2024-12-27T09:39:17Z</time>
      </trkpt>
      <trkpt lat="46.22517" lon="6.55634">
        <ele>1229.068</ele>
        <time>2024-12-27T09:39:22Z</time>
      </trkpt>
      <trkpt lat="46.22518" lon="6.55633">
        <ele>1231.184</ele>
        <time>2024-12-27T09:39:27Z</time>
      </trkpt>
      <trkpt lat="46.2252" lon="6.55632">
        <ele>1230.014</ele>
        <time>2024-12-27T09:39:32Z</time>
      </trkpt>
      <trkpt lat="46.22521" lon="6.5563">
        <ele>1232.06</ele>
        <time>2024-12-27T09:39:37Z</time>
      </trkpt>
      <trkpt lat="46.22522" lon="6.55628">
        <ele>1233.325</ele>
        <time>2024-12-27T09:39:42Z</time>
      </trkpt>
      <trkpt lat="46.22524" lon="6.55627">
        <ele>1232.219</ele>
        <time>2024-12-27T09:39:47Z</time>
      </trkpt>
      <trkpt lat="46.22525" lon="6.55624">
        <ele>1233.78</ele>
        <time>2024-12-27T09:39:52Z</time>
      </trkpt>
      <trkpt lat="46.22526" lon="6.55622">
        <ele>1234.166</ele>
        <time>2024-12-27T09:39:57Z</time>
      </trkpt>
      <trkpt lat="46.22527" lon="6.5562">
        <ele>1235.807</ele>
        <time>2024-12-27T09:40:02Z</time>
      </trkpt>
      <trkpt lat="46.22529" lon="6.55618">
        <ele>1238.764</ele>
        <time>2024-12-27T09:40:07Z</time>
      </trkpt>
      <trkpt lat="46.22531" lon="6.55616">
        <ele>1237.527</ele>
        <time>2024-12-27T09:40:12Z</time>
      </trkpt>
      <trkpt lat="46.22533" lon="6.55614">
        <ele>1237.037</ele>
        <time>2024-12-27T09:40:17Z</time>
      </trkpt>
      <trkpt lat="46.22534" lon="6.55612">
        <ele>1238.001</ele>
        <time>2024-12-27T09:40:22Z</time>
      </trkpt>
      <trkpt lat="46.22536" lon="6.5561">
        <ele>1237.633</ele>
        <time>2024-12-27T09:40:27Z</time>
      </trkpt>
      <trkpt lat="46.22538" lon="6.55607">
        <ele>1238.166</ele>
        <time>2024-12-27T09:40:32Z</time>
      </trkpt>
      <trkpt lat="46.22539" lon="6.55605">
        <ele>1240.653</ele>
        <time>2024-12-27T09:40:37Z</time>
      </trkpt>
      <trkpt lat="46.22541" lon="6.55603">
        <ele>1241.568</ele>
        <time>2024-12-27T09:40:42Z</time>
      </trkpt>
      <trkpt lat="46.22543" lon="6.55601">
        <ele>1242.819</ele>
        <time>2024-12-27T09:40:47Z</time>
      </trkpt>
      <trkpt lat="46.22545" lon="6.55598">
        <ele>1242.395</ele>
        <time>2024-12-27T09:40:52Z</time>
      </trkpt>
      <trkpt lat="46.22546" lon="6.55598">
        <ele>1242.926</ele>
        <time>2024-12-27T09:40:57Z</time>
      </trkpt>
      <trkpt lat="46.22547" lon="6.55598">
        <ele>1242.999</ele>
        <time>2024-12-27T09:41:02Z</time>
      </trkpt>
      <trkpt lat="46.22547" lon="6.55598">
        <ele>1241.708</ele>
        <time>2024-12-27T09:41:07Z</time>
      </trkpt>
      <trkpt lat="46.22547" lon="6.55598">
        <ele>1241.706</ele>
        <time>2024-12-27T09:41:12Z</time>
      </trkpt>
      <trkpt lat="46.22547" lon="6.55598">
        <ele>1241.706</ele>
        <time>2024-12-27T09:41:17Z</time>
      </trkpt>
      <trkpt lat="46.22547" lon="6.55598">
        <ele>1241.398</ele>
        <time>2024-12-27T09:41:22Z</time>
      </trkpt>
      <trkpt lat="46.22547" lon="6.55598">
        <ele>1241.376</ele>
        <time>2024-12-27T09:41:27Z</time>
      </trkpt>
      <trkpt lat="46.22547" lon="6.55598">
        <ele>1241.363</ele>
        <time>2024-12-27T09:41:32Z</time>
      </trkpt>
      <trkpt lat="46.22547" lon="6.55598">
        <ele>1241.348</ele>
        <time>2024-12-27T09:41:37Z</time>
      </trkpt>
      <trkpt lat="46.22547" lon="6.55598">
        <ele>1241.349</ele>
        <time>2024-12-27T09:41:42Z</time>
      </trkpt>
      <trkpt lat="46.22547" lon="6.55598">
        <ele>1241.342</ele>
        <time>2024-12-27T09:41:47Z</time>
      </trkpt>
      <trkpt lat="46.22547" lon="6.55598">
        <ele>1241.336</ele>
        <time>2024-12-27T09:41:52Z</time>
      </trkpt>
      <trkpt lat="46.22547" lon="6.55598">
        <ele>1241.431</ele>
        <time>2024-12-27T09:41:57Z</time>
      </trkpt>
      <trkpt lat="46.22547" lon="6.55598">
        <ele>1241.437</ele>
        <time>2024-12-27T09:42:02Z</time>
      </trkpt>
      <trkpt lat="46.22547" lon="6.55598">
        <ele>1241.427</ele>
        <time>2024-12-27T09:42:07Z</time>
      </trkpt>
      <trkpt lat="46.22547" lon="6.55598">
        <ele>1241.418</ele>
        <time>2024-12-27T09:42:12Z</time>
      </trkpt>
      <trkpt lat="46.22547" lon="6.55598">
        <ele>1241.407</ele>
        <time>2024-12-27T09:42:17Z</time>
      </trkpt>
      <trkpt lat="46.22547" lon="6.55598">
        <ele>1241.382</ele>
        <time>2024-12-27T09:42:22Z</time>
      </trkpt>
      <trkpt lat="46.22547" lon="6.55598">
        <ele>1241.37</ele>
        <time>2024-12-27T09:42:27Z</time>
      </trkpt>
      <trkpt lat="46.22547" lon="6.55598">
        <ele>1241.363</ele>
        <time>2024-12-27T09:42:32Z</time>
      </trkpt>
      <trkpt lat="46.22547" lon="6.55598">
        <ele>1241.35</ele>
        <time>2024-12-27T09:42:37Z</time>
      </trkpt>
      <trkpt lat="46.22547" lon="6.55598">
        <ele>1241.34</ele>
        <time>2024-12-27T09:42:42Z</time>
      </trkpt>
      <trkpt lat="46.22547" lon="6.55598">
        <ele>1241.32</ele>
        <time>2024-12-27T09:42:47Z</time>
      </trkpt>
      <trkpt lat="46.22547" lon="6.55598">
        <ele>1241.305</ele>
        <time>2024-12-27T09:42:52Z</time>
      </trkpt>
      <trkpt lat="46.22547" lon="6.55598">
        <ele>1241.301</ele>
        <time>2024-12-27T09:42:57Z</time>
      </trkpt>
      <trkpt lat="46.22547" lon="6.55598">
        <ele>1241.291</ele>
        <time>2024-12-27T09:43:02Z</time>
      </trkpt>
      <trkpt lat="46.22547" lon="6.55598">
        <ele>1241.279</ele>
        <time>2024-12-27T09:43:07Z</time>
      </trkpt>
      <trkpt lat="46.22547" lon="6.55598">
        <ele>1241.269</ele>
        <time>2024-12-27T09:43:12Z</time>
      </trkpt>
      <trkpt lat="46.22547" lon="6.55598">
        <ele>1241.268</ele>
        <time>2024-12-27T09:43:17Z</time>
      </trkpt>
      <trkpt lat="46.22547" lon="6.55598">
        <ele>1241.271</ele>
        <time>2024-12-27T09:43:22Z</time>
      </trkpt>
      <trkpt lat="46.22547" lon="6.55598">
        <ele>1241.268</ele>
        <time>2024-12-27T09:43:27Z</time>
      </trkpt>
      <trkpt lat="46.22547" lon="6.55598">
        <ele>1241.266</ele>
        <time>2024-12-27T09:43:32Z</time>
      </trkpt>
      <trkpt lat="46.22547" lon="6.55598">
        <ele>1241.257</ele>
        <time>2024-12-27T09:43:37Z</time>
      </trkpt>
      <trkpt lat="46.22547" lon="6.55598">
        <ele>1241.392</ele>
        <time>2024-12-27T09:43:42Z</time>
      </trkpt>
      <trkpt lat="46.22547" lon="6.55598">
        <ele>1241.384</ele>
        <time>2024-12-27T09:43:47Z</time>
      </trkpt>
      <trkpt lat="46.22547" lon="6.55598">
        <ele>1241.365</ele>
        <time>2024-12-27T09:43:52Z</time>
      </trkpt>
      <trkpt lat="46.22547" lon="6.55598">
        <ele>1241.354</ele>
        <time>2024-12-27T09:43:57Z</time>
      </trkpt>
      <trkpt lat="46.22547" lon="6.55598">
        <ele>1241.346</ele>
        <time>2024-12-27T09:44:02Z</time>
      </trkpt>
      <trkpt lat="46.22547" lon="6.55598">
        <ele>1241.35</ele>
        <time>2024-12-27T09:44:07Z</time>
      </trkpt>
      <trkpt lat="46.22547" lon="6.55598">
        <ele>1241.36</ele>
        <time>2024-12-27T09:44:12Z</time>
      </trkpt>
      <trkpt lat="46.22547" lon="6.55598">
        <ele>1241.351</ele>
        <time>2024-12-27T09:44:17Z</time>
      </trkpt>
      <trkpt lat="46.22547" lon="6.55598">
        <ele>1241.318</ele>
        <time>2024-12-27T09:44:22Z</time>
      </trkpt>
      <trkpt lat="46.22547" lon="6.55598">
        <ele>1241.292</ele>
        <time>2024-12-27T09:44:27Z</time>
      </trkpt>
      <trkpt lat="46.22547" lon="6.55598">
        <ele>1241.26</ele>
        <time>2024-12-27T09:44:32Z</time>
      </trkpt>
      <trkpt lat="46.22547" lon="6.55598">
        <ele>1241.245</ele>
        <time>2024-12-27T09:44:37Z</time>
      </trkpt>
      <trkpt lat="46.22547" lon="6.55598">
        <ele>1241.199</ele>
        <time>2024-12-27T09:44:42Z</time>
      </trkpt>
      <trkpt lat="46.22547" lon="6.55598">
        <ele>1241.158</ele>
        <time>2024-12-27T09:44:47Z</time>
      </trkpt>
      <trkpt lat="46.22547" lon="6.55598">
        <ele>1241.135</ele>
        <time>2024-12-27T09:44:52Z</time>
      </trkpt>
      <trkpt lat="46.22547" lon="6.55598">
        <ele>1241.111</ele>
        <time>2024-12-27T09:44:57Z</time>
      </trkpt>
      <trkpt lat="46.22547" lon="6.55598">
        <ele>1241.086</ele>
        <time>2024-12-27T09:45:02Z</time>
      </trkpt>
      <trkpt lat="46.22547" lon="6.55598">
        <ele>1241.068</ele>
        <time>2024-12-27T09:45:07Z</time>
      </trkpt>
      <trkpt lat="46.22547" lon="6.55598">
        <ele>1241.049</ele>
        <time>2024-12-27T09:45:12Z</time>
      </trkpt>
      <trkpt lat="46.22547" lon="6.55598">
        <ele>1241.03</ele>
        <time>2024-12-27T09:45:17Z</time>
      </trkpt>
      <trkpt lat="46.22547" lon="6.55598">
        <ele>1241.01</ele>
        <time>2024-12-27T09:45:22Z</time>
      </trkpt>
      <trkpt lat="46.22547" lon="6.55598">
        <ele>1240.986</ele>
        <time>2024-12-27T09:45:27Z</time>
      </trkpt>
      <trkpt lat="46.22547" lon="6.55598">
        <ele>1240.969</ele>
        <time>2024-12-27T09:45:32Z</time>
      </trkpt>
      <trkpt lat="46.22547" lon="6.55598">
        <ele>1240.95</ele>
        <time>2024-12-27T09:45:37Z</time>
      </trkpt>
      <trkpt lat="46.22547" lon="6.55598">
        <ele>1240.944</ele>
        <time>2024-12-27T09:45:42Z</time>
      </trkpt>
      <trkpt lat="46.22547" lon="6.55598">
        <ele>1240.928</ele>
        <time>2024-12-27T09:45:47Z</time>
      </trkpt>
      <trkpt lat="46.22547" lon="6.55598">
        <ele>1240.901</ele>
        <time>2024-12-27T09:45:52Z</time>
      </trkpt>
      <trkpt lat="46.22547" lon="6.55598">
        <ele>1240.878</ele>
        <time>2024-12-27T09:45:57Z</time>
      </trkpt>
      <trkpt lat="46.22547" lon="6.55598">
        <ele>1240.853</ele>
        <time>2024-12-27T09:46:02Z</time>
      </trkpt>
      <trkpt lat="46.22547" lon="6.55598">
        <ele>1240.826</ele>
        <time>2024-12-27T09:46:07Z</time>
      </trkpt>
      <trkpt lat="46.22547" lon="6.55598">
        <ele>1240.799</ele>
        <time>2024-12-27T09:46:12Z</time>
      </trkpt>
      <trkpt lat="46.22547" lon="6.55598">
        <ele>1240.779</ele>
        <time>2024-12-27T09:46:17Z</time>
      </trkpt>
      <trkpt lat="46.22547" lon="6.55598">
        <ele>1240.758</ele>
        <time>2024-12-27T09:46:22Z</time>
      </trkpt>
      <trkpt lat="46.22547" lon="6.55598">
        <ele>1240.721</ele>
        <time>2024-12-27T09:46:27Z</time>
      </trkpt>
      <trkpt lat="46.22547" lon="6.55598">
        <ele>1240.699</ele>
        <time>2024-12-27T09:46:32Z</time>
      </trkpt>
      <trkpt lat="46.22547" lon="6.55598">
        <ele>1240.782</ele>
        <time>2024-12-27T09:46:37Z</time>
      </trkpt>
      <trkpt lat="46.22549" lon="6.55596">
        <ele>1238.853</ele>
        <time>2024-12-27T09:46:42Z</time>
      </trkpt>
      <trkpt lat="46.22552" lon="6.55595">
        <ele>1238.256</ele>
        <time>2024-12-27T09:46:47Z</time>
      </trkpt>
      <trkpt lat="46.22554" lon="6.55592">
        <ele>1236.477</ele>
        <time>2024-12-27T09:46:52Z</time>
      </trkpt>
      <trkpt lat="46.22555" lon="6.55589">
        <ele>1236.469</ele>
        <time>2024-12-27T09:46:57Z</time>
      </trkpt>
      <trkpt lat="46.22557" lon="6.55586">
        <ele>1235.934</ele>
        <time>2024-12-27T09:47:02Z</time>
      </trkpt>
      <trkpt lat="46.2256" lon="6.55583">
        <ele>1236.044</ele>
        <time>2024-12-27T09:47:07Z</time>
      </trkpt>
      <trkpt lat="46.22561" lon="6.55582">
        <ele>1236.139</ele>
        <time>2024-12-27T09:47:12Z</time>
      </trkpt>
      <trkpt lat="46.22563" lon="6.5558">
        <ele>1237.332</ele>
        <time>2024-12-27T09:47:17Z</time>
      </trkpt>
      <trkpt lat="46.22566" lon="6.55577">
        <ele>1238.772</ele>
        <time>2024-12-27T09:47:22Z</time>
      </trkpt>
      <trkpt lat="46.22568" lon="6.55576">
        <ele>1237.767</ele>
        <time>2024-12-27T09:47:27Z</time>
      </trkpt>
      <trkpt lat="46.22571" lon="6.55575">
        <ele>1238.391</ele>
        <time>2024-12-27T09:47:32Z</time>
      </trkpt>
      <trkpt lat="46.22574" lon="6.55574">
        <ele>1239.155</ele>
        <time>2024-12-27T09:47:37Z</time>
      </trkpt>
      <trkpt lat="46.22576" lon="6.55573">
        <ele>1239.937</ele>
        <time>2024-12-27T09:47:42Z</time>
      </trkpt>
      <trkpt lat="46.22579" lon="6.55572">
        <ele>1240.338</ele>
        <time>2024-12-27T09:47:47Z</time>
      </trkpt>
      <trkpt lat="46.22581" lon="6.55571">
        <ele>1240.702</ele>
        <time>2024-12-27T09:47:52Z</time>
      </trkpt>
      <trkpt lat="46.22584" lon="6.5557">
        <ele>1240.266</ele>
        <time>2024-12-27T09:47:57Z</time>
      </trkpt>
      <trkpt lat="46.22586" lon="6.55569">
        <ele>1242.022</ele>
        <time>2024-12-27T09:48:02Z</time>
      </trkpt>
      <trkpt lat="46.22589" lon="6.55569">
        <ele>1242.262</ele>
        <time>2024-12-27T09:48:07Z</time>
      </trkpt>
      <trkpt lat="46.22592" lon="6.55568">
        <ele>1242.59</ele>
        <time>2024-12-27T09:48:12Z</time>
      </trkpt>
      <trkpt lat="46.22594" lon="6.55568">
        <ele>1242.355</ele>
        <time>2024-12-27T09:48:17Z</time>
      </trkpt>
      <trkpt lat="46.22596" lon="6.55568">
        <ele>1243.672</ele>
        <time>2024-12-27T09:48:22Z</time>
      </trkpt>
      <trkpt lat="46.22598" lon="6.55568">
        <ele>1244.787</ele>
        <time>2024-12-27T09:48:27Z</time>
      </trkpt>
      <trkpt lat="46.226" lon="6.55568">
        <ele>1245.75</ele>
        <time>2024-12-27T09:48:32Z</time>
      </trkpt>
      <trkpt lat="46.22603" lon="6.55569">
        <ele>1246.177</ele>
        <time>2024-12-27T09:48:37Z</time>
      </trkpt>
      <trkpt lat="46.22605" lon="6.55569">
        <ele>1246.921</ele>
        <time>2024-12-27T09:48:42Z</time>
      </trkpt>
      <trkpt lat="46.22606" lon="6.55569">
        <ele>1246.655</ele>
        <time>2024-12-27T09:48:47Z</time>
      </trkpt>
      <trkpt lat="46.22609" lon="6.5557">
        <ele>1247.117</ele>
        <time>2024-12-27T09:48:52Z</time>
      </trkpt>
      <trkpt lat="46.22611" lon="6.5557">
        <ele>1248.413</ele>
        <time>2024-12-27T09:48:57Z</time>
      </trkpt>
      <trkpt lat="46.22613" lon="6.55573">
        <ele>1250.069</ele>
        <time>2024-12-27T09:49:02Z</time>
      </trkpt>
      <trkpt lat="46.22615" lon="6.55574">
        <ele>1249.14</ele>
        <time>2024-12-27T09:49:07Z</time>
      </trkpt>
      <trkpt lat="46.22617" lon="6.55575">
        <ele>1249.908</ele>
        <time>2024-12-27T09:49:12Z</time>
      </trkpt>
      <trkpt lat="46.22619" lon="6.55577">
        <ele>1250.934</ele>
        <time>2024-12-27T09:49:17Z</time>
      </trkpt>
      <trkpt lat="46.2262" lon="6.55579">
        <ele>1251.671</ele>
        <time>2024-12-27T09:49:22Z</time>
      </trkpt>
      <trkpt lat="46.2262" lon="6.55582">
        <ele>1252.493</ele>
        <time>2024-12-27T09:49:27Z</time>
      </trkpt>
      <trkpt lat="46.22621" lon="6.55584">
        <ele>1253.812</ele>
        <time>2024-12-27T09:49:32Z</time>
      </trkpt>
      <trkpt lat="46.22623" lon="6.55587">
        <ele>1255.022</ele>
        <time>2024-12-27T09:49:37Z</time>
      </trkpt>
      <trkpt lat="46.22627" lon="6.55588">
        <ele>1255.568</ele>
        <time>2024-12-27T09:49:42Z</time>
      </trkpt>
      <trkpt lat="46.22629" lon="6.55587">
        <ele>1256.357</ele>
        <time>2024-12-27T09:49:47Z</time>
      </trkpt>
      <trkpt lat="46.22632" lon="6.55586">
        <ele>1256.731</ele>
        <time>2024-12-27T09:49:52Z</time>
      </trkpt>
      <trkpt lat="46.22636" lon="6.55586">
        <ele>1258.618</ele>
        <time>2024-12-27T09:49:57Z</time>
      </trkpt>
      <trkpt lat="46.2264" lon="6.55585">
        <ele>1257.705</ele>
        <time>2024-12-27T09:50:02Z</time>
      </trkpt>
      <trkpt lat="46.22642" lon="6.55583">
        <ele>1260.732</ele>
        <time>2024-12-27T09:50:07Z</time>
      </trkpt>
      <trkpt lat="46.22645" lon="6.5558">
        <ele>1260.354</ele>
        <time>2024-12-27T09:50:12Z</time>
      </trkpt>
      <trkpt lat="46.22647" lon="6.55578">
        <ele>1260.926</ele>
        <time>2024-12-27T09:50:17Z</time>
      </trkpt>
      <trkpt lat="46.2265" lon="6.55576">
        <ele>1262.485</ele>
        <time>2024-12-27T09:50:22Z</time>
      </trkpt>
      <trkpt lat="46.22651" lon="6.55576">
        <ele>1262.202</ele>
        <time>2024-12-27T09:50:27Z</time>
      </trkpt>
      <trkpt lat="46.22655" lon="6.55572">
        <ele>1262.687</ele>
        <time>2024-12-27T09:50:32Z</time>
      </trkpt>
      <trkpt lat="46.22659" lon="6.55569">
        <ele>1262.649</ele>
        <time>2024-12-27T09:50:37Z</time>
      </trkpt>
      <trkpt lat="46.22663" lon="6.55566">
        <ele>1263.165</ele>
        <time>2024-12-27T09:50:42Z</time>
      </trkpt>
      <trkpt lat="46.22666" lon="6.55565">
        <ele>1263.805</ele>
        <time>2024-12-27T09:50:47Z</time>
      </trkpt>
      <trkpt lat="46.22668" lon="6.55562">
        <ele>1265.076</ele>
        <time>2024-12-27T09:50:52Z</time>
      </trkpt>
      <trkpt lat="46.22672" lon="6.55561">
        <ele>1265.481</ele>
        <time>2024-12-27T09:50:57Z</time>
      </trkpt>
      <trkpt lat="46.22674" lon="6.55557">
        <ele>1266.363</ele>
        <time>2024-12-27T09:51:02Z</time>
      </trkpt>
      <trkpt lat="46.22678" lon="6.55555">
        <ele>1267.247</ele>
        <time>2024-12-27T09:51:07Z</time>
      </trkpt>
      <trkpt lat="46.2268" lon="6.55553">
        <ele>1268.116</ele>
        <time>2024-12-27T09:51:12Z</time>
      </trkpt>
      <trkpt lat="46.22683" lon="6.55551">
        <ele>1268.114</ele>
        <time>2024-12-27T09:51:17Z</time>
      </trkpt>
      <trkpt lat="46.22686" lon="6.5555">
        <ele>1270.874</ele>
        <time>2024-12-27T09:51:22Z</time>
      </trkpt>
      <trkpt lat="46.22689" lon="6.55547">
        <ele>1269.555</ele>
        <time>2024-12-27T09:51:27Z</time>
      </trkpt>
      <trkpt lat="46.22693" lon="6.55545">
        <ele>1268.172</ele>
        <time>2024-12-27T09:51:32Z</time>
      </trkpt>
      <trkpt lat="46.22696" lon="6.55543">
        <ele>1267.778</ele>
        <time>2024-12-27T09:51:37Z</time>
      </trkpt>
      <trkpt lat="46.22698" lon="6.55541">
        <ele>1269.386</ele>
        <time>2024-12-27T09:51:42Z</time>
      </trkpt>
      <trkpt lat="46.22702" lon="6.55537">
        <ele>1269.493</ele>
        <time>2024-12-27T09:51:47Z</time>
      </trkpt>
      <trkpt lat="46.22704" lon="6.55534">
        <ele>1271.061</ele>
        <time>2024-12-27T09:51:52Z</time>
      </trkpt>
      <trkpt lat="46.22706" lon="6.5553">
        <ele>1270.884</ele>
        <time>2024-12-27T09:51:57Z</time>
      </trkpt>
      <trkpt lat="46.22708" lon="6.55525">
        <ele>1268.684</ele>
        <time>2024-12-27T09:52:02Z</time>
      </trkpt>
      <trkpt lat="46.22713" lon="6.55524">
        <ele>1268.711</ele>
        <time>2024-12-27T09:52:07Z</time>
      </trkpt>
      <trkpt lat="46.22717" lon="6.55523">
        <ele>1269.199</ele>
        <time>2024-12-27T09:52:12Z</time>
      </trkpt>
      <trkpt lat="46.2272" lon="6.55521">
        <ele>1268.928</ele>
        <time>2024-12-27T09:52:17Z</time>
      </trkpt>
      <trkpt lat="46.22723" lon="6.5552">
        <ele>1268.294</ele>
        <time>2024-12-27T09:52:22Z</time>
      </trkpt>
      <trkpt lat="46.22726" lon="6.55516">
        <ele>1269.387</ele>
        <time>2024-12-27T09:52:27Z</time>
      </trkpt>
      <trkpt lat="46.2273" lon="6.55513">
        <ele>1268.621</ele>
        <time>2024-12-27T09:52:32Z</time>
      </trkpt>
      <trkpt lat="46.22733" lon="6.55513">
        <ele>1270.083</ele>
        <time>2024-12-27T09:52:37Z</time>
      </trkpt>
      <trkpt lat="46.22735" lon="6.5551">
        <ele>1272.577</ele>
        <time>2024-12-27T09:52:42Z</time>
      </trkpt>
      <trkpt lat="46.22738" lon="6.55508">
        <ele>1270.021</ele>
        <time>2024-12-27T09:52:47Z</time>
      </trkpt>
      <trkpt lat="46.22741" lon="6.55505">
        <ele>1270.272</ele>
        <time>2024-12-27T09:52:52Z</time>
      </trkpt>
      <trkpt lat="46.22744" lon="6.55505">
        <ele>1272.23</ele>
        <time>2024-12-27T09:52:57Z</time>
      </trkpt>
      <trkpt lat="46.22748" lon="6.55503">
        <ele>1273.293</ele>
        <time>2024-12-27T09:53:02Z</time>
      </trkpt>
      <trkpt lat="46.22751" lon="6.55499">
        <ele>1275.472</ele>
        <time>2024-12-27T09:53:07Z</time>
      </trkpt>
      <trkpt lat="46.22754" lon="6.55497">
        <ele>1275.377</ele>
        <time>2024-12-27T09:53:12Z</time>
      </trkpt>
      <trkpt lat="46.22757" lon="6.55495">
        <ele>1275.654</ele>
        <time>2024-12-27T09:53:17Z</time>
      </trkpt>
      <trkpt lat="46.22761" lon="6.55493">
        <ele>1274.892</ele>
        <time>2024-12-27T09:53:22Z</time>
      </trkpt>
      <trkpt lat="46.22764" lon="6.5549">
        <ele>1274.001</ele>
        <time>2024-12-27T09:53:27Z</time>
      </trkpt>
      <trkpt lat="46.22767" lon="6.55487">
        <ele>1274.22</ele>
        <time>2024-12-27T09:53:32Z</time>
      </trkpt>
      <trkpt lat="46.2277" lon="6.55484">
        <ele>1274.791</ele>
        <time>2024-12-27T09:53:37Z</time>
      </trkpt>
      <trkpt lat="46.22772" lon="6.5548">
        <ele>1275.109</ele>
        <time>2024-12-27T09:53:42Z</time>
      </trkpt>
      <trkpt lat="46.22775" lon="6.55476">
        <ele>1275.336</ele>
        <time>2024-12-27T09:53:47Z</time>
      </trkpt>
      <trkpt lat="46.22776" lon="6.55473">
        <ele>1276.773</ele>
        <time>2024-12-27T09:53:52Z</time>
      </trkpt>
      <trkpt lat="46.22779" lon="6.5547">
        <ele>1275.036</ele>
        <time>2024-12-27T09:53:57Z</time>
      </trkpt>
      <trkpt lat="46.22783" lon="6.55467">
        <ele>1275.363</ele>
        <time>2024-12-27T09:54:02Z</time>
      </trkpt>
      <trkpt lat="46.22786" lon="6.55464">
        <ele>1275.332</ele>
        <time>2024-12-27T09:54:07Z</time>
      </trkpt>
      <trkpt lat="46.22788" lon="6.55461">
        <ele>1277.102</ele>
        <time>2024-12-27T09:54:12Z</time>
      </trkpt>
      <trkpt lat="46.22791" lon="6.55457">
        <ele>1277.269</ele>
        <time>2024-12-27T09:54:17Z</time>
      </trkpt>
      <trkpt lat="46.22793" lon="6.55453">
        <ele>1277.264</ele>
        <time>2024-12-27T09:54:22Z</time>
      </trkpt>
      <trkpt lat="46.22794" lon="6.55449">
        <ele>1277.254</ele>
        <time>2024-12-27T09:54:27Z</time>
      </trkpt>
      <trkpt lat="46.22795" lon="6.55445">
        <ele>1278.542</ele>
        <time>2024-12-27T09:54:32Z</time>
      </trkpt>
      <trkpt lat="46.22796" lon="6.5544">
        <ele>1279.084</ele>
        <time>2024-12-27T09:54:37Z</time>
      </trkpt>
      <trkpt lat="46.22797" lon="6.55436">
        <ele>1281.227</ele>
        <time>2024-12-27T09:54:42Z</time>
      </trkpt>
      <trkpt lat="46.22799" lon="6.55432">
        <ele>1281.892</ele>
        <time>2024-12-27T09:54:47Z</time>
      </trkpt>
      <trkpt lat="46.22802" lon="6.55428">
        <ele>1281.459</ele>
        <time>2024-12-27T09:54:52Z</time>
      </trkpt>
      <trkpt lat="46.22804" lon="6.55425">
        <ele>1281.081</ele>
        <time>2024-12-27T09:54:57Z</time>
      </trkpt>
      <trkpt lat="46.22807" lon="6.55421">
        <ele>1281.407</ele>
        <time>2024-12-27T09:55:02Z</time>
      </trkpt>
      <trkpt lat="46.22809" lon="6.55417">
        <ele>1281.119</ele>
        <time>2024-12-27T09:55:07Z</time>
      </trkpt>
      <trkpt lat="46.22812" lon="6.55413">
        <ele>1281.859</ele>
        <time>2024-12-27T09:55:12Z</time>
      </trkpt>
      <trkpt lat="46.22814" lon="6.5541">
        <ele>1282.778</ele>
        <time>2024-12-27T09:55:17Z</time>
      </trkpt>
      <trkpt lat="46.22816" lon="6.55406">
        <ele>1282.712</ele>
        <time>2024-12-27T09:55:22Z</time>
      </trkpt>
      <trkpt lat="46.22819" lon="6.55404">
        <ele>1283.379</ele>
        <time>2024-12-27T09:55:27Z</time>
      </trkpt>
      <trkpt lat="46.22822" lon="6.55402">
        <ele>1284.905</ele>
        <time>2024-12-27T09:55:32Z</time>
      </trkpt>
      <trkpt lat="46.22825" lon="6.55401">
        <ele>1284.538</ele>
        <time>2024-12-27T09:55:37Z</time>
      </trkpt>
      <trkpt lat="46.22828" lon="6.554">
        <ele>1285.901</ele>
        <time>2024-12-27T09:55:42Z</time>
      </trkpt>
      <trkpt lat="46.22831" lon="6.554">
        <ele>1286.552</ele>
        <time>2024-12-27T09:55:47Z</time>
      </trkpt>
      <trkpt lat="46.22833" lon="6.55399">
        <ele>1286.853</ele>
        <time>2024-12-27T09:55:52Z</time>
      </trkpt>
      <trkpt lat="46.22836" lon="6.55398">
        <ele>1288.606</ele>
        <time>2024-12-27T09:55:57Z</time>
      </trkpt>
      <trkpt lat="46.22839" lon="6.554">
        <ele>1289.426</ele>
        <time>2024-12-27T09:56:02Z</time>
      </trkpt>
      <trkpt lat="46.22842" lon="6.55401">
        <ele>1289.734</ele>
        <time>2024-12-27T09:56:07Z</time>
      </trkpt>
      <trkpt lat="46.22845" lon="6.55401">
        <ele>1290.082</ele>
        <time>2024-12-27T09:56:12Z</time>
      </trkpt>
      <trkpt lat="46.22848" lon="6.55402">
        <ele>1289.605</ele>
        <time>2024-12-27T09:56:17Z</time>
      </trkpt>
      <trkpt lat="46.22851" lon="6.55402">
        <ele>1290.379</ele>
        <time>2024-12-27T09:56:22Z</time>
      </trkpt>
      <trkpt lat="46.22854" lon="6.55403">
        <ele>1289.535</ele>
        <time>2024-12-27T09:56:27Z</time>
      </trkpt>
      <trkpt lat="46.22857" lon="6.55404">
        <ele>1290.712</ele>
        <time>2024-12-27T09:56:32Z</time>
      </trkpt>
      <trkpt lat="46.2286" lon="6.55407">
        <ele>1292.474</ele>
        <time>2024-12-27T09:56:37Z</time>
      </trkpt>
      <trkpt lat="46.22862" lon="6.55409">
        <ele>1293.062</ele>
        <time>2024-12-27T09:56:42Z</time>
      </trkpt>
      <trkpt lat="46.22865" lon="6.5541">
        <ele>1295.018</ele>
        <time>2024-12-27T09:56:47Z</time>
      </trkpt>
      <trkpt lat="46.22868" lon="6.5541">
        <ele>1295.721</ele>
        <time>2024-12-27T09:56:52Z</time>
      </trkpt>
      <trkpt lat="46.22871" lon="6.55407">
        <ele>1295.506</ele>
        <time>2024-12-27T09:56:57Z</time>
      </trkpt>
      <trkpt lat="46.22874" lon="6.55405">
        <ele>1295.172</ele>
        <time>2024-12-27T09:57:02Z</time>
      </trkpt>
      <trkpt lat="46.22877" lon="6.55405">
        <ele>1294.639</ele>
        <time>2024-12-27T09:57:07Z</time>
      </trkpt>
      <trkpt lat="46.22879" lon="6.55403">
        <ele>1295.801</ele>
        <time>2024-12-27T09:57:12Z</time>
      </trkpt>
      <trkpt lat="46.22881" lon="6.55399">
        <ele>1296.351</ele>
        <time>2024-12-27T09:57:17Z</time>
      </trkpt>
      <trkpt lat="46.22883" lon="6.55395">
        <ele>1296.477</ele>
        <time>2024-12-27T09:57:22Z</time>
      </trkpt>
      <trkpt lat="46.22885" lon="6.55392">
        <ele>1295.916</ele>
        <time>2024-12-27T09:57:27Z</time>
      </trkpt>
      <trkpt lat="46.22887" lon="6.5539">
        <ele>1296.297</ele>
        <time>2024-12-27T09:57:32Z</time>
      </trkpt>
      <trkpt lat="46.22889" lon="6.5539">
        <ele>1296.461</ele>
        <time>2024-12-27T09:57:37Z</time>
      </trkpt>
      <trkpt lat="46.2289" lon="6.55391">
        <ele>1296.52</ele>
        <time>2024-12-27T09:57:42Z</time>
      </trkpt>
      <trkpt lat="46.22892" lon="6.55392">
        <ele>1295.921</ele>
        <time>2024-12-27T09:57:47Z</time>
      </trkpt>
      <trkpt lat="46.22895" lon="6.55393">
        <ele>1296.685</ele>
        <time>2024-12-27T09:57:52Z</time>
      </trkpt>
      <trkpt lat="46.22898" lon="6.55395">
        <ele>1297.385</ele>
        <time>2024-12-27T09:57:57Z</time>
      </trkpt>
      <trkpt lat="46.22899" lon="6.55397">
        <ele>1297.944</ele>
        <time>2024-12-27T09:58:02Z</time>
      </trkpt>
      <trkpt lat="46.22901" lon="6.55399">
        <ele>1298.416</ele>
        <time>2024-12-27T09:58:07Z</time>
      </trkpt>
      <trkpt lat="46.22902" lon="6.55401">
        <ele>1297.799</ele>
        <time>2024-12-27T09:58:12Z</time>
      </trkpt>
      <trkpt lat="46.22905" lon="6.55402">
        <ele>1297.907</ele>
        <time>2024-12-27T09:58:17Z</time>
      </trkpt>
      <trkpt lat="46.22907" lon="6.55404">
        <ele>1297.871</ele>
        <time>2024-12-27T09:58:22Z</time>
      </trkpt>
      <trkpt lat="46.22908" lon="6.55405">
        <ele>1299.904</ele>
        <time>2024-12-27T09:58:27Z</time>
      </trkpt>
      <trkpt lat="46.2291" lon="6.55406">
        <ele>1300.805</ele>
        <time>2024-12-27T09:58:32Z</time>
      </trkpt>
      <trkpt lat="46.22912" lon="6.55408">
        <ele>1300.302</ele>
        <time>2024-12-27T09:58:37Z</time>
      </trkpt>
      <trkpt lat="46.22914" lon="6.55411">
        <ele>1300.519</ele>
        <time>2024-12-27T09:58:42Z</time>
      </trkpt>
      <trkpt lat="46.22916" lon="6.55413">
        <ele>1301.072</ele>
        <time>2024-12-27T09:58:47Z</time>
      </trkpt>
      <trkpt lat="46.22918" lon="6.55415">
        <ele>1301.544</ele>
        <time>2024-12-27T09:58:52Z</time>
      </trkpt>
      <trkpt lat="46.22919" lon="6.55416">
        <ele>1302.07</ele>
        <time>2024-12-27T09:58:57Z</time>
      </trkpt>
      <trkpt lat="46.22921" lon="6.55419">
        <ele>1303.693</ele>
        <time>2024-12-27T09:59:02Z</time>
      </trkpt>
      <trkpt lat="46.22921" lon="6.55421">
        <ele>1306.408</ele>
        <time>2024-12-27T09:59:07Z</time>
      </trkpt>
      <trkpt lat="46.22921" lon="6.55421">
        <ele>1307.399</ele>
        <time>2024-12-27T09:59:12Z</time>
      </trkpt>
      <trkpt lat="46.22921" lon="6.55421">
        <ele>1307.089</ele>
        <time>2024-12-27T09:59:17Z</time>
      </trkpt>
      <trkpt lat="46.22921" lon="6.55421">
        <ele>1307.988</ele>
        <time>2024-12-27T09:59:22Z</time>
      </trkpt>
      <trkpt lat="46.22921" lon="6.55421">
        <ele>1309.364</ele>
        <time>2024-12-27T09:59:27Z</time>
      </trkpt>
      <trkpt lat="46.22921" lon="6.55421">
        <ele>1312.823</ele>
        <time>2024-12-27T09:59:32Z</time>
      </trkpt>
      <trkpt lat="46.22922" lon="6.55431">
        <ele>1311.984</ele>
        <time>2024-12-27T09:59:37Z</time>
      </trkpt>
      <trkpt lat="46.22926" lon="6.55435">
        <ele>1313.184</ele>
        <time>2024-12-27T09:59:42Z</time>
      </trkpt>
      <trkpt lat="46.22929" lon="6.55434">
        <ele>1313.727</ele>
        <time>2024-12-27T09:59:47Z</time>
      </trkpt>
      <trkpt lat="46.22934" lon="6.55435">
        <ele>1314.767</ele>
        <time>2024-12-27T09:59:52Z</time>
      </trkpt>
      <trkpt lat="46.22938" lon="6.55437">
        <ele>1316.172</ele>
        <time>2024-12-27T09:59:57Z</time>
      </trkpt>
      <trkpt lat="46.22942" lon="6.55437">
        <ele>1317.227</ele>
        <time>2024-12-27T10:00:02Z</time>
      </trkpt>
      <trkpt lat="46.22943" lon="6.55436">
        <ele>1317.289</ele>
        <time>2024-12-27T10:00:07Z</time>
      </trkpt>
      <trkpt lat="46.22946" lon="6.55433">
        <ele>1313.893</ele>
        <time>2024-12-27T10:00:12Z</time>
      </trkpt>
      <trkpt lat="46.22946" lon="6.55431">
        <ele>1316.978</ele>
        <time>2024-12-27T10:00:17Z</time>
      </trkpt>
      <trkpt lat="46.22949" lon="6.5543">
        <ele>1316.976</ele>
        <time>2024-12-27T10:00:22Z</time>
      </trkpt>
      <trkpt lat="46.22949" lon="6.55428">
        <ele>1319.599</ele>
        <time>2024-12-27T10:00:27Z</time>
      </trkpt>
      <trkpt lat="46.22949" lon="6.55425">
        <ele>1320.62</ele>
        <time>2024-12-27T10:00:32Z</time>
      </trkpt>
      <trkpt lat="46.2295" lon="6.55425">
        <ele>1319.719</ele>
        <time>2024-12-27T10:00:37Z</time>
      </trkpt>
      <trkpt lat="46.22952" lon="6.55425">
        <ele>1322.005</ele>
        <time>2024-12-27T10:00:42Z</time>
      </trkpt>
      <trkpt lat="46.22954" lon="6.55423">
        <ele>1321.384</ele>
        <time>2024-12-27T10:00:47Z</time>
      </trkpt>
      <trkpt lat="46.22956" lon="6.5542">
        <ele>1325.943</ele>
        <time>2024-12-27T10:00:52Z</time>
      </trkpt>
      <trkpt lat="46.22954" lon="6.55416">
        <ele>1326.523</ele>
        <time>2024-12-27T10:00:57Z</time>
      </trkpt>
      <trkpt lat="46.22956" lon="6.55412">
        <ele>1327.78</ele>
        <time>2024-12-27T10:01:02Z</time>
      </trkpt>
      <trkpt lat="46.2296" lon="6.55413">
        <ele>1325.162</ele>
        <time>2024-12-27T10:01:07Z</time>
      </trkpt>
      <trkpt lat="46.22964" lon="6.55412">
        <ele>1323.344</ele>
        <time>2024-12-27T10:01:12Z</time>
      </trkpt>
      <trkpt lat="46.22965" lon="6.55412">
        <ele>1323.23</ele>
        <time>2024-12-27T10:01:17Z</time>
      </trkpt>
      <trkpt lat="46.22966" lon="6.55412">
        <ele>1323.631</ele>
        <time>2024-12-27T10:01:22Z</time>
      </trkpt>
      <trkpt lat="46.22966" lon="6.55416">
        <ele>1324.65</ele>
        <time>2024-12-27T10:01:27Z</time>
      </trkpt>
      <trkpt lat="46.22967" lon="6.55416">
        <ele>1326.888</ele>
        <time>2024-12-27T10:01:32Z</time>
      </trkpt>
      <trkpt lat="46.22967" lon="6.55416">
        <ele>1329.942</ele>
        <time>2024-12-27T10:01:37Z</time>
      </trkpt>
      <trkpt lat="46.22967" lon="6.55416">
        <ele>1332.412</ele>
        <time>2024-12-27T10:01:42Z</time>
      </trkpt>
      <trkpt lat="46.22967" lon="6.55416">
        <ele>1330.127</ele>
        <time>2024-12-27T10:01:47Z</time>
      </trkpt>
      <trkpt lat="46.22967" lon="6.55416">
        <ele>1330.685</ele>
        <time>2024-12-27T10:01:52Z</time>
      </trkpt>
      <trkpt lat="46.22967" lon="6.55416">
        <ele>1330.675</ele>
        <time>2024-12-27T10:01:57Z</time>
      </trkpt>
      <trkpt lat="46.22967" lon="6.55416">
        <ele>1331.92</ele>
        <time>2024-12-27T10:02:02Z</time>
      </trkpt>
      <trkpt lat="46.22967" lon="6.55416">
        <ele>1333.854</ele>
        <time>2024-12-27T10:02:07Z</time>
      </trkpt>
      <trkpt lat="46.22967" lon="6.55416">
        <ele>1333.725</ele>
        <time>2024-12-27T10:02:12Z</time>
      </trkpt>
      <trkpt lat="46.22967" lon="6.55416">
        <ele>1334.088</ele>
        <time>2024-12-27T10:02:17Z</time>
      </trkpt>
      <trkpt lat="46.22967" lon="6.55416">
        <ele>1335.604</ele>
        <time>2024-12-27T10:02:22Z</time>
      </trkpt>
      <trkpt lat="46.22974" lon="6.55405">
        <ele>1336.442</ele>
        <time>2024-12-27T10:02:27Z</time>
      </trkpt>
      <trkpt lat="46.22977" lon="6.55403">
        <ele>1334.015</ele>
        <time>2024-12-27T10:02:32Z</time>
      </trkpt>
      <trkpt lat="46.22979" lon="6.55401">
        <ele>1334.239</ele>
        <time>2024-12-27T10:02:37Z</time>
      </trkpt>
      <trkpt lat="46.22981" lon="6.55401">
        <ele>1336.176</ele>
        <time>2024-12-27T10:02:42Z</time>
      </trkpt>
      <trkpt lat="46.22985" lon="6.55401">
        <ele>1338.286</ele>
        <time>2024-12-27T10:02:47Z</time>
      </trkpt>
      <trkpt lat="46.22984" lon="6.55398">
        <ele>1338.068</ele>
        <time>2024-12-27T10:02:52Z</time>
      </trkpt>
      <trkpt lat="46.22985" lon="6.55397">
        <ele>1335.864</ele>
        <time>2024-12-27T10:02:57Z</time>
      </trkpt>
      <trkpt lat="46.22986" lon="6.55396">
        <ele>1335.382</ele>
        <time>2024-12-27T10:03:02Z</time>
      </trkpt>
      <trkpt lat="46.22988" lon="6.554">
        <ele>1335.187</ele>
        <time>2024-12-27T10:03:07Z</time>
      </trkpt>
      <trkpt lat="46.22989" lon="6.55403">
        <ele>1335.759</ele>
        <time>2024-12-27T10:03:12Z</time>
      </trkpt>
      <trkpt lat="46.2299" lon="6.55405">
        <ele>1335.502</ele>
        <time>2024-12-27T10:03:17Z</time>
      </trkpt>
      <trkpt lat="46.22992" lon="6.55405">
        <ele>1336.34</ele>
        <time>2024-12-27T10:03:22Z</time>
      </trkpt>
      <trkpt lat="46.22994" lon="6.55401">
        <ele>1335.865</ele>
        <time>2024-12-27T10:03:27Z</time>
      </trkpt>
      <trkpt lat="46.22996" lon="6.55398">
        <ele>1335.427</ele>
        <time>2024-12-27T10:03:32Z</time>
      </trkpt>
      <trkpt lat="46.22997" lon="6.55396">
        <ele>1337.511</ele>
        <time>2024-12-27T10:03:37Z</time>
      </trkpt>
      <trkpt lat="46.22997" lon="6.55394">
        <ele>1338.506</ele>
        <time>2024-12-27T10:03:42Z</time>
      </trkpt>
      <trkpt lat="46.22998" lon="6.55392">
        <ele>1338.986</ele>
        <time>2024-12-27T10:03:47Z</time>
      </trkpt>
      <trkpt lat="46.23" lon="6.5539">
        <ele>1339.522</ele>
        <time>2024-12-27T10:03:52Z</time>
      </trkpt>
      <trkpt lat="46.23001" lon="6.55388">
        <ele>1340.352</ele>
        <time>2024-12-27T10:03:57Z</time>
      </trkpt>
      <trkpt lat="46.23003" lon="6.55384">
        <ele>1341.185</ele>
        <time>2024-12-27T10:04:02Z</time>
      </trkpt>
      <trkpt lat="46.23004" lon="6.55383">
        <ele>1341.552</ele>
        <time>2024-12-27T10:04:07Z</time>
      </trkpt>
      <trkpt lat="46.23006" lon="6.55381">
        <ele>1341.794</ele>
        <time>2024-12-27T10:04:12Z</time>
      </trkpt>
      <trkpt lat="46.23008" lon="6.55379">
        <ele>1343.072</ele>
        <time>2024-12-27T10:04:17Z</time>
      </trkpt>
      <trkpt lat="46.2301" lon="6.55379">
        <ele>1344.422</ele>
        <time>2024-12-27T10:04:22Z</time>
      </trkpt>
      <trkpt lat="46.23011" lon="6.55378">
        <ele>1345.398</ele>
        <time>2024-12-27T10:04:27Z</time>
      </trkpt>
      <trkpt lat="46.23014" lon="6.55377">
        <ele>1345.315</ele>
        <time>2024-12-27T10:04:32Z</time>
      </trkpt>
      <trkpt lat="46.23016" lon="6.55376">
        <ele>1346.46</ele>
        <time>2024-12-27T10:04:37Z</time>
      </trkpt>
      <trkpt lat="46.23018" lon="6.55377">
        <ele>1346.931</ele>
        <time>2024-12-27T10:04:42Z</time>
      </trkpt>
      <trkpt lat="46.2302" lon="6.55376">
        <ele>1346.566</ele>
        <time>2024-12-27T10:04:47Z</time>
      </trkpt>
      <trkpt lat="46.23021" lon="6.55377">
        <ele>1347.662</ele>
        <time>2024-12-27T10:04:52Z</time>
      </trkpt>
      <trkpt lat="46.23023" lon="6.55377">
        <ele>1348.414</ele>
        <time>2024-12-27T10:04:57Z</time>
      </trkpt>
      <trkpt lat="46.23025" lon="6.55378">
        <ele>1349.184</ele>
        <time>2024-12-27T10:05:02Z</time>
      </trkpt>
      <trkpt lat="46.23026" lon="6.55379">
        <ele>1350.444</ele>
        <time>2024-12-27T10:05:07Z</time>
      </trkpt>
      <trkpt lat="46.23028" lon="6.5538">
        <ele>1350.005</ele>
        <time>2024-12-27T10:05:12Z</time>
      </trkpt>
      <trkpt lat="46.2303" lon="6.55379">
        <ele>1350.633</ele>
        <time>2024-12-27T10:05:17Z</time>
      </trkpt>
      <trkpt lat="46.23032" lon="6.55376">
        <ele>1350.622</ele>
        <time>2024-12-27T10:05:22Z</time>
      </trkpt>
      <trkpt lat="46.23033" lon="6.55373">
        <ele>1350.704</ele>
        <time>2024-12-27T10:05:27Z</time>
      </trkpt>
      <trkpt lat="46.23034" lon="6.5537">
        <ele>1351.051</ele>
        <time>2024-12-27T10:05:32Z</time>
      </trkpt>
      <trkpt lat="46.23032" lon="6.55367">
        <ele>1350.658</ele>
        <time>2024-12-27T10:05:37Z</time>
      </trkpt>
      <trkpt lat="46.23033" lon="6.55364">
        <ele>1350.674</ele>
        <time>2024-12-27T10:05:42Z</time>
      </trkpt>
      <trkpt lat="46.23035" lon="6.55361">
        <ele>1351.903</ele>
        <time>2024-12-27T10:05:47Z</time>
      </trkpt>
      <trkpt lat="46.23037" lon="6.55359">
        <ele>1351.902</ele>
        <time>2024-12-27T10:05:52Z</time>
      </trkpt>
      <trkpt lat="46.23039" lon="6.55356">
        <ele>1352.664</ele>
        <time>2024-12-27T10:05:57Z</time>
      </trkpt>
      <trkpt lat="46.23041" lon="6.55353">
        <ele>1352.275</ele>
        <time>2024-12-27T10:06:02Z</time>
      </trkpt>
      <trkpt lat="46.23042" lon="6.55351">
        <ele>1353.857</ele>
        <time>2024-12-27T10:06:07Z</time>
      </trkpt>
      <trkpt lat="46.23043" lon="6.55348">
        <ele>1355.001</ele>
        <time>2024-12-27T10:06:12Z</time>
      </trkpt>
      <trkpt lat="46.23044" lon="6.55345">
        <ele>1356.122</ele>
        <time>2024-12-27T10:06:17Z</time>
      </trkpt>
      <trkpt lat="46.23045" lon="6.55343">
        <ele>1357.294</ele>
        <time>2024-12-27T10:06:22Z</time>
      </trkpt>
      <trkpt lat="46.23046" lon="6.55341">
        <ele>1357.832</ele>
        <time>2024-12-27T10:06:27Z</time>
      </trkpt>
      <trkpt lat="46.23048" lon="6.55338">
        <ele>1356.396</ele>
        <time>2024-12-27T10:06:32Z</time>
      </trkpt>
      <trkpt lat="46.2305" lon="6.55337">
        <ele>1356.666</ele>
        <time>2024-12-27T10:06:37Z</time>
      </trkpt>
      <trkpt lat="46.23051" lon="6.55335">
        <ele>1357.611</ele>
        <time>2024-12-27T10:06:42Z</time>
      </trkpt>
      <trkpt lat="46.23053" lon="6.55333">
        <ele>1358.013</ele>
        <time>2024-12-27T10:06:47Z</time>
      </trkpt>
      <trkpt lat="46.23054" lon="6.55332">
        <ele>1358.175</ele>
        <time>2024-12-27T10:06:52Z</time>
      </trkpt>
      <trkpt lat="46.23054" lon="6.55331">
        <ele>1358.266</ele>
        <time>2024-12-27T10:06:57Z</time>
      </trkpt>
      <trkpt lat="46.23056" lon="6.55329">
        <ele>1361.267</ele>
        <time>2024-12-27T10:07:02Z</time>
      </trkpt>
      <trkpt lat="46.23057" lon="6.55328">
        <ele>1361.521</ele>
        <time>2024-12-27T10:07:07Z</time>
      </trkpt>
      <trkpt lat="46.23059" lon="6.55325">
        <ele>1362.773</ele>
        <time>2024-12-27T10:07:12Z</time>
      </trkpt>
      <trkpt lat="46.2306" lon="6.55323">
        <ele>1363.054</ele>
        <time>2024-12-27T10:07:17Z</time>
      </trkpt>
      <trkpt lat="46.23062" lon="6.55321">
        <ele>1363.593</ele>
        <time>2024-12-27T10:07:22Z</time>
      </trkpt>
      <trkpt lat="46.23063" lon="6.55319">
        <ele>1364.875</ele>
        <time>2024-12-27T10:07:27Z</time>
      </trkpt>
      <trkpt lat="46.23065" lon="6.55318">
        <ele>1365.738</ele>
        <time>2024-12-27T10:07:32Z</time>
      </trkpt>
      <trkpt lat="46.23067" lon="6.55316">
        <ele>1365.748</ele>
        <time>2024-12-27T10:07:37Z</time>
      </trkpt>
      <trkpt lat="46.23068" lon="6.55314">
        <ele>1366.356</ele>
        <time>2024-12-27T10:07:42Z</time>
      </trkpt>
      <trkpt lat="46.2307" lon="6.55312">
        <ele>1367.045</ele>
        <time>2024-12-27T10:07:47Z</time>
      </trkpt>
      <trkpt lat="46.23072" lon="6.55311">
        <ele>1367.048</ele>
        <time>2024-12-27T10:07:52Z</time>
      </trkpt>
      <trkpt lat="46.23075" lon="6.5531">
        <ele>1368.389</ele>
        <time>2024-12-27T10:07:57Z</time>
      </trkpt>
      <trkpt lat="46.23077" lon="6.55308">
        <ele>1369.322</ele>
        <time>2024-12-27T10:08:02Z</time>
      </trkpt>
      <trkpt lat="46.23079" lon="6.55307">
        <ele>1370.005</ele>
        <time>2024-12-27T10:08:07Z</time>
      </trkpt>
      <trkpt lat="46.23081" lon="6.55306">
        <ele>1369.287</ele>
        <time>2024-12-27T10:08:12Z</time>
      </trkpt>
      <trkpt lat="46.23084" lon="6.55304">
        <ele>1370.263</ele>
        <time>2024-12-27T10:08:17Z</time>
      </trkpt>
      <trkpt lat="46.23085" lon="6.55303">
        <ele>1370.655</ele>
        <time>2024-12-27T10:08:22Z</time>
      </trkpt>
      <trkpt lat="46.23087" lon="6.55303">
        <ele>1370.479</ele>
        <time>2024-12-27T10:08:27Z</time>
      </trkpt>
      <trkpt lat="46.2309" lon="6.55302">
        <ele>1371.171</ele>
        <time>2024-12-27T10:08:32Z</time>
      </trkpt>
      <trkpt lat="46.23092" lon="6.55301">
        <ele>1372.671</ele>
        <time>2024-12-27T10:08:37Z</time>
      </trkpt>
      <trkpt lat="46.23094" lon="6.553">
        <ele>1373.867</ele>
        <time>2024-12-27T10:08:42Z</time>
      </trkpt>
      <trkpt lat="46.23097" lon="6.553">
        <ele>1374.213</ele>
        <time>2024-12-27T10:08:47Z</time>
      </trkpt>
      <trkpt lat="46.23099" lon="6.553">
        <ele>1374.534</ele>
        <time>2024-12-27T10:08:52Z</time>
      </trkpt>
      <trkpt lat="46.23101" lon="6.553">
        <ele>1375.3</ele>
        <time>2024-12-27T10:08:57Z</time>
      </trkpt>
      <trkpt lat="46.23104" lon="6.55299">
        <ele>1375.965</ele>
        <time>2024-12-27T10:09:02Z</time>
      </trkpt>
      <trkpt lat="46.23106" lon="6.55299">
        <ele>1378.699</ele>
        <time>2024-12-27T10:09:07Z</time>
      </trkpt>
      <trkpt lat="46.23107" lon="6.55299">
        <ele>1380.239</ele>
        <time>2024-12-27T10:09:12Z</time>
      </trkpt>
      <trkpt lat="46.23109" lon="6.55299">
        <ele>1381.289</ele>
        <time>2024-12-27T10:09:17Z</time>
      </trkpt>
      <trkpt lat="46.23112" lon="6.55299">
        <ele>1382.319</ele>
        <time>2024-12-27T10:09:22Z</time>
      </trkpt>
      <trkpt lat="46.23114" lon="6.55299">
        <ele>1383.099</ele>
        <time>2024-12-27T10:09:27Z</time>
      </trkpt>
      <trkpt lat="46.23117" lon="6.553">
        <ele>1382.568</ele>
        <time>2024-12-27T10:09:32Z</time>
      </trkpt>
      <trkpt lat="46.2312" lon="6.55301">
        <ele>1383.07</ele>
        <time>2024-12-27T10:09:37Z</time>
      </trkpt>
      <trkpt lat="46.23122" lon="6.55301">
        <ele>1383.594</ele>
        <time>2024-12-27T10:09:42Z</time>
      </trkpt>
      <trkpt lat="46.23123" lon="6.55302">
        <ele>1383.573</ele>
        <time>2024-12-27T10:09:47Z</time>
      </trkpt>
      <trkpt lat="46.23122" lon="6.55304">
        <ele>1386.406</ele>
        <time>2024-12-27T10:09:52Z</time>
      </trkpt>
      <trkpt lat="46.23122" lon="6.55307">
        <ele>1388.105</ele>
        <time>2024-12-27T10:09:57Z</time>
      </trkpt>
      <trkpt lat="46.23122" lon="6.5531">
        <ele>1389.525</ele>
        <time>2024-12-27T10:10:02Z</time>
      </trkpt>
      <trkpt lat="46.23123" lon="6.55313">
        <ele>1390.452</ele>
        <time>2024-12-27T10:10:07Z</time>
      </trkpt>
      <trkpt lat="46.23124" lon="6.55315">
        <ele>1390.529</ele>
        <time>2024-12-27T10:10:12Z</time>
      </trkpt>
      <trkpt lat="46.23126" lon="6.55319">
        <ele>1390.598</ele>
        <time>2024-12-27T10:10:17Z</time>
      </trkpt>
      <trkpt lat="46.23126" lon="6.55322">
        <ele>1392.587</ele>
        <time>2024-12-27T10:10:22Z</time>
      </trkpt>
      <trkpt lat="46.23127" lon="6.55325">
        <ele>1392.544</ele>
        <time>2024-12-27T10:10:27Z</time>
      </trkpt>
      <trkpt lat="46.23129" lon="6.55329">
        <ele>1393.493</ele>
        <time>2024-12-27T10:10:32Z</time>
      </trkpt>
      <trkpt lat="46.2313" lon="6.55329">
        <ele>1393.564</ele>
        <time>2024-12-27T10:10:37Z</time>
      </trkpt>
      <trkpt lat="46.2313" lon="6.55329">
        <ele>1393.56</ele>
        <time>2024-12-27T10:10:42Z</time>
      </trkpt>
      <trkpt lat="46.2313" lon="6.55329">
        <ele>1393.548</ele>
        <time>2024-12-27T10:10:47Z</time>
      </trkpt>
      <trkpt lat="46.23131" lon="6.55331">
        <ele>1393.88</ele>
        <time>2024-12-27T10:10:52Z</time>
      </trkpt>
      <trkpt lat="46.23131" lon="6.55331">
        <ele>1393.891</ele>
        <time>2024-12-27T10:10:57Z</time>
      </trkpt>
      <trkpt lat="46.23131" lon="6.55331">
        <ele>1393.877</ele>
        <time>2024-12-27T10:11:02Z</time>
      </trkpt>
      <trkpt lat="46.23131" lon="6.55331">
        <ele>1393.684</ele>
        <time>2024-12-27T10:11:07Z</time>
      </trkpt>
      <trkpt lat="46.23131" lon="6.55331">
        <ele>1393.241</ele>
        <time>2024-12-27T10:11:12Z</time>
      </trkpt>
      <trkpt lat="46.23131" lon="6.55331">
        <ele>1393.411</ele>
        <time>2024-12-27T10:11:17Z</time>
      </trkpt>
      <trkpt lat="46.23131" lon="6.55331">
        <ele>1393.399</ele>
        <time>2024-12-27T10:11:22Z</time>
      </trkpt>
      <trkpt lat="46.23131" lon="6.55331">
        <ele>1393.105</ele>
        <time>2024-12-27T10:11:27Z</time>
      </trkpt>
      <trkpt lat="46.23131" lon="6.55331">
        <ele>1393.505</ele>
        <time>2024-12-27T10:11:32Z</time>
      </trkpt>
      <trkpt lat="46.23131" lon="6.55331">
        <ele>1393.808</ele>
        <time>2024-12-27T10:11:37Z</time>
      </trkpt>
      <trkpt lat="46.23131" lon="6.55331">
        <ele>1394.023</ele>
        <time>2024-12-27T10:11:42Z</time>
      </trkpt>
      <trkpt lat="46.23131" lon="6.55331">
        <ele>1394.005</ele>
        <time>2024-12-27T10:11:47Z</time>
      </trkpt>
      <trkpt lat="46.23131" lon="6.55331">
        <ele>1393.971</ele>
        <time>2024-12-27T10:11:52Z</time>
      </trkpt>
      <trkpt lat="46.23131" lon="6.55331">
        <ele>1394.071</ele>
        <time>2024-12-27T10:11:57Z</time>
      </trkpt>
      <trkpt lat="46.23131" lon="6.55331">
        <ele>1394.061</ele>
        <time>2024-12-27T10:12:02Z</time>
      </trkpt>
      <trkpt lat="46.23131" lon="6.55331">
        <ele>1394.056</ele>
        <time>2024-12-27T10:12:07Z</time>
      </trkpt>
      <trkpt lat="46.23131" lon="6.55331">
        <ele>1394.051</ele>
        <time>2024-12-27T10:12:12Z</time>
      </trkpt>
      <trkpt lat="46.23131" lon="6.55331">
        <ele>1394.799</ele>
        <time>2024-12-27T10:12:17Z</time>
      </trkpt>
      <trkpt lat="46.23131" lon="6.55331">
        <ele>1394.797</ele>
        <time>2024-12-27T10:12:22Z</time>
      </trkpt>
      <trkpt lat="46.23131" lon="6.55331">
        <ele>1394.773</ele>
        <time>2024-12-27T10:12:27Z</time>
      </trkpt>
      <trkpt lat="46.23131" lon="6.55331">
        <ele>1394.763</ele>
        <time>2024-12-27T10:12:32Z</time>
      </trkpt>
      <trkpt lat="46.23131" lon="6.55331">
        <ele>1394.778</ele>
        <time>2024-12-27T10:12:37Z</time>
      </trkpt>
      <trkpt lat="46.23131" lon="6.55331">
        <ele>1394.774</ele>
        <time>2024-12-27T10:12:42Z</time>
      </trkpt>
      <trkpt lat="46.23131" lon="6.55331">
        <ele>1394.779</ele>
        <time>2024-12-27T10:12:47Z</time>
      </trkpt>
      <trkpt lat="46.23131" lon="6.55331">
        <ele>1394.671</ele>
        <time>2024-12-27T10:12:52Z</time>
      </trkpt>
      <trkpt lat="46.23131" lon="6.55331">
        <ele>1394.68</ele>
        <time>2024-12-27T10:12:57Z</time>
      </trkpt>
      <trkpt lat="46.23131" lon="6.55331">
        <ele>1394.625</ele>
        <time>2024-12-27T10:13:02Z</time>
      </trkpt>
      <trkpt lat="46.23131" lon="6.55331">
        <ele>1394.588</ele>
        <time>2024-12-27T10:13:07Z</time>
      </trkpt>
      <trkpt lat="46.23131" lon="6.55331">
        <ele>1394.607</ele>
        <time>2024-12-27T10:13:12Z</time>
      </trkpt>
      <trkpt lat="46.23131" lon="6.55331">
        <ele>1394.598</ele>
        <time>2024-12-27T10:13:17Z</time>
      </trkpt>
      <trkpt lat="46.23131" lon="6.55331">
        <ele>1394.579</ele>
        <time>2024-12-27T10:13:22Z</time>
      </trkpt>
      <trkpt lat="46.23131" lon="6.55331">
        <ele>1394.534</ele>
        <time>2024-12-27T10:13:27Z</time>
      </trkpt>
      <trkpt lat="46.23131" lon="6.55331">
        <ele>1395.224</ele>
        <time>2024-12-27T10:13:32Z</time>
      </trkpt>
      <trkpt lat="46.23131" lon="6.55331">
        <ele>1395.126</ele>
        <time>2024-12-27T10:13:37Z</time>
      </trkpt>
      <trkpt lat="46.23131" lon="6.55331">
        <ele>1395.061</ele>
        <time>2024-12-27T10:13:42Z</time>
      </trkpt>
      <trkpt lat="46.23131" lon="6.55331">
        <ele>1395.062</ele>
        <time>2024-12-27T10:13:47Z</time>
      </trkpt>
      <trkpt lat="46.23131" lon="6.55331">
        <ele>1395.027</ele>
        <time>2024-12-27T10:13:52Z</time>
      </trkpt>
      <trkpt lat="46.23131" lon="6.55331">
        <ele>1394.946</ele>
        <time>2024-12-27T10:13:57Z</time>
      </trkpt>
      <trkpt lat="46.23131" lon="6.55331">
        <ele>1394.895</ele>
        <time>2024-12-27T10:14:02Z</time>
      </trkpt>
      <trkpt lat="46.23131" lon="6.55331">
        <ele>1394.843</ele>
        <time>2024-12-27T10:14:07Z</time>
      </trkpt>
      <trkpt lat="46.23131" lon="6.55331">
        <ele>1394.784</ele>
        <time>2024-12-27T10:14:12Z</time>
      </trkpt>
      <trkpt lat="46.23131" lon="6.55331">
        <ele>1394.743</ele>
        <time>2024-12-27T10:14:17Z</time>
      </trkpt>
      <trkpt lat="46.23131" lon="6.55331">
        <ele>1394.726</ele>
        <time>2024-12-27T10:14:22Z</time>
      </trkpt>
      <trkpt lat="46.23131" lon="6.55331">
        <ele>1394.671</ele>
        <time>2024-12-27T10:14:27Z</time>
      </trkpt>
      <trkpt lat="46.23131" lon="6.55331">
        <ele>1394.628</ele>
        <time>2024-12-27T10:14:32Z</time>
      </trkpt>
      <trkpt lat="46.23131" lon="6.55331">
        <ele>1394.572</ele>
        <time>2024-12-27T10:14:37Z</time>
      </trkpt>
      <trkpt lat="46.23131" lon="6.55331">
        <ele>1394.523</ele>
        <time>2024-12-27T10:14:42Z</time>
      </trkpt>
      <trkpt lat="46.23131" lon="6.55331">
        <ele>1394.477</ele>
        <time>2024-12-27T10:14:47Z</time>
      </trkpt>
      <trkpt lat="46.23131" lon="6.55331">
        <ele>1394.435</ele>
        <time>2024-12-27T10:14:52Z</time>
      </trkpt>
      <trkpt lat="46.23131" lon="6.55331">
        <ele>1394.388</ele>
        <time>2024-12-27T10:14:57Z</time>
      </trkpt>
      <trkpt lat="46.23131" lon="6.55331">
        <ele>1394.341</ele>
        <time>2024-12-27T10:15:02Z</time>
      </trkpt>
      <trkpt lat="46.23131" lon="6.55331">
        <ele>1394.327</ele>
        <time>2024-12-27T10:15:07Z</time>
      </trkpt>
      <trkpt lat="46.23131" lon="6.55331">
        <ele>1394.323</ele>
        <time>2024-12-27T10:15:12Z</time>
      </trkpt>
      <trkpt lat="46.23131" lon="6.55331">
        <ele>1394.321</ele>
        <time>2024-12-27T10:15:17Z</time>
      </trkpt>
      <trkpt lat="46.23131" lon="6.55331">
        <ele>1394.278</ele>
        <time>2024-12-27T10:15:22Z</time>
      </trkpt>
      <trkpt lat="46.23131" lon="6.55331">
        <ele>1394.2</ele>
        <time>2024-12-27T10:15:27Z</time>
      </trkpt>
      <trkpt lat="46.23131" lon="6.55331">
        <ele>1394.145</ele>
        <time>2024-12-27T10:15:32Z</time>
      </trkpt>
      <trkpt lat="46.23131" lon="6.55331">
        <ele>1394.128</ele>
        <time>2024-12-27T10:15:37Z</time>
      </trkpt>
      <trkpt lat="46.23131" lon="6.55331">
        <ele>1394.108</ele>
        <time>2024-12-27T10:15:42Z</time>
      </trkpt>
      <trkpt lat="46.23131" lon="6.55331">
        <ele>1394.072</ele>
        <time>2024-12-27T10:15:47Z</time>
      </trkpt>
      <trkpt lat="46.23131" lon="6.55331">
        <ele>1394.026</ele>
        <time>2024-12-27T10:15:52Z</time>
      </trkpt>
      <trkpt lat="46.23131" lon="6.55331">
        <ele>1394.01</ele>
        <time>2024-12-27T10:15:57Z</time>
      </trkpt>
      <trkpt lat="46.23131" lon="6.55331">
        <ele>1393.969</ele>
        <time>2024-12-27T10:16:02Z</time>
      </trkpt>
      <trkpt lat="46.23131" lon="6.55331">
        <ele>1393.964</ele>
        <time>2024-12-27T10:16:07Z</time>
      </trkpt>
      <trkpt lat="46.23131" lon="6.55331">
        <ele>1393.982</ele>
        <time>2024-12-27T10:16:12Z</time>
      </trkpt>
      <trkpt lat="46.23131" lon="6.55331">
        <ele>1393.989</ele>
        <time>2024-12-27T10:16:17Z</time>
      </trkpt>
      <trkpt lat="46.23131" lon="6.55331">
        <ele>1393.949</ele>
        <time>2024-12-27T10:16:22Z</time>
      </trkpt>
      <trkpt lat="46.23131" lon="6.55331">
        <ele>1393.924</ele>
        <time>2024-12-27T10:16:27Z</time>
      </trkpt>
      <trkpt lat="46.23131" lon="6.55331">
        <ele>1393.936</ele>
        <time>2024-12-27T10:16:32Z</time>
      </trkpt>
      <trkpt lat="46.23131" lon="6.55331">
        <ele>1393.929</ele>
        <time>2024-12-27T10:16:37Z</time>
      </trkpt>
      <trkpt lat="46.23131" lon="6.55331">
        <ele>1393.922</ele>
        <time>2024-12-27T10:16:42Z</time>
      </trkpt>
      <trkpt lat="46.23131" lon="6.55331">
        <ele>1393.897</ele>
        <time>2024-12-27T10:16:47Z</time>
      </trkpt>
      <trkpt lat="46.23131" lon="6.55331">
        <ele>1393.904</ele>
        <time>2024-12-27T10:16:52Z</time>
      </trkpt>
      <trkpt lat="46.23131" lon="6.55331">
        <ele>1393.901</ele>
        <time>2024-12-27T10:16:57Z</time>
      </trkpt>
      <trkpt lat="46.23131" lon="6.55331">
        <ele>1393.865</ele>
        <time>2024-12-27T10:17:02Z</time>
      </trkpt>
      <trkpt lat="46.23131" lon="6.55331">
        <ele>1393.862</ele>
        <time>2024-12-27T10:17:07Z</time>
      </trkpt>
      <trkpt lat="46.23131" lon="6.55331">
        <ele>1393.854</ele>
        <time>2024-12-27T10:17:12Z</time>
      </trkpt>
      <trkpt lat="46.23131" lon="6.55331">
        <ele>1393.807</ele>
        <time>2024-12-27T10:17:17Z</time>
      </trkpt>
      <trkpt lat="46.23131" lon="6.55331">
        <ele>1393.78</ele>
        <time>2024-12-27T10:17:22Z</time>
      </trkpt>
      <trkpt lat="46.23131" lon="6.55331">
        <ele>1393.762</ele>
        <time>2024-12-27T10:17:27Z</time>
      </trkpt>
      <trkpt lat="46.23131" lon="6.55331">
        <ele>1393.755</ele>
        <time>2024-12-27T10:17:32Z</time>
      </trkpt>
      <trkpt lat="46.23131" lon="6.55331">
        <ele>1393.752</ele>
        <time>2024-12-27T10:17:37Z</time>
      </trkpt>
      <trkpt lat="46.23131" lon="6.55331">
        <ele>1393.73</ele>
        <time>2024-12-27T10:17:42Z</time>
      </trkpt>
      <trkpt lat="46.23131" lon="6.55331">
        <ele>1393.699</ele>
        <time>2024-12-27T10:17:47Z</time>
      </trkpt>
      <trkpt lat="46.23131" lon="6.55331">
        <ele>1393.637</ele>
        <time>2024-12-27T10:17:52Z</time>
      </trkpt>
      <trkpt lat="46.23131" lon="6.55331">
        <ele>1393.583</ele>
        <time>2024-12-27T10:17:57Z</time>
      </trkpt>
      <trkpt lat="46.23131" lon="6.55331">
        <ele>1391.86</ele>
        <time>2024-12-27T10:18:02Z</time>
      </trkpt>
      <trkpt lat="46.23131" lon="6.55331">
        <ele>1391.63</ele>
        <time>2024-12-27T10:18:07Z</time>
      </trkpt>
      <trkpt lat="46.23131" lon="6.55331">
        <ele>1391.628</ele>
        <time>2024-12-27T10:18:12Z</time>
      </trkpt>
      <trkpt lat="46.23131" lon="6.55331">
        <ele>1390.383</ele>
        <time>2024-12-27T10:18:17Z</time>
      </trkpt>
      <trkpt lat="46.23131" lon="6.55331">
        <ele>1389.395</ele>
        <time>2024-12-27T10:18:22Z</time>
      </trkpt>
      <trkpt lat="46.23131" lon="6.55331">
        <ele>1390.107</ele>
        <time>2024-12-27T10:18:27Z</time>
      </trkpt>
      <trkpt lat="46.23131" lon="6.55331">
        <ele>1390.076</ele>
        <time>2024-12-27T10:18:32Z</time>
      </trkpt>
      <trkpt lat="46.23131" lon="6.55331">
        <ele>1390.053</ele>
        <time>2024-12-27T10:18:37Z</time>
      </trkpt>
      <trkpt lat="46.23131" lon="6.55331">
        <ele>1390.032</ele>
        <time>2024-12-27T10:18:42Z</time>
      </trkpt>
      <trkpt lat="46.23131" lon="6.55331">
        <ele>1390.001</ele>
        <time>2024-12-27T10:18:47Z</time>
      </trkpt>
      <trkpt lat="46.23131" lon="6.55331">
        <ele>1389.989</ele>
        <time>2024-12-27T10:18:52Z</time>
      </trkpt>
      <trkpt lat="46.23131" lon="6.55331">
        <ele>1389.987</ele>
        <time>2024-12-27T10:18:57Z</time>
      </trkpt>
      <trkpt lat="46.23131" lon="6.55331">
        <ele>1389.965</ele>
        <time>2024-12-27T10:19:02Z</time>
      </trkpt>
      <trkpt lat="46.23131" lon="6.55331">
        <ele>1389.942</ele>
        <time>2024-12-27T10:19:07Z</time>
      </trkpt>
      <trkpt lat="46.23131" lon="6.55331">
        <ele>1389.913</ele>
        <time>2024-12-27T10:19:12Z</time>
      </trkpt>
      <trkpt lat="46.23131" lon="6.55331">
        <ele>1389.898</ele>
        <time>2024-12-27T10:19:17Z</time>
      </trkpt>
      <trkpt lat="46.23131" lon="6.55331">
        <ele>1389.879</ele>
        <time>2024-12-27T10:19:22Z</time>
      </trkpt>
      <trkpt lat="46.23131" lon="6.55331">
        <ele>1389.857</ele>
        <time>2024-12-27T10:19:27Z</time>
      </trkpt>
      <trkpt lat="46.23131" lon="6.55331">
        <ele>1389.862</ele>
        <time>2024-12-27T10:19:32Z</time>
      </trkpt>
      <trkpt lat="46.23131" lon="6.55331">
        <ele>1389.875</ele>
        <time>2024-12-27T10:19:37Z</time>
      </trkpt>
      <trkpt lat="46.23131" lon="6.55331">
        <ele>1389.861</ele>
        <time>2024-12-27T10:19:42Z</time>
      </trkpt>
      <trkpt lat="46.23131" lon="6.55331">
        <ele>1389.846</ele>
        <time>2024-12-27T10:19:47Z</time>
      </trkpt>
      <trkpt lat="46.23131" lon="6.55331">
        <ele>1389.806</ele>
        <time>2024-12-27T10:19:52Z</time>
      </trkpt>
      <trkpt lat="46.23131" lon="6.55331">
        <ele>1389.533</ele>
        <time>2024-12-27T10:19:57Z</time>
      </trkpt>
      <trkpt lat="46.23131" lon="6.55331">
        <ele>1389.511</ele>
        <time>2024-12-27T10:20:02Z</time>
      </trkpt>
      <trkpt lat="46.23131" lon="6.55331">
        <ele>1389.501</ele>
        <time>2024-12-27T10:20:07Z</time>
      </trkpt>
      <trkpt lat="46.23131" lon="6.55331">
        <ele>1389.455</ele>
        <time>2024-12-27T10:20:12Z</time>
      </trkpt>
      <trkpt lat="46.23131" lon="6.55331">
        <ele>1389.42</ele>
        <time>2024-12-27T10:20:17Z</time>
      </trkpt>
      <trkpt lat="46.23131" lon="6.55331">
        <ele>1389.368</ele>
        <time>2024-12-27T10:20:22Z</time>
      </trkpt>
      <trkpt lat="46.23131" lon="6.55331">
        <ele>1389.331</ele>
        <time>2024-12-27T10:20:27Z</time>
      </trkpt>
      <trkpt lat="46.23131" lon="6.55331">
        <ele>1389.29</ele>
        <time>2024-12-27T10:20:32Z</time>
      </trkpt>
      <trkpt lat="46.23131" lon="6.55331">
        <ele>1389.259</ele>
        <time>2024-12-27T10:20:37Z</time>
      </trkpt>
      <trkpt lat="46.23131" lon="6.55331">
        <ele>1389.237</ele>
        <time>2024-12-27T10:20:42Z</time>
      </trkpt>
      <trkpt lat="46.23131" lon="6.55331">
        <ele>1389.218</ele>
        <time>2024-12-27T10:20:47Z</time>
      </trkpt>
      <trkpt lat="46.23131" lon="6.55331">
        <ele>1389.215</ele>
        <time>2024-12-27T10:20:52Z</time>
      </trkpt>
      <trkpt lat="46.23131" lon="6.55331">
        <ele>1389.185</ele>
        <time>2024-12-27T10:20:57Z</time>
      </trkpt>
      <trkpt lat="46.23131" lon="6.55331">
        <ele>1389.189</ele>
        <time>2024-12-27T10:21:02Z</time>
      </trkpt>
      <trkpt lat="46.23131" lon="6.55331">
        <ele>1388.918</ele>
        <time>2024-12-27T10:21:07Z</time>
      </trkpt>
      <trkpt lat="46.23131" lon="6.55331">
        <ele>1388.895</ele>
        <time>2024-12-27T10:21:12Z</time>
      </trkpt>
      <trkpt lat="46.23131" lon="6.55331">
        <ele>1388.84</ele>
        <time>2024-12-27T10:21:17Z</time>
      </trkpt>
      <trkpt lat="46.23131" lon="6.55331">
        <ele>1388.802</ele>
        <time>2024-12-27T10:21:22Z</time>
      </trkpt>
      <trkpt lat="46.23131" lon="6.55331">
        <ele>1388.792</ele>
        <time>2024-12-27T10:21:27Z</time>
      </trkpt>
      <trkpt lat="46.23131" lon="6.55331">
        <ele>1388.121</ele>
        <time>2024-12-27T10:21:32Z</time>
      </trkpt>
      <trkpt lat="46.23131" lon="6.55331">
        <ele>1388.115</ele>
        <time>2024-12-27T10:21:37Z</time>
      </trkpt>
      <trkpt lat="46.23131" lon="6.55331">
        <ele>1388.093</ele>
        <time>2024-12-27T10:21:42Z</time>
      </trkpt>
      <trkpt lat="46.23131" lon="6.55331">
        <ele>1387.955</ele>
        <time>2024-12-27T10:21:47Z</time>
      </trkpt>
      <trkpt lat="46.23131" lon="6.55331">
        <ele>1387.936</ele>
        <time>2024-12-27T10:21:52Z</time>
      </trkpt>
      <trkpt lat="46.23131" lon="6.55331">
        <ele>1387.882</ele>
        <time>2024-12-27T10:21:57Z</time>
      </trkpt>
      <trkpt lat="46.23131" lon="6.55331">
        <ele>1387.858</ele>
        <time>2024-12-27T10:22:02Z</time>
      </trkpt>
      <trkpt lat="46.23131" lon="6.55331">
        <ele>1387.835</ele>
        <time>2024-12-27T10:22:07Z</time>
      </trkpt>
      <trkpt lat="46.23131" lon="6.55331">
        <ele>1387.837</ele>
        <time>2024-12-27T10:22:12Z</time>
      </trkpt>
      <trkpt lat="46.23131" lon="6.55331">
        <ele>1387.81</ele>
        <time>2024-12-27T10:22:17Z</time>
      </trkpt>
      <trkpt lat="46.23131" lon="6.55331">
        <ele>1387.818</ele>
        <time>2024-12-27T10:22:22Z</time>
      </trkpt>
      <trkpt lat="46.23131" lon="6.55331">
        <ele>1387.813</ele>
        <time>2024-12-27T10:22:27Z</time>
      </trkpt>
      <trkpt lat="46.23131" lon="6.55331">
        <ele>1387.815</ele>
        <time>2024-12-27T10:22:32Z</time>
      </trkpt>
      <trkpt lat="46.23131" lon="6.55331">
        <ele>1387.804</ele>
        <time>2024-12-27T10:22:37Z</time>
      </trkpt>
      <trkpt lat="46.23131" lon="6.55331">
        <ele>1387.794</ele>
        <time>2024-12-27T10:22:42Z</time>
      </trkpt>
      <trkpt lat="46.23131" lon="6.55331">
        <ele>1387.771</ele>
        <time>2024-12-27T10:22:47Z</time>
      </trkpt>
      <trkpt lat="46.23131" lon="6.55331">
        <ele>1387.751</ele>
        <time>2024-12-27T10:22:52Z</time>
      </trkpt>
      <trkpt lat="46.23131" lon="6.55331">
        <ele>1387.744</ele>
        <time>2024-12-27T10:22:57Z</time>
      </trkpt>
      <trkpt lat="46.23131" lon="6.55331">
        <ele>1387.716</ele>
        <time>2024-12-27T10:23:02Z</time>
      </trkpt>
      <trkpt lat="46.23131" lon="6.55331">
        <ele>1387.699</ele>
        <time>2024-12-27T10:23:07Z</time>
      </trkpt>
      <trkpt lat="46.23131" lon="6.55331">
        <ele>1387.665</ele>
        <time>2024-12-27T10:23:12Z</time>
      </trkpt>
      <trkpt lat="46.23131" lon="6.55331">
        <ele>1387.659</ele>
        <time>2024-12-27T10:23:17Z</time>
      </trkpt>
      <trkpt lat="46.23131" lon="6.55331">
        <ele>1387.631</ele>
        <time>2024-12-27T10:23:22Z</time>
      </trkpt>
      <trkpt lat="46.23131" lon="6.55331">
        <ele>1387.62</ele>
        <time>2024-12-27T10:23:27Z</time>
      </trkpt>
      <trkpt lat="46.23131" lon="6.55331">
        <ele>1387.639</ele>
        <time>2024-12-27T10:23:32Z</time>
      </trkpt>
      <trkpt lat="46.23131" lon="6.55331">
        <ele>1387.584</ele>
        <time>2024-12-27T10:23:37Z</time>
      </trkpt>
      <trkpt lat="46.23131" lon="6.55331">
        <ele>1386.829</ele>
        <time>2024-12-27T10:23:42Z</time>
      </trkpt>
      <trkpt lat="46.23131" lon="6.55331">
        <ele>1385.868</ele>
        <time>2024-12-27T10:23:47Z</time>
      </trkpt>
      <trkpt lat="46.23131" lon="6.55331">
        <ele>1385.497</ele>
        <time>2024-12-27T10:23:52Z</time>
      </trkpt>
      <trkpt lat="46.23131" lon="6.55331">
        <ele>1385.484</ele>
        <time>2024-12-27T10:23:57Z</time>
      </trkpt>
      <trkpt lat="46.23131" lon="6.55331">
        <ele>1385.486</ele>
        <time>2024-12-27T10:24:02Z</time>
      </trkpt>
      <trkpt lat="46.23131" lon="6.55331">
        <ele>1385.464</ele>
        <time>2024-12-27T10:24:07Z</time>
      </trkpt>
      <trkpt lat="46.23131" lon="6.55331">
        <ele>1385.077</ele>
        <time>2024-12-27T10:24:12Z</time>
      </trkpt>
      <trkpt lat="46.23131" lon="6.55331">
        <ele>1385.056</ele>
        <time>2024-12-27T10:24:17Z</time>
      </trkpt>
      <trkpt lat="46.23131" lon="6.55331">
        <ele>1385.052</ele>
        <time>2024-12-27T10:24:22Z</time>
      </trkpt>
      <trkpt lat="46.23131" lon="6.55331">
        <ele>1385.041</ele>
        <time>2024-12-27T10:24:27Z</time>
      </trkpt>
      <trkpt lat="46.23131" lon="6.55331">
        <ele>1385.022</ele>
        <time>2024-12-27T10:24:32Z</time>
      </trkpt>
      <trkpt lat="46.23131" lon="6.55331">
        <ele>1385.012</ele>
        <time>2024-12-27T10:24:37Z</time>
      </trkpt>
      <trkpt lat="46.23131" lon="6.55331">
        <ele>1384.999</ele>
        <time>2024-12-27T10:24:42Z</time>
      </trkpt>
      <trkpt lat="46.23131" lon="6.55331">
        <ele>1384.992</ele>
        <time>2024-12-27T10:24:47Z</time>
      </trkpt>
      <trkpt lat="46.23131" lon="6.55331">
        <ele>1385.001</ele>
        <time>2024-12-27T10:24:52Z</time>
      </trkpt>
      <trkpt lat="46.23131" lon="6.55331">
        <ele>1384.983</ele>
        <time>2024-12-27T10:24:57Z</time>
      </trkpt>
      <trkpt lat="46.23131" lon="6.55331">
        <ele>1384.979</ele>
        <time>2024-12-27T10:25:02Z</time>
      </trkpt>
      <trkpt lat="46.23131" lon="6.55331">
        <ele>1384.966</ele>
        <time>2024-12-27T10:25:07Z</time>
      </trkpt>
      <trkpt lat="46.23131" lon="6.55331">
        <ele>1384.969</ele>
        <time>2024-12-27T10:25:12Z</time>
      </trkpt>
      <trkpt lat="46.23131" lon="6.55331">
        <ele>1384.976</ele>
        <time>2024-12-27T10:25:17Z</time>
      </trkpt>
      <trkpt lat="46.23131" lon="6.55331">
        <ele>1384.978</ele>
        <time>2024-12-27T10:25:22Z</time>
      </trkpt>
      <trkpt lat="46.23131" lon="6.55331">
        <ele>1384.953</ele>
        <time>2024-12-27T10:25:27Z</time>
      </trkpt>
      <trkpt lat="46.23131" lon="6.55331">
        <ele>1384.94</ele>
        <time>2024-12-27T10:25:32Z</time>
      </trkpt>
      <trkpt lat="46.23131" lon="6.55331">
        <ele>1384.94</ele>
        <time>2024-12-27T10:25:37Z</time>
      </trkpt>
      <trkpt lat="46.23131" lon="6.55331">
        <ele>1384.933</ele>
        <time>2024-12-27T10:25:42Z</time>
      </trkpt>
      <trkpt lat="46.23131" lon="6.55331">
        <ele>1384.92</ele>
        <time>2024-12-27T10:25:47Z</time>
      </trkpt>
      <trkpt lat="46.23131" lon="6.55331">
        <ele>1384.923</ele>
        <time>2024-12-27T10:25:52Z</time>
      </trkpt>
      <trkpt lat="46.23131" lon="6.55331">
        <ele>1384.783</ele>
        <time>2024-12-27T10:25:57Z</time>
      </trkpt>
      <trkpt lat="46.23131" lon="6.55331">
        <ele>1384.473</ele>
        <time>2024-12-27T10:26:02Z</time>
      </trkpt>
      <trkpt lat="46.23131" lon="6.55331">
        <ele>1384.489</ele>
        <time>2024-12-27T10:26:07Z</time>
      </trkpt>
      <trkpt lat="46.23131" lon="6.55331">
        <ele>1384.497</ele>
        <time>2024-12-27T10:26:12Z</time>
      </trkpt>
      <trkpt lat="46.23131" lon="6.55331">
        <ele>1384.499</ele>
        <time>2024-12-27T10:26:17Z</time>
      </trkpt>
      <trkpt lat="46.23131" lon="6.55331">
        <ele>1384.521</ele>
        <time>2024-12-27T10:26:22Z</time>
      </trkpt>
      <trkpt lat="46.23131" lon="6.55331">
        <ele>1384.52</ele>
        <time>2024-12-27T10:26:27Z</time>
      </trkpt>
      <trkpt lat="46.23131" lon="6.55331">
        <ele>1384.496</ele>
        <time>2024-12-27T10:26:32Z</time>
      </trkpt>
      <trkpt lat="46.23131" lon="6.55331">
        <ele>1383.876</ele>
        <time>2024-12-27T10:26:37Z</time>
      </trkpt>
      <trkpt lat="46.23131" lon="6.55331">
        <ele>1383.849</ele>
        <time>2024-12-27T10:26:42Z</time>
      </trkpt>
      <trkpt lat="46.23131" lon="6.55331">
        <ele>1383.878</ele>
        <time>2024-12-27T10:26:47Z</time>
      </trkpt>
      <trkpt lat="46.23131" lon="6.55331">
        <ele>1383.559</ele>
        <time>2024-12-27T10:26:52Z</time>
      </trkpt>
      <trkpt lat="46.23131" lon="6.55331">
        <ele>1383.567</ele>
        <time>2024-12-27T10:26:57Z</time>
      </trkpt>
      <trkpt lat="46.23131" lon="6.55331">
        <ele>1383.557</ele>
        <time>2024-12-27T10:27:02Z</time>
      </trkpt>
      <trkpt lat="46.23131" lon="6.55331">
        <ele>1383.616</ele>
        <time>2024-12-27T10:27:07Z</time>
      </trkpt>
      <trkpt lat="46.23131" lon="6.55331">
        <ele>1383.449</ele>
        <time>2024-12-27T10:27:12Z</time>
      </trkpt>
      <trkpt lat="46.23131" lon="6.55331">
        <ele>1384.564</ele>
        <time>2024-12-27T10:27:17Z</time>
      </trkpt>
      <trkpt lat="46.23131" lon="6.55331">
        <ele>1385.021</ele>
        <time>2024-12-27T10:27:22Z</time>
      </trkpt>
      <trkpt lat="46.23131" lon="6.55331">
        <ele>1385.357</ele>
        <time>2024-12-27T10:27:27Z</time>
      </trkpt>
      <trkpt lat="46.23131" lon="6.55331">
        <ele>1385.371</ele>
        <time>2024-12-27T10:27:32Z</time>
      </trkpt>
      <trkpt lat="46.23131" lon="6.55331">
        <ele>1385.375</ele>
        <time>2024-12-27T10:27:37Z</time>
      </trkpt>
      <trkpt lat="46.23131" lon="6.55331">
        <ele>1385.368</ele>
        <time>2024-12-27T10:27:42Z</time>
      </trkpt>
      <trkpt lat="46.23131" lon="6.55331">
        <ele>1385.366</ele>
        <time>2024-12-27T10:27:47Z</time>
      </trkpt>
      <trkpt lat="46.23131" lon="6.55331">
        <ele>1385.374</ele>
        <time>2024-12-27T10:27:52Z</time>
      </trkpt>
      <trkpt lat="46.23131" lon="6.55331">
        <ele>1385.37</ele>
        <time>2024-12-27T10:27:57Z</time>
      </trkpt>
      <trkpt lat="46.23131" lon="6.55331">
        <ele>1385.379</ele>
        <time>2024-12-27T10:28:02Z</time>
      </trkpt>
      <trkpt lat="46.23131" lon="6.55331">
        <ele>1385.389</ele>
        <time>2024-12-27T10:28:07Z</time>
      </trkpt>
      <trkpt lat="46.23131" lon="6.55331">
        <ele>1385.4</ele>
        <time>2024-12-27T10:28:12Z</time>
      </trkpt>
      <trkpt lat="46.23131" lon="6.55331">
        <ele>1385.405</ele>
        <time>2024-12-27T10:28:17Z</time>
      </trkpt>
      <trkpt lat="46.23131" lon="6.55331">
        <ele>1385.779</ele>
        <time>2024-12-27T10:28:22Z</time>
      </trkpt>
      <trkpt lat="46.23131" lon="6.55331">
        <ele>1387.981</ele>
        <time>2024-12-27T10:28:27Z</time>
      </trkpt>
      <trkpt lat="46.23131" lon="6.55331">
        <ele>1388.13</ele>
        <time>2024-12-27T10:28:32Z</time>
      </trkpt>
      <trkpt lat="46.23131" lon="6.55331">
        <ele>1387.835</ele>
        <time>2024-12-27T10:28:37Z</time>
      </trkpt>
      <trkpt lat="46.23131" lon="6.55331">
        <ele>1387.813</ele>
        <time>2024-12-27T10:28:42Z</time>
      </trkpt>
      <trkpt lat="46.23136" lon="6.55341">
        <ele>1387.811</ele>
        <time>2024-12-27T10:28:47Z</time>
      </trkpt>
      <trkpt lat="46.23136" lon="6.55341">
        <ele>1387.805</ele>
        <time>2024-12-27T10:28:52Z</time>
      </trkpt>
      <trkpt lat="46.23136" lon="6.55341">
        <ele>1387.807</ele>
        <time>2024-12-27T10:28:57Z</time>
      </trkpt>
      <trkpt lat="46.23136" lon="6.55341">
        <ele>1388.196</ele>
        <time>2024-12-27T10:29:02Z</time>
      </trkpt>
      <trkpt lat="46.23137" lon="6.55342">
        <ele>1387.385</ele>
        <time>2024-12-27T10:29:07Z</time>
      </trkpt>
      <trkpt lat="46.23138" lon="6.55344">
        <ele>1387.998</ele>
        <time>2024-12-27T10:29:12Z</time>
      </trkpt>
      <trkpt lat="46.2314" lon="6.55345">
        <ele>1387.982</ele>
        <time>2024-12-27T10:29:17Z</time>
      </trkpt>
      <trkpt lat="46.23142" lon="6.55345">
        <ele>1388.103</ele>
        <time>2024-12-27T10:29:22Z</time>
      </trkpt>
      <trkpt lat="46.23145" lon="6.55345">
        <ele>1389.436</ele>
        <time>2024-12-27T10:29:27Z</time>
      </trkpt>
      <trkpt lat="46.23147" lon="6.55344">
        <ele>1391.223</ele>
        <time>2024-12-27T10:29:32Z</time>
      </trkpt>
      <trkpt lat="46.23149" lon="6.55344">
        <ele>1391.253</ele>
        <time>2024-12-27T10:29:37Z</time>
      </trkpt>
      <trkpt lat="46.23152" lon="6.55343">
        <ele>1392.495</ele>
        <time>2024-12-27T10:29:42Z</time>
      </trkpt>
      <trkpt lat="46.23154" lon="6.55343">
        <ele>1392.085</ele>
        <time>2024-12-27T10:29:47Z</time>
      </trkpt>
      <trkpt lat="46.23156" lon="6.55343">
        <ele>1392.672</ele>
        <time>2024-12-27T10:29:52Z</time>
      </trkpt>
      <trkpt lat="46.23158" lon="6.55343">
        <ele>1393.613</ele>
        <time>2024-12-27T10:29:57Z</time>
      </trkpt>
      <trkpt lat="46.23161" lon="6.55343">
        <ele>1394.927</ele>
        <time>2024-12-27T10:30:02Z</time>
      </trkpt>
      <trkpt lat="46.23164" lon="6.55343">
        <ele>1396.415</ele>
        <time>2024-12-27T10:30:07Z</time>
      </trkpt>
      <trkpt lat="46.23166" lon="6.55343">
        <ele>1396.935</ele>
        <time>2024-12-27T10:30:12Z</time>
      </trkpt>
      <trkpt lat="46.23169" lon="6.55343">
        <ele>1398.299</ele>
        <time>2024-12-27T10:30:17Z</time>
      </trkpt>
      <trkpt lat="46.2317" lon="6.55343">
        <ele>1399.453</ele>
        <time>2024-12-27T10:30:22Z</time>
      </trkpt>
      <trkpt lat="46.23173" lon="6.55342">
        <ele>1398.996</ele>
        <time>2024-12-27T10:30:27Z</time>
      </trkpt>
      <trkpt lat="46.23175" lon="6.55342">
        <ele>1399.896</ele>
        <time>2024-12-27T10:30:32Z</time>
      </trkpt>
      <trkpt lat="46.23178" lon="6.55343">
        <ele>1400.671</ele>
        <time>2024-12-27T10:30:37Z</time>
      </trkpt>
      <trkpt lat="46.2318" lon="6.55344">
        <ele>1401.561</ele>
        <time>2024-12-27T10:30:42Z</time>
      </trkpt>
      <trkpt lat="46.23182" lon="6.55345">
        <ele>1401.892</ele>
        <time>2024-12-27T10:30:47Z</time>
      </trkpt>
      <trkpt lat="46.23185" lon="6.55345">
        <ele>1403.513</ele>
        <time>2024-12-27T10:30:52Z</time>
      </trkpt>
      <trkpt lat="46.23187" lon="6.55345">
        <ele>1403.641</ele>
        <time>2024-12-27T10:30:57Z</time>
      </trkpt>
      <trkpt lat="46.23189" lon="6.55346">
        <ele>1404.877</ele>
        <time>2024-12-27T10:31:02Z</time>
      </trkpt>
      <trkpt lat="46.2319" lon="6.55347">
        <ele>1404.914</ele>
        <time>2024-12-27T10:31:07Z</time>
      </trkpt>
      <trkpt lat="46.2319" lon="6.5535">
        <ele>1405.041</ele>
        <time>2024-12-27T10:31:12Z</time>
      </trkpt>
      <trkpt lat="46.23189" lon="6.55352">
        <ele>1405.26</ele>
        <time>2024-12-27T10:31:17Z</time>
      </trkpt>
      <trkpt lat="46.23189" lon="6.55354">
        <ele>1404.952</ele>
        <time>2024-12-27T10:31:22Z</time>
      </trkpt>
      <trkpt lat="46.23189" lon="6.55356">
        <ele>1406.273</ele>
        <time>2024-12-27T10:31:27Z</time>
      </trkpt>
      <trkpt lat="46.2319" lon="6.55359">
        <ele>1407.725</ele>
        <time>2024-12-27T10:31:32Z</time>
      </trkpt>
      <trkpt lat="46.23191" lon="6.55363">
        <ele>1408.297</ele>
        <time>2024-12-27T10:31:37Z</time>
      </trkpt>
      <trkpt lat="46.23192" lon="6.55366">
        <ele>1409.183</ele>
        <time>2024-12-27T10:31:42Z</time>
      </trkpt>
      <trkpt lat="46.23193" lon="6.55369">
        <ele>1410.413</ele>
        <time>2024-12-27T10:31:47Z</time>
      </trkpt>
      <trkpt lat="46.23194" lon="6.55372">
        <ele>1410.981</ele>
        <time>2024-12-27T10:31:52Z</time>
      </trkpt>
      <trkpt lat="46.23195" lon="6.55375">
        <ele>1411.252</ele>
        <time>2024-12-27T10:31:57Z</time>
      </trkpt>
      <trkpt lat="46.23197" lon="6.55378">
        <ele>1412.069</ele>
        <time>2024-12-27T10:32:02Z</time>
      </trkpt>
      <trkpt lat="46.23198" lon="6.5538">
        <ele>1412.466</ele>
        <time>2024-12-27T10:32:07Z</time>
      </trkpt>
      <trkpt lat="46.232" lon="6.55382">
        <ele>1414.016</ele>
        <time>2024-12-27T10:32:12Z</time>
      </trkpt>
      <trkpt lat="46.23203" lon="6.55381">
        <ele>1414.657</ele>
        <time>2024-12-27T10:32:17Z</time>
      </trkpt>
      <trkpt lat="46.23205" lon="6.55381">
        <ele>1415.145</ele>
        <time>2024-12-27T10:32:22Z</time>
      </trkpt>
      <trkpt lat="46.23207" lon="6.55381">
        <ele>1415.66</ele>
        <time>2024-12-27T10:32:27Z</time>
      </trkpt>
      <trkpt lat="46.23209" lon="6.5538">
        <ele>1416.297</ele>
        <time>2024-12-27T10:32:32Z</time>
      </trkpt>
      <trkpt lat="46.23211" lon="6.55379">
        <ele>1416.017</ele>
        <time>2024-12-27T10:32:37Z</time>
      </trkpt>
      <trkpt lat="46.23214" lon="6.55379">
        <ele>1416.574</ele>
        <time>2024-12-27T10:32:42Z</time>
      </trkpt>
      <trkpt lat="46.23216" lon="6.55379">
        <ele>1417.34</ele>
        <time>2024-12-27T10:32:47Z</time>
      </trkpt>
      <trkpt lat="46.23218" lon="6.55377">
        <ele>1418.425</ele>
        <time>2024-12-27T10:32:52Z</time>
      </trkpt>
      <trkpt lat="46.2322" lon="6.55377">
        <ele>1420.032</ele>
        <time>2024-12-27T10:32:57Z</time>
      </trkpt>
      <trkpt lat="46.23222" lon="6.55378">
        <ele>1421.286</ele>
        <time>2024-12-27T10:33:02Z</time>
      </trkpt>
      <trkpt lat="46.23223" lon="6.55377">
        <ele>1421.284</ele>
        <time>2024-12-27T10:33:07Z</time>
      </trkpt>
      <trkpt lat="46.23225" lon="6.5538">
        <ele>1422.935</ele>
        <time>2024-12-27T10:33:12Z</time>
      </trkpt>
      <trkpt lat="46.23228" lon="6.55379">
        <ele>1424.296</ele>
        <time>2024-12-27T10:33:17Z</time>
      </trkpt>
      <trkpt lat="46.23229" lon="6.5538">
        <ele>1425.139</ele>
        <time>2024-12-27T10:33:22Z</time>
      </trkpt>
      <trkpt lat="46.23231" lon="6.55381">
        <ele>1425.684</ele>
        <time>2024-12-27T10:33:27Z</time>
      </trkpt>
      <trkpt lat="46.23233" lon="6.55382">
        <ele>1425.414</ele>
        <time>2024-12-27T10:33:32Z</time>
      </trkpt>
      <trkpt lat="46.23236" lon="6.55382">
        <ele>1424.599</ele>
        <time>2024-12-27T10:33:37Z</time>
      </trkpt>
      <trkpt lat="46.23238" lon="6.55383">
        <ele>1422.673</ele>
        <time>2024-12-27T10:33:42Z</time>
      </trkpt>
      <trkpt lat="46.23241" lon="6.55384">
        <ele>1422.4</ele>
        <time>2024-12-27T10:33:47Z</time>
      </trkpt>
      <trkpt lat="46.23243" lon="6.55384">
        <ele>1423.216</ele>
        <time>2024-12-27T10:33:52Z</time>
      </trkpt>
      <trkpt lat="46.23245" lon="6.55385">
        <ele>1425.915</ele>
        <time>2024-12-27T10:33:57Z</time>
      </trkpt>
      <trkpt lat="46.23248" lon="6.55384">
        <ele>1423.471</ele>
        <time>2024-12-27T10:34:02Z</time>
      </trkpt>
      <trkpt lat="46.2325" lon="6.55383">
        <ele>1422.615</ele>
        <time>2024-12-27T10:34:07Z</time>
      </trkpt>
      <trkpt lat="46.23252" lon="6.55383">
        <ele>1423.425</ele>
        <time>2024-12-27T10:34:12Z</time>
      </trkpt>
      <trkpt lat="46.23254" lon="6.55383">
        <ele>1423.671</ele>
        <time>2024-12-27T10:34:17Z</time>
      </trkpt>
      <trkpt lat="46.23256" lon="6.55384">
        <ele>1424.971</ele>
        <time>2024-12-27T10:34:22Z</time>
      </trkpt>
      <trkpt lat="46.23258" lon="6.55384">
        <ele>1425.304</ele>
        <time>2024-12-27T10:34:27Z</time>
      </trkpt>
      <trkpt lat="46.23261" lon="6.55384">
        <ele>1427.122</ele>
        <time>2024-12-27T10:34:32Z</time>
      </trkpt>
      <trkpt lat="46.23263" lon="6.55383">
        <ele>1428.671</ele>
        <time>2024-12-27T10:34:37Z</time>
      </trkpt>
      <trkpt lat="46.23265" lon="6.55384">
        <ele>1429.396</ele>
        <time>2024-12-27T10:34:42Z</time>
      </trkpt>
      <trkpt lat="46.23268" lon="6.55384">
        <ele>1428.582</ele>
        <time>2024-12-27T10:34:47Z</time>
      </trkpt>
      <trkpt lat="46.2327" lon="6.55383">
        <ele>1428.907</ele>
        <time>2024-12-27T10:34:52Z</time>
      </trkpt>
      <trkpt lat="46.23272" lon="6.55382">
        <ele>1430.297</ele>
        <time>2024-12-27T10:34:57Z</time>
      </trkpt>
      <trkpt lat="46.23274" lon="6.55382">
        <ele>1430.489</ele>
        <time>2024-12-27T10:35:02Z</time>
      </trkpt>
      <trkpt lat="46.23277" lon="6.55381">
        <ele>1431.017</ele>
        <time>2024-12-27T10:35:07Z</time>
      </trkpt>
      <trkpt lat="46.23279" lon="6.5538">
        <ele>1433.089</ele>
        <time>2024-12-27T10:35:12Z</time>
      </trkpt>
      <trkpt lat="46.23282" lon="6.5538">
        <ele>1434.203</ele>
        <time>2024-12-27T10:35:17Z</time>
      </trkpt>
      <trkpt lat="46.23284" lon="6.5538">
        <ele>1434.671</ele>
        <time>2024-12-27T10:35:22Z</time>
      </trkpt>
      <trkpt lat="46.23286" lon="6.5538">
        <ele>1434.781</ele>
        <time>2024-12-27T10:35:27Z</time>
      </trkpt>
      <trkpt lat="46.23288" lon="6.5538">
        <ele>1437.149</ele>
        <time>2024-12-27T10:35:32Z</time>
      </trkpt>
      <trkpt lat="46.23291" lon="6.55379">
        <ele>1438.939</ele>
        <time>2024-12-27T10:35:37Z</time>
      </trkpt>
      <trkpt lat="46.23293" lon="6.55378">
        <ele>1438.584</ele>
        <time>2024-12-27T10:35:42Z</time>
      </trkpt>
      <trkpt lat="46.23296" lon="6.55377">
        <ele>1439.777</ele>
        <time>2024-12-27T10:35:47Z</time>
      </trkpt>
      <trkpt lat="46.23298" lon="6.55377">
        <ele>1441.757</ele>
        <time>2024-12-27T10:35:52Z</time>
      </trkpt>
      <trkpt lat="46.23301" lon="6.55377">
        <ele>1441.533</ele>
        <time>2024-12-27T10:35:57Z</time>
      </trkpt>
      <trkpt lat="46.23303" lon="6.55376">
        <ele>1441.911</ele>
        <time>2024-12-27T10:36:02Z</time>
      </trkpt>
      <trkpt lat="46.23306" lon="6.55376">
        <ele>1441.493</ele>
        <time>2024-12-27T10:36:07Z</time>
      </trkpt>
      <trkpt lat="46.23308" lon="6.55376">
        <ele>1441.071</ele>
        <time>2024-12-27T10:36:12Z</time>
      </trkpt>
      <trkpt lat="46.23311" lon="6.55375">
        <ele>1441.569</ele>
        <time>2024-12-27T10:36:17Z</time>
      </trkpt>
      <trkpt lat="46.23314" lon="6.55374">
        <ele>1441.614</ele>
        <time>2024-12-27T10:36:22Z</time>
      </trkpt>
      <trkpt lat="46.23316" lon="6.55374">
        <ele>1441.635</ele>
        <time>2024-12-27T10:36:27Z</time>
      </trkpt>
      <trkpt lat="46.23318" lon="6.55374">
        <ele>1441.706</ele>
        <time>2024-12-27T10:36:32Z</time>
      </trkpt>
      <trkpt lat="46.23321" lon="6.55374">
        <ele>1442.842</ele>
        <time>2024-12-27T10:36:37Z</time>
      </trkpt>
      <trkpt lat="46.23324" lon="6.55373">
        <ele>1441.796</ele>
        <time>2024-12-27T10:36:42Z</time>
      </trkpt>
      <trkpt lat="46.23327" lon="6.55373">
        <ele>1443.735</ele>
        <time>2024-12-27T10:36:47Z</time>
      </trkpt>
      <trkpt lat="46.23329" lon="6.55372">
        <ele>1443.009</ele>
        <time>2024-12-27T10:36:52Z</time>
      </trkpt>
      <trkpt lat="46.23332" lon="6.55371">
        <ele>1443.981</ele>
        <time>2024-12-27T10:36:57Z</time>
      </trkpt>
      <trkpt lat="46.23335" lon="6.55371">
        <ele>1443.777</ele>
        <time>2024-12-27T10:37:02Z</time>
      </trkpt>
      <trkpt lat="46.23337" lon="6.5537">
        <ele>1444.931</ele>
        <time>2024-12-27T10:37:07Z</time>
      </trkpt>
      <trkpt lat="46.23339" lon="6.5537">
        <ele>1445.053</ele>
        <time>2024-12-27T10:37:12Z</time>
      </trkpt>
      <trkpt lat="46.23341" lon="6.5537">
        <ele>1443.785</ele>
        <time>2024-12-27T10:37:17Z</time>
      </trkpt>
      <trkpt lat="46.23344" lon="6.55369">
        <ele>1444.035</ele>
        <time>2024-12-27T10:37:22Z</time>
      </trkpt>
      <trkpt lat="46.23347" lon="6.55369">
        <ele>1444.739</ele>
        <time>2024-12-27T10:37:27Z</time>
      </trkpt>
      <trkpt lat="46.2335" lon="6.5537">
        <ele>1446.182</ele>
        <time>2024-12-27T10:37:32Z</time>
      </trkpt>
      <trkpt lat="46.23353" lon="6.55371">
        <ele>1447.75</ele>
        <time>2024-12-27T10:37:37Z</time>
      </trkpt>
      <trkpt lat="46.23356" lon="6.55372">
        <ele>1448.298</ele>
        <time>2024-12-27T10:37:42Z</time>
      </trkpt>
      <trkpt lat="46.23358" lon="6.55374">
        <ele>1449.344</ele>
        <time>2024-12-27T10:37:47Z</time>
      </trkpt>
      <trkpt lat="46.23361" lon="6.55375">
        <ele>1450.081</ele>
        <time>2024-12-27T10:37:52Z</time>
      </trkpt>
      <trkpt lat="46.23364" lon="6.55375">
        <ele>1450.458</ele>
        <time>2024-12-27T10:37:57Z</time>
      </trkpt>
      <trkpt lat="46.23367" lon="6.55376">
        <ele>1450.91</ele>
        <time>2024-12-27T10:38:02Z</time>
      </trkpt>
      <trkpt lat="46.2337" lon="6.55376">
        <ele>1451.291</ele>
        <time>2024-12-27T10:38:07Z</time>
      </trkpt>
      <trkpt lat="46.23372" lon="6.55377">
        <ele>1451.517</ele>
        <time>2024-12-27T10:38:12Z</time>
      </trkpt>
      <trkpt lat="46.23374" lon="6.55378">
        <ele>1452.56</ele>
        <time>2024-12-27T10:38:17Z</time>
      </trkpt>
      <trkpt lat="46.23376" lon="6.55379">
        <ele>1453.333</ele>
        <time>2024-12-27T10:38:22Z</time>
      </trkpt>
      <trkpt lat="46.23378" lon="6.5538">
        <ele>1454.782</ele>
        <time>2024-12-27T10:38:27Z</time>
      </trkpt>
      <trkpt lat="46.2338" lon="6.55382">
        <ele>1455.213</ele>
        <time>2024-12-27T10:38:32Z</time>
      </trkpt>
      <trkpt lat="46.23382" lon="6.55383">
        <ele>1455.802</ele>
        <time>2024-12-27T10:38:37Z</time>
      </trkpt>
      <trkpt lat="46.23383" lon="6.55385">
        <ele>1456.784</ele>
        <time>2024-12-27T10:38:42Z</time>
      </trkpt>
      <trkpt lat="46.23382" lon="6.55387">
        <ele>1456.406</ele>
        <time>2024-12-27T10:38:47Z</time>
      </trkpt>
      <trkpt lat="46.2338" lon="6.5539">
        <ele>1457.682</ele>
        <time>2024-12-27T10:38:52Z</time>
      </trkpt>
      <trkpt lat="46.2338" lon="6.55393">
        <ele>1458.344</ele>
        <time>2024-12-27T10:38:57Z</time>
      </trkpt>
      <trkpt lat="46.2338" lon="6.55396">
        <ele>1459.303</ele>
        <time>2024-12-27T10:39:02Z</time>
      </trkpt>
      <trkpt lat="46.23381" lon="6.554">
        <ele>1458.682</ele>
        <time>2024-12-27T10:39:07Z</time>
      </trkpt>
      <trkpt lat="46.23382" lon="6.55403">
        <ele>1460.708</ele>
        <time>2024-12-27T10:39:12Z</time>
      </trkpt>
      <trkpt lat="46.23382" lon="6.55407">
        <ele>1461.125</ele>
        <time>2024-12-27T10:39:17Z</time>
      </trkpt>
      <trkpt lat="46.23384" lon="6.55411">
        <ele>1461.727</ele>
        <time>2024-12-27T10:39:22Z</time>
      </trkpt>
      <trkpt lat="46.23385" lon="6.55415">
        <ele>1461.921</ele>
        <time>2024-12-27T10:39:27Z</time>
      </trkpt>
      <trkpt lat="46.23385" lon="6.55418">
        <ele>1461.822</ele>
        <time>2024-12-27T10:39:32Z</time>
      </trkpt>
      <trkpt lat="46.23386" lon="6.5542">
        <ele>1461.588</ele>
        <time>2024-12-27T10:39:37Z</time>
      </trkpt>
      <trkpt lat="46.23387" lon="6.55424">
        <ele>1462.521</ele>
        <time>2024-12-27T10:39:42Z</time>
      </trkpt>
      <trkpt lat="46.23389" lon="6.55426">
        <ele>1463.851</ele>
        <time>2024-12-27T10:39:47Z</time>
      </trkpt>
      <trkpt lat="46.2339" lon="6.5543">
        <ele>1463.993</ele>
        <time>2024-12-27T10:39:52Z</time>
      </trkpt>
      <trkpt lat="46.23392" lon="6.55434">
        <ele>1464.801</ele>
        <time>2024-12-27T10:39:57Z</time>
      </trkpt>
      <trkpt lat="46.23394" lon="6.55437">
        <ele>1465.505</ele>
        <time>2024-12-27T10:40:02Z</time>
      </trkpt>
      <trkpt lat="46.23396" lon="6.55441">
        <ele>1466.071</ele>
        <time>2024-12-27T10:40:07Z</time>
      </trkpt>
      <trkpt lat="46.23399" lon="6.55445">
        <ele>1465.034</ele>
        <time>2024-12-27T10:40:12Z</time>
      </trkpt>
      <trkpt lat="46.23401" lon="6.55448">
        <ele>1465.4</ele>
        <time>2024-12-27T10:40:17Z</time>
      </trkpt>
      <trkpt lat="46.23402" lon="6.55448">
        <ele>1465.056</ele>
        <time>2024-12-27T10:40:22Z</time>
      </trkpt>
      <trkpt lat="46.23402" lon="6.55448">
        <ele>1465.06</ele>
        <time>2024-12-27T10:40:27Z</time>
      </trkpt>
      <trkpt lat="46.23402" lon="6.55449">
        <ele>1465.174</ele>
        <time>2024-12-27T10:40:32Z</time>
      </trkpt>
      <trkpt lat="46.23404" lon="6.55452">
        <ele>1465.926</ele>
        <time>2024-12-27T10:40:37Z</time>
      </trkpt>
      <trkpt lat="46.23406" lon="6.55454">
        <ele>1466.469</ele>
        <time>2024-12-27T10:40:42Z</time>
      </trkpt>
      <trkpt lat="46.23407" lon="6.55456">
        <ele>1466.936</ele>
        <time>2024-12-27T10:40:47Z</time>
      </trkpt>
      <trkpt lat="46.23409" lon="6.5546">
        <ele>1466.832</ele>
        <time>2024-12-27T10:40:52Z</time>
      </trkpt>
      <trkpt lat="46.23411" lon="6.55465">
        <ele>1466.957</ele>
        <time>2024-12-27T10:40:57Z</time>
      </trkpt>
      <trkpt lat="46.23413" lon="6.55468">
        <ele>1466.804</ele>
        <time>2024-12-27T10:41:02Z</time>
      </trkpt>
      <trkpt lat="46.23415" lon="6.55472">
        <ele>1467.518</ele>
        <time>2024-12-27T10:41:07Z</time>
      </trkpt>
      <trkpt lat="46.23418" lon="6.55476">
        <ele>1467.13</ele>
        <time>2024-12-27T10:41:12Z</time>
      </trkpt>
      <trkpt lat="46.23421" lon="6.55479">
        <ele>1468.018</ele>
        <time>2024-12-27T10:41:17Z</time>
      </trkpt>
      <trkpt lat="46.23424" lon="6.55482">
        <ele>1469.55</ele>
        <time>2024-12-27T10:41:22Z</time>
      </trkpt>
      <trkpt lat="46.23425" lon="6.55485">
        <ele>1470.068</ele>
        <time>2024-12-27T10:41:27Z</time>
      </trkpt>
      <trkpt lat="46.23426" lon="6.55488">
        <ele>1471.304</ele>
        <time>2024-12-27T10:41:32Z</time>
      </trkpt>
      <trkpt lat="46.23428" lon="6.5549">
        <ele>1472.055</ele>
        <time>2024-12-27T10:41:37Z</time>
      </trkpt>
      <trkpt lat="46.23431" lon="6.55492">
        <ele>1471.525</ele>
        <time>2024-12-27T10:41:42Z</time>
      </trkpt>
      <trkpt lat="46.23433" lon="6.55493">
        <ele>1472.334</ele>
        <time>2024-12-27T10:41:47Z</time>
      </trkpt>
      <trkpt lat="46.23435" lon="6.55493">
        <ele>1473.077</ele>
        <time>2024-12-27T10:41:52Z</time>
      </trkpt>
      <trkpt lat="46.23438" lon="6.55494">
        <ele>1474.775</ele>
        <time>2024-12-27T10:41:57Z</time>
      </trkpt>
      <trkpt lat="46.2344" lon="6.55495">
        <ele>1475.934</ele>
        <time>2024-12-27T10:42:02Z</time>
      </trkpt>
      <trkpt lat="46.23441" lon="6.55498">
        <ele>1476.727</ele>
        <time>2024-12-27T10:42:07Z</time>
      </trkpt>
      <trkpt lat="46.23441" lon="6.555">
        <ele>1477.35</ele>
        <time>2024-12-27T10:42:12Z</time>
      </trkpt>
      <trkpt lat="46.23441" lon="6.55504">
        <ele>1478.095</ele>
        <time>2024-12-27T10:42:17Z</time>
      </trkpt>
      <trkpt lat="46.23442" lon="6.55507">
        <ele>1478.426</ele>
        <time>2024-12-27T10:42:22Z</time>
      </trkpt>
      <trkpt lat="46.23442" lon="6.5551">
        <ele>1479.561</ele>
        <time>2024-12-27T10:42:27Z</time>
      </trkpt>
      <trkpt lat="46.23443" lon="6.55514">
        <ele>1480.18</ele>
        <time>2024-12-27T10:42:32Z</time>
      </trkpt>
      <trkpt lat="46.23445" lon="6.55517">
        <ele>1480.629</ele>
        <time>2024-12-27T10:42:37Z</time>
      </trkpt>
      <trkpt lat="46.23445" lon="6.5552">
        <ele>1480.949</ele>
        <time>2024-12-27T10:42:42Z</time>
      </trkpt>
      <trkpt lat="46.23447" lon="6.55523">
        <ele>1482.806</ele>
        <time>2024-12-27T10:42:47Z</time>
      </trkpt>
      <trkpt lat="46.23448" lon="6.55525">
        <ele>1483.571</ele>
        <time>2024-12-27T10:42:52Z</time>
      </trkpt>
      <trkpt lat="46.23449" lon="6.55528">
        <ele>1483.314</ele>
        <time>2024-12-27T10:42:57Z</time>
      </trkpt>
      <trkpt lat="46.23451" lon="6.55531">
        <ele>1484.208</ele>
        <time>2024-12-27T10:43:02Z</time>
      </trkpt>
      <trkpt lat="46.23452" lon="6.55534">
        <ele>1485.076</ele>
        <time>2024-12-27T10:43:07Z</time>
      </trkpt>
      <trkpt lat="46.23454" lon="6.55536">
        <ele>1485.433</ele>
        <time>2024-12-27T10:43:12Z</time>
      </trkpt>
      <trkpt lat="46.23456" lon="6.55539">
        <ele>1485.679</ele>
        <time>2024-12-27T10:43:17Z</time>
      </trkpt>
      <trkpt lat="46.23457" lon="6.55542">
        <ele>1486.234</ele>
        <time>2024-12-27T10:43:22Z</time>
      </trkpt>
      <trkpt lat="46.23458" lon="6.55546">
        <ele>1486.496</ele>
        <time>2024-12-27T10:43:27Z</time>
      </trkpt>
      <trkpt lat="46.23459" lon="6.55549">
        <ele>1486.912</ele>
        <time>2024-12-27T10:43:32Z</time>
      </trkpt>
      <trkpt lat="46.2346" lon="6.55552">
        <ele>1487.202</ele>
        <time>2024-12-27T10:43:37Z</time>
      </trkpt>
      <trkpt lat="46.23461" lon="6.55555">
        <ele>1487.769</ele>
        <time>2024-12-27T10:43:42Z</time>
      </trkpt>
      <trkpt lat="46.23462" lon="6.55558">
        <ele>1488.118</ele>
        <time>2024-12-27T10:43:47Z</time>
      </trkpt>
      <trkpt lat="46.23463" lon="6.55562">
        <ele>1487.967</ele>
        <time>2024-12-27T10:43:52Z</time>
      </trkpt>
      <trkpt lat="46.23465" lon="6.55566">
        <ele>1488.128</ele>
        <time>2024-12-27T10:43:57Z</time>
      </trkpt>
      <trkpt lat="46.23466" lon="6.5557">
        <ele>1488.824</ele>
        <time>2024-12-27T10:44:02Z</time>
      </trkpt>
      <trkpt lat="46.23467" lon="6.55573">
        <ele>1489.453</ele>
        <time>2024-12-27T10:44:07Z</time>
      </trkpt>
      <trkpt lat="46.23467" lon="6.55576">
        <ele>1490.013</ele>
        <time>2024-12-27T10:44:12Z</time>
      </trkpt>
      <trkpt lat="46.23467" lon="6.55579">
        <ele>1492.011</ele>
        <time>2024-12-27T10:44:17Z</time>
      </trkpt>
      <trkpt lat="46.23467" lon="6.55583">
        <ele>1492.021</ele>
        <time>2024-12-27T10:44:22Z</time>
      </trkpt>
      <trkpt lat="46.23467" lon="6.55585">
        <ele>1491.767</ele>
        <time>2024-12-27T10:44:27Z</time>
      </trkpt>
      <trkpt lat="46.23467" lon="6.55585">
        <ele>1491.764</ele>
        <time>2024-12-27T10:44:32Z</time>
      </trkpt>
      <trkpt lat="46.23467" lon="6.55585">
        <ele>1491.762</ele>
        <time>2024-12-27T10:44:37Z</time>
      </trkpt>
      <trkpt lat="46.23467" lon="6.55585">
        <ele>1491.764</ele>
        <time>2024-12-27T10:44:42Z</time>
      </trkpt>
      <trkpt lat="46.23467" lon="6.55585">
        <ele>1491.759</ele>
        <time>2024-12-27T10:44:47Z</time>
      </trkpt>
      <trkpt lat="46.23467" lon="6.55585">
        <ele>1491.756</ele>
        <time>2024-12-27T10:44:52Z</time>
      </trkpt>
      <trkpt lat="46.23467" lon="6.55585">
        <ele>1491.753</ele>
        <time>2024-12-27T10:44:57Z</time>
      </trkpt>
      <trkpt lat="46.23467" lon="6.55585">
        <ele>1491.752</ele>
        <time>2024-12-27T10:45:02Z</time>
      </trkpt>
      <trkpt lat="46.23467" lon="6.55585">
        <ele>1491.752</ele>
        <time>2024-12-27T10:45:07Z</time>
      </trkpt>
      <trkpt lat="46.23467" lon="6.55585">
        <ele>1491.757</ele>
        <time>2024-12-27T10:45:12Z</time>
      </trkpt>
      <trkpt lat="46.23467" lon="6.55585">
        <ele>1491.756</ele>
        <time>2024-12-27T10:45:17Z</time>
      </trkpt>
      <trkpt lat="46.23467" lon="6.55585">
        <ele>1491.758</ele>
        <time>2024-12-27T10:45:22Z</time>
      </trkpt>
      <trkpt lat="46.23467" lon="6.55585">
        <ele>1491.748</ele>
        <time>2024-12-27T10:45:27Z</time>
      </trkpt>
      <trkpt lat="46.23467" lon="6.55585">
        <ele>1491.757</ele>
        <time>2024-12-27T10:45:32Z</time>
      </trkpt>
      <trkpt lat="46.23467" lon="6.55585">
        <ele>1491.75</ele>
        <time>2024-12-27T10:45:37Z</time>
      </trkpt>
      <trkpt lat="46.23467" lon="6.55585">
        <ele>1491.747</ele>
        <time>2024-12-27T10:45:42Z</time>
      </trkpt>
      <trkpt lat="46.23467" lon="6.55585">
        <ele>1491.746</ele>
        <time>2024-12-27T10:45:47Z</time>
      </trkpt>
      <trkpt lat="46.23467" lon="6.55585">
        <ele>1491.73</ele>
        <time>2024-12-27T10:45:52Z</time>
      </trkpt>
      <trkpt lat="46.23467" lon="6.55585">
        <ele>1491.735</ele>
        <time>2024-12-27T10:45:57Z</time>
      </trkpt>
      <trkpt lat="46.23467" lon="6.55586">
        <ele>1491.837</ele>
        <time>2024-12-27T10:46:02Z</time>
      </trkpt>
      <trkpt lat="46.23466" lon="6.55591">
        <ele>1492.011</ele>
        <time>2024-12-27T10:46:07Z</time>
      </trkpt>
      <trkpt lat="46.23465" lon="6.55596">
        <ele>1491.822</ele>
        <time>2024-12-27T10:46:12Z</time>
      </trkpt>
      <trkpt lat="46.23465" lon="6.556">
        <ele>1492.618</ele>
        <time>2024-12-27T10:46:17Z</time>
      </trkpt>
      <trkpt lat="46.23464" lon="6.55605">
        <ele>1493.804</ele>
        <time>2024-12-27T10:46:22Z</time>
      </trkpt>
      <trkpt lat="46.23464" lon="6.5561">
        <ele>1494.51</ele>
        <time>2024-12-27T10:46:27Z</time>
      </trkpt>
      <trkpt lat="46.23463" lon="6.55614">
        <ele>1495.439</ele>
        <time>2024-12-27T10:46:32Z</time>
      </trkpt>
      <trkpt lat="46.23461" lon="6.55617">
        <ele>1495.017</ele>
        <time>2024-12-27T10:46:37Z</time>
      </trkpt>
      <trkpt lat="46.2346" lon="6.55621">
        <ele>1495.608</ele>
        <time>2024-12-27T10:46:42Z</time>
      </trkpt>
      <trkpt lat="46.23458" lon="6.55624">
        <ele>1496.127</ele>
        <time>2024-12-27T10:46:47Z</time>
      </trkpt>
      <trkpt lat="46.23456" lon="6.55628">
        <ele>1497.141</ele>
        <time>2024-12-27T10:46:52Z</time>
      </trkpt>
      <trkpt lat="46.23455" lon="6.55631">
        <ele>1497.333</ele>
        <time>2024-12-27T10:46:57Z</time>
      </trkpt>
      <trkpt lat="46.23453" lon="6.55634">
        <ele>1497.96</ele>
        <time>2024-12-27T10:47:02Z</time>
      </trkpt>
      <trkpt lat="46.23451" lon="6.55638">
        <ele>1498.064</ele>
        <time>2024-12-27T10:47:07Z</time>
      </trkpt>
      <trkpt lat="46.2345" lon="6.55642">
        <ele>1497.714</ele>
        <time>2024-12-27T10:47:12Z</time>
      </trkpt>
      <trkpt lat="46.23448" lon="6.55646">
        <ele>1498.386</ele>
        <time>2024-12-27T10:47:17Z</time>
      </trkpt>
      <trkpt lat="46.23447" lon="6.5565">
        <ele>1499.615</ele>
        <time>2024-12-27T10:47:22Z</time>
      </trkpt>
      <trkpt lat="46.23445" lon="6.55654">
        <ele>1500.236</ele>
        <time>2024-12-27T10:47:27Z</time>
      </trkpt>
      <trkpt lat="46.23443" lon="6.55658">
        <ele>1500.984</ele>
        <time>2024-12-27T10:47:32Z</time>
      </trkpt>
      <trkpt lat="46.23442" lon="6.55661">
        <ele>1501.647</ele>
        <time>2024-12-27T10:47:37Z</time>
      </trkpt>
      <trkpt lat="46.2344" lon="6.55664">
        <ele>1502.961</ele>
        <time>2024-12-27T10:47:42Z</time>
      </trkpt>
      <trkpt lat="46.23439" lon="6.55668">
        <ele>1503.547</ele>
        <time>2024-12-27T10:47:47Z</time>
      </trkpt>
      <trkpt lat="46.23437" lon="6.55672">
        <ele>1505.093</ele>
        <time>2024-12-27T10:47:52Z</time>
      </trkpt>
      <trkpt lat="46.23436" lon="6.55676">
        <ele>1505.391</ele>
        <time>2024-12-27T10:47:57Z</time>
      </trkpt>
      <trkpt lat="46.23434" lon="6.5568">
        <ele>1506.112</ele>
        <time>2024-12-27T10:48:02Z</time>
      </trkpt>
      <trkpt lat="46.23432" lon="6.55685">
        <ele>1506.789</ele>
        <time>2024-12-27T10:48:07Z</time>
      </trkpt>
      <trkpt lat="46.23431" lon="6.55689">
        <ele>1506.471</ele>
        <time>2024-12-27T10:48:12Z</time>
      </trkpt>
      <trkpt lat="46.23428" lon="6.55693">
        <ele>1507.041</ele>
        <time>2024-12-27T10:48:17Z</time>
      </trkpt>
      <trkpt lat="46.23426" lon="6.55698">
        <ele>1507.253</ele>
        <time>2024-12-27T10:48:22Z</time>
      </trkpt>
      <trkpt lat="46.23423" lon="6.55704">
        <ele>1508.016</ele>
        <time>2024-12-27T10:48:27Z</time>
      </trkpt>
      <trkpt lat="46.2342" lon="6.55709">
        <ele>1508.424</ele>
        <time>2024-12-27T10:48:32Z</time>
      </trkpt>
      <trkpt lat="46.23419" lon="6.55714">
        <ele>1508.067</ele>
        <time>2024-12-27T10:48:37Z</time>
      </trkpt>
      <trkpt lat="46.23417" lon="6.55718">
        <ele>1508.385</ele>
        <time>2024-12-27T10:48:42Z</time>
      </trkpt>
      <trkpt lat="46.23415" lon="6.55723">
        <ele>1508.407</ele>
        <time>2024-12-27T10:48:47Z</time>
      </trkpt>
      <trkpt lat="46.23413" lon="6.55727">
        <ele>1508.414</ele>
        <time>2024-12-27T10:48:52Z</time>
      </trkpt>
      <trkpt lat="46.23411" lon="6.55732">
        <ele>1508.577</ele>
        <time>2024-12-27T10:48:57Z</time>
      </trkpt>
      <trkpt lat="46.23408" lon="6.55738">
        <ele>1507.751</ele>
        <time>2024-12-27T10:49:02Z</time>
      </trkpt>
      <trkpt lat="46.23405" lon="6.55744">
        <ele>1507.941</ele>
        <time>2024-12-27T10:49:07Z</time>
      </trkpt>
      <trkpt lat="46.23403" lon="6.55749">
        <ele>1508.49</ele>
        <time>2024-12-27T10:49:12Z</time>
      </trkpt>
      <trkpt lat="46.234" lon="6.55754">
        <ele>1510.077</ele>
        <time>2024-12-27T10:49:17Z</time>
      </trkpt>
      <trkpt lat="46.23397" lon="6.55759">
        <ele>1510.663</ele>
        <time>2024-12-27T10:49:22Z</time>
      </trkpt>
      <trkpt lat="46.23395" lon="6.55763">
        <ele>1511.255</ele>
        <time>2024-12-27T10:49:27Z</time>
      </trkpt>
      <trkpt lat="46.23392" lon="6.55769">
        <ele>1510.89</ele>
        <time>2024-12-27T10:49:32Z</time>
      </trkpt>
      <trkpt lat="46.2339" lon="6.55774">
        <ele>1511.17</ele>
        <time>2024-12-27T10:49:37Z</time>
      </trkpt>
      <trkpt lat="46.23387" lon="6.55778">
        <ele>1512.772</ele>
        <time>2024-12-27T10:49:42Z</time>
      </trkpt>
      <trkpt lat="46.23385" lon="6.55783">
        <ele>1513.06</ele>
        <time>2024-12-27T10:49:47Z</time>
      </trkpt>
      <trkpt lat="46.23382" lon="6.55788">
        <ele>1514.738</ele>
        <time>2024-12-27T10:49:52Z</time>
      </trkpt>
      <trkpt lat="46.23379" lon="6.55792">
        <ele>1516.188</ele>
        <time>2024-12-27T10:49:57Z</time>
      </trkpt>
      <trkpt lat="46.23376" lon="6.55796">
        <ele>1517.919</ele>
        <time>2024-12-27T10:50:02Z</time>
      </trkpt>
      <trkpt lat="46.23374" lon="6.55801">
        <ele>1519.145</ele>
        <time>2024-12-27T10:50:07Z</time>
      </trkpt>
      <trkpt lat="46.23372" lon="6.55806">
        <ele>1519.692</ele>
        <time>2024-12-27T10:50:12Z</time>
      </trkpt>
      <trkpt lat="46.2337" lon="6.55812">
        <ele>1519.118</ele>
        <time>2024-12-27T10:50:17Z</time>
      </trkpt>
      <trkpt lat="46.23368" lon="6.55817">
        <ele>1519.05</ele>
        <time>2024-12-27T10:50:22Z</time>
      </trkpt>
      <trkpt lat="46.23366" lon="6.55821">
        <ele>1518.952</ele>
        <time>2024-12-27T10:50:27Z</time>
      </trkpt>
      <trkpt lat="46.23364" lon="6.55826">
        <ele>1518.588</ele>
        <time>2024-12-27T10:50:32Z</time>
      </trkpt>
      <trkpt lat="46.23354" lon="6.55854">
        <ele>1504.893</ele>
        <time>2024-12-27T10:50:54Z</time>
      </trkpt>
      <trkpt lat="46.23353" lon="6.55855">
        <ele>1512.632</ele>
        <time>2024-12-27T10:51:00Z</time>
      </trkpt>
      <trkpt lat="46.23353" lon="6.55855">
        <ele>1518.853</ele>
        <time>2024-12-27T10:51:05Z</time>
      </trkpt>
      <trkpt lat="46.23353" lon="6.55855">
        <ele>1519.906</ele>
        <time>2024-12-27T10:51:10Z</time>
      </trkpt>
      <trkpt lat="46.23353" lon="6.55855">
        <ele>1520.015</ele>
        <time>2024-12-27T10:51:15Z</time>
      </trkpt>
      <trkpt lat="46.23353" lon="6.55855">
        <ele>1520.036</ele>
        <time>2024-12-27T10:51:20Z</time>
      </trkpt>
      <trkpt lat="46.23353" lon="6.55855">
        <ele>1520.099</ele>
        <time>2024-12-27T10:51:25Z</time>
      </trkpt>
      <trkpt lat="46.23353" lon="6.55855">
        <ele>1520.088</ele>
        <time>2024-12-27T10:51:30Z</time>
      </trkpt>
      <trkpt lat="46.23353" lon="6.55855">
        <ele>1520.102</ele>
        <time>2024-12-27T10:51:35Z</time>
      </trkpt>
      <trkpt lat="46.23353" lon="6.55855">
        <ele>1518.493</ele>
        <time>2024-12-27T10:51:40Z</time>
      </trkpt>
      <trkpt lat="46.23353" lon="6.55855">
        <ele>1517.855</ele>
        <time>2024-12-27T10:51:45Z</time>
      </trkpt>
      <trkpt lat="46.23353" lon="6.55855">
        <ele>1517.761</ele>
        <time>2024-12-27T10:51:50Z</time>
      </trkpt>
      <trkpt lat="46.23353" lon="6.55855">
        <ele>1517.684</ele>
        <time>2024-12-27T10:51:55Z</time>
      </trkpt>
      <trkpt lat="46.23353" lon="6.55855">
        <ele>1517.575</ele>
        <time>2024-12-27T10:52:00Z</time>
      </trkpt>
      <trkpt lat="46.23353" lon="6.55855">
        <ele>1517.526</ele>
        <time>2024-12-27T10:52:05Z</time>
      </trkpt>
      <trkpt lat="46.23355" lon="6.5586">
        <ele>1515.275</ele>
        <time>2024-12-27T10:52:10Z</time>
      </trkpt>
      <trkpt lat="46.23353" lon="6.55864">
        <ele>1515.681</ele>
        <time>2024-12-27T10:52:15Z</time>
      </trkpt>
      <trkpt lat="46.23351" lon="6.55869">
        <ele>1515.434</ele>
        <time>2024-12-27T10:52:20Z</time>
      </trkpt>
      <trkpt lat="46.2335" lon="6.55874">
        <ele>1517.003</ele>
        <time>2024-12-27T10:52:25Z</time>
      </trkpt>
      <trkpt lat="46.23348" lon="6.55878">
        <ele>1517.165</ele>
        <time>2024-12-27T10:52:30Z</time>
      </trkpt>
      <trkpt lat="46.23346" lon="6.55883">
        <ele>1513.907</ele>
        <time>2024-12-27T10:52:35Z</time>
      </trkpt>
      <trkpt lat="46.23344" lon="6.55886">
        <ele>1514.605</ele>
        <time>2024-12-27T10:52:40Z</time>
      </trkpt>
      <trkpt lat="46.23343" lon="6.55891">
        <ele>1516.694</ele>
        <time>2024-12-27T10:52:45Z</time>
      </trkpt>
      <trkpt lat="46.23343" lon="6.55896">
        <ele>1520.697</ele>
        <time>2024-12-27T10:52:50Z</time>
      </trkpt>
      <trkpt lat="46.23341" lon="6.55901">
        <ele>1521.741</ele>
        <time>2024-12-27T10:52:55Z</time>
      </trkpt>
      <trkpt lat="46.2334" lon="6.55905">
        <ele>1522.346</ele>
        <time>2024-12-27T10:53:00Z</time>
      </trkpt>
      <trkpt lat="46.23339" lon="6.5591">
        <ele>1522.034</ele>
        <time>2024-12-27T10:53:05Z</time>
      </trkpt>
      <trkpt lat="46.23337" lon="6.55913">
        <ele>1522.609</ele>
        <time>2024-12-27T10:53:10Z</time>
      </trkpt>
      <trkpt lat="46.23337" lon="6.55918">
        <ele>1522.856</ele>
        <time>2024-12-27T10:53:15Z</time>
      </trkpt>
      <trkpt lat="46.23336" lon="6.55921">
        <ele>1522.194</ele>
        <time>2024-12-27T10:53:20Z</time>
      </trkpt>
      <trkpt lat="46.23334" lon="6.55924">
        <ele>1521.316</ele>
        <time>2024-12-27T10:53:25Z</time>
      </trkpt>
      <trkpt lat="46.23333" lon="6.55929">
        <ele>1521.783</ele>
        <time>2024-12-27T10:53:30Z</time>
      </trkpt>
      <trkpt lat="46.23332" lon="6.55934">
        <ele>1523.141</ele>
        <time>2024-12-27T10:53:35Z</time>
      </trkpt>
      <trkpt lat="46.23332" lon="6.55938">
        <ele>1524.524</ele>
        <time>2024-12-27T10:53:40Z</time>
      </trkpt>
      <trkpt lat="46.23331" lon="6.55941">
        <ele>1526.395</ele>
        <time>2024-12-27T10:53:45Z</time>
      </trkpt>
      <trkpt lat="46.2333" lon="6.55944">
        <ele>1527.734</ele>
        <time>2024-12-27T10:53:50Z</time>
      </trkpt>
      <trkpt lat="46.2333" lon="6.55947">
        <ele>1528.697</ele>
        <time>2024-12-27T10:53:55Z</time>
      </trkpt>
      <trkpt lat="46.23328" lon="6.55951">
        <ele>1528.944</ele>
        <time>2024-12-27T10:54:00Z</time>
      </trkpt>
      <trkpt lat="46.23328" lon="6.55955">
        <ele>1529.037</ele>
        <time>2024-12-27T10:54:05Z</time>
      </trkpt>
      <trkpt lat="46.23327" lon="6.55959">
        <ele>1530.02</ele>
        <time>2024-12-27T10:54:10Z</time>
      </trkpt>
      <trkpt lat="46.23326" lon="6.55961">
        <ele>1530.524</ele>
        <time>2024-12-27T10:54:15Z</time>
      </trkpt>
      <trkpt lat="46.23325" lon="6.55964">
        <ele>1529.367</ele>
        <time>2024-12-27T10:54:20Z</time>
      </trkpt>
      <trkpt lat="46.23325" lon="6.55967">
        <ele>1530.517</ele>
        <time>2024-12-27T10:54:25Z</time>
      </trkpt>
      <trkpt lat="46.23324" lon="6.5597">
        <ele>1530.482</ele>
        <time>2024-12-27T10:54:30Z</time>
      </trkpt>
      <trkpt lat="46.23323" lon="6.55974">
        <ele>1528.807</ele>
        <time>2024-12-27T10:54:35Z</time>
      </trkpt>
      <trkpt lat="46.23323" lon="6.55977">
        <ele>1530.562</ele>
        <time>2024-12-27T10:54:40Z</time>
      </trkpt>
      <trkpt lat="46.23322" lon="6.55981">
        <ele>1531.303</ele>
        <time>2024-12-27T10:54:45Z</time>
      </trkpt>
      <trkpt lat="46.23321" lon="6.55984">
        <ele>1533.282</ele>
        <time>2024-12-27T10:54:50Z</time>
      </trkpt>
      <trkpt lat="46.23321" lon="6.55987">
        <ele>1534.266</ele>
        <time>2024-12-27T10:54:55Z</time>
      </trkpt>
      <trkpt lat="46.2332" lon="6.5599">
        <ele>1535.929</ele>
        <time>2024-12-27T10:55:00Z</time>
      </trkpt>
      <trkpt lat="46.2332" lon="6.55993">
        <ele>1536.835</ele>
        <time>2024-12-27T10:55:05Z</time>
      </trkpt>
      <trkpt lat="46.23319" lon="6.55997">
        <ele>1535.138</ele>
        <time>2024-12-27T10:55:10Z</time>
      </trkpt>
      <trkpt lat="46.23319" lon="6.56">
        <ele>1535.96</ele>
        <time>2024-12-27T10:55:15Z</time>
      </trkpt>
      <trkpt lat="46.23318" lon="6.56004">
        <ele>1535.051</ele>
        <time>2024-12-27T10:55:20Z</time>
      </trkpt>
      <trkpt lat="46.23317" lon="6.56007">
        <ele>1535.67</ele>
        <time>2024-12-27T10:55:25Z</time>
      </trkpt>
      <trkpt lat="46.23316" lon="6.56011">
        <ele>1536.499</ele>
        <time>2024-12-27T10:55:30Z</time>
      </trkpt>
      <trkpt lat="46.23316" lon="6.56015">
        <ele>1533.958</ele>
        <time>2024-12-27T10:55:35Z</time>
      </trkpt>
      <trkpt lat="46.23314" lon="6.5602">
        <ele>1535.425</ele>
        <time>2024-12-27T10:55:40Z</time>
      </trkpt>
      <trkpt lat="46.23313" lon="6.56024">
        <ele>1536.158</ele>
        <time>2024-12-27T10:55:45Z</time>
      </trkpt>
      <trkpt lat="46.23313" lon="6.56026">
        <ele>1535.224</ele>
        <time>2024-12-27T10:55:50Z</time>
      </trkpt>
      <trkpt lat="46.23313" lon="6.56026">
        <ele>1535.549</ele>
        <time>2024-12-27T10:55:55Z</time>
      </trkpt>
      <trkpt lat="46.23313" lon="6.56027">
        <ele>1535.314</ele>
        <time>2024-12-27T10:56:00Z</time>
      </trkpt>
      <trkpt lat="46.23314" lon="6.56027">
        <ele>1535.232</ele>
        <time>2024-12-27T10:56:05Z</time>
      </trkpt>
      <trkpt lat="46.23313" lon="6.56033">
        <ele>1536.826</ele>
        <time>2024-12-27T10:56:10Z</time>
      </trkpt>
      <trkpt lat="46.23312" lon="6.5604">
        <ele>1539.586</ele>
        <time>2024-12-27T10:56:15Z</time>
      </trkpt>
      <trkpt lat="46.23312" lon="6.56044">
        <ele>1539.317</ele>
        <time>2024-12-27T10:56:20Z</time>
      </trkpt>
      <trkpt lat="46.23312" lon="6.56049">
        <ele>1538.418</ele>
        <time>2024-12-27T10:56:25Z</time>
      </trkpt>
      <trkpt lat="46.23312" lon="6.56054">
        <ele>1537.977</ele>
        <time>2024-12-27T10:56:30Z</time>
      </trkpt>
      <trkpt lat="46.23311" lon="6.5606">
        <ele>1539.718</ele>
        <time>2024-12-27T10:56:35Z</time>
      </trkpt>
      <trkpt lat="46.23311" lon="6.56065">
        <ele>1542.667</ele>
        <time>2024-12-27T10:56:40Z</time>
      </trkpt>
      <trkpt lat="46.2331" lon="6.5607">
        <ele>1544.493</ele>
        <time>2024-12-27T10:56:45Z</time>
      </trkpt>
      <trkpt lat="46.2331" lon="6.56075">
        <ele>1544.978</ele>
        <time>2024-12-27T10:56:50Z</time>
      </trkpt>
      <trkpt lat="46.23309" lon="6.56077">
        <ele>1545.83</ele>
        <time>2024-12-27T10:56:55Z</time>
      </trkpt>
      <trkpt lat="46.23308" lon="6.5608">
        <ele>1548.257</ele>
        <time>2024-12-27T10:57:00Z</time>
      </trkpt>
      <trkpt lat="46.23309" lon="6.56083">
        <ele>1548.999</ele>
        <time>2024-12-27T10:57:05Z</time>
      </trkpt>
      <trkpt lat="46.23308" lon="6.56087">
        <ele>1550.062</ele>
        <time>2024-12-27T10:57:10Z</time>
      </trkpt>
      <trkpt lat="46.23308" lon="6.56092">
        <ele>1548.752</ele>
        <time>2024-12-27T10:57:15Z</time>
      </trkpt>
      <trkpt lat="46.23306" lon="6.56097">
        <ele>1548.69</ele>
        <time>2024-12-27T10:57:20Z</time>
      </trkpt>
      <trkpt lat="46.23307" lon="6.56101">
        <ele>1549.925</ele>
        <time>2024-12-27T10:57:25Z</time>
      </trkpt>
      <trkpt lat="46.23307" lon="6.56103">
        <ele>1552.518</ele>
        <time>2024-12-27T10:57:30Z</time>
      </trkpt>
      <trkpt lat="46.23306" lon="6.56108">
        <ele>1553.874</ele>
        <time>2024-12-27T10:57:35Z</time>
      </trkpt>
      <trkpt lat="46.23306" lon="6.56111">
        <ele>1554.853</ele>
        <time>2024-12-27T10:57:40Z</time>
      </trkpt>
      <trkpt lat="46.23306" lon="6.56114">
        <ele>1555.68</ele>
        <time>2024-12-27T10:57:45Z</time>
      </trkpt>
      <trkpt lat="46.23305" lon="6.56119">
        <ele>1555.766</ele>
        <time>2024-12-27T10:57:50Z</time>
      </trkpt>
      <trkpt lat="46.23305" lon="6.56122">
        <ele>1556.753</ele>
        <time>2024-12-27T10:57:55Z</time>
      </trkpt>
      <trkpt lat="46.23304" lon="6.56126">
        <ele>1555.48</ele>
        <time>2024-12-27T10:58:00Z</time>
      </trkpt>
      <trkpt lat="46.23303" lon="6.56131">
        <ele>1557.032</ele>
        <time>2024-12-27T10:58:05Z</time>
      </trkpt>
      <trkpt lat="46.23302" lon="6.56136">
        <ele>1556.868</ele>
        <time>2024-12-27T10:58:10Z</time>
      </trkpt>
      <trkpt lat="46.23302" lon="6.5614">
        <ele>1557.215</ele>
        <time>2024-12-27T10:58:15Z</time>
      </trkpt>
      <trkpt lat="46.233" lon="6.56145">
        <ele>1558.344</ele>
        <time>2024-12-27T10:58:20Z</time>
      </trkpt>
      <trkpt lat="46.23299" lon="6.5615">
        <ele>1561.586</ele>
        <time>2024-12-27T10:58:25Z</time>
      </trkpt>
      <trkpt lat="46.23298" lon="6.56155">
        <ele>1565.23</ele>
        <time>2024-12-27T10:58:30Z</time>
      </trkpt>
      <trkpt lat="46.23296" lon="6.5616">
        <ele>1564.712</ele>
        <time>2024-12-27T10:58:35Z</time>
      </trkpt>
      <trkpt lat="46.23296" lon="6.56163">
        <ele>1564.594</ele>
        <time>2024-12-27T10:58:40Z</time>
      </trkpt>
      <trkpt lat="46.23295" lon="6.56167">
        <ele>1563.332</ele>
        <time>2024-12-27T10:58:45Z</time>
      </trkpt>
      <trkpt lat="46.23294" lon="6.56172">
        <ele>1563.485</ele>
        <time>2024-12-27T10:58:50Z</time>
      </trkpt>
      <trkpt lat="46.23294" lon="6.56177">
        <ele>1563.863</ele>
        <time>2024-12-27T10:58:55Z</time>
      </trkpt>
      <trkpt lat="46.23294" lon="6.56183">
        <ele>1565.107</ele>
        <time>2024-12-27T10:59:00Z</time>
      </trkpt>
      <trkpt lat="46.23293" lon="6.56188">
        <ele>1566.958</ele>
        <time>2024-12-27T10:59:05Z</time>
      </trkpt>
      <trkpt lat="46.23292" lon="6.56193">
        <ele>1566.94</ele>
        <time>2024-12-27T10:59:10Z</time>
      </trkpt>
      <trkpt lat="46.23291" lon="6.56198">
        <ele>1567.171</ele>
        <time>2024-12-27T10:59:15Z</time>
      </trkpt>
      <trkpt lat="46.2329" lon="6.56204">
        <ele>1569.562</ele>
        <time>2024-12-27T10:59:20Z</time>
      </trkpt>
      <trkpt lat="46.23289" lon="6.56209">
        <ele>1570.05</ele>
        <time>2024-12-27T10:59:25Z</time>
      </trkpt>
      <trkpt lat="46.23289" lon="6.56213">
        <ele>1569.666</ele>
        <time>2024-12-27T10:59:30Z</time>
      </trkpt>
      <trkpt lat="46.23289" lon="6.56216">
        <ele>1569.205</ele>
        <time>2024-12-27T10:59:35Z</time>
      </trkpt>
      <trkpt lat="46.2329" lon="6.56217">
        <ele>1568.877</ele>
        <time>2024-12-27T10:59:40Z</time>
      </trkpt>
      <trkpt lat="46.23291" lon="6.56223">
        <ele>1568.629</ele>
        <time>2024-12-27T10:59:45Z</time>
      </trkpt>
      <trkpt lat="46.23291" lon="6.5623">
        <ele>1568.3</ele>
        <time>2024-12-27T10:59:50Z</time>
      </trkpt>
      <trkpt lat="46.23293" lon="6.56235">
        <ele>1569.718</ele>
        <time>2024-12-27T10:59:55Z</time>
      </trkpt>
      <trkpt lat="46.23295" lon="6.5624">
        <ele>1569.8</ele>
        <time>2024-12-27T11:00:00Z</time>
      </trkpt>
      <trkpt lat="46.23296" lon="6.56246">
        <ele>1569.693</ele>
        <time>2024-12-27T11:00:05Z</time>
      </trkpt>
      <trkpt lat="46.23296" lon="6.56252">
        <ele>1566.553</ele>
        <time>2024-12-27T11:00:10Z</time>
      </trkpt>
      <trkpt lat="46.23298" lon="6.56254">
        <ele>1567.42</ele>
        <time>2024-12-27T11:00:15Z</time>
      </trkpt>
      <trkpt lat="46.23298" lon="6.56254">
        <ele>1567.403</ele>
        <time>2024-12-27T11:00:20Z</time>
      </trkpt>
      <trkpt lat="46.23298" lon="6.56254">
        <ele>1567.371</ele>
        <time>2024-12-27T11:00:25Z</time>
      </trkpt>
      <trkpt lat="46.23298" lon="6.56254">
        <ele>1567.369</ele>
        <time>2024-12-27T11:00:30Z</time>
      </trkpt>
      <trkpt lat="46.23298" lon="6.56254">
        <ele>1567.444</ele>
        <time>2024-12-27T11:00:35Z</time>
      </trkpt>
      <trkpt lat="46.23298" lon="6.56254">
        <ele>1568.84</ele>
        <time>2024-12-27T11:00:40Z</time>
      </trkpt>
      <trkpt lat="46.23298" lon="6.56254">
        <ele>1569.37</ele>
        <time>2024-12-27T11:00:45Z</time>
      </trkpt>
      <trkpt lat="46.23298" lon="6.56254">
        <ele>1568.988</ele>
        <time>2024-12-27T11:00:50Z</time>
      </trkpt>
      <trkpt lat="46.23298" lon="6.56254">
        <ele>1568.248</ele>
        <time>2024-12-27T11:00:55Z</time>
      </trkpt>
      <trkpt lat="46.23298" lon="6.56254">
        <ele>1568.217</ele>
        <time>2024-12-27T11:01:00Z</time>
      </trkpt>
      <trkpt lat="46.23298" lon="6.56254">
        <ele>1568.201</ele>
        <time>2024-12-27T11:01:05Z</time>
      </trkpt>
      <trkpt lat="46.23298" lon="6.56254">
        <ele>1568.21</ele>
        <time>2024-12-27T11:01:10Z</time>
      </trkpt>
      <trkpt lat="46.23298" lon="6.56254">
        <ele>1568.214</ele>
        <time>2024-12-27T11:01:15Z</time>
      </trkpt>
      <trkpt lat="46.23298" lon="6.56254">
        <ele>1568.223</ele>
        <time>2024-12-27T11:01:20Z</time>
      </trkpt>
      <trkpt lat="46.23298" lon="6.56254">
        <ele>1568.229</ele>
        <time>2024-12-27T11:01:25Z</time>
      </trkpt>
      <trkpt lat="46.23298" lon="6.56254">
        <ele>1568.234</ele>
        <time>2024-12-27T11:01:30Z</time>
      </trkpt>
      <trkpt lat="46.23298" lon="6.56254">
        <ele>1568.243</ele>
        <time>2024-12-27T11:01:35Z</time>
      </trkpt>
      <trkpt lat="46.23298" lon="6.56254">
        <ele>1568.24</ele>
        <time>2024-12-27T11:01:40Z</time>
      </trkpt>
      <trkpt lat="46.23298" lon="6.56254">
        <ele>1568.845</ele>
        <time>2024-12-27T11:01:45Z</time>
      </trkpt>
      <trkpt lat="46.23298" lon="6.56254">
        <ele>1568.806</ele>
        <time>2024-12-27T11:01:50Z</time>
      </trkpt>
      <trkpt lat="46.23298" lon="6.56254">
        <ele>1569.137</ele>
        <time>2024-12-27T11:01:55Z</time>
      </trkpt>
      <trkpt lat="46.233" lon="6.56257">
        <ele>1571.088</ele>
        <time>2024-12-27T11:02:00Z</time>
      </trkpt>
      <trkpt lat="46.233" lon="6.56262">
        <ele>1571.215</ele>
        <time>2024-12-27T11:02:05Z</time>
      </trkpt>
      <trkpt lat="46.23302" lon="6.56267">
        <ele>1571.849</ele>
        <time>2024-12-27T11:02:10Z</time>
      </trkpt>
      <trkpt lat="46.23303" lon="6.56273">
        <ele>1572.162</ele>
        <time>2024-12-27T11:02:15Z</time>
      </trkpt>
      <trkpt lat="46.23306" lon="6.56279">
        <ele>1573.845</ele>
        <time>2024-12-27T11:02:20Z</time>
      </trkpt>
      <trkpt lat="46.23307" lon="6.56286">
        <ele>1572.773</ele>
        <time>2024-12-27T11:02:25Z</time>
      </trkpt>
      <trkpt lat="46.23308" lon="6.56295">
        <ele>1573.305</ele>
        <time>2024-12-27T11:02:30Z</time>
      </trkpt>
      <trkpt lat="46.2331" lon="6.56304">
        <ele>1575.475</ele>
        <time>2024-12-27T11:02:35Z</time>
      </trkpt>
      <trkpt lat="46.23313" lon="6.56313">
        <ele>1574.257</ele>
        <time>2024-12-27T11:02:40Z</time>
      </trkpt>
      <trkpt lat="46.23316" lon="6.56319">
        <ele>1574.445</ele>
        <time>2024-12-27T11:02:45Z</time>
      </trkpt>
      <trkpt lat="46.23317" lon="6.5632">
        <ele>1574.961</ele>
        <time>2024-12-27T11:02:50Z</time>
      </trkpt>
      <trkpt lat="46.23322" lon="6.56328">
        <ele>1575.639</ele>
        <time>2024-12-27T11:02:55Z</time>
      </trkpt>
      <trkpt lat="46.23327" lon="6.56338">
        <ele>1575.007</ele>
        <time>2024-12-27T11:03:00Z</time>
      </trkpt>
      <trkpt lat="46.23332" lon="6.56347">
        <ele>1575.995</ele>
        <time>2024-12-27T11:03:05Z</time>
      </trkpt>
      <trkpt lat="46.23337" lon="6.56359">
        <ele>1575.635</ele>
        <time>2024-12-27T11:03:10Z</time>
      </trkpt>
      <trkpt lat="46.23346" lon="6.56369">
        <ele>1577.073</ele>
        <time>2024-12-27T11:03:15Z</time>
      </trkpt>
      <trkpt lat="46.23352" lon="6.56378">
        <ele>1576.634</ele>
        <time>2024-12-27T11:03:20Z</time>
      </trkpt>
      <trkpt lat="46.23358" lon="6.56388">
        <ele>1577.07</ele>
        <time>2024-12-27T11:03:25Z</time>
      </trkpt>
      <trkpt lat="46.23364" lon="6.564">
        <ele>1577.666</ele>
        <time>2024-12-27T11:03:30Z</time>
      </trkpt>
      <trkpt lat="46.23368" lon="6.56412">
        <ele>1575.362</ele>
        <time>2024-12-27T11:03:35Z</time>
      </trkpt>
      <trkpt lat="46.23372" lon="6.56423">
        <ele>1574.737</ele>
        <time>2024-12-27T11:03:40Z</time>
      </trkpt>
      <trkpt lat="46.23377" lon="6.56432">
        <ele>1573.28</ele>
        <time>2024-12-27T11:03:45Z</time>
      </trkpt>
      <trkpt lat="46.23381" lon="6.5644">
        <ele>1574.116</ele>
        <time>2024-12-27T11:03:50Z</time>
      </trkpt>
      <trkpt lat="46.23384" lon="6.5645">
        <ele>1573.965</ele>
        <time>2024-12-27T11:03:55Z</time>
      </trkpt>
      <trkpt lat="46.23387" lon="6.56458">
        <ele>1572.11</ele>
        <time>2024-12-27T11:04:00Z</time>
      </trkpt>
      <trkpt lat="46.23391" lon="6.56468">
        <ele>1570.825</ele>
        <time>2024-12-27T11:04:05Z</time>
      </trkpt>
      <trkpt lat="46.23394" lon="6.56478">
        <ele>1567.205</ele>
        <time>2024-12-27T11:04:10Z</time>
      </trkpt>
      <trkpt lat="46.23398" lon="6.56494">
        <ele>1567.812</ele>
        <time>2024-12-27T11:04:15Z</time>
      </trkpt>
      <trkpt lat="46.23404" lon="6.5651">
        <ele>1565.022</ele>
        <time>2024-12-27T11:04:20Z</time>
      </trkpt>
      <trkpt lat="46.23413" lon="6.56526">
        <ele>1563.721</ele>
        <time>2024-12-27T11:04:25Z</time>
      </trkpt>
      <trkpt lat="46.23422" lon="6.56539">
        <ele>1561.514</ele>
        <time>2024-12-27T11:04:30Z</time>
      </trkpt>
      <trkpt lat="46.23429" lon="6.56567">
        <ele>1555.747</ele>
        <time>2024-12-27T11:04:35Z</time>
      </trkpt>
      <trkpt lat="46.23415" lon="6.5659">
        <ele>1553.18</ele>
        <time>2024-12-27T11:04:40Z</time>
      </trkpt>
      <trkpt lat="46.23406" lon="6.56601">
        <ele>1554.366</ele>
        <time>2024-12-27T11:04:45Z</time>
      </trkpt>
      <trkpt lat="46.23406" lon="6.56602">
        <ele>1552.461</ele>
        <time>2024-12-27T11:04:50Z</time>
      </trkpt>
      <trkpt lat="46.23406" lon="6.56604">
        <ele>1550.956</ele>
        <time>2024-12-27T11:04:55Z</time>
      </trkpt>
      <trkpt lat="46.23406" lon="6.56604">
        <ele>1549.554</ele>
        <time>2024-12-27T11:05:00Z</time>
      </trkpt>
      <trkpt lat="46.23406" lon="6.56605">
        <ele>1549.696</ele>
        <time>2024-12-27T11:05:05Z</time>
      </trkpt>
      <trkpt lat="46.23406" lon="6.56605">
        <ele>1549.623</ele>
        <time>2024-12-27T11:05:10Z</time>
      </trkpt>
      <trkpt lat="46.23406" lon="6.56605">
        <ele>1549.576</ele>
        <time>2024-12-27T11:05:15Z</time>
      </trkpt>
      <trkpt lat="46.23406" lon="6.56605">
        <ele>1549.56</ele>
        <time>2024-12-27T11:05:20Z</time>
      </trkpt>
      <trkpt lat="46.23406" lon="6.56605">
        <ele>1549.545</ele>
        <time>2024-12-27T11:05:25Z</time>
      </trkpt>
      <trkpt lat="46.23406" lon="6.56605">
        <ele>1549.541</ele>
        <time>2024-12-27T11:05:30Z</time>
      </trkpt>
      <trkpt lat="46.23406" lon="6.56605">
        <ele>1549.532</ele>
        <time>2024-12-27T11:05:35Z</time>
      </trkpt>
      <trkpt lat="46.23406" lon="6.56605">
        <ele>1549.491</ele>
        <time>2024-12-27T11:05:40Z</time>
      </trkpt>
      <trkpt lat="46.23406" lon="6.56605">
        <ele>1549.514</ele>
        <time>2024-12-27T11:05:45Z</time>
      </trkpt>
      <trkpt lat="46.23406" lon="6.56605">
        <ele>1549.519</ele>
        <time>2024-12-27T11:05:50Z</time>
      </trkpt>
      <trkpt lat="46.23406" lon="6.56605">
        <ele>1548.707</ele>
        <time>2024-12-27T11:05:55Z</time>
      </trkpt>
      <trkpt lat="46.23404" lon="6.56607">
        <ele>1549.228</ele>
        <time>2024-12-27T11:06:00Z</time>
      </trkpt>
      <trkpt lat="46.23402" lon="6.56614">
        <ele>1550.344</ele>
        <time>2024-12-27T11:06:05Z</time>
      </trkpt>
      <trkpt lat="46.23399" lon="6.56624">
        <ele>1551.053</ele>
        <time>2024-12-27T11:06:10Z</time>
      </trkpt>
      <trkpt lat="46.23397" lon="6.56627">
        <ele>1553.375</ele>
        <time>2024-12-27T11:06:15Z</time>
      </trkpt>
      <trkpt lat="46.23395" lon="6.56631">
        <ele>1555.848</ele>
        <time>2024-12-27T11:06:20Z</time>
      </trkpt>
      <trkpt lat="46.23392" lon="6.56634">
        <ele>1558.696</ele>
        <time>2024-12-27T11:06:25Z</time>
      </trkpt>
      <trkpt lat="46.2339" lon="6.56638">
        <ele>1558.181</ele>
        <time>2024-12-27T11:06:30Z</time>
      </trkpt>
      <trkpt lat="46.23388" lon="6.56642">
        <ele>1559.446</ele>
        <time>2024-12-27T11:06:35Z</time>
      </trkpt>
      <trkpt lat="46.23388" lon="6.56642">
        <ele>1561.028</ele>
        <time>2024-12-27T11:06:40Z</time>
      </trkpt>
      <trkpt lat="46.23388" lon="6.56642">
        <ele>1560.065</ele>
        <time>2024-12-27T11:06:45Z</time>
      </trkpt>
      <trkpt lat="46.23387" lon="6.56642">
        <ele>1559.376</ele>
        <time>2024-12-27T11:06:50Z</time>
      </trkpt>
      <trkpt lat="46.23387" lon="6.56642">
        <ele>1559.291</ele>
        <time>2024-12-27T11:06:55Z</time>
      </trkpt>
      <trkpt lat="46.23387" lon="6.56642">
        <ele>1559.236</ele>
        <time>2024-12-27T11:07:00Z</time>
      </trkpt>
      <trkpt lat="46.23387" lon="6.56642">
        <ele>1558.502</ele>
        <time>2024-12-27T11:07:05Z</time>
      </trkpt>
      <trkpt lat="46.23387" lon="6.56642">
        <ele>1557.709</ele>
        <time>2024-12-27T11:07:10Z</time>
      </trkpt>
      <trkpt lat="46.23387" lon="6.56642">
        <ele>1557.602</ele>
        <time>2024-12-27T11:07:15Z</time>
      </trkpt>
      <trkpt lat="46.23387" lon="6.56642">
        <ele>1557.58</ele>
        <time>2024-12-27T11:07:20Z</time>
      </trkpt>
      <trkpt lat="46.23387" lon="6.56642">
        <ele>1557.566</ele>
        <time>2024-12-27T11:07:25Z</time>
      </trkpt>
      <trkpt lat="46.23387" lon="6.56642">
        <ele>1557.458</ele>
        <time>2024-12-27T11:07:30Z</time>
      </trkpt>
      <trkpt lat="46.23387" lon="6.56642">
        <ele>1557.455</ele>
        <time>2024-12-27T11:07:35Z</time>
      </trkpt>
      <trkpt lat="46.23387" lon="6.56642">
        <ele>1557.443</ele>
        <time>2024-12-27T11:07:40Z</time>
      </trkpt>
      <trkpt lat="46.23386" lon="6.56647">
        <ele>1557.246</ele>
        <time>2024-12-27T11:07:45Z</time>
      </trkpt>
      <trkpt lat="46.23388" lon="6.56658">
        <ele>1558.312</ele>
        <time>2024-12-27T11:07:50Z</time>
      </trkpt>
      <trkpt lat="46.23388" lon="6.56667">
        <ele>1557.851</ele>
        <time>2024-12-27T11:07:55Z</time>
      </trkpt>
      <trkpt lat="46.23387" lon="6.56673">
        <ele>1561.746</ele>
        <time>2024-12-27T11:08:00Z</time>
      </trkpt>
      <trkpt lat="46.23386" lon="6.56677">
        <ele>1562.451</ele>
        <time>2024-12-27T11:08:05Z</time>
      </trkpt>
      <trkpt lat="46.23386" lon="6.56683">
        <ele>1561.731</ele>
        <time>2024-12-27T11:08:10Z</time>
      </trkpt>
      <trkpt lat="46.23386" lon="6.56685">
        <ele>1561.005</ele>
        <time>2024-12-27T11:08:15Z</time>
      </trkpt>
      <trkpt lat="46.23385" lon="6.56687">
        <ele>1562.653</ele>
        <time>2024-12-27T11:08:20Z</time>
      </trkpt>
      <trkpt lat="46.23381" lon="6.56688">
        <ele>1562.064</ele>
        <time>2024-12-27T11:08:25Z</time>
      </trkpt>
      <trkpt lat="46.23377" lon="6.56691">
        <ele>1562.371</ele>
        <time>2024-12-27T11:08:30Z</time>
      </trkpt>
      <trkpt lat="46.23376" lon="6.56693">
        <ele>1561.297</ele>
        <time>2024-12-27T11:08:35Z</time>
      </trkpt>
      <trkpt lat="46.23374" lon="6.56693">
        <ele>1561.916</ele>
        <time>2024-12-27T11:08:40Z</time>
      </trkpt>
      <trkpt lat="46.2337" lon="6.56695">
        <ele>1565.198</ele>
        <time>2024-12-27T11:08:45Z</time>
      </trkpt>
      <trkpt lat="46.23368" lon="6.56695">
        <ele>1565.726</ele>
        <time>2024-12-27T11:08:50Z</time>
      </trkpt>
      <trkpt lat="46.23367" lon="6.56694">
        <ele>1565.756</ele>
        <time>2024-12-27T11:08:55Z</time>
      </trkpt>
      <trkpt lat="46.23365" lon="6.56695">
        <ele>1564.851</ele>
        <time>2024-12-27T11:09:00Z</time>
      </trkpt>
      <trkpt lat="46.23364" lon="6.56699">
        <ele>1564.955</ele>
        <time>2024-12-27T11:09:05Z</time>
      </trkpt>
      <trkpt lat="46.23364" lon="6.56701">
        <ele>1567.48</ele>
        <time>2024-12-27T11:09:10Z</time>
      </trkpt>
      <trkpt lat="46.23364" lon="6.56701">
        <ele>1569.353</ele>
        <time>2024-12-27T11:09:15Z</time>
      </trkpt>
      <trkpt lat="46.23364" lon="6.56701">
        <ele>1568.903</ele>
        <time>2024-12-27T11:09:20Z</time>
      </trkpt>
      <trkpt lat="46.23363" lon="6.56703">
        <ele>1569.859</ele>
        <time>2024-12-27T11:09:25Z</time>
      </trkpt>
      <trkpt lat="46.23361" lon="6.56705">
        <ele>1566.739</ele>
        <time>2024-12-27T11:09:30Z</time>
      </trkpt>
      <trkpt lat="46.23357" lon="6.56707">
        <ele>1567.611</ele>
        <time>2024-12-27T11:09:35Z</time>
      </trkpt>
      <trkpt lat="46.23354" lon="6.56711">
        <ele>1565.034</ele>
        <time>2024-12-27T11:09:40Z</time>
      </trkpt>
      <trkpt lat="46.2335" lon="6.56714">
        <ele>1565.94</ele>
        <time>2024-12-27T11:09:45Z</time>
      </trkpt>
      <trkpt lat="46.23351" lon="6.56723">
        <ele>1566.922</ele>
        <time>2024-12-27T11:09:50Z</time>
      </trkpt>
      <trkpt lat="46.23351" lon="6.56726">
        <ele>1569.048</ele>
        <time>2024-12-27T11:09:55Z</time>
      </trkpt>
      <trkpt lat="46.23355" lon="6.56731">
        <ele>1570.691</ele>
        <time>2024-12-27T11:10:00Z</time>
      </trkpt>
      <trkpt lat="46.23356" lon="6.5673">
        <ele>1571.708</ele>
        <time>2024-12-27T11:10:05Z</time>
      </trkpt>
      <trkpt lat="46.23358" lon="6.56732">
        <ele>1571.936</ele>
        <time>2024-12-27T11:10:10Z</time>
      </trkpt>
      <trkpt lat="46.2336" lon="6.56736">
        <ele>1570.256</ele>
        <time>2024-12-27T11:10:15Z</time>
      </trkpt>
      <trkpt lat="46.23361" lon="6.5674">
        <ele>1572.167</ele>
        <time>2024-12-27T11:10:20Z</time>
      </trkpt>
      <trkpt lat="46.23359" lon="6.56744">
        <ele>1575.459</ele>
        <time>2024-12-27T11:10:25Z</time>
      </trkpt>
      <trkpt lat="46.23359" lon="6.56746">
        <ele>1576.927</ele>
        <time>2024-12-27T11:10:30Z</time>
      </trkpt>
      <trkpt lat="46.2336" lon="6.56748">
        <ele>1578.727</ele>
        <time>2024-12-27T11:10:35Z</time>
      </trkpt>
      <trkpt lat="46.23361" lon="6.56751">
        <ele>1578.056</ele>
        <time>2024-12-27T11:10:40Z</time>
      </trkpt>
      <trkpt lat="46.23362" lon="6.56754">
        <ele>1580.045</ele>
        <time>2024-12-27T11:10:45Z</time>
      </trkpt>
      <trkpt lat="46.23364" lon="6.56759">
        <ele>1580.608</ele>
        <time>2024-12-27T11:10:50Z</time>
      </trkpt>
      <trkpt lat="46.23366" lon="6.56763">
        <ele>1577.389</ele>
        <time>2024-12-27T11:10:55Z</time>
      </trkpt>
      <trkpt lat="46.23368" lon="6.56766">
        <ele>1578.054</ele>
        <time>2024-12-27T11:11:00Z</time>
      </trkpt>
      <trkpt lat="46.23371" lon="6.56771">
        <ele>1578.439</ele>
        <time>2024-12-27T11:11:05Z</time>
      </trkpt>
      <trkpt lat="46.23375" lon="6.56777">
        <ele>1579.329</ele>
        <time>2024-12-27T11:11:10Z</time>
      </trkpt>
      <trkpt lat="46.23375" lon="6.56779">
        <ele>1580.459</ele>
        <time>2024-12-27T11:11:15Z</time>
      </trkpt>
      <trkpt lat="46.23376" lon="6.56786">
        <ele>1581.826</ele>
        <time>2024-12-27T11:11:20Z</time>
      </trkpt>
      <trkpt lat="46.23378" lon="6.56793">
        <ele>1580.433</ele>
        <time>2024-12-27T11:11:25Z</time>
      </trkpt>
      <trkpt lat="46.2338" lon="6.56801">
        <ele>1578.969</ele>
        <time>2024-12-27T11:11:30Z</time>
      </trkpt>
      <trkpt lat="46.23383" lon="6.56807">
        <ele>1578.715</ele>
        <time>2024-12-27T11:11:35Z</time>
      </trkpt>
      <trkpt lat="46.23389" lon="6.5681">
        <ele>1581.014</ele>
        <time>2024-12-27T11:11:40Z</time>
      </trkpt>
      <trkpt lat="46.23389" lon="6.56817">
        <ele>1577.905</ele>
        <time>2024-12-27T11:11:45Z</time>
      </trkpt>
      <trkpt lat="46.23392" lon="6.56822">
        <ele>1579.401</ele>
        <time>2024-12-27T11:11:50Z</time>
      </trkpt>
      <trkpt lat="46.23393" lon="6.56833">
        <ele>1580.025</ele>
        <time>2024-12-27T11:11:55Z</time>
      </trkpt>
      <trkpt lat="46.234" lon="6.56845">
        <ele>1579.24</ele>
        <time>2024-12-27T11:12:00Z</time>
      </trkpt>
      <trkpt lat="46.23403" lon="6.56846">
        <ele>1577.606</ele>
        <time>2024-12-27T11:12:05Z</time>
      </trkpt>
      <trkpt lat="46.23403" lon="6.56846">
        <ele>1577.378</ele>
        <time>2024-12-27T11:12:10Z</time>
      </trkpt>
      <trkpt lat="46.23403" lon="6.56846">
        <ele>1579.217</ele>
        <time>2024-12-27T11:12:15Z</time>
      </trkpt>
      <trkpt lat="46.23403" lon="6.56846">
        <ele>1581.303</ele>
        <time>2024-12-27T11:12:20Z</time>
      </trkpt>
      <trkpt lat="46.23403" lon="6.56846">
        <ele>1582.875</ele>
        <time>2024-12-27T11:12:25Z</time>
      </trkpt>
      <trkpt lat="46.23399" lon="6.56853">
        <ele>1584.878</ele>
        <time>2024-12-27T11:12:30Z</time>
      </trkpt>
      <trkpt lat="46.23401" lon="6.56861">
        <ele>1584.13</ele>
        <time>2024-12-27T11:12:35Z</time>
      </trkpt>
      <trkpt lat="46.23399" lon="6.56865">
        <ele>1583.48</ele>
        <time>2024-12-27T11:12:40Z</time>
      </trkpt>
      <trkpt lat="46.23398" lon="6.56869">
        <ele>1582.719</ele>
        <time>2024-12-27T11:12:45Z</time>
      </trkpt>
      <trkpt lat="46.23397" lon="6.56873">
        <ele>1583.808</ele>
        <time>2024-12-27T11:12:50Z</time>
      </trkpt>
      <trkpt lat="46.23397" lon="6.56873">
        <ele>1582.846</ele>
        <time>2024-12-27T11:12:55Z</time>
      </trkpt>
      <trkpt lat="46.23397" lon="6.56873">
        <ele>1583.193</ele>
        <time>2024-12-27T11:13:00Z</time>
      </trkpt>
      <trkpt lat="46.23397" lon="6.56873">
        <ele>1585.042</ele>
        <time>2024-12-27T11:13:05Z</time>
      </trkpt>
      <trkpt lat="46.23395" lon="6.56875">
        <ele>1580.625</ele>
        <time>2024-12-27T11:13:10Z</time>
      </trkpt>
      <trkpt lat="46.23393" lon="6.5688">
        <ele>1583.548</ele>
        <time>2024-12-27T11:13:15Z</time>
      </trkpt>
      <trkpt lat="46.23391" lon="6.5689">
        <ele>1586.383</ele>
        <time>2024-12-27T11:13:20Z</time>
      </trkpt>
      <trkpt lat="46.23384" lon="6.56893">
        <ele>1590.075</ele>
        <time>2024-12-27T11:13:25Z</time>
      </trkpt>
      <trkpt lat="46.23387" lon="6.56898">
        <ele>1587.048</ele>
        <time>2024-12-27T11:13:30Z</time>
      </trkpt>
      <trkpt lat="46.23392" lon="6.56905">
        <ele>1584.933</ele>
        <time>2024-12-27T11:13:35Z</time>
      </trkpt>
      <trkpt lat="46.23394" lon="6.56913">
        <ele>1585.066</ele>
        <time>2024-12-27T11:13:40Z</time>
      </trkpt>
      <trkpt lat="46.23391" lon="6.5692">
        <ele>1585.428</ele>
        <time>2024-12-27T11:13:45Z</time>
      </trkpt>
      <trkpt lat="46.23389" lon="6.56922">
        <ele>1588.422</ele>
        <time>2024-12-27T11:13:50Z</time>
      </trkpt>
      <trkpt lat="46.23387" lon="6.56922">
        <ele>1590.296</ele>
        <time>2024-12-27T11:13:55Z</time>
      </trkpt>
      <trkpt lat="46.23384" lon="6.5692">
        <ele>1591.004</ele>
        <time>2024-12-27T11:14:00Z</time>
      </trkpt>
      <trkpt lat="46.23381" lon="6.56923">
        <ele>1589.231</ele>
        <time>2024-12-27T11:14:05Z</time>
      </trkpt>
      <trkpt lat="46.23378" lon="6.56927">
        <ele>1589.846</ele>
        <time>2024-12-27T11:14:10Z</time>
      </trkpt>
      <trkpt lat="46.23375" lon="6.56929">
        <ele>1589.894</ele>
        <time>2024-12-27T11:14:15Z</time>
      </trkpt>
      <trkpt lat="46.23371" lon="6.56929">
        <ele>1592.444</ele>
        <time>2024-12-27T11:14:20Z</time>
      </trkpt>
      <trkpt lat="46.2337" lon="6.56932">
        <ele>1594.817</ele>
        <time>2024-12-27T11:14:25Z</time>
      </trkpt>
      <trkpt lat="46.23371" lon="6.56937">
        <ele>1593.85</ele>
        <time>2024-12-27T11:14:30Z</time>
      </trkpt>
      <trkpt lat="46.23369" lon="6.56941">
        <ele>1591.308</ele>
        <time>2024-12-27T11:14:35Z</time>
      </trkpt>
      <trkpt lat="46.23366" lon="6.56943">
        <ele>1591.674</ele>
        <time>2024-12-27T11:14:40Z</time>
      </trkpt>
      <trkpt lat="46.23363" lon="6.56945">
        <ele>1591.471</ele>
        <time>2024-12-27T11:14:45Z</time>
      </trkpt>
      <trkpt lat="46.2336" lon="6.56949">
        <ele>1592.631</ele>
        <time>2024-12-27T11:14:50Z</time>
      </trkpt>
      <trkpt lat="46.23355" lon="6.56945">
        <ele>1592.319</ele>
        <time>2024-12-27T11:14:55Z</time>
      </trkpt>
      <trkpt lat="46.23354" lon="6.56949">
        <ele>1591.849</ele>
        <time>2024-12-27T11:15:00Z</time>
      </trkpt>
      <trkpt lat="46.23357" lon="6.56961">
        <ele>1591.701</ele>
        <time>2024-12-27T11:15:05Z</time>
      </trkpt>
      <trkpt lat="46.23354" lon="6.56965">
        <ele>1593.36</ele>
        <time>2024-12-27T11:15:10Z</time>
      </trkpt>
      <trkpt lat="46.23352" lon="6.56969">
        <ele>1596.403</ele>
        <time>2024-12-27T11:15:15Z</time>
      </trkpt>
      <trkpt lat="46.2335" lon="6.56968">
        <ele>1599.812</ele>
        <time>2024-12-27T11:15:20Z</time>
      </trkpt>
      <trkpt lat="46.23349" lon="6.56972">
        <ele>1601.73</ele>
        <time>2024-12-27T11:15:25Z</time>
      </trkpt>
      <trkpt lat="46.2335" lon="6.5698">
        <ele>1603.435</ele>
        <time>2024-12-27T11:15:30Z</time>
      </trkpt>
      <trkpt lat="46.2335" lon="6.56991">
        <ele>1602.377</ele>
        <time>2024-12-27T11:15:35Z</time>
      </trkpt>
      <trkpt lat="46.23351" lon="6.56999">
        <ele>1601.729</ele>
        <time>2024-12-27T11:15:40Z</time>
      </trkpt>
      <trkpt lat="46.23355" lon="6.57006">
        <ele>1601.345</ele>
        <time>2024-12-27T11:15:45Z</time>
      </trkpt>
      <trkpt lat="46.23358" lon="6.5701">
        <ele>1600.532</ele>
        <time>2024-12-27T11:15:50Z</time>
      </trkpt>
      <trkpt lat="46.23358" lon="6.57013">
        <ele>1601.082</ele>
        <time>2024-12-27T11:15:55Z</time>
      </trkpt>
      <trkpt lat="46.23358" lon="6.57013">
        <ele>1602.874</ele>
        <time>2024-12-27T11:16:00Z</time>
      </trkpt>
      <trkpt lat="46.23358" lon="6.57013">
        <ele>1604.765</ele>
        <time>2024-12-27T11:16:05Z</time>
      </trkpt>
      <trkpt lat="46.23358" lon="6.57013">
        <ele>1604.797</ele>
        <time>2024-12-27T11:16:10Z</time>
      </trkpt>
      <trkpt lat="46.23359" lon="6.57014">
        <ele>1604.46</ele>
        <time>2024-12-27T11:16:15Z</time>
      </trkpt>
      <trkpt lat="46.2336" lon="6.57021">
        <ele>1602.901</ele>
        <time>2024-12-27T11:16:20Z</time>
      </trkpt>
      <trkpt lat="46.23363" lon="6.57031">
        <ele>1603.469</ele>
        <time>2024-12-27T11:16:25Z</time>
      </trkpt>
      <trkpt lat="46.23367" lon="6.57037">
        <ele>1601.508</ele>
        <time>2024-12-27T11:16:30Z</time>
      </trkpt>
      <trkpt lat="46.23367" lon="6.57048">
        <ele>1599.165</ele>
        <time>2024-12-27T11:16:35Z</time>
      </trkpt>
      <trkpt lat="46.23369" lon="6.57055">
        <ele>1598.1</ele>
        <time>2024-12-27T11:16:40Z</time>
      </trkpt>
      <trkpt lat="46.23372" lon="6.5706">
        <ele>1598.111</ele>
        <time>2024-12-27T11:16:45Z</time>
      </trkpt>
      <trkpt lat="46.2337" lon="6.57073">
        <ele>1601.931</ele>
        <time>2024-12-27T11:16:50Z</time>
      </trkpt>
      <trkpt lat="46.23371" lon="6.57078">
        <ele>1602.153</ele>
        <time>2024-12-27T11:16:55Z</time>
      </trkpt>
      <trkpt lat="46.23371" lon="6.57083">
        <ele>1600.925</ele>
        <time>2024-12-27T11:17:00Z</time>
      </trkpt>
      <trkpt lat="46.23374" lon="6.57086">
        <ele>1599.878</ele>
        <time>2024-12-27T11:17:05Z</time>
      </trkpt>
      <trkpt lat="46.23375" lon="6.57089">
        <ele>1604.793</ele>
        <time>2024-12-27T11:17:10Z</time>
      </trkpt>
      <trkpt lat="46.23377" lon="6.57097">
        <ele>1606.209</ele>
        <time>2024-12-27T11:17:15Z</time>
      </trkpt>
      <trkpt lat="46.2338" lon="6.57097">
        <ele>1605.076</ele>
        <time>2024-12-27T11:17:20Z</time>
      </trkpt>
      <trkpt lat="46.23383" lon="6.57099">
        <ele>1606.776</ele>
        <time>2024-12-27T11:17:25Z</time>
      </trkpt>
      <trkpt lat="46.23384" lon="6.57107">
        <ele>1603.91</ele>
        <time>2024-12-27T11:17:30Z</time>
      </trkpt>
      <trkpt lat="46.23382" lon="6.57113">
        <ele>1606.231</ele>
        <time>2024-12-27T11:17:35Z</time>
      </trkpt>
      <trkpt lat="46.23383" lon="6.57119">
        <ele>1605.037</ele>
        <time>2024-12-27T11:17:40Z</time>
      </trkpt>
      <trkpt lat="46.23385" lon="6.57127">
        <ele>1600.438</ele>
        <time>2024-12-27T11:17:45Z</time>
      </trkpt>
      <trkpt lat="46.23385" lon="6.57127">
        <ele>1600.339</ele>
        <time>2024-12-27T11:17:50Z</time>
      </trkpt>
      <trkpt lat="46.23385" lon="6.57127">
        <ele>1600.381</ele>
        <time>2024-12-27T11:17:55Z</time>
      </trkpt>
      <trkpt lat="46.23383" lon="6.57128">
        <ele>1600.846</ele>
        <time>2024-12-27T11:18:00Z</time>
      </trkpt>
      <trkpt lat="46.23384" lon="6.57132">
        <ele>1603.993</ele>
        <time>2024-12-27T11:18:05Z</time>
      </trkpt>
      <trkpt lat="46.23387" lon="6.57142">
        <ele>1606.968</ele>
        <time>2024-12-27T11:18:10Z</time>
      </trkpt>
      <trkpt lat="46.2339" lon="6.57146">
        <ele>1605.724</ele>
        <time>2024-12-27T11:18:15Z</time>
      </trkpt>
      <trkpt lat="46.2339" lon="6.57146">
        <ele>1608.641</ele>
        <time>2024-12-27T11:18:20Z</time>
      </trkpt>
      <trkpt lat="46.23392" lon="6.57146">
        <ele>1607.273</ele>
        <time>2024-12-27T11:18:25Z</time>
      </trkpt>
      <trkpt lat="46.23393" lon="6.57153">
        <ele>1606.128</ele>
        <time>2024-12-27T11:18:30Z</time>
      </trkpt>
      <trkpt lat="46.23391" lon="6.57158">
        <ele>1606.758</ele>
        <time>2024-12-27T11:18:35Z</time>
      </trkpt>
      <trkpt lat="46.23393" lon="6.57162">
        <ele>1609.774</ele>
        <time>2024-12-27T11:18:40Z</time>
      </trkpt>
      <trkpt lat="46.23393" lon="6.5717">
        <ele>1611.045</ele>
        <time>2024-12-27T11:18:45Z</time>
      </trkpt>
      <trkpt lat="46.23391" lon="6.57172">
        <ele>1607.13</ele>
        <time>2024-12-27T11:18:50Z</time>
      </trkpt>
      <trkpt lat="46.23391" lon="6.57172">
        <ele>1607.218</ele>
        <time>2024-12-27T11:18:55Z</time>
      </trkpt>
      <trkpt lat="46.23391" lon="6.57172">
        <ele>1606.02</ele>
        <time>2024-12-27T11:19:00Z</time>
      </trkpt>
      <trkpt lat="46.23391" lon="6.57172">
        <ele>1605.282</ele>
        <time>2024-12-27T11:19:05Z</time>
      </trkpt>
      <trkpt lat="46.23395" lon="6.57176">
        <ele>1605.773</ele>
        <time>2024-12-27T11:19:10Z</time>
      </trkpt>
      <trkpt lat="46.23394" lon="6.57182">
        <ele>1607.086</ele>
        <time>2024-12-27T11:19:15Z</time>
      </trkpt>
      <trkpt lat="46.23396" lon="6.57186">
        <ele>1609.805</ele>
        <time>2024-12-27T11:19:20Z</time>
      </trkpt>
      <trkpt lat="46.23397" lon="6.5719">
        <ele>1611.211</ele>
        <time>2024-12-27T11:19:25Z</time>
      </trkpt>
      <trkpt lat="46.23398" lon="6.57193">
        <ele>1611.03</ele>
        <time>2024-12-27T11:19:30Z</time>
      </trkpt>
      <trkpt lat="46.23398" lon="6.57197">
        <ele>1610.151</ele>
        <time>2024-12-27T11:19:35Z</time>
      </trkpt>
      <trkpt lat="46.23398" lon="6.57203">
        <ele>1605.649</ele>
        <time>2024-12-27T11:19:40Z</time>
      </trkpt>
      <trkpt lat="46.23399" lon="6.5721">
        <ele>1607.701</ele>
        <time>2024-12-27T11:19:45Z</time>
      </trkpt>
      <trkpt lat="46.234" lon="6.57212">
        <ele>1608.947</ele>
        <time>2024-12-27T11:19:50Z</time>
      </trkpt>
      <trkpt lat="46.23401" lon="6.57218">
        <ele>1611.656</ele>
        <time>2024-12-27T11:19:55Z</time>
      </trkpt>
      <trkpt lat="46.23398" lon="6.57222">
        <ele>1611.983</ele>
        <time>2024-12-27T11:20:00Z</time>
      </trkpt>
      <trkpt lat="46.23397" lon="6.57223">
        <ele>1612.778</ele>
        <time>2024-12-27T11:20:05Z</time>
      </trkpt>
      <trkpt lat="46.23396" lon="6.57226">
        <ele>1614.036</ele>
        <time>2024-12-27T11:20:10Z</time>
      </trkpt>
      <trkpt lat="46.23393" lon="6.5723">
        <ele>1611.189</ele>
        <time>2024-12-27T11:20:15Z</time>
      </trkpt>
      <trkpt lat="46.23394" lon="6.57233">
        <ele>1614.412</ele>
        <time>2024-12-27T11:20:20Z</time>
      </trkpt>
      <trkpt lat="46.23398" lon="6.57238">
        <ele>1614.126</ele>
        <time>2024-12-27T11:20:25Z</time>
      </trkpt>
      <trkpt lat="46.23398" lon="6.5724">
        <ele>1615.17</ele>
        <time>2024-12-27T11:20:30Z</time>
      </trkpt>
      <trkpt lat="46.23398" lon="6.57244">
        <ele>1613.468</ele>
        <time>2024-12-27T11:20:35Z</time>
      </trkpt>
      <trkpt lat="46.23399" lon="6.57248">
        <ele>1614.926</ele>
        <time>2024-12-27T11:20:40Z</time>
      </trkpt>
      <trkpt lat="46.23399" lon="6.57252">
        <ele>1617.884</ele>
        <time>2024-12-27T11:20:45Z</time>
      </trkpt>
      <trkpt lat="46.23403" lon="6.57255">
        <ele>1616.545</ele>
        <time>2024-12-27T11:20:50Z</time>
      </trkpt>
      <trkpt lat="46.23402" lon="6.57259">
        <ele>1614.941</ele>
        <time>2024-12-27T11:20:55Z</time>
      </trkpt>
      <trkpt lat="46.23403" lon="6.57263">
        <ele>1617.203</ele>
        <time>2024-12-27T11:21:00Z</time>
      </trkpt>
      <trkpt lat="46.23403" lon="6.57264">
        <ele>1618.549</ele>
        <time>2024-12-27T11:21:05Z</time>
      </trkpt>
      <trkpt lat="46.23403" lon="6.57264">
        <ele>1618.812</ele>
        <time>2024-12-27T11:21:10Z</time>
      </trkpt>
      <trkpt lat="46.23403" lon="6.57264">
        <ele>1618.788</ele>
        <time>2024-12-27T11:21:15Z</time>
      </trkpt>
      <trkpt lat="46.23403" lon="6.57264">
        <ele>1621.801</ele>
        <time>2024-12-27T11:21:20Z</time>
      </trkpt>
      <trkpt lat="46.23403" lon="6.57264">
        <ele>1623.498</ele>
        <time>2024-12-27T11:21:25Z</time>
      </trkpt>
      <trkpt lat="46.23404" lon="6.57277">
        <ele>1624.137</ele>
        <time>2024-12-27T11:21:30Z</time>
      </trkpt>
      <trkpt lat="46.234" lon="6.5728">
        <ele>1622.348</ele>
        <time>2024-12-27T11:21:35Z</time>
      </trkpt>
      <trkpt lat="46.234" lon="6.57283">
        <ele>1622.76</ele>
        <time>2024-12-27T11:21:40Z</time>
      </trkpt>
      <trkpt lat="46.23402" lon="6.57286">
        <ele>1627.635</ele>
        <time>2024-12-27T11:21:45Z</time>
      </trkpt>
      <trkpt lat="46.23404" lon="6.5729">
        <ele>1625.922</ele>
        <time>2024-12-27T11:21:50Z</time>
      </trkpt>
      <trkpt lat="46.23405" lon="6.57295">
        <ele>1625.348</ele>
        <time>2024-12-27T11:21:55Z</time>
      </trkpt>
      <trkpt lat="46.23407" lon="6.57303">
        <ele>1626.732</ele>
        <time>2024-12-27T11:22:00Z</time>
      </trkpt>
      <trkpt lat="46.23412" lon="6.57309">
        <ele>1628.347</ele>
        <time>2024-12-27T11:22:05Z</time>
      </trkpt>
      <trkpt lat="46.23416" lon="6.57312">
        <ele>1628.815</ele>
        <time>2024-12-27T11:22:10Z</time>
      </trkpt>
      <trkpt lat="46.23416" lon="6.57315">
        <ele>1630.586</ele>
        <time>2024-12-27T11:22:15Z</time>
      </trkpt>
      <trkpt lat="46.23415" lon="6.57317">
        <ele>1631.689</ele>
        <time>2024-12-27T11:22:20Z</time>
      </trkpt>
      <trkpt lat="46.23417" lon="6.57318">
        <ele>1627.292</ele>
        <time>2024-12-27T11:22:25Z</time>
      </trkpt>
      <trkpt lat="46.23417" lon="6.57321">
        <ele>1627.379</ele>
        <time>2024-12-27T11:22:30Z</time>
      </trkpt>
      <trkpt lat="46.23417" lon="6.57324">
        <ele>1627.842</ele>
        <time>2024-12-27T11:22:35Z</time>
      </trkpt>
      <trkpt lat="46.23417" lon="6.57331">
        <ele>1627.755</ele>
        <time>2024-12-27T11:22:40Z</time>
      </trkpt>
      <trkpt lat="46.2342" lon="6.57338">
        <ele>1630.166</ele>
        <time>2024-12-27T11:22:45Z</time>
      </trkpt>
      <trkpt lat="46.23422" lon="6.57342">
        <ele>1632.22</ele>
        <time>2024-12-27T11:22:50Z</time>
      </trkpt>
      <trkpt lat="46.23422" lon="6.57344">
        <ele>1632.512</ele>
        <time>2024-12-27T11:22:55Z</time>
      </trkpt>
      <trkpt lat="46.2342" lon="6.57346">
        <ele>1634.829</ele>
        <time>2024-12-27T11:23:00Z</time>
      </trkpt>
      <trkpt lat="46.2342" lon="6.5735">
        <ele>1636.531</ele>
        <time>2024-12-27T11:23:05Z</time>
      </trkpt>
      <trkpt lat="46.2342" lon="6.57353">
        <ele>1633.801</ele>
        <time>2024-12-27T11:23:10Z</time>
      </trkpt>
      <trkpt lat="46.2342" lon="6.57356">
        <ele>1631.604</ele>
        <time>2024-12-27T11:23:15Z</time>
      </trkpt>
      <trkpt lat="46.23421" lon="6.57358">
        <ele>1629.793</ele>
        <time>2024-12-27T11:23:20Z</time>
      </trkpt>
      <trkpt lat="46.23418" lon="6.57355">
        <ele>1630.104</ele>
        <time>2024-12-27T11:23:25Z</time>
      </trkpt>
      <trkpt lat="46.23416" lon="6.57354">
        <ele>1631.117</ele>
        <time>2024-12-27T11:23:30Z</time>
      </trkpt>
      <trkpt lat="46.23413" lon="6.57354">
        <ele>1633.099</ele>
        <time>2024-12-27T11:23:35Z</time>
      </trkpt>
      <trkpt lat="46.2341" lon="6.57351">
        <ele>1634.976</ele>
        <time>2024-12-27T11:23:40Z</time>
      </trkpt>
      <trkpt lat="46.23407" lon="6.57351">
        <ele>1637.628</ele>
        <time>2024-12-27T11:23:45Z</time>
      </trkpt>
      <trkpt lat="46.23405" lon="6.57351">
        <ele>1639.086</ele>
        <time>2024-12-27T11:23:50Z</time>
      </trkpt>
      <trkpt lat="46.23404" lon="6.5735">
        <ele>1639.416</ele>
        <time>2024-12-27T11:23:55Z</time>
      </trkpt>
      <trkpt lat="46.23402" lon="6.57349">
        <ele>1640.16</ele>
        <time>2024-12-27T11:24:00Z</time>
      </trkpt>
      <trkpt lat="46.23401" lon="6.57349">
        <ele>1640.198</ele>
        <time>2024-12-27T11:24:05Z</time>
      </trkpt>
      <trkpt lat="46.23401" lon="6.57349">
        <ele>1640.206</ele>
        <time>2024-12-27T11:24:10Z</time>
      </trkpt>
      <trkpt lat="46.23401" lon="6.57349">
        <ele>1640.218</ele>
        <time>2024-12-27T11:24:15Z</time>
      </trkpt>
      <trkpt lat="46.23401" lon="6.57349">
        <ele>1640.235</ele>
        <time>2024-12-27T11:24:20Z</time>
      </trkpt>
      <trkpt lat="46.23401" lon="6.57349">
        <ele>1640.248</ele>
        <time>2024-12-27T11:24:25Z</time>
      </trkpt>
      <trkpt lat="46.23401" lon="6.57349">
        <ele>1640.272</ele>
        <time>2024-12-27T11:24:30Z</time>
      </trkpt>
      <trkpt lat="46.234" lon="6.57349">
        <ele>1641.281</ele>
        <time>2024-12-27T11:24:35Z</time>
      </trkpt>
      <trkpt lat="46.23395" lon="6.5735">
        <ele>1641.959</ele>
        <time>2024-12-27T11:24:40Z</time>
      </trkpt>
      <trkpt lat="46.23391" lon="6.57349">
        <ele>1642.266</ele>
        <time>2024-12-27T11:24:45Z</time>
      </trkpt>
      <trkpt lat="46.23388" lon="6.5735">
        <ele>1640.954</ele>
        <time>2024-12-27T11:24:50Z</time>
      </trkpt>
      <trkpt lat="46.23386" lon="6.57346">
        <ele>1641.924</ele>
        <time>2024-12-27T11:24:55Z</time>
      </trkpt>
      <trkpt lat="46.23384" lon="6.57343">
        <ele>1644.57</ele>
        <time>2024-12-27T11:25:00Z</time>
      </trkpt>
      <trkpt lat="46.23382" lon="6.57342">
        <ele>1646.46</ele>
        <time>2024-12-27T11:25:05Z</time>
      </trkpt>
      <trkpt lat="46.2338" lon="6.57337">
        <ele>1645.433</ele>
        <time>2024-12-27T11:25:10Z</time>
      </trkpt>
      <trkpt lat="46.23377" lon="6.57334">
        <ele>1645.635</ele>
        <time>2024-12-27T11:25:15Z</time>
      </trkpt>
      <trkpt lat="46.23375" lon="6.5733">
        <ele>1645.32</ele>
        <time>2024-12-27T11:25:20Z</time>
      </trkpt>
      <trkpt lat="46.23372" lon="6.57329">
        <ele>1645.664</ele>
        <time>2024-12-27T11:25:25Z</time>
      </trkpt>
      <trkpt lat="46.23369" lon="6.57327">
        <ele>1646.553</ele>
        <time>2024-12-27T11:25:30Z</time>
      </trkpt>
      <trkpt lat="46.23365" lon="6.57324">
        <ele>1646.856</ele>
        <time>2024-12-27T11:25:35Z</time>
      </trkpt>
      <trkpt lat="46.23363" lon="6.57321">
        <ele>1647.53</ele>
        <time>2024-12-27T11:25:40Z</time>
      </trkpt>
      <trkpt lat="46.23359" lon="6.57318">
        <ele>1647.192</ele>
        <time>2024-12-27T11:25:45Z</time>
      </trkpt>
      <trkpt lat="46.23357" lon="6.57313">
        <ele>1648.132</ele>
        <time>2024-12-27T11:25:50Z</time>
      </trkpt>
      <trkpt lat="46.23355" lon="6.5731">
        <ele>1648</ele>
        <time>2024-12-27T11:25:55Z</time>
      </trkpt>
      <trkpt lat="46.23352" lon="6.57309">
        <ele>1649.247</ele>
        <time>2024-12-27T11:26:00Z</time>
      </trkpt>
      <trkpt lat="46.23349" lon="6.57307">
        <ele>1651.476</ele>
        <time>2024-12-27T11:26:05Z</time>
      </trkpt>
      <trkpt lat="46.23347" lon="6.57305">
        <ele>1653.267</ele>
        <time>2024-12-27T11:26:10Z</time>
      </trkpt>
      <trkpt lat="46.23345" lon="6.57304">
        <ele>1652.96</ele>
        <time>2024-12-27T11:26:15Z</time>
      </trkpt>
      <trkpt lat="46.23342" lon="6.57301">
        <ele>1654.532</ele>
        <time>2024-12-27T11:26:20Z</time>
      </trkpt>
      <trkpt lat="46.23338" lon="6.573">
        <ele>1654.498</ele>
        <time>2024-12-27T11:26:25Z</time>
      </trkpt>
      <trkpt lat="46.23335" lon="6.57299">
        <ele>1657.033</ele>
        <time>2024-12-27T11:26:30Z</time>
      </trkpt>
      <trkpt lat="46.23334" lon="6.57296">
        <ele>1655.907</ele>
        <time>2024-12-27T11:26:35Z</time>
      </trkpt>
      <trkpt lat="46.23331" lon="6.57292">
        <ele>1654.883</ele>
        <time>2024-12-27T11:26:40Z</time>
      </trkpt>
      <trkpt lat="46.23329" lon="6.5729">
        <ele>1656.9</ele>
        <time>2024-12-27T11:26:45Z</time>
      </trkpt>
      <trkpt lat="46.23326" lon="6.57288">
        <ele>1657.119</ele>
        <time>2024-12-27T11:26:50Z</time>
      </trkpt>
      <trkpt lat="46.23324" lon="6.57287">
        <ele>1657.865</ele>
        <time>2024-12-27T11:26:55Z</time>
      </trkpt>
      <trkpt lat="46.23319" lon="6.57287">
        <ele>1656.534</ele>
        <time>2024-12-27T11:27:00Z</time>
      </trkpt>
      <trkpt lat="46.23317" lon="6.57286">
        <ele>1656.422</ele>
        <time>2024-12-27T11:27:05Z</time>
      </trkpt>
      <trkpt lat="46.23315" lon="6.57285">
        <ele>1657.058</ele>
        <time>2024-12-27T11:27:10Z</time>
      </trkpt>
      <trkpt lat="46.23313" lon="6.57282">
        <ele>1659.661</ele>
        <time>2024-12-27T11:27:15Z</time>
      </trkpt>
      <trkpt lat="46.23312" lon="6.57278">
        <ele>1660.744</ele>
        <time>2024-12-27T11:27:20Z</time>
      </trkpt>
      <trkpt lat="46.2331" lon="6.57273">
        <ele>1661.013</ele>
        <time>2024-12-27T11:27:25Z</time>
      </trkpt>
      <trkpt lat="46.23309" lon="6.57268">
        <ele>1660.12</ele>
        <time>2024-12-27T11:27:30Z</time>
      </trkpt>
      <trkpt lat="46.23306" lon="6.57265">
        <ele>1660.243</ele>
        <time>2024-12-27T11:27:35Z</time>
      </trkpt>
      <trkpt lat="46.23303" lon="6.57264">
        <ele>1660.413</ele>
        <time>2024-12-27T11:27:40Z</time>
      </trkpt>
      <trkpt lat="46.23298" lon="6.57263">
        <ele>1660.605</ele>
        <time>2024-12-27T11:27:45Z</time>
      </trkpt>
      <trkpt lat="46.23294" lon="6.57261">
        <ele>1659.642</ele>
        <time>2024-12-27T11:27:50Z</time>
      </trkpt>
      <trkpt lat="46.23289" lon="6.5726">
        <ele>1659.341</ele>
        <time>2024-12-27T11:27:55Z</time>
      </trkpt>
      <trkpt lat="46.23284" lon="6.57257">
        <ele>1659.605</ele>
        <time>2024-12-27T11:28:00Z</time>
      </trkpt>
      <trkpt lat="46.23278" lon="6.57254">
        <ele>1658.711</ele>
        <time>2024-12-27T11:28:05Z</time>
      </trkpt>
      <trkpt lat="46.23272" lon="6.57249">
        <ele>1657.495</ele>
        <time>2024-12-27T11:28:10Z</time>
      </trkpt>
      <trkpt lat="46.23268" lon="6.57247">
        <ele>1656.74</ele>
        <time>2024-12-27T11:28:15Z</time>
      </trkpt>
      <trkpt lat="46.23267" lon="6.57245">
        <ele>1657.719</ele>
        <time>2024-12-27T11:28:20Z</time>
      </trkpt>
      <trkpt lat="46.23264" lon="6.57241">
        <ele>1658.451</ele>
        <time>2024-12-27T11:28:25Z</time>
      </trkpt>
      <trkpt lat="46.23263" lon="6.57236">
        <ele>1659.19</ele>
        <time>2024-12-27T11:28:30Z</time>
      </trkpt>
      <trkpt lat="46.23262" lon="6.57233">
        <ele>1658.857</ele>
        <time>2024-12-27T11:28:35Z</time>
      </trkpt>
      <trkpt lat="46.23259" lon="6.5723">
        <ele>1660.474</ele>
        <time>2024-12-27T11:28:40Z</time>
      </trkpt>
      <trkpt lat="46.23256" lon="6.57227">
        <ele>1660.284</ele>
        <time>2024-12-27T11:28:45Z</time>
      </trkpt>
      <trkpt lat="46.23254" lon="6.57224">
        <ele>1661.139</ele>
        <time>2024-12-27T11:28:50Z</time>
      </trkpt>
      <trkpt lat="46.23252" lon="6.5722">
        <ele>1661.952</ele>
        <time>2024-12-27T11:28:55Z</time>
      </trkpt>
      <trkpt lat="46.23252" lon="6.57217">
        <ele>1663.315</ele>
        <time>2024-12-27T11:29:00Z</time>
      </trkpt>
      <trkpt lat="46.2325" lon="6.57214">
        <ele>1662.908</ele>
        <time>2024-12-27T11:29:05Z</time>
      </trkpt>
      <trkpt lat="46.23248" lon="6.57211">
        <ele>1663.769</ele>
        <time>2024-12-27T11:29:10Z</time>
      </trkpt>
      <trkpt lat="46.23246" lon="6.5721">
        <ele>1663.556</ele>
        <time>2024-12-27T11:29:15Z</time>
      </trkpt>
      <trkpt lat="46.23245" lon="6.57208">
        <ele>1664.957</ele>
        <time>2024-12-27T11:29:20Z</time>
      </trkpt>
      <trkpt lat="46.23243" lon="6.57207">
        <ele>1665.009</ele>
        <time>2024-12-27T11:29:25Z</time>
      </trkpt>
      <trkpt lat="46.23242" lon="6.57202">
        <ele>1665.533</ele>
        <time>2024-12-27T11:29:30Z</time>
      </trkpt>
      <trkpt lat="46.2324" lon="6.57201">
        <ele>1664.533</ele>
        <time>2024-12-27T11:29:35Z</time>
      </trkpt>
      <trkpt lat="46.23238" lon="6.57197">
        <ele>1666.474</ele>
        <time>2024-12-27T11:29:40Z</time>
      </trkpt>
      <trkpt lat="46.23236" lon="6.57196">
        <ele>1666.025</ele>
        <time>2024-12-27T11:29:45Z</time>
      </trkpt>
      <trkpt lat="46.23236" lon="6.57194">
        <ele>1667.758</ele>
        <time>2024-12-27T11:29:50Z</time>
      </trkpt>
      <trkpt lat="46.23235" lon="6.57194">
        <ele>1669.695</ele>
        <time>2024-12-27T11:29:55Z</time>
      </trkpt>
      <trkpt lat="46.23235" lon="6.57191">
        <ele>1670.497</ele>
        <time>2024-12-27T11:30:00Z</time>
      </trkpt>
      <trkpt lat="46.23235" lon="6.57188">
        <ele>1671.758</ele>
        <time>2024-12-27T11:30:05Z</time>
      </trkpt>
      <trkpt lat="46.23235" lon="6.57185">
        <ele>1672.91</ele>
        <time>2024-12-27T11:30:10Z</time>
      </trkpt>
      <trkpt lat="46.23235" lon="6.57184">
        <ele>1673.236</ele>
        <time>2024-12-27T11:30:15Z</time>
      </trkpt>
      <trkpt lat="46.23235" lon="6.57182">
        <ele>1673.733</ele>
        <time>2024-12-27T11:30:20Z</time>
      </trkpt>
      <trkpt lat="46.23234" lon="6.57181">
        <ele>1675.776</ele>
        <time>2024-12-27T11:30:25Z</time>
      </trkpt>
      <trkpt lat="46.23234" lon="6.57178">
        <ele>1676.924</ele>
        <time>2024-12-27T11:30:30Z</time>
      </trkpt>
      <trkpt lat="46.23232" lon="6.57174">
        <ele>1676.032</ele>
        <time>2024-12-27T11:30:35Z</time>
      </trkpt>
      <trkpt lat="46.23232" lon="6.57171">
        <ele>1677.199</ele>
        <time>2024-12-27T11:30:40Z</time>
      </trkpt>
      <trkpt lat="46.23231" lon="6.57169">
        <ele>1677.492</ele>
        <time>2024-12-27T11:30:45Z</time>
      </trkpt>
      <trkpt lat="46.2323" lon="6.57167">
        <ele>1677.357</ele>
        <time>2024-12-27T11:30:50Z</time>
      </trkpt>
      <trkpt lat="46.2323" lon="6.57163">
        <ele>1678.259</ele>
        <time>2024-12-27T11:30:55Z</time>
      </trkpt>
      <trkpt lat="46.23231" lon="6.5716">
        <ele>1679.994</ele>
        <time>2024-12-27T11:31:00Z</time>
      </trkpt>
      <trkpt lat="46.23231" lon="6.57157">
        <ele>1680.708</ele>
        <time>2024-12-27T11:31:05Z</time>
      </trkpt>
      <trkpt lat="46.23231" lon="6.57153">
        <ele>1680.53</ele>
        <time>2024-12-27T11:31:10Z</time>
      </trkpt>
      <trkpt lat="46.2323" lon="6.57152">
        <ele>1681.951</ele>
        <time>2024-12-27T11:31:15Z</time>
      </trkpt>
      <trkpt lat="46.23231" lon="6.5715">
        <ele>1682.952</ele>
        <time>2024-12-27T11:31:20Z</time>
      </trkpt>
      <trkpt lat="46.23231" lon="6.57146">
        <ele>1684.615</ele>
        <time>2024-12-27T11:31:25Z</time>
      </trkpt>
      <trkpt lat="46.2323" lon="6.57143">
        <ele>1683.016</ele>
        <time>2024-12-27T11:31:30Z</time>
      </trkpt>
      <trkpt lat="46.23229" lon="6.5714">
        <ele>1682.588</ele>
        <time>2024-12-27T11:31:35Z</time>
      </trkpt>
      <trkpt lat="46.23227" lon="6.57137">
        <ele>1681.84</ele>
        <time>2024-12-27T11:31:40Z</time>
      </trkpt>
      <trkpt lat="46.23224" lon="6.57135">
        <ele>1682.375</ele>
        <time>2024-12-27T11:31:45Z</time>
      </trkpt>
      <trkpt lat="46.23223" lon="6.57133">
        <ele>1684.498</ele>
        <time>2024-12-27T11:31:50Z</time>
      </trkpt>
      <trkpt lat="46.23222" lon="6.57133">
        <ele>1687.107</ele>
        <time>2024-12-27T11:31:55Z</time>
      </trkpt>
      <trkpt lat="46.23221" lon="6.57132">
        <ele>1687.108</ele>
        <time>2024-12-27T11:32:00Z</time>
      </trkpt>
      <trkpt lat="46.23221" lon="6.57132">
        <ele>1687.084</ele>
        <time>2024-12-27T11:32:05Z</time>
      </trkpt>
      <trkpt lat="46.23221" lon="6.57133">
        <ele>1687.118</ele>
        <time>2024-12-27T11:32:10Z</time>
      </trkpt>
      <trkpt lat="46.23219" lon="6.57137">
        <ele>1687.019</ele>
        <time>2024-12-27T11:32:15Z</time>
      </trkpt>
      <trkpt lat="46.23219" lon="6.57139">
        <ele>1686.156</ele>
        <time>2024-12-27T11:32:20Z</time>
      </trkpt>
      <trkpt lat="46.23217" lon="6.57134">
        <ele>1687.284</ele>
        <time>2024-12-27T11:32:25Z</time>
      </trkpt>
      <trkpt lat="46.23215" lon="6.57129">
        <ele>1686.091</ele>
        <time>2024-12-27T11:32:30Z</time>
      </trkpt>
      <trkpt lat="46.23214" lon="6.57126">
        <ele>1688.572</ele>
        <time>2024-12-27T11:32:35Z</time>
      </trkpt>
      <trkpt lat="46.23213" lon="6.57122">
        <ele>1689.368</ele>
        <time>2024-12-27T11:32:40Z</time>
      </trkpt>
      <trkpt lat="46.23209" lon="6.57119">
        <ele>1689.683</ele>
        <time>2024-12-27T11:32:45Z</time>
      </trkpt>
      <trkpt lat="46.23205" lon="6.57117">
        <ele>1688.743</ele>
        <time>2024-12-27T11:32:50Z</time>
      </trkpt>
      <trkpt lat="46.23203" lon="6.57116">
        <ele>1689.547</ele>
        <time>2024-12-27T11:32:55Z</time>
      </trkpt>
      <trkpt lat="46.232" lon="6.57117">
        <ele>1690.805</ele>
        <time>2024-12-27T11:33:00Z</time>
      </trkpt>
      <trkpt lat="46.23198" lon="6.57117">
        <ele>1691.129</ele>
        <time>2024-12-27T11:33:05Z</time>
      </trkpt>
      <trkpt lat="46.23196" lon="6.57117">
        <ele>1693.053</ele>
        <time>2024-12-27T11:33:10Z</time>
      </trkpt>
      <trkpt lat="46.23194" lon="6.57115">
        <ele>1693.875</ele>
        <time>2024-12-27T11:33:15Z</time>
      </trkpt>
      <trkpt lat="46.23191" lon="6.57115">
        <ele>1694.727</ele>
        <time>2024-12-27T11:33:20Z</time>
      </trkpt>
      <trkpt lat="46.23188" lon="6.57116">
        <ele>1696.255</ele>
        <time>2024-12-27T11:33:25Z</time>
      </trkpt>
      <trkpt lat="46.23185" lon="6.57118">
        <ele>1695.906</ele>
        <time>2024-12-27T11:33:30Z</time>
      </trkpt>
      <trkpt lat="46.23184" lon="6.57121">
        <ele>1696.657</ele>
        <time>2024-12-27T11:33:35Z</time>
      </trkpt>
      <trkpt lat="46.23182" lon="6.57124">
        <ele>1695.852</ele>
        <time>2024-12-27T11:33:40Z</time>
      </trkpt>
      <trkpt lat="46.23179" lon="6.57125">
        <ele>1696.058</ele>
        <time>2024-12-27T11:33:45Z</time>
      </trkpt>
      <trkpt lat="46.23178" lon="6.57127">
        <ele>1696.659</ele>
        <time>2024-12-27T11:33:50Z</time>
      </trkpt>
      <trkpt lat="46.23175" lon="6.57129">
        <ele>1700.087</ele>
        <time>2024-12-27T11:33:55Z</time>
      </trkpt>
      <trkpt lat="46.23173" lon="6.57129">
        <ele>1701.202</ele>
        <time>2024-12-27T11:34:00Z</time>
      </trkpt>
      <trkpt lat="46.2317" lon="6.57131">
        <ele>1700.374</ele>
        <time>2024-12-27T11:34:05Z</time>
      </trkpt>
      <trkpt lat="46.23168" lon="6.57131">
        <ele>1704.008</ele>
        <time>2024-12-27T11:34:10Z</time>
      </trkpt>
      <trkpt lat="46.23167" lon="6.57136">
        <ele>1704.854</ele>
        <time>2024-12-27T11:34:15Z</time>
      </trkpt>
      <trkpt lat="46.23167" lon="6.57136">
        <ele>1707.369</ele>
        <time>2024-12-27T11:34:20Z</time>
      </trkpt>
      <trkpt lat="46.23167" lon="6.57136">
        <ele>1709.547</ele>
        <time>2024-12-27T11:34:25Z</time>
      </trkpt>
      <trkpt lat="46.23167" lon="6.57136">
        <ele>1712.085</ele>
        <time>2024-12-27T11:34:30Z</time>
      </trkpt>
      <trkpt lat="46.23167" lon="6.57136">
        <ele>1710.889</ele>
        <time>2024-12-27T11:34:35Z</time>
      </trkpt>
      <trkpt lat="46.23161" lon="6.57139">
        <ele>1705.852</ele>
        <time>2024-12-27T11:34:40Z</time>
      </trkpt>
      <trkpt lat="46.23161" lon="6.57145">
        <ele>1705.454</ele>
        <time>2024-12-27T11:34:45Z</time>
      </trkpt>
      <trkpt lat="46.23163" lon="6.57147">
        <ele>1706.461</ele>
        <time>2024-12-27T11:34:50Z</time>
      </trkpt>
      <trkpt lat="46.23164" lon="6.57149">
        <ele>1709.136</ele>
        <time>2024-12-27T11:34:55Z</time>
      </trkpt>
      <trkpt lat="46.23167" lon="6.57156">
        <ele>1708</ele>
        <time>2024-12-27T11:35:00Z</time>
      </trkpt>
      <trkpt lat="46.23167" lon="6.57158">
        <ele>1707.17</ele>
        <time>2024-12-27T11:35:05Z</time>
      </trkpt>
      <trkpt lat="46.23167" lon="6.57158">
        <ele>1707.337</ele>
        <time>2024-12-27T11:35:10Z</time>
      </trkpt>
      <trkpt lat="46.23171" lon="6.57153">
        <ele>1707.343</ele>
        <time>2024-12-27T11:35:15Z</time>
      </trkpt>
      <trkpt lat="46.23174" lon="6.57155">
        <ele>1707.32</ele>
        <time>2024-12-27T11:35:20Z</time>
      </trkpt>
      <trkpt lat="46.23175" lon="6.57159">
        <ele>1708.519</ele>
        <time>2024-12-27T11:35:25Z</time>
      </trkpt>
      <trkpt lat="46.23175" lon="6.57162">
        <ele>1709.979</ele>
        <time>2024-12-27T11:35:30Z</time>
      </trkpt>
      <trkpt lat="46.23175" lon="6.57163">
        <ele>1709.203</ele>
        <time>2024-12-27T11:35:35Z</time>
      </trkpt>
      <trkpt lat="46.23173" lon="6.57161">
        <ele>1709.612</ele>
        <time>2024-12-27T11:35:40Z</time>
      </trkpt>
      <trkpt lat="46.2317" lon="6.57161">
        <ele>1710.592</ele>
        <time>2024-12-27T11:35:45Z</time>
      </trkpt>
      <trkpt lat="46.23168" lon="6.5716">
        <ele>1711.646</ele>
        <time>2024-12-27T11:35:50Z</time>
      </trkpt>
      <trkpt lat="46.23165" lon="6.5716">
        <ele>1712.52</ele>
        <time>2024-12-27T11:35:55Z</time>
      </trkpt>
      <trkpt lat="46.23163" lon="6.57159">
        <ele>1713.705</ele>
        <time>2024-12-27T11:36:00Z</time>
      </trkpt>
      <trkpt lat="46.2316" lon="6.57158">
        <ele>1715.27</ele>
        <time>2024-12-27T11:36:05Z</time>
      </trkpt>
      <trkpt lat="46.23158" lon="6.57158">
        <ele>1717.452</ele>
        <time>2024-12-27T11:36:10Z</time>
      </trkpt>
      <trkpt lat="46.23157" lon="6.57165">
        <ele>1715.008</ele>
        <time>2024-12-27T11:36:15Z</time>
      </trkpt>
      <trkpt lat="46.23155" lon="6.57165">
        <ele>1716.579</ele>
        <time>2024-12-27T11:36:20Z</time>
      </trkpt>
      <trkpt lat="46.23151" lon="6.57162">
        <ele>1716.971</ele>
        <time>2024-12-27T11:36:25Z</time>
      </trkpt>
      <trkpt lat="46.23149" lon="6.57167">
        <ele>1717.998</ele>
        <time>2024-12-27T11:36:30Z</time>
      </trkpt>
      <trkpt lat="46.23149" lon="6.57172">
        <ele>1719.309</ele>
        <time>2024-12-27T11:36:35Z</time>
      </trkpt>
      <trkpt lat="46.23147" lon="6.57176">
        <ele>1720.43</ele>
        <time>2024-12-27T11:36:40Z</time>
      </trkpt>
      <trkpt lat="46.23142" lon="6.57179">
        <ele>1718.753</ele>
        <time>2024-12-27T11:36:45Z</time>
      </trkpt>
      <trkpt lat="46.2314" lon="6.5718">
        <ele>1719.219</ele>
        <time>2024-12-27T11:36:50Z</time>
      </trkpt>
      <trkpt lat="46.23137" lon="6.57179">
        <ele>1721.114</ele>
        <time>2024-12-27T11:36:55Z</time>
      </trkpt>
      <trkpt lat="46.23135" lon="6.57179">
        <ele>1723.707</ele>
        <time>2024-12-27T11:37:00Z</time>
      </trkpt>
      <trkpt lat="46.23132" lon="6.5718">
        <ele>1723.168</ele>
        <time>2024-12-27T11:37:05Z</time>
      </trkpt>
      <trkpt lat="46.23129" lon="6.57181">
        <ele>1725.114</ele>
        <time>2024-12-27T11:37:10Z</time>
      </trkpt>
      <trkpt lat="46.23126" lon="6.57182">
        <ele>1726.085</ele>
        <time>2024-12-27T11:37:15Z</time>
      </trkpt>
      <trkpt lat="46.23124" lon="6.57185">
        <ele>1726.651</ele>
        <time>2024-12-27T11:37:20Z</time>
      </trkpt>
      <trkpt lat="46.23122" lon="6.57188">
        <ele>1726.728</ele>
        <time>2024-12-27T11:37:25Z</time>
      </trkpt>
      <trkpt lat="46.23121" lon="6.57192">
        <ele>1725.851</ele>
        <time>2024-12-27T11:37:30Z</time>
      </trkpt>
      <trkpt lat="46.23119" lon="6.57197">
        <ele>1725.709</ele>
        <time>2024-12-27T11:37:35Z</time>
      </trkpt>
      <trkpt lat="46.23118" lon="6.57199">
        <ele>1725.382</ele>
        <time>2024-12-27T11:37:40Z</time>
      </trkpt>
      <trkpt lat="46.23116" lon="6.57202">
        <ele>1724.889</ele>
        <time>2024-12-27T11:37:45Z</time>
      </trkpt>
      <trkpt lat="46.23114" lon="6.57204">
        <ele>1725.896</ele>
        <time>2024-12-27T11:37:50Z</time>
      </trkpt>
      <trkpt lat="46.23112" lon="6.57206">
        <ele>1729.058</ele>
        <time>2024-12-27T11:37:55Z</time>
      </trkpt>
      <trkpt lat="46.23112" lon="6.57206">
        <ele>1729.255</ele>
        <time>2024-12-27T11:38:00Z</time>
      </trkpt>
      <trkpt lat="46.23112" lon="6.57206">
        <ele>1727.85</ele>
        <time>2024-12-27T11:38:05Z</time>
      </trkpt>
      <trkpt lat="46.23112" lon="6.57206">
        <ele>1730.295</ele>
        <time>2024-12-27T11:38:10Z</time>
      </trkpt>
      <trkpt lat="46.23113" lon="6.57212">
        <ele>1728.631</ele>
        <time>2024-12-27T11:38:15Z</time>
      </trkpt>
      <trkpt lat="46.23114" lon="6.57216">
        <ele>1729.34</ele>
        <time>2024-12-27T11:38:20Z</time>
      </trkpt>
      <trkpt lat="46.23115" lon="6.57218">
        <ele>1730.947</ele>
        <time>2024-12-27T11:38:25Z</time>
      </trkpt>
      <trkpt lat="46.23117" lon="6.57219">
        <ele>1732.251</ele>
        <time>2024-12-27T11:38:30Z</time>
      </trkpt>
      <trkpt lat="46.23119" lon="6.57221">
        <ele>1729.251</ele>
        <time>2024-12-27T11:38:35Z</time>
      </trkpt>
      <trkpt lat="46.23119" lon="6.57223">
        <ele>1729.677</ele>
        <time>2024-12-27T11:38:40Z</time>
      </trkpt>
      <trkpt lat="46.23118" lon="6.57223">
        <ele>1731.367</ele>
        <time>2024-12-27T11:38:45Z</time>
      </trkpt>
      <trkpt lat="46.23115" lon="6.57227">
        <ele>1732.652</ele>
        <time>2024-12-27T11:38:50Z</time>
      </trkpt>
      <trkpt lat="46.23113" lon="6.57228">
        <ele>1733.262</ele>
        <time>2024-12-27T11:38:55Z</time>
      </trkpt>
      <trkpt lat="46.2311" lon="6.57229">
        <ele>1732.538</ele>
        <time>2024-12-27T11:39:00Z</time>
      </trkpt>
      <trkpt lat="46.23108" lon="6.57231">
        <ele>1733.202</ele>
        <time>2024-12-27T11:39:05Z</time>
      </trkpt>
      <trkpt lat="46.23105" lon="6.57233">
        <ele>1734.797</ele>
        <time>2024-12-27T11:39:10Z</time>
      </trkpt>
      <trkpt lat="46.23103" lon="6.57232">
        <ele>1735.785</ele>
        <time>2024-12-27T11:39:15Z</time>
      </trkpt>
      <trkpt lat="46.23102" lon="6.57233">
        <ele>1737.2</ele>
        <time>2024-12-27T11:39:20Z</time>
      </trkpt>
      <trkpt lat="46.231" lon="6.57233">
        <ele>1737.867</ele>
        <time>2024-12-27T11:39:25Z</time>
      </trkpt>
      <trkpt lat="46.23097" lon="6.57233">
        <ele>1739.555</ele>
        <time>2024-12-27T11:39:30Z</time>
      </trkpt>
      <trkpt lat="46.23095" lon="6.57233">
        <ele>1742.161</ele>
        <time>2024-12-27T11:39:35Z</time>
      </trkpt>
      <trkpt lat="46.23093" lon="6.57231">
        <ele>1743.641</ele>
        <time>2024-12-27T11:39:40Z</time>
      </trkpt>
      <trkpt lat="46.23091" lon="6.5723">
        <ele>1743.288</ele>
        <time>2024-12-27T11:39:45Z</time>
      </trkpt>
      <trkpt lat="46.2309" lon="6.57232">
        <ele>1743.108</ele>
        <time>2024-12-27T11:39:50Z</time>
      </trkpt>
      <trkpt lat="46.2309" lon="6.57233">
        <ele>1744.359</ele>
        <time>2024-12-27T11:39:55Z</time>
      </trkpt>
      <trkpt lat="46.23089" lon="6.57234">
        <ele>1746.08</ele>
        <time>2024-12-27T11:40:00Z</time>
      </trkpt>
      <trkpt lat="46.23086" lon="6.57235">
        <ele>1744.706</ele>
        <time>2024-12-27T11:40:05Z</time>
      </trkpt>
      <trkpt lat="46.23085" lon="6.57235">
        <ele>1745.569</ele>
        <time>2024-12-27T11:40:10Z</time>
      </trkpt>
      <trkpt lat="46.23083" lon="6.57237">
        <ele>1745.121</ele>
        <time>2024-12-27T11:40:15Z</time>
      </trkpt>
      <trkpt lat="46.23082" lon="6.57238">
        <ele>1745.17</ele>
        <time>2024-12-27T11:40:20Z</time>
      </trkpt>
      <trkpt lat="46.23082" lon="6.57241">
        <ele>1746.35</ele>
        <time>2024-12-27T11:40:25Z</time>
      </trkpt>
      <trkpt lat="46.23082" lon="6.57243">
        <ele>1746.804</ele>
        <time>2024-12-27T11:40:30Z</time>
      </trkpt>
      <trkpt lat="46.23084" lon="6.57245">
        <ele>1747.856</ele>
        <time>2024-12-27T11:40:35Z</time>
      </trkpt>
      <trkpt lat="46.23085" lon="6.57248">
        <ele>1747.808</ele>
        <time>2024-12-27T11:40:40Z</time>
      </trkpt>
      <trkpt lat="46.23085" lon="6.57248">
        <ele>1746.859</ele>
        <time>2024-12-27T11:40:45Z</time>
      </trkpt>
      <trkpt lat="46.23085" lon="6.57248">
        <ele>1744.456</ele>
        <time>2024-12-27T11:40:50Z</time>
      </trkpt>
      <trkpt lat="46.23085" lon="6.57248">
        <ele>1745.311</ele>
        <time>2024-12-27T11:40:55Z</time>
      </trkpt>
      <trkpt lat="46.23085" lon="6.57248">
        <ele>1745.518</ele>
        <time>2024-12-27T11:41:00Z</time>
      </trkpt>
      <trkpt lat="46.23085" lon="6.57248">
        <ele>1747.39</ele>
        <time>2024-12-27T11:41:05Z</time>
      </trkpt>
      <trkpt lat="46.23085" lon="6.57248">
        <ele>1746.779</ele>
        <time>2024-12-27T11:41:10Z</time>
      </trkpt>
      <trkpt lat="46.23085" lon="6.57248">
        <ele>1748.986</ele>
        <time>2024-12-27T11:41:15Z</time>
      </trkpt>
      <trkpt lat="46.23085" lon="6.57248">
        <ele>1750.63</ele>
        <time>2024-12-27T11:41:20Z</time>
      </trkpt>
      <trkpt lat="46.23085" lon="6.57248">
        <ele>1750.062</ele>
        <time>2024-12-27T11:41:25Z</time>
      </trkpt>
      <trkpt lat="46.2309" lon="6.57256">
        <ele>1749.522</ele>
        <time>2024-12-27T11:41:30Z</time>
      </trkpt>
      <trkpt lat="46.23089" lon="6.57259">
        <ele>1750.602</ele>
        <time>2024-12-27T11:41:35Z</time>
      </trkpt>
      <trkpt lat="46.23088" lon="6.57261">
        <ele>1751.359</ele>
        <time>2024-12-27T11:41:40Z</time>
      </trkpt>
      <trkpt lat="46.23087" lon="6.57263">
        <ele>1752.365</ele>
        <time>2024-12-27T11:41:45Z</time>
      </trkpt>
      <trkpt lat="46.23085" lon="6.57262">
        <ele>1751.898</ele>
        <time>2024-12-27T11:41:50Z</time>
      </trkpt>
      <trkpt lat="46.23083" lon="6.57264">
        <ele>1748.776</ele>
        <time>2024-12-27T11:41:55Z</time>
      </trkpt>
      <trkpt lat="46.23081" lon="6.57267">
        <ele>1751.251</ele>
        <time>2024-12-27T11:42:00Z</time>
      </trkpt>
      <trkpt lat="46.2308" lon="6.57267">
        <ele>1752.726</ele>
        <time>2024-12-27T11:42:05Z</time>
      </trkpt>
      <trkpt lat="46.23076" lon="6.57268">
        <ele>1752.465</ele>
        <time>2024-12-27T11:42:10Z</time>
      </trkpt>
      <trkpt lat="46.23073" lon="6.57268">
        <ele>1753.977</ele>
        <time>2024-12-27T11:42:15Z</time>
      </trkpt>
      <trkpt lat="46.2307" lon="6.57267">
        <ele>1756.277</ele>
        <time>2024-12-27T11:42:20Z</time>
      </trkpt>
      <trkpt lat="46.23068" lon="6.57268">
        <ele>1757.392</ele>
        <time>2024-12-27T11:42:25Z</time>
      </trkpt>
      <trkpt lat="46.23066" lon="6.57272">
        <ele>1758.618</ele>
        <time>2024-12-27T11:42:30Z</time>
      </trkpt>
      <trkpt lat="46.23065" lon="6.57275">
        <ele>1759.759</ele>
        <time>2024-12-27T11:42:35Z</time>
      </trkpt>
      <trkpt lat="46.23064" lon="6.57278">
        <ele>1759.197</ele>
        <time>2024-12-27T11:42:40Z</time>
      </trkpt>
      <trkpt lat="46.23063" lon="6.57281">
        <ele>1759.297</ele>
        <time>2024-12-27T11:42:45Z</time>
      </trkpt>
      <trkpt lat="46.23062" lon="6.57284">
        <ele>1759.7</ele>
        <time>2024-12-27T11:42:50Z</time>
      </trkpt>
      <trkpt lat="46.2306" lon="6.57287">
        <ele>1759.774</ele>
        <time>2024-12-27T11:42:55Z</time>
      </trkpt>
      <trkpt lat="46.23059" lon="6.5729">
        <ele>1759.665</ele>
        <time>2024-12-27T11:43:00Z</time>
      </trkpt>
      <trkpt lat="46.23057" lon="6.57293">
        <ele>1760.564</ele>
        <time>2024-12-27T11:43:05Z</time>
      </trkpt>
      <trkpt lat="46.23055" lon="6.57295">
        <ele>1762.056</ele>
        <time>2024-12-27T11:43:10Z</time>
      </trkpt>
      <trkpt lat="46.23054" lon="6.57298">
        <ele>1762.6</ele>
        <time>2024-12-27T11:43:15Z</time>
      </trkpt>
      <trkpt lat="46.23053" lon="6.57301">
        <ele>1761.353</ele>
        <time>2024-12-27T11:43:20Z</time>
      </trkpt>
      <trkpt lat="46.23051" lon="6.57303">
        <ele>1762.197</ele>
        <time>2024-12-27T11:43:25Z</time>
      </trkpt>
      <trkpt lat="46.23049" lon="6.57304">
        <ele>1762.351</ele>
        <time>2024-12-27T11:43:30Z</time>
      </trkpt>
      <trkpt lat="46.23047" lon="6.57305">
        <ele>1762.685</ele>
        <time>2024-12-27T11:43:35Z</time>
      </trkpt>
      <trkpt lat="46.23046" lon="6.57307">
        <ele>1762.512</ele>
        <time>2024-12-27T11:43:40Z</time>
      </trkpt>
      <trkpt lat="46.23049" lon="6.57314">
        <ele>1763.304</ele>
        <time>2024-12-27T11:43:45Z</time>
      </trkpt>
      <trkpt lat="46.2305" lon="6.57316">
        <ele>1761.551</ele>
        <time>2024-12-27T11:43:50Z</time>
      </trkpt>
      <trkpt lat="46.23052" lon="6.57316">
        <ele>1763.187</ele>
        <time>2024-12-27T11:43:55Z</time>
      </trkpt>
      <trkpt lat="46.23053" lon="6.57319">
        <ele>1763.243</ele>
        <time>2024-12-27T11:44:00Z</time>
      </trkpt>
      <trkpt lat="46.23055" lon="6.5732">
        <ele>1764.907</ele>
        <time>2024-12-27T11:44:05Z</time>
      </trkpt>
      <trkpt lat="46.23057" lon="6.57324">
        <ele>1766.06</ele>
        <time>2024-12-27T11:44:10Z</time>
      </trkpt>
      <trkpt lat="46.23059" lon="6.57328">
        <ele>1768.006</ele>
        <time>2024-12-27T11:44:15Z</time>
      </trkpt>
      <trkpt lat="46.23059" lon="6.57327">
        <ele>1768.519</ele>
        <time>2024-12-27T11:44:20Z</time>
      </trkpt>
      <trkpt lat="46.23061" lon="6.57327">
        <ele>1768.899</ele>
        <time>2024-12-27T11:44:25Z</time>
      </trkpt>
      <trkpt lat="46.23064" lon="6.57328">
        <ele>1769.356</ele>
        <time>2024-12-27T11:44:30Z</time>
      </trkpt>
      <trkpt lat="46.23065" lon="6.57331">
        <ele>1768.624</ele>
        <time>2024-12-27T11:44:35Z</time>
      </trkpt>
      <trkpt lat="46.23067" lon="6.57333">
        <ele>1770.067</ele>
        <time>2024-12-27T11:44:40Z</time>
      </trkpt>
      <trkpt lat="46.23067" lon="6.57334">
        <ele>1772.092</ele>
        <time>2024-12-27T11:44:45Z</time>
      </trkpt>
      <trkpt lat="46.23069" lon="6.57338">
        <ele>1772.415</ele>
        <time>2024-12-27T11:44:50Z</time>
      </trkpt>
      <trkpt lat="46.2307" lon="6.57339">
        <ele>1774.14</ele>
        <time>2024-12-27T11:44:55Z</time>
      </trkpt>
      <trkpt lat="46.23069" lon="6.57341">
        <ele>1773.515</ele>
        <time>2024-12-27T11:45:00Z</time>
      </trkpt>
      <trkpt lat="46.2307" lon="6.57345">
        <ele>1774.257</ele>
        <time>2024-12-27T11:45:05Z</time>
      </trkpt>
      <trkpt lat="46.23071" lon="6.57348">
        <ele>1774.312</ele>
        <time>2024-12-27T11:45:10Z</time>
      </trkpt>
      <trkpt lat="46.2307" lon="6.57352">
        <ele>1774.639</ele>
        <time>2024-12-27T11:45:15Z</time>
      </trkpt>
      <trkpt lat="46.23072" lon="6.57356">
        <ele>1773.59</ele>
        <time>2024-12-27T11:45:20Z</time>
      </trkpt>
      <trkpt lat="46.23073" lon="6.5736">
        <ele>1775.177</ele>
        <time>2024-12-27T11:45:25Z</time>
      </trkpt>
      <trkpt lat="46.23074" lon="6.5736">
        <ele>1776.163</ele>
        <time>2024-12-27T11:45:30Z</time>
      </trkpt>
      <trkpt lat="46.23076" lon="6.57362">
        <ele>1777.729</ele>
        <time>2024-12-27T11:45:35Z</time>
      </trkpt>
      <trkpt lat="46.23077" lon="6.57363">
        <ele>1777.473</ele>
        <time>2024-12-27T11:45:40Z</time>
      </trkpt>
      <trkpt lat="46.23076" lon="6.57365">
        <ele>1775.734</ele>
        <time>2024-12-27T11:45:45Z</time>
      </trkpt>
      <trkpt lat="46.23076" lon="6.57366">
        <ele>1775.096</ele>
        <time>2024-12-27T11:45:50Z</time>
      </trkpt>
      <trkpt lat="46.23075" lon="6.57366">
        <ele>1776.897</ele>
        <time>2024-12-27T11:45:55Z</time>
      </trkpt>
      <trkpt lat="46.23074" lon="6.57366">
        <ele>1777.373</ele>
        <time>2024-12-27T11:46:00Z</time>
      </trkpt>
      <trkpt lat="46.23074" lon="6.57365">
        <ele>1778.776</ele>
        <time>2024-12-27T11:46:05Z</time>
      </trkpt>
      <trkpt lat="46.23072" lon="6.57363">
        <ele>1780.871</ele>
        <time>2024-12-27T11:46:10Z</time>
      </trkpt>
      <trkpt lat="46.2307" lon="6.57361">
        <ele>1782.863</ele>
        <time>2024-12-27T11:46:15Z</time>
      </trkpt>
      <trkpt lat="46.23069" lon="6.5736">
        <ele>1784.72</ele>
        <time>2024-12-27T11:46:20Z</time>
      </trkpt>
      <trkpt lat="46.23068" lon="6.57358">
        <ele>1784.962</ele>
        <time>2024-12-27T11:46:25Z</time>
      </trkpt>
      <trkpt lat="46.23068" lon="6.57358">
        <ele>1785.557</ele>
        <time>2024-12-27T11:46:30Z</time>
      </trkpt>
      <trkpt lat="46.23065" lon="6.57357">
        <ele>1787.168</ele>
        <time>2024-12-27T11:46:35Z</time>
      </trkpt>
      <trkpt lat="46.23063" lon="6.57357">
        <ele>1788.418</ele>
        <time>2024-12-27T11:46:40Z</time>
      </trkpt>
      <trkpt lat="46.23061" lon="6.57356">
        <ele>1789.293</ele>
        <time>2024-12-27T11:46:45Z</time>
      </trkpt>
      <trkpt lat="46.23059" lon="6.57358">
        <ele>1789.442</ele>
        <time>2024-12-27T11:46:50Z</time>
      </trkpt>
      <trkpt lat="46.23057" lon="6.57359">
        <ele>1789.698</ele>
        <time>2024-12-27T11:46:55Z</time>
      </trkpt>
      <trkpt lat="46.23057" lon="6.57362">
        <ele>1791.235</ele>
        <time>2024-12-27T11:47:00Z</time>
      </trkpt>
      <trkpt lat="46.23058" lon="6.57365">
        <ele>1791.312</ele>
        <time>2024-12-27T11:47:05Z</time>
      </trkpt>
      <trkpt lat="46.23057" lon="6.57366">
        <ele>1790.084</ele>
        <time>2024-12-27T11:47:10Z</time>
      </trkpt>
      <trkpt lat="46.2305" lon="6.57365">
        <ele>1788.643</ele>
        <time>2024-12-27T11:47:15Z</time>
      </trkpt>
      <trkpt lat="46.23044" lon="6.57362">
        <ele>1788.252</ele>
        <time>2024-12-27T11:47:20Z</time>
      </trkpt>
      <trkpt lat="46.23037" lon="6.57359">
        <ele>1788.116</ele>
        <time>2024-12-27T11:47:25Z</time>
      </trkpt>
      <trkpt lat="46.23033" lon="6.57356">
        <ele>1788.317</ele>
        <time>2024-12-27T11:47:30Z</time>
      </trkpt>
      <trkpt lat="46.2303" lon="6.57354">
        <ele>1790.925</ele>
        <time>2024-12-27T11:47:35Z</time>
      </trkpt>
      <trkpt lat="46.23027" lon="6.57351">
        <ele>1792.952</ele>
        <time>2024-12-27T11:47:40Z</time>
      </trkpt>
      <trkpt lat="46.23023" lon="6.57349">
        <ele>1792.977</ele>
        <time>2024-12-27T11:47:45Z</time>
      </trkpt>
      <trkpt lat="46.2302" lon="6.57347">
        <ele>1793.294</ele>
        <time>2024-12-27T11:47:50Z</time>
      </trkpt>
      <trkpt lat="46.23016" lon="6.57344">
        <ele>1793.623</ele>
        <time>2024-12-27T11:47:55Z</time>
      </trkpt>
      <trkpt lat="46.23013" lon="6.57342">
        <ele>1795.265</ele>
        <time>2024-12-27T11:48:00Z</time>
      </trkpt>
      <trkpt lat="46.2301" lon="6.5734">
        <ele>1795.596</ele>
        <time>2024-12-27T11:48:05Z</time>
      </trkpt>
      <trkpt lat="46.23007" lon="6.57338">
        <ele>1795.838</ele>
        <time>2024-12-27T11:48:10Z</time>
      </trkpt>
      <trkpt lat="46.23004" lon="6.57336">
        <ele>1796.235</ele>
        <time>2024-12-27T11:48:15Z</time>
      </trkpt>
      <trkpt lat="46.23001" lon="6.57333">
        <ele>1797.137</ele>
        <time>2024-12-27T11:48:20Z</time>
      </trkpt>
      <trkpt lat="46.22998" lon="6.57331">
        <ele>1796.386</ele>
        <time>2024-12-27T11:48:25Z</time>
      </trkpt>
      <trkpt lat="46.22995" lon="6.57329">
        <ele>1797.059</ele>
        <time>2024-12-27T11:48:30Z</time>
      </trkpt>
      <trkpt lat="46.22992" lon="6.57326">
        <ele>1797.441</ele>
        <time>2024-12-27T11:48:35Z</time>
      </trkpt>
      <trkpt lat="46.22991" lon="6.57324">
        <ele>1796.431</ele>
        <time>2024-12-27T11:48:40Z</time>
      </trkpt>
      <trkpt lat="46.22991" lon="6.57324">
        <ele>1796.428</ele>
        <time>2024-12-27T11:48:45Z</time>
      </trkpt>
      <trkpt lat="46.22991" lon="6.57324">
        <ele>1795.859</ele>
        <time>2024-12-27T11:48:50Z</time>
      </trkpt>
      <trkpt lat="46.22991" lon="6.57324">
        <ele>1795.812</ele>
        <time>2024-12-27T11:48:55Z</time>
      </trkpt>
      <trkpt lat="46.22991" lon="6.57324">
        <ele>1795.227</ele>
        <time>2024-12-27T11:49:00Z</time>
      </trkpt>
      <trkpt lat="46.22991" lon="6.57324">
        <ele>1795.236</ele>
        <time>2024-12-27T11:49:05Z</time>
      </trkpt>
      <trkpt lat="46.22991" lon="6.57324">
        <ele>1794.906</ele>
        <time>2024-12-27T11:49:10Z</time>
      </trkpt>
      <trkpt lat="46.22991" lon="6.57324">
        <ele>1794.683</ele>
        <time>2024-12-27T11:49:15Z</time>
      </trkpt>
      <trkpt lat="46.22991" lon="6.57324">
        <ele>1794.681</ele>
        <time>2024-12-27T11:49:20Z</time>
      </trkpt>
      <trkpt lat="46.22991" lon="6.57324">
        <ele>1794.675</ele>
        <time>2024-12-27T11:49:25Z</time>
      </trkpt>
      <trkpt lat="46.22991" lon="6.57324">
        <ele>1794.663</ele>
        <time>2024-12-27T11:49:30Z</time>
      </trkpt>
      <trkpt lat="46.22991" lon="6.57324">
        <ele>1794.5</ele>
        <time>2024-12-27T11:49:35Z</time>
      </trkpt>
      <trkpt lat="46.22991" lon="6.57324">
        <ele>1794.484</ele>
        <time>2024-12-27T11:49:40Z</time>
      </trkpt>
      <trkpt lat="46.22991" lon="6.57324">
        <ele>1794.472</ele>
        <time>2024-12-27T11:49:45Z</time>
      </trkpt>
      <trkpt lat="46.22991" lon="6.57324">
        <ele>1794.466</ele>
        <time>2024-12-27T11:49:50Z</time>
      </trkpt>
      <trkpt lat="46.22991" lon="6.57324">
        <ele>1794.113</ele>
        <time>2024-12-27T11:49:55Z</time>
      </trkpt>
      <trkpt lat="46.22991" lon="6.57324">
        <ele>1794.212</ele>
        <time>2024-12-27T11:50:00Z</time>
      </trkpt>
      <trkpt lat="46.22991" lon="6.57324">
        <ele>1794.207</ele>
        <time>2024-12-27T11:50:05Z</time>
      </trkpt>
      <trkpt lat="46.22991" lon="6.57324">
        <ele>1794.198</ele>
        <time>2024-12-27T11:50:10Z</time>
      </trkpt>
      <trkpt lat="46.22991" lon="6.57324">
        <ele>1794.198</ele>
        <time>2024-12-27T11:50:15Z</time>
      </trkpt>
      <trkpt lat="46.22991" lon="6.57324">
        <ele>1793.443</ele>
        <time>2024-12-27T11:50:20Z</time>
      </trkpt>
      <trkpt lat="46.22991" lon="6.57324">
        <ele>1793.611</ele>
        <time>2024-12-27T11:50:25Z</time>
      </trkpt>
      <trkpt lat="46.22991" lon="6.57324">
        <ele>1793.751</ele>
        <time>2024-12-27T11:50:30Z</time>
      </trkpt>
      <trkpt lat="46.22991" lon="6.57324">
        <ele>1793.755</ele>
        <time>2024-12-27T11:50:35Z</time>
      </trkpt>
      <trkpt lat="46.22991" lon="6.57324">
        <ele>1794.199</ele>
        <time>2024-12-27T11:50:40Z</time>
      </trkpt>
      <trkpt lat="46.22991" lon="6.57324">
        <ele>1794.198</ele>
        <time>2024-12-27T11:50:45Z</time>
      </trkpt>
      <trkpt lat="46.22991" lon="6.57324">
        <ele>1794.203</ele>
        <time>2024-12-27T11:50:50Z</time>
      </trkpt>
      <trkpt lat="46.22991" lon="6.57324">
        <ele>1794.564</ele>
        <time>2024-12-27T11:50:55Z</time>
      </trkpt>
      <trkpt lat="46.22991" lon="6.57324">
        <ele>1793.945</ele>
        <time>2024-12-27T11:51:00Z</time>
      </trkpt>
      <trkpt lat="46.22991" lon="6.57324">
        <ele>1793.949</ele>
        <time>2024-12-27T11:51:05Z</time>
      </trkpt>
      <trkpt lat="46.22991" lon="6.57324">
        <ele>1793.952</ele>
        <time>2024-12-27T11:51:10Z</time>
      </trkpt>
      <trkpt lat="46.22991" lon="6.57324">
        <ele>1794.024</ele>
        <time>2024-12-27T11:51:15Z</time>
      </trkpt>
      <trkpt lat="46.22991" lon="6.57324">
        <ele>1794.31</ele>
        <time>2024-12-27T11:51:20Z</time>
      </trkpt>
      <trkpt lat="46.22991" lon="6.57324">
        <ele>1794.304</ele>
        <time>2024-12-27T11:51:25Z</time>
      </trkpt>
      <trkpt lat="46.22991" lon="6.57324">
        <ele>1793.574</ele>
        <time>2024-12-27T11:51:30Z</time>
      </trkpt>
      <trkpt lat="46.22991" lon="6.57324">
        <ele>1793.73</ele>
        <time>2024-12-27T11:51:35Z</time>
      </trkpt>
      <trkpt lat="46.22991" lon="6.57324">
        <ele>1793.728</ele>
        <time>2024-12-27T11:51:40Z</time>
      </trkpt>
      <trkpt lat="46.22991" lon="6.57324">
        <ele>1793.73</ele>
        <time>2024-12-27T11:51:45Z</time>
      </trkpt>
      <trkpt lat="46.22991" lon="6.57324">
        <ele>1793.732</ele>
        <time>2024-12-27T11:51:50Z</time>
      </trkpt>
      <trkpt lat="46.22991" lon="6.57324">
        <ele>1793.726</ele>
        <time>2024-12-27T11:51:55Z</time>
      </trkpt>
      <trkpt lat="46.22991" lon="6.57324">
        <ele>1793.723</ele>
        <time>2024-12-27T11:52:00Z</time>
      </trkpt>
      <trkpt lat="46.22991" lon="6.57324">
        <ele>1793.729</ele>
        <time>2024-12-27T11:52:05Z</time>
      </trkpt>
      <trkpt lat="46.22991" lon="6.57324">
        <ele>1793.734</ele>
        <time>2024-12-27T11:52:10Z</time>
      </trkpt>
      <trkpt lat="46.22991" lon="6.57324">
        <ele>1793.735</ele>
        <time>2024-12-27T11:52:15Z</time>
      </trkpt>
      <trkpt lat="46.22991" lon="6.57324">
        <ele>1794.388</ele>
        <time>2024-12-27T11:52:20Z</time>
      </trkpt>
      <trkpt lat="46.22991" lon="6.57324">
        <ele>1794.363</ele>
        <time>2024-12-27T11:52:25Z</time>
      </trkpt>
      <trkpt lat="46.22991" lon="6.57324">
        <ele>1794.37</ele>
        <time>2024-12-27T11:52:30Z</time>
      </trkpt>
      <trkpt lat="46.22991" lon="6.57324">
        <ele>1794.373</ele>
        <time>2024-12-27T11:52:35Z</time>
      </trkpt>
      <trkpt lat="46.22991" lon="6.57324">
        <ele>1794.377</ele>
        <time>2024-12-27T11:52:40Z</time>
      </trkpt>
      <trkpt lat="46.22991" lon="6.57324">
        <ele>1794.385</ele>
        <time>2024-12-27T11:52:45Z</time>
      </trkpt>
      <trkpt lat="46.22991" lon="6.57324">
        <ele>1794.384</ele>
        <time>2024-12-27T11:52:50Z</time>
      </trkpt>
      <trkpt lat="46.22991" lon="6.57324">
        <ele>1794.176</ele>
        <time>2024-12-27T11:52:55Z</time>
      </trkpt>
      <trkpt lat="46.22991" lon="6.57324">
        <ele>1793.805</ele>
        <time>2024-12-27T11:53:00Z</time>
      </trkpt>
      <trkpt lat="46.22991" lon="6.57324">
        <ele>1793.796</ele>
        <time>2024-12-27T11:53:05Z</time>
      </trkpt>
      <trkpt lat="46.22991" lon="6.57324">
        <ele>1794.208</ele>
        <time>2024-12-27T11:53:10Z</time>
      </trkpt>
      <trkpt lat="46.22991" lon="6.57324">
        <ele>1794.215</ele>
        <time>2024-12-27T11:53:15Z</time>
      </trkpt>
      <trkpt lat="46.22991" lon="6.57324">
        <ele>1793.887</ele>
        <time>2024-12-27T11:53:20Z</time>
      </trkpt>
      <trkpt lat="46.22991" lon="6.57324">
        <ele>1793.89</ele>
        <time>2024-12-27T11:53:25Z</time>
      </trkpt>
      <trkpt lat="46.22991" lon="6.57324">
        <ele>1793.959</ele>
        <time>2024-12-27T11:53:30Z</time>
      </trkpt>
      <trkpt lat="46.22991" lon="6.57324">
        <ele>1793.96</ele>
        <time>2024-12-27T11:53:35Z</time>
      </trkpt>
      <trkpt lat="46.22991" lon="6.57324">
        <ele>1793.96</ele>
        <time>2024-12-27T11:53:40Z</time>
      </trkpt>
      <trkpt lat="46.22991" lon="6.57324">
        <ele>1793.954</ele>
        <time>2024-12-27T11:53:45Z</time>
      </trkpt>
      <trkpt lat="46.22991" lon="6.57324">
        <ele>1793.952</ele>
        <time>2024-12-27T11:53:50Z</time>
      </trkpt>
      <trkpt lat="46.22991" lon="6.57324">
        <ele>1793.954</ele>
        <time>2024-12-27T11:53:55Z</time>
      </trkpt>
      <trkpt lat="46.22991" lon="6.57324">
        <ele>1793.953</ele>
        <time>2024-12-27T11:54:00Z</time>
      </trkpt>
      <trkpt lat="46.22991" lon="6.57324">
        <ele>1793.953</ele>
        <time>2024-12-27T11:54:05Z</time>
      </trkpt>
      <trkpt lat="46.22991" lon="6.57324">
        <ele>1793.953</ele>
        <time>2024-12-27T11:54:10Z</time>
      </trkpt>
      <trkpt lat="46.22991" lon="6.57324">
        <ele>1793.953</ele>
        <time>2024-12-27T11:54:15Z</time>
      </trkpt>
      <trkpt lat="46.22991" lon="6.57324">
        <ele>1793.949</ele>
        <time>2024-12-27T11:54:20Z</time>
      </trkpt>
      <trkpt lat="46.22991" lon="6.57324">
        <ele>1793.941</ele>
        <time>2024-12-27T11:54:25Z</time>
      </trkpt>
      <trkpt lat="46.22991" lon="6.57324">
        <ele>1794.141</ele>
        <time>2024-12-27T11:54:30Z</time>
      </trkpt>
      <trkpt lat="46.22991" lon="6.57324">
        <ele>1794.246</ele>
        <time>2024-12-27T11:54:35Z</time>
      </trkpt>
      <trkpt lat="46.22991" lon="6.57324">
        <ele>1794.338</ele>
        <time>2024-12-27T11:54:40Z</time>
      </trkpt>
      <trkpt lat="46.22991" lon="6.57324">
        <ele>1794.337</ele>
        <time>2024-12-27T11:54:45Z</time>
      </trkpt>
      <trkpt lat="46.22991" lon="6.57324">
        <ele>1794.335</ele>
        <time>2024-12-27T11:54:50Z</time>
      </trkpt>
      <trkpt lat="46.22991" lon="6.57324">
        <ele>1794.337</ele>
        <time>2024-12-27T11:54:55Z</time>
      </trkpt>
      <trkpt lat="46.22991" lon="6.57324">
        <ele>1794.335</ele>
        <time>2024-12-27T11:55:00Z</time>
      </trkpt>
      <trkpt lat="46.22991" lon="6.57324">
        <ele>1794.334</ele>
        <time>2024-12-27T11:55:05Z</time>
      </trkpt>
      <trkpt lat="46.22991" lon="6.57324">
        <ele>1794.334</ele>
        <time>2024-12-27T11:55:10Z</time>
      </trkpt>
      <trkpt lat="46.22991" lon="6.57324">
        <ele>1794.331</ele>
        <time>2024-12-27T11:55:15Z</time>
      </trkpt>
      <trkpt lat="46.22991" lon="6.57324">
        <ele>1794.33</ele>
        <time>2024-12-27T11:55:20Z</time>
      </trkpt>
      <trkpt lat="46.22991" lon="6.57324">
        <ele>1794.33</ele>
        <time>2024-12-27T11:55:25Z</time>
      </trkpt>
      <trkpt lat="46.22991" lon="6.57324">
        <ele>1794.332</ele>
        <time>2024-12-27T11:55:30Z</time>
      </trkpt>
      <trkpt lat="46.22991" lon="6.57324">
        <ele>1794.34</ele>
        <time>2024-12-27T11:55:35Z</time>
      </trkpt>
      <trkpt lat="46.22991" lon="6.57324">
        <ele>1794.334</ele>
        <time>2024-12-27T11:55:40Z</time>
      </trkpt>
      <trkpt lat="46.22991" lon="6.57324">
        <ele>1794.562</ele>
        <time>2024-12-27T11:55:45Z</time>
      </trkpt>
      <trkpt lat="46.22991" lon="6.57324">
        <ele>1794.575</ele>
        <time>2024-12-27T11:55:50Z</time>
      </trkpt>
      <trkpt lat="46.22991" lon="6.57324">
        <ele>1794.579</ele>
        <time>2024-12-27T11:55:55Z</time>
      </trkpt>
      <trkpt lat="46.22991" lon="6.57324">
        <ele>1794.586</ele>
        <time>2024-12-27T11:56:00Z</time>
      </trkpt>
      <trkpt lat="46.22991" lon="6.57324">
        <ele>1794.974</ele>
        <time>2024-12-27T11:56:05Z</time>
      </trkpt>
      <trkpt lat="46.22991" lon="6.57324">
        <ele>1795.392</ele>
        <time>2024-12-27T11:56:10Z</time>
      </trkpt>
      <trkpt lat="46.22991" lon="6.57324">
        <ele>1795.08</ele>
        <time>2024-12-27T11:56:15Z</time>
      </trkpt>
      <trkpt lat="46.22991" lon="6.57324">
        <ele>1795.069</ele>
        <time>2024-12-27T11:56:20Z</time>
      </trkpt>
      <trkpt lat="46.22991" lon="6.57324">
        <ele>1795.059</ele>
        <time>2024-12-27T11:56:25Z</time>
      </trkpt>
      <trkpt lat="46.22991" lon="6.57324">
        <ele>1795.057</ele>
        <time>2024-12-27T11:56:30Z</time>
      </trkpt>
      <trkpt lat="46.22991" lon="6.57324">
        <ele>1795.057</ele>
        <time>2024-12-27T11:56:35Z</time>
      </trkpt>
      <trkpt lat="46.22991" lon="6.57324">
        <ele>1795.056</ele>
        <time>2024-12-27T11:56:40Z</time>
      </trkpt>
      <trkpt lat="46.22991" lon="6.57324">
        <ele>1795.057</ele>
        <time>2024-12-27T11:56:45Z</time>
      </trkpt>
      <trkpt lat="46.22991" lon="6.57324">
        <ele>1795.055</ele>
        <time>2024-12-27T11:56:50Z</time>
      </trkpt>
      <trkpt lat="46.22991" lon="6.57324">
        <ele>1795.052</ele>
        <time>2024-12-27T11:56:55Z</time>
      </trkpt>
      <trkpt lat="46.22991" lon="6.57324">
        <ele>1795.048</ele>
        <time>2024-12-27T11:57:00Z</time>
      </trkpt>
      <trkpt lat="46.22991" lon="6.57324">
        <ele>1795.047</ele>
        <time>2024-12-27T11:57:05Z</time>
      </trkpt>
      <trkpt lat="46.22991" lon="6.57324">
        <ele>1795.043</ele>
        <time>2024-12-27T11:57:10Z</time>
      </trkpt>
      <trkpt lat="46.22991" lon="6.57324">
        <ele>1795.04</ele>
        <time>2024-12-27T11:57:15Z</time>
      </trkpt>
      <trkpt lat="46.22991" lon="6.57324">
        <ele>1796.23</ele>
        <time>2024-12-27T11:57:20Z</time>
      </trkpt>
      <trkpt lat="46.22991" lon="6.57324">
        <ele>1796.808</ele>
        <time>2024-12-27T11:57:25Z</time>
      </trkpt>
      <trkpt lat="46.22991" lon="6.57324">
        <ele>1795.835</ele>
        <time>2024-12-27T11:57:30Z</time>
      </trkpt>
      <trkpt lat="46.22991" lon="6.57324">
        <ele>1795.606</ele>
        <time>2024-12-27T11:57:35Z</time>
      </trkpt>
      <trkpt lat="46.22991" lon="6.57324">
        <ele>1795.606</ele>
        <time>2024-12-27T11:57:40Z</time>
      </trkpt>
      <trkpt lat="46.22991" lon="6.57324">
        <ele>1795.391</ele>
        <time>2024-12-27T11:57:45Z</time>
      </trkpt>
      <trkpt lat="46.22991" lon="6.57324">
        <ele>1795.391</ele>
        <time>2024-12-27T11:57:50Z</time>
      </trkpt>
      <trkpt lat="46.22991" lon="6.57324">
        <ele>1795.396</ele>
        <time>2024-12-27T11:57:55Z</time>
      </trkpt>
      <trkpt lat="46.22991" lon="6.57324">
        <ele>1795.397</ele>
        <time>2024-12-27T11:58:00Z</time>
      </trkpt>
      <trkpt lat="46.22991" lon="6.57324">
        <ele>1795.397</ele>
        <time>2024-12-27T11:58:05Z</time>
      </trkpt>
      <trkpt lat="46.22991" lon="6.57324">
        <ele>1795.396</ele>
        <time>2024-12-27T11:58:10Z</time>
      </trkpt>
      <trkpt lat="46.22991" lon="6.57324">
        <ele>1795.391</ele>
        <time>2024-12-27T11:58:15Z</time>
      </trkpt>
      <trkpt lat="46.22991" lon="6.57324">
        <ele>1795.389</ele>
        <time>2024-12-27T11:58:20Z</time>
      </trkpt>
      <trkpt lat="46.22991" lon="6.57324">
        <ele>1795.392</ele>
        <time>2024-12-27T11:58:25Z</time>
      </trkpt>
      <trkpt lat="46.22991" lon="6.57324">
        <ele>1795.39</ele>
        <time>2024-12-27T11:58:30Z</time>
      </trkpt>
      <trkpt lat="46.22991" lon="6.57324">
        <ele>1795.394</ele>
        <time>2024-12-27T11:58:35Z</time>
      </trkpt>
      <trkpt lat="46.22991" lon="6.57324">
        <ele>1795.394</ele>
        <time>2024-12-27T11:58:40Z</time>
      </trkpt>
      <trkpt lat="46.22991" lon="6.57324">
        <ele>1795.393</ele>
        <time>2024-12-27T11:58:45Z</time>
      </trkpt>
      <trkpt lat="46.22991" lon="6.57324">
        <ele>1795.395</ele>
        <time>2024-12-27T11:58:50Z</time>
      </trkpt>
      <trkpt lat="46.22991" lon="6.57324">
        <ele>1795.394</ele>
        <time>2024-12-27T11:58:55Z</time>
      </trkpt>
      <trkpt lat="46.22991" lon="6.57324">
        <ele>1795.395</ele>
        <time>2024-12-27T11:59:00Z</time>
      </trkpt>
      <trkpt lat="46.22991" lon="6.57324">
        <ele>1795.397</ele>
        <time>2024-12-27T11:59:05Z</time>
      </trkpt>
      <trkpt lat="46.22991" lon="6.57324">
        <ele>1795.394</ele>
        <time>2024-12-27T11:59:10Z</time>
      </trkpt>
      <trkpt lat="46.22991" lon="6.57324">
        <ele>1795.394</ele>
        <time>2024-12-27T11:59:15Z</time>
      </trkpt>
      <trkpt lat="46.22991" lon="6.57324">
        <ele>1795.399</ele>
        <time>2024-12-27T11:59:20Z</time>
      </trkpt>
      <trkpt lat="46.22991" lon="6.57324">
        <ele>1795.406</ele>
        <time>2024-12-27T11:59:25Z</time>
      </trkpt>
      <trkpt lat="46.22991" lon="6.57324">
        <ele>1795.408</ele>
        <time>2024-12-27T11:59:30Z</time>
      </trkpt>
      <trkpt lat="46.22991" lon="6.57324">
        <ele>1795.411</ele>
        <time>2024-12-27T11:59:35Z</time>
      </trkpt>
      <trkpt lat="46.22991" lon="6.57324">
        <ele>1795.413</ele>
        <time>2024-12-27T11:59:40Z</time>
      </trkpt>
      <trkpt lat="46.22991" lon="6.57324">
        <ele>1795.409</ele>
        <time>2024-12-27T11:59:45Z</time>
      </trkpt>
      <trkpt lat="46.22991" lon="6.57324">
        <ele>1795.408</ele>
        <time>2024-12-27T11:59:50Z</time>
      </trkpt>
      <trkpt lat="46.22991" lon="6.57324">
        <ele>1795.403</ele>
        <time>2024-12-27T11:59:55Z</time>
      </trkpt>
      <trkpt lat="46.22991" lon="6.57324">
        <ele>1795.402</ele>
        <time>2024-12-27T12:00:00Z</time>
      </trkpt>
      <trkpt lat="46.22991" lon="6.57324">
        <ele>1795.408</ele>
        <time>2024-12-27T12:00:05Z</time>
      </trkpt>
      <trkpt lat="46.22991" lon="6.57324">
        <ele>1795.405</ele>
        <time>2024-12-27T12:00:10Z</time>
      </trkpt>
      <trkpt lat="46.22991" lon="6.57324">
        <ele>1795.399</ele>
        <time>2024-12-27T12:00:15Z</time>
      </trkpt>
      <trkpt lat="46.22991" lon="6.57324">
        <ele>1795.399</ele>
        <time>2024-12-27T12:00:20Z</time>
      </trkpt>
      <trkpt lat="46.22991" lon="6.57324">
        <ele>1795.393</ele>
        <time>2024-12-27T12:00:25Z</time>
      </trkpt>
      <trkpt lat="46.22991" lon="6.57324">
        <ele>1795.391</ele>
        <time>2024-12-27T12:00:30Z</time>
      </trkpt>
      <trkpt lat="46.22991" lon="6.57324">
        <ele>1795.392</ele>
        <time>2024-12-27T12:00:35Z</time>
      </trkpt>
      <trkpt lat="46.22991" lon="6.57324">
        <ele>1795.391</ele>
        <time>2024-12-27T12:00:40Z</time>
      </trkpt>
      <trkpt lat="46.22991" lon="6.57324">
        <ele>1795.384</ele>
        <time>2024-12-27T12:00:45Z</time>
      </trkpt>
      <trkpt lat="46.22991" lon="6.57324">
        <ele>1795.379</ele>
        <time>2024-12-27T12:00:50Z</time>
      </trkpt>
      <trkpt lat="46.22991" lon="6.57324">
        <ele>1795.368</ele>
        <time>2024-12-27T12:00:55Z</time>
      </trkpt>
      <trkpt lat="46.22991" lon="6.57324">
        <ele>1795.358</ele>
        <time>2024-12-27T12:01:00Z</time>
      </trkpt>
      <trkpt lat="46.22991" lon="6.57324">
        <ele>1795.359</ele>
        <time>2024-12-27T12:01:05Z</time>
      </trkpt>
      <trkpt lat="46.22991" lon="6.57324">
        <ele>1795.36</ele>
        <time>2024-12-27T12:01:10Z</time>
      </trkpt>
      <trkpt lat="46.22991" lon="6.57324">
        <ele>1795.362</ele>
        <time>2024-12-27T12:01:15Z</time>
      </trkpt>
      <trkpt lat="46.22991" lon="6.57324">
        <ele>1795.362</ele>
        <time>2024-12-27T12:01:20Z</time>
      </trkpt>
      <trkpt lat="46.22991" lon="6.57324">
        <ele>1795.363</ele>
        <time>2024-12-27T12:01:25Z</time>
      </trkpt>
      <trkpt lat="46.22991" lon="6.57324">
        <ele>1795.366</ele>
        <time>2024-12-27T12:01:30Z</time>
      </trkpt>
      <trkpt lat="46.22991" lon="6.57324">
        <ele>1795.367</ele>
        <time>2024-12-27T12:01:35Z</time>
      </trkpt>
      <trkpt lat="46.22991" lon="6.57324">
        <ele>1795.368</ele>
        <time>2024-12-27T12:01:40Z</time>
      </trkpt>
      <trkpt lat="46.22991" lon="6.57324">
        <ele>1795.373</ele>
        <time>2024-12-27T12:01:45Z</time>
      </trkpt>
      <trkpt lat="46.22991" lon="6.57324">
        <ele>1795.377</ele>
        <time>2024-12-27T12:01:50Z</time>
      </trkpt>
      <trkpt lat="46.22991" lon="6.57324">
        <ele>1795.383</ele>
        <time>2024-12-27T12:01:55Z</time>
      </trkpt>
      <trkpt lat="46.22991" lon="6.57324">
        <ele>1795.387</ele>
        <time>2024-12-27T12:02:00Z</time>
      </trkpt>
      <trkpt lat="46.22991" lon="6.57324">
        <ele>1795.392</ele>
        <time>2024-12-27T12:02:05Z</time>
      </trkpt>
      <trkpt lat="46.22991" lon="6.57324">
        <ele>1795.394</ele>
        <time>2024-12-27T12:02:10Z</time>
      </trkpt>
      <trkpt lat="46.22991" lon="6.57324">
        <ele>1795.39</ele>
        <time>2024-12-27T12:02:15Z</time>
      </trkpt>
      <trkpt lat="46.22991" lon="6.57324">
        <ele>1795.388</ele>
        <time>2024-12-27T12:02:20Z</time>
      </trkpt>
      <trkpt lat="46.22991" lon="6.57324">
        <ele>1795.388</ele>
        <time>2024-12-27T12:02:25Z</time>
      </trkpt>
      <trkpt lat="46.22991" lon="6.57324">
        <ele>1795.389</ele>
        <time>2024-12-27T12:02:30Z</time>
      </trkpt>
      <trkpt lat="46.22991" lon="6.57324">
        <ele>1795.393</ele>
        <time>2024-12-27T12:02:35Z</time>
      </trkpt>
      <trkpt lat="46.22991" lon="6.57324">
        <ele>1795.395</ele>
        <time>2024-12-27T12:02:40Z</time>
      </trkpt>
      <trkpt lat="46.22991" lon="6.57324">
        <ele>1795.401</ele>
        <time>2024-12-27T12:02:45Z</time>
      </trkpt>
      <trkpt lat="46.22991" lon="6.57324">
        <ele>1795.397</ele>
        <time>2024-12-27T12:02:50Z</time>
      </trkpt>
      <trkpt lat="46.22991" lon="6.57324">
        <ele>1795.397</ele>
        <time>2024-12-27T12:02:55Z</time>
      </trkpt>
      <trkpt lat="46.22991" lon="6.57324">
        <ele>1795.393</ele>
        <time>2024-12-27T12:03:00Z</time>
      </trkpt>
      <trkpt lat="46.22991" lon="6.57324">
        <ele>1795.398</ele>
        <time>2024-12-27T12:03:05Z</time>
      </trkpt>
      <trkpt lat="46.22991" lon="6.57324">
        <ele>1795.399</ele>
        <time>2024-12-27T12:03:10Z</time>
      </trkpt>
      <trkpt lat="46.22991" lon="6.57324">
        <ele>1795.399</ele>
        <time>2024-12-27T12:03:15Z</time>
      </trkpt>
      <trkpt lat="46.22991" lon="6.57324">
        <ele>1795.401</ele>
        <time>2024-12-27T12:03:20Z</time>
      </trkpt>
      <trkpt lat="46.22991" lon="6.57324">
        <ele>1795.407</ele>
        <time>2024-12-27T12:03:25Z</time>
      </trkpt>
      <trkpt lat="46.22991" lon="6.57324">
        <ele>1795.406</ele>
        <time>2024-12-27T12:03:30Z</time>
      </trkpt>
      <trkpt lat="46.22991" lon="6.57324">
        <ele>1795.407</ele>
        <time>2024-12-27T12:03:35Z</time>
      </trkpt>
      <trkpt lat="46.22991" lon="6.57324">
        <ele>1795.413</ele>
        <time>2024-12-27T12:03:40Z</time>
      </trkpt>
      <trkpt lat="46.22991" lon="6.57324">
        <ele>1795.416</ele>
        <time>2024-12-27T12:03:45Z</time>
      </trkpt>
      <trkpt lat="46.22991" lon="6.57324">
        <ele>1795.424</ele>
        <time>2024-12-27T12:03:50Z</time>
      </trkpt>
      <trkpt lat="46.22991" lon="6.57324">
        <ele>1795.424</ele>
        <time>2024-12-27T12:03:55Z</time>
      </trkpt>
      <trkpt lat="46.22991" lon="6.57324">
        <ele>1796.146</ele>
        <time>2024-12-27T12:04:00Z</time>
      </trkpt>
      <trkpt lat="46.22991" lon="6.57324">
        <ele>1796.583</ele>
        <time>2024-12-27T12:04:05Z</time>
      </trkpt>
      <trkpt lat="46.22991" lon="6.57324">
        <ele>1795.296</ele>
        <time>2024-12-27T12:04:10Z</time>
      </trkpt>
      <trkpt lat="46.22991" lon="6.57324">
        <ele>1795.295</ele>
        <time>2024-12-27T12:04:15Z</time>
      </trkpt>
      <trkpt lat="46.22991" lon="6.57324">
        <ele>1795.779</ele>
        <time>2024-12-27T12:04:20Z</time>
      </trkpt>
      <trkpt lat="46.22991" lon="6.57324">
        <ele>1795.776</ele>
        <time>2024-12-27T12:04:25Z</time>
      </trkpt>
      <trkpt lat="46.22991" lon="6.57324">
        <ele>1795.784</ele>
        <time>2024-12-27T12:04:30Z</time>
      </trkpt>
      <trkpt lat="46.22991" lon="6.57324">
        <ele>1795.789</ele>
        <time>2024-12-27T12:04:35Z</time>
      </trkpt>
      <trkpt lat="46.22991" lon="6.57324">
        <ele>1795.833</ele>
        <time>2024-12-27T12:04:40Z</time>
      </trkpt>
      <trkpt lat="46.22991" lon="6.57324">
        <ele>1796.088</ele>
        <time>2024-12-27T12:04:45Z</time>
      </trkpt>
      <trkpt lat="46.22991" lon="6.57324">
        <ele>1795.704</ele>
        <time>2024-12-27T12:04:50Z</time>
      </trkpt>
      <trkpt lat="46.22991" lon="6.57324">
        <ele>1795.701</ele>
        <time>2024-12-27T12:04:55Z</time>
      </trkpt>
      <trkpt lat="46.22991" lon="6.57324">
        <ele>1795.701</ele>
        <time>2024-12-27T12:05:00Z</time>
      </trkpt>
      <trkpt lat="46.22991" lon="6.57324">
        <ele>1795.635</ele>
        <time>2024-12-27T12:05:05Z</time>
      </trkpt>
      <trkpt lat="46.22991" lon="6.57324">
        <ele>1795.633</ele>
        <time>2024-12-27T12:05:10Z</time>
      </trkpt>
      <trkpt lat="46.22991" lon="6.57324">
        <ele>1795.632</ele>
        <time>2024-12-27T12:05:15Z</time>
      </trkpt>
      <trkpt lat="46.22991" lon="6.57324">
        <ele>1795.228</ele>
        <time>2024-12-27T12:05:20Z</time>
      </trkpt>
      <trkpt lat="46.22991" lon="6.57324">
        <ele>1795.226</ele>
        <time>2024-12-27T12:05:25Z</time>
      </trkpt>
      <trkpt lat="46.22991" lon="6.57324">
        <ele>1795.271</ele>
        <time>2024-12-27T12:05:30Z</time>
      </trkpt>
      <trkpt lat="46.22991" lon="6.57324">
        <ele>1795.274</ele>
        <time>2024-12-27T12:05:35Z</time>
      </trkpt>
      <trkpt lat="46.22991" lon="6.57324">
        <ele>1795.275</ele>
        <time>2024-12-27T12:05:40Z</time>
      </trkpt>
      <trkpt lat="46.22991" lon="6.57324">
        <ele>1795.271</ele>
        <time>2024-12-27T12:05:45Z</time>
      </trkpt>
      <trkpt lat="46.22991" lon="6.57324">
        <ele>1795.278</ele>
        <time>2024-12-27T12:05:50Z</time>
      </trkpt>
      <trkpt lat="46.22991" lon="6.57324">
        <ele>1795.281</ele>
        <time>2024-12-27T12:05:55Z</time>
      </trkpt>
      <trkpt lat="46.22991" lon="6.57324">
        <ele>1795.284</ele>
        <time>2024-12-27T12:06:00Z</time>
      </trkpt>
      <trkpt lat="46.22991" lon="6.57324">
        <ele>1795.285</ele>
        <time>2024-12-27T12:06:05Z</time>
      </trkpt>
      <trkpt lat="46.22991" lon="6.57324">
        <ele>1795.291</ele>
        <time>2024-12-27T12:06:10Z</time>
      </trkpt>
      <trkpt lat="46.22991" lon="6.57324">
        <ele>1795.301</ele>
        <time>2024-12-27T12:06:15Z</time>
      </trkpt>
      <trkpt lat="46.22991" lon="6.57324">
        <ele>1795.304</ele>
        <time>2024-12-27T12:06:20Z</time>
      </trkpt>
      <trkpt lat="46.22991" lon="6.57324">
        <ele>1795.252</ele>
        <time>2024-12-27T12:06:25Z</time>
      </trkpt>
      <trkpt lat="46.22991" lon="6.57324">
        <ele>1795.21</ele>
        <time>2024-12-27T12:06:30Z</time>
      </trkpt>
      <trkpt lat="46.22991" lon="6.57324">
        <ele>1795.203</ele>
        <time>2024-12-27T12:06:35Z</time>
      </trkpt>
      <trkpt lat="46.22991" lon="6.57324">
        <ele>1795.206</ele>
        <time>2024-12-27T12:06:40Z</time>
      </trkpt>
      <trkpt lat="46.22991" lon="6.57324">
        <ele>1795.207</ele>
        <time>2024-12-27T12:06:45Z</time>
      </trkpt>
      <trkpt lat="46.22991" lon="6.57324">
        <ele>1795.208</ele>
        <time>2024-12-27T12:06:50Z</time>
      </trkpt>
      <trkpt lat="46.22991" lon="6.57324">
        <ele>1795.199</ele>
        <time>2024-12-27T12:06:55Z</time>
      </trkpt>
      <trkpt lat="46.22991" lon="6.57324">
        <ele>1795.196</ele>
        <time>2024-12-27T12:07:00Z</time>
      </trkpt>
      <trkpt lat="46.22991" lon="6.57324">
        <ele>1795.184</ele>
        <time>2024-12-27T12:07:05Z</time>
      </trkpt>
      <trkpt lat="46.22991" lon="6.57324">
        <ele>1795.181</ele>
        <time>2024-12-27T12:07:10Z</time>
      </trkpt>
      <trkpt lat="46.22991" lon="6.57324">
        <ele>1795.176</ele>
        <time>2024-12-27T12:07:15Z</time>
      </trkpt>
      <trkpt lat="46.22991" lon="6.57324">
        <ele>1795.187</ele>
        <time>2024-12-27T12:07:20Z</time>
      </trkpt>
      <trkpt lat="46.22991" lon="6.57324">
        <ele>1795.185</ele>
        <time>2024-12-27T12:07:25Z</time>
      </trkpt>
      <trkpt lat="46.22991" lon="6.57324">
        <ele>1795.195</ele>
        <time>2024-12-27T12:07:30Z</time>
      </trkpt>
      <trkpt lat="46.22991" lon="6.57324">
        <ele>1795.194</ele>
        <time>2024-12-27T12:07:35Z</time>
      </trkpt>
      <trkpt lat="46.22991" lon="6.57324">
        <ele>1795.202</ele>
        <time>2024-12-27T12:07:40Z</time>
      </trkpt>
      <trkpt lat="46.22991" lon="6.57324">
        <ele>1795.204</ele>
        <time>2024-12-27T12:07:45Z</time>
      </trkpt>
      <trkpt lat="46.22991" lon="6.57324">
        <ele>1795.213</ele>
        <time>2024-12-27T12:07:50Z</time>
      </trkpt>
      <trkpt lat="46.22991" lon="6.57324">
        <ele>1795.222</ele>
        <time>2024-12-27T12:07:55Z</time>
      </trkpt>
      <trkpt lat="46.22991" lon="6.57324">
        <ele>1795.23</ele>
        <time>2024-12-27T12:08:00Z</time>
      </trkpt>
      <trkpt lat="46.22991" lon="6.57324">
        <ele>1795.246</ele>
        <time>2024-12-27T12:08:05Z</time>
      </trkpt>
      <trkpt lat="46.22991" lon="6.57324">
        <ele>1795.255</ele>
        <time>2024-12-27T12:08:10Z</time>
      </trkpt>
      <trkpt lat="46.22991" lon="6.57324">
        <ele>1795.467</ele>
        <time>2024-12-27T12:08:15Z</time>
      </trkpt>
      <trkpt lat="46.22991" lon="6.57324">
        <ele>1795.474</ele>
        <time>2024-12-27T12:08:20Z</time>
      </trkpt>
      <trkpt lat="46.22991" lon="6.57324">
        <ele>1795.48</ele>
        <time>2024-12-27T12:08:25Z</time>
      </trkpt>
      <trkpt lat="46.22991" lon="6.57324">
        <ele>1795.477</ele>
        <time>2024-12-27T12:08:30Z</time>
      </trkpt>
      <trkpt lat="46.22991" lon="6.57324">
        <ele>1795.491</ele>
        <time>2024-12-27T12:08:35Z</time>
      </trkpt>
      <trkpt lat="46.22991" lon="6.57324">
        <ele>1795.496</ele>
        <time>2024-12-27T12:08:40Z</time>
      </trkpt>
      <trkpt lat="46.22991" lon="6.57324">
        <ele>1795.513</ele>
        <time>2024-12-27T12:08:45Z</time>
      </trkpt>
      <trkpt lat="46.22991" lon="6.57324">
        <ele>1795.534</ele>
        <time>2024-12-27T12:08:50Z</time>
      </trkpt>
      <trkpt lat="46.22991" lon="6.57324">
        <ele>1795.553</ele>
        <time>2024-12-27T12:08:55Z</time>
      </trkpt>
      <trkpt lat="46.22991" lon="6.57324">
        <ele>1795.552</ele>
        <time>2024-12-27T12:09:00Z</time>
      </trkpt>
      <trkpt lat="46.22991" lon="6.57324">
        <ele>1795.554</ele>
        <time>2024-12-27T12:09:05Z</time>
      </trkpt>
      <trkpt lat="46.22991" lon="6.57324">
        <ele>1795.82</ele>
        <time>2024-12-27T12:09:10Z</time>
      </trkpt>
      <trkpt lat="46.22991" lon="6.57324">
        <ele>1795.819</ele>
        <time>2024-12-27T12:09:15Z</time>
      </trkpt>
      <trkpt lat="46.22991" lon="6.57324">
        <ele>1795.826</ele>
        <time>2024-12-27T12:09:20Z</time>
      </trkpt>
      <trkpt lat="46.22991" lon="6.57324">
        <ele>1795.825</ele>
        <time>2024-12-27T12:09:25Z</time>
      </trkpt>
      <trkpt lat="46.22991" lon="6.57324">
        <ele>1795.823</ele>
        <time>2024-12-27T12:09:30Z</time>
      </trkpt>
      <trkpt lat="46.22991" lon="6.57324">
        <ele>1795.826</ele>
        <time>2024-12-27T12:09:35Z</time>
      </trkpt>
      <trkpt lat="46.22991" lon="6.57324">
        <ele>1795.833</ele>
        <time>2024-12-27T12:09:40Z</time>
      </trkpt>
      <trkpt lat="46.22991" lon="6.57324">
        <ele>1795.845</ele>
        <time>2024-12-27T12:09:45Z</time>
      </trkpt>
      <trkpt lat="46.22991" lon="6.57324">
        <ele>1795.553</ele>
        <time>2024-12-27T12:09:50Z</time>
      </trkpt>
      <trkpt lat="46.22991" lon="6.57324">
        <ele>1795.515</ele>
        <time>2024-12-27T12:09:55Z</time>
      </trkpt>
      <trkpt lat="46.22991" lon="6.57324">
        <ele>1795.496</ele>
        <time>2024-12-27T12:10:00Z</time>
      </trkpt>
      <trkpt lat="46.22991" lon="6.57324">
        <ele>1794.976</ele>
        <time>2024-12-27T12:10:05Z</time>
      </trkpt>
      <trkpt lat="46.22991" lon="6.57324">
        <ele>1794.964</ele>
        <time>2024-12-27T12:10:10Z</time>
      </trkpt>
      <trkpt lat="46.22991" lon="6.57324">
        <ele>1794.96</ele>
        <time>2024-12-27T12:10:15Z</time>
      </trkpt>
      <trkpt lat="46.22991" lon="6.57324">
        <ele>1794.955</ele>
        <time>2024-12-27T12:10:20Z</time>
      </trkpt>
      <trkpt lat="46.22991" lon="6.57324">
        <ele>1794.953</ele>
        <time>2024-12-27T12:10:25Z</time>
      </trkpt>
      <trkpt lat="46.22991" lon="6.57324">
        <ele>1794.95</ele>
        <time>2024-12-27T12:10:30Z</time>
      </trkpt>
      <trkpt lat="46.22991" lon="6.57324">
        <ele>1794.949</ele>
        <time>2024-12-27T12:10:35Z</time>
      </trkpt>
      <trkpt lat="46.22991" lon="6.57324">
        <ele>1794.946</ele>
        <time>2024-12-27T12:10:40Z</time>
      </trkpt>
      <trkpt lat="46.22991" lon="6.57324">
        <ele>1794.945</ele>
        <time>2024-12-27T12:10:45Z</time>
      </trkpt>
      <trkpt lat="46.22991" lon="6.57324">
        <ele>1794.946</ele>
        <time>2024-12-27T12:10:50Z</time>
      </trkpt>
      <trkpt lat="46.22991" lon="6.57324">
        <ele>1794.945</ele>
        <time>2024-12-27T12:10:55Z</time>
      </trkpt>
      <trkpt lat="46.22991" lon="6.57324">
        <ele>1794.942</ele>
        <time>2024-12-27T12:11:00Z</time>
      </trkpt>
      <trkpt lat="46.22991" lon="6.57324">
        <ele>1794.941</ele>
        <time>2024-12-27T12:11:05Z</time>
      </trkpt>
      <trkpt lat="46.22991" lon="6.57324">
        <ele>1794.941</ele>
        <time>2024-12-27T12:11:10Z</time>
      </trkpt>
      <trkpt lat="46.22991" lon="6.57324">
        <ele>1794.941</ele>
        <time>2024-12-27T12:11:15Z</time>
      </trkpt>
      <trkpt lat="46.22991" lon="6.57324">
        <ele>1794.938</ele>
        <time>2024-12-27T12:11:20Z</time>
      </trkpt>
      <trkpt lat="46.22991" lon="6.57324">
        <ele>1794.934</ele>
        <time>2024-12-27T12:11:25Z</time>
      </trkpt>
      <trkpt lat="46.22991" lon="6.57324">
        <ele>1794.93</ele>
        <time>2024-12-27T12:11:30Z</time>
      </trkpt>
      <trkpt lat="46.22991" lon="6.57324">
        <ele>1794.928</ele>
        <time>2024-12-27T12:11:35Z</time>
      </trkpt>
      <trkpt lat="46.22991" lon="6.57324">
        <ele>1794.924</ele>
        <time>2024-12-27T12:11:40Z</time>
      </trkpt>
      <trkpt lat="46.22991" lon="6.57324">
        <ele>1794.923</ele>
        <time>2024-12-27T12:11:45Z</time>
      </trkpt>
      <trkpt lat="46.22991" lon="6.57324">
        <ele>1794.921</ele>
        <time>2024-12-27T12:11:50Z</time>
      </trkpt>
      <trkpt lat="46.22991" lon="6.57324">
        <ele>1794.922</ele>
        <time>2024-12-27T12:11:55Z</time>
      </trkpt>
      <trkpt lat="46.22991" lon="6.57324">
        <ele>1794.92</ele>
        <time>2024-12-27T12:12:00Z</time>
      </trkpt>
      <trkpt lat="46.22991" lon="6.57324">
        <ele>1794.918</ele>
        <time>2024-12-27T12:12:05Z</time>
      </trkpt>
      <trkpt lat="46.22991" lon="6.57324">
        <ele>1794.917</ele>
        <time>2024-12-27T12:12:10Z</time>
      </trkpt>
      <trkpt lat="46.22991" lon="6.57324">
        <ele>1794.917</ele>
        <time>2024-12-27T12:12:15Z</time>
      </trkpt>
      <trkpt lat="46.22991" lon="6.57324">
        <ele>1794.915</ele>
        <time>2024-12-27T12:12:20Z</time>
      </trkpt>
      <trkpt lat="46.22991" lon="6.57324">
        <ele>1794.914</ele>
        <time>2024-12-27T12:12:25Z</time>
      </trkpt>
      <trkpt lat="46.22991" lon="6.57324">
        <ele>1794.915</ele>
        <time>2024-12-27T12:12:30Z</time>
      </trkpt>
      <trkpt lat="46.22991" lon="6.57324">
        <ele>1794.916</ele>
        <time>2024-12-27T12:12:35Z</time>
      </trkpt>
      <trkpt lat="46.22991" lon="6.57324">
        <ele>1794.92</ele>
        <time>2024-12-27T12:12:40Z</time>
      </trkpt>
      <trkpt lat="46.22991" lon="6.57324">
        <ele>1794.922</ele>
        <time>2024-12-27T12:12:45Z</time>
      </trkpt>
      <trkpt lat="46.22991" lon="6.57324">
        <ele>1794.922</ele>
        <time>2024-12-27T12:12:50Z</time>
      </trkpt>
      <trkpt lat="46.22991" lon="6.57324">
        <ele>1794.922</ele>
        <time>2024-12-27T12:12:55Z</time>
      </trkpt>
      <trkpt lat="46.22991" lon="6.57324">
        <ele>1794.92</ele>
        <time>2024-12-27T12:13:00Z</time>
      </trkpt>
      <trkpt lat="46.22991" lon="6.57324">
        <ele>1794.919</ele>
        <time>2024-12-27T12:13:05Z</time>
      </trkpt>
      <trkpt lat="46.22991" lon="6.57324">
        <ele>1794.914</ele>
        <time>2024-12-27T12:13:10Z</time>
      </trkpt>
      <trkpt lat="46.22991" lon="6.57324">
        <ele>1794.911</ele>
        <time>2024-12-27T12:13:15Z</time>
      </trkpt>
      <trkpt lat="46.22991" lon="6.57324">
        <ele>1794.909</ele>
        <time>2024-12-27T12:13:20Z</time>
      </trkpt>
      <trkpt lat="46.22991" lon="6.57324">
        <ele>1794.909</ele>
        <time>2024-12-27T12:13:25Z</time>
      </trkpt>
      <trkpt lat="46.22991" lon="6.57324">
        <ele>1794.909</ele>
        <time>2024-12-27T12:13:30Z</time>
      </trkpt>
      <trkpt lat="46.22991" lon="6.57324">
        <ele>1794.908</ele>
        <time>2024-12-27T12:13:35Z</time>
      </trkpt>
      <trkpt lat="46.22991" lon="6.57324">
        <ele>1794.908</ele>
        <time>2024-12-27T12:13:40Z</time>
      </trkpt>
      <trkpt lat="46.22991" lon="6.57324">
        <ele>1794.908</ele>
        <time>2024-12-27T12:13:45Z</time>
      </trkpt>
      <trkpt lat="46.22991" lon="6.57324">
        <ele>1794.908</ele>
        <time>2024-12-27T12:13:50Z</time>
      </trkpt>
      <trkpt lat="46.22991" lon="6.57324">
        <ele>1794.907</ele>
        <time>2024-12-27T12:13:55Z</time>
      </trkpt>
      <trkpt lat="46.22991" lon="6.57324">
        <ele>1794.906</ele>
        <time>2024-12-27T12:14:00Z</time>
      </trkpt>
      <trkpt lat="46.22991" lon="6.57324">
        <ele>1794.905</ele>
        <time>2024-12-27T12:14:05Z</time>
      </trkpt>
      <trkpt lat="46.22991" lon="6.57324">
        <ele>1794.903</ele>
        <time>2024-12-27T12:14:10Z</time>
      </trkpt>
      <trkpt lat="46.22991" lon="6.57324">
        <ele>1794.902</ele>
        <time>2024-12-27T12:14:15Z</time>
      </trkpt>
      <trkpt lat="46.22991" lon="6.57324">
        <ele>1794.899</ele>
        <time>2024-12-27T12:14:20Z</time>
      </trkpt>
      <trkpt lat="46.22991" lon="6.57324">
        <ele>1794.899</ele>
        <time>2024-12-27T12:14:25Z</time>
      </trkpt>
      <trkpt lat="46.22991" lon="6.57324">
        <ele>1794.899</ele>
        <time>2024-12-27T12:14:30Z</time>
      </trkpt>
      <trkpt lat="46.22991" lon="6.57324">
        <ele>1794.9</ele>
        <time>2024-12-27T12:14:35Z</time>
      </trkpt>
      <trkpt lat="46.22991" lon="6.57324">
        <ele>1794.901</ele>
        <time>2024-12-27T12:14:40Z</time>
      </trkpt>
      <trkpt lat="46.22991" lon="6.57324">
        <ele>1794.9</ele>
        <time>2024-12-27T12:14:45Z</time>
      </trkpt>
      <trkpt lat="46.22991" lon="6.57324">
        <ele>1794.899</ele>
        <time>2024-12-27T12:14:50Z</time>
      </trkpt>
      <trkpt lat="46.22991" lon="6.57324">
        <ele>1794.9</ele>
        <time>2024-12-27T12:14:55Z</time>
      </trkpt>
      <trkpt lat="46.22991" lon="6.57324">
        <ele>1794.899</ele>
        <time>2024-12-27T12:15:00Z</time>
      </trkpt>
      <trkpt lat="46.22991" lon="6.57324">
        <ele>1794.9</ele>
        <time>2024-12-27T12:15:05Z</time>
      </trkpt>
      <trkpt lat="46.22991" lon="6.57324">
        <ele>1794.898</ele>
        <time>2024-12-27T12:15:10Z</time>
      </trkpt>
      <trkpt lat="46.22991" lon="6.57324">
        <ele>1794.895</ele>
        <time>2024-12-27T12:15:15Z</time>
      </trkpt>
      <trkpt lat="46.22991" lon="6.57324">
        <ele>1794.895</ele>
        <time>2024-12-27T12:15:20Z</time>
      </trkpt>
      <trkpt lat="46.22991" lon="6.57324">
        <ele>1794.896</ele>
        <time>2024-12-27T12:15:25Z</time>
      </trkpt>
      <trkpt lat="46.22991" lon="6.57324">
        <ele>1794.894</ele>
        <time>2024-12-27T12:15:30Z</time>
      </trkpt>
      <trkpt lat="46.22991" lon="6.57324">
        <ele>1794.893</ele>
        <time>2024-12-27T12:15:35Z</time>
      </trkpt>
      <trkpt lat="46.22991" lon="6.57324">
        <ele>1794.892</ele>
        <time>2024-12-27T12:15:40Z</time>
      </trkpt>
      <trkpt lat="46.22991" lon="6.57324">
        <ele>1794.892</ele>
        <time>2024-12-27T12:15:45Z</time>
      </trkpt>
      <trkpt lat="46.22991" lon="6.57324">
        <ele>1794.891</ele>
        <time>2024-12-27T12:15:50Z</time>
      </trkpt>
      <trkpt lat="46.22991" lon="6.57324">
        <ele>1794.891</ele>
        <time>2024-12-27T12:15:55Z</time>
      </trkpt>
      <trkpt lat="46.22991" lon="6.57324">
        <ele>1794.889</ele>
        <time>2024-12-27T12:16:00Z</time>
      </trkpt>
      <trkpt lat="46.22991" lon="6.57324">
        <ele>1794.889</ele>
        <time>2024-12-27T12:16:05Z</time>
      </trkpt>
      <trkpt lat="46.22991" lon="6.57324">
        <ele>1794.889</ele>
        <time>2024-12-27T12:16:10Z</time>
      </trkpt>
      <trkpt lat="46.22991" lon="6.57324">
        <ele>1794.889</ele>
        <time>2024-12-27T12:16:15Z</time>
      </trkpt>
      <trkpt lat="46.22991" lon="6.57324">
        <ele>1794.889</ele>
        <time>2024-12-27T12:16:20Z</time>
      </trkpt>
      <trkpt lat="46.22991" lon="6.57324">
        <ele>1794.889</ele>
        <time>2024-12-27T12:16:25Z</time>
      </trkpt>
      <trkpt lat="46.22991" lon="6.57324">
        <ele>1794.889</ele>
        <time>2024-12-27T12:16:30Z</time>
      </trkpt>
      <trkpt lat="46.22991" lon="6.57324">
        <ele>1794.893</ele>
        <time>2024-12-27T12:16:35Z</time>
      </trkpt>
      <trkpt lat="46.22991" lon="6.57324">
        <ele>1794.897</ele>
        <time>2024-12-27T12:16:40Z</time>
      </trkpt>
      <trkpt lat="46.22991" lon="6.57324">
        <ele>1794.896</ele>
        <time>2024-12-27T12:16:45Z</time>
      </trkpt>
      <trkpt lat="46.22991" lon="6.57324">
        <ele>1794.896</ele>
        <time>2024-12-27T12:16:50Z</time>
      </trkpt>
      <trkpt lat="46.22991" lon="6.57324">
        <ele>1794.898</ele>
        <time>2024-12-27T12:16:55Z</time>
      </trkpt>
      <trkpt lat="46.22991" lon="6.57324">
        <ele>1794.898</ele>
        <time>2024-12-27T12:17:00Z</time>
      </trkpt>
      <trkpt lat="46.22991" lon="6.57324">
        <ele>1794.898</ele>
        <time>2024-12-27T12:17:05Z</time>
      </trkpt>
      <trkpt lat="46.22991" lon="6.57324">
        <ele>1794.899</ele>
        <time>2024-12-27T12:17:10Z</time>
      </trkpt>
      <trkpt lat="46.22991" lon="6.57324">
        <ele>1794.9</ele>
        <time>2024-12-27T12:17:15Z</time>
      </trkpt>
      <trkpt lat="46.22991" lon="6.57324">
        <ele>1794.899</ele>
        <time>2024-12-27T12:17:20Z</time>
      </trkpt>
      <trkpt lat="46.22991" lon="6.57324">
        <ele>1794.898</ele>
        <time>2024-12-27T12:17:25Z</time>
      </trkpt>
      <trkpt lat="46.22991" lon="6.57324">
        <ele>1794.899</ele>
        <time>2024-12-27T12:17:30Z</time>
      </trkpt>
      <trkpt lat="46.22991" lon="6.57324">
        <ele>1794.899</ele>
        <time>2024-12-27T12:17:35Z</time>
      </trkpt>
      <trkpt lat="46.22991" lon="6.57324">
        <ele>1794.898</ele>
        <time>2024-12-27T12:17:40Z</time>
      </trkpt>
      <trkpt lat="46.22991" lon="6.57324">
        <ele>1794.898</ele>
        <time>2024-12-27T12:17:45Z</time>
      </trkpt>
      <trkpt lat="46.22991" lon="6.57324">
        <ele>1794.898</ele>
        <time>2024-12-27T12:17:50Z</time>
      </trkpt>
      <trkpt lat="46.22991" lon="6.57324">
        <ele>1794.898</ele>
        <time>2024-12-27T12:17:55Z</time>
      </trkpt>
      <trkpt lat="46.22991" lon="6.57324">
        <ele>1794.899</ele>
        <time>2024-12-27T12:18:00Z</time>
      </trkpt>
      <trkpt lat="46.22991" lon="6.57324">
        <ele>1794.902</ele>
        <time>2024-12-27T12:18:05Z</time>
      </trkpt>
      <trkpt lat="46.22991" lon="6.57324">
        <ele>1794.903</ele>
        <time>2024-12-27T12:18:10Z</time>
      </trkpt>
      <trkpt lat="46.22991" lon="6.57324">
        <ele>1794.904</ele>
        <time>2024-12-27T12:18:15Z</time>
      </trkpt>
      <trkpt lat="46.22991" lon="6.57324">
        <ele>1794.906</ele>
        <time>2024-12-27T12:18:20Z</time>
      </trkpt>
      <trkpt lat="46.22991" lon="6.57324">
        <ele>1794.906</ele>
        <time>2024-12-27T12:18:25Z</time>
      </trkpt>
      <trkpt lat="46.22991" lon="6.57324">
        <ele>1794.907</ele>
        <time>2024-12-27T12:18:30Z</time>
      </trkpt>
      <trkpt lat="46.22991" lon="6.57324">
        <ele>1794.906</ele>
        <time>2024-12-27T12:18:35Z</time>
      </trkpt>
      <trkpt lat="46.22991" lon="6.57324">
        <ele>1794.906</ele>
        <time>2024-12-27T12:18:40Z</time>
      </trkpt>
      <trkpt lat="46.22991" lon="6.57324">
        <ele>1794.907</ele>
        <time>2024-12-27T12:18:45Z</time>
      </trkpt>
      <trkpt lat="46.22991" lon="6.57324">
        <ele>1794.908</ele>
        <time>2024-12-27T12:18:50Z</time>
      </trkpt>
      <trkpt lat="46.22991" lon="6.57324">
        <ele>1794.908</ele>
        <time>2024-12-27T12:18:55Z</time>
      </trkpt>
      <trkpt lat="46.22991" lon="6.57324">
        <ele>1794.908</ele>
        <time>2024-12-27T12:19:00Z</time>
      </trkpt>
      <trkpt lat="46.22991" lon="6.57324">
        <ele>1794.909</ele>
        <time>2024-12-27T12:19:05Z</time>
      </trkpt>
      <trkpt lat="46.22991" lon="6.57324">
        <ele>1794.91</ele>
        <time>2024-12-27T12:19:10Z</time>
      </trkpt>
      <trkpt lat="46.22991" lon="6.57324">
        <ele>1794.91</ele>
        <time>2024-12-27T12:19:15Z</time>
      </trkpt>
      <trkpt lat="46.22991" lon="6.57324">
        <ele>1794.91</ele>
        <time>2024-12-27T12:19:20Z</time>
      </trkpt>
      <trkpt lat="46.22991" lon="6.57324">
        <ele>1794.909</ele>
        <time>2024-12-27T12:19:25Z</time>
      </trkpt>
      <trkpt lat="46.22991" lon="6.57324">
        <ele>1794.907</ele>
        <time>2024-12-27T12:19:30Z</time>
      </trkpt>
      <trkpt lat="46.22991" lon="6.57324">
        <ele>1794.906</ele>
        <time>2024-12-27T12:19:35Z</time>
      </trkpt>
      <trkpt lat="46.22991" lon="6.57324">
        <ele>1794.908</ele>
        <time>2024-12-27T12:19:40Z</time>
      </trkpt>
      <trkpt lat="46.22991" lon="6.57324">
        <ele>1794.908</ele>
        <time>2024-12-27T12:19:45Z</time>
      </trkpt>
      <trkpt lat="46.22991" lon="6.57324">
        <ele>1794.909</ele>
        <time>2024-12-27T12:19:50Z</time>
      </trkpt>
      <trkpt lat="46.22991" lon="6.57324">
        <ele>1794.909</ele>
        <time>2024-12-27T12:19:55Z</time>
      </trkpt>
      <trkpt lat="46.22991" lon="6.57324">
        <ele>1794.909</ele>
        <time>2024-12-27T12:20:00Z</time>
      </trkpt>
      <trkpt lat="46.22991" lon="6.57324">
        <ele>1794.91</ele>
        <time>2024-12-27T12:20:05Z</time>
      </trkpt>
      <trkpt lat="46.22991" lon="6.57324">
        <ele>1794.91</ele>
        <time>2024-12-27T12:20:10Z</time>
      </trkpt>
      <trkpt lat="46.22991" lon="6.57324">
        <ele>1794.911</ele>
        <time>2024-12-27T12:20:15Z</time>
      </trkpt>
      <trkpt lat="46.22991" lon="6.57324">
        <ele>1794.912</ele>
        <time>2024-12-27T12:20:20Z</time>
      </trkpt>
      <trkpt lat="46.22991" lon="6.57324">
        <ele>1794.913</ele>
        <time>2024-12-27T12:20:25Z</time>
      </trkpt>
      <trkpt lat="46.22991" lon="6.57324">
        <ele>1794.913</ele>
        <time>2024-12-27T12:20:30Z</time>
      </trkpt>
      <trkpt lat="46.22991" lon="6.57324">
        <ele>1794.913</ele>
        <time>2024-12-27T12:20:35Z</time>
      </trkpt>
      <trkpt lat="46.22991" lon="6.57324">
        <ele>1794.913</ele>
        <time>2024-12-27T12:20:40Z</time>
      </trkpt>
      <trkpt lat="46.22991" lon="6.57324">
        <ele>1794.912</ele>
        <time>2024-12-27T12:20:45Z</time>
      </trkpt>
      <trkpt lat="46.22991" lon="6.57324">
        <ele>1794.912</ele>
        <time>2024-12-27T12:20:50Z</time>
      </trkpt>
      <trkpt lat="46.22991" lon="6.57324">
        <ele>1794.914</ele>
        <time>2024-12-27T12:20:55Z</time>
      </trkpt>
      <trkpt lat="46.22991" lon="6.57324">
        <ele>1794.913</ele>
        <time>2024-12-27T12:21:00Z</time>
      </trkpt>
      <trkpt lat="46.22991" lon="6.57324">
        <ele>1794.913</ele>
        <time>2024-12-27T12:21:05Z</time>
      </trkpt>
      <trkpt lat="46.22991" lon="6.57324">
        <ele>1794.912</ele>
        <time>2024-12-27T12:21:10Z</time>
      </trkpt>
      <trkpt lat="46.22991" lon="6.57324">
        <ele>1794.913</ele>
        <time>2024-12-27T12:21:15Z</time>
      </trkpt>
      <trkpt lat="46.22991" lon="6.57324">
        <ele>1794.912</ele>
        <time>2024-12-27T12:21:20Z</time>
      </trkpt>
      <trkpt lat="46.22991" lon="6.57324">
        <ele>1794.913</ele>
        <time>2024-12-27T12:21:25Z</time>
      </trkpt>
      <trkpt lat="46.22991" lon="6.57324">
        <ele>1794.913</ele>
        <time>2024-12-27T12:21:30Z</time>
      </trkpt>
      <trkpt lat="46.22991" lon="6.57324">
        <ele>1794.913</ele>
        <time>2024-12-27T12:21:35Z</time>
      </trkpt>
      <trkpt lat="46.22991" lon="6.57324">
        <ele>1794.913</ele>
        <time>2024-12-27T12:21:40Z</time>
      </trkpt>
      <trkpt lat="46.22991" lon="6.57324">
        <ele>1794.913</ele>
        <time>2024-12-27T12:21:45Z</time>
      </trkpt>
      <trkpt lat="46.22991" lon="6.57324">
        <ele>1794.912</ele>
        <time>2024-12-27T12:21:50Z</time>
      </trkpt>
      <trkpt lat="46.22991" lon="6.57324">
        <ele>1794.912</ele>
        <time>2024-12-27T12:21:55Z</time>
      </trkpt>
      <trkpt lat="46.22991" lon="6.57324">
        <ele>1794.911</ele>
        <time>2024-12-27T12:22:00Z</time>
      </trkpt>
      <trkpt lat="46.22991" lon="6.57324">
        <ele>1794.911</ele>
        <time>2024-12-27T12:22:05Z</time>
      </trkpt>
      <trkpt lat="46.22991" lon="6.57324">
        <ele>1794.91</ele>
        <time>2024-12-27T12:22:10Z</time>
      </trkpt>
      <trkpt lat="46.22991" lon="6.57324">
        <ele>1794.911</ele>
        <time>2024-12-27T12:22:15Z</time>
      </trkpt>
      <trkpt lat="46.22991" lon="6.57324">
        <ele>1794.91</ele>
        <time>2024-12-27T12:22:20Z</time>
      </trkpt>
      <trkpt lat="46.22991" lon="6.57324">
        <ele>1794.911</ele>
        <time>2024-12-27T12:22:25Z</time>
      </trkpt>
      <trkpt lat="46.22991" lon="6.57324">
        <ele>1794.911</ele>
        <time>2024-12-27T12:22:30Z</time>
      </trkpt>
      <trkpt lat="46.22991" lon="6.57324">
        <ele>1794.911</ele>
        <time>2024-12-27T12:22:35Z</time>
      </trkpt>
      <trkpt lat="46.22991" lon="6.57324">
        <ele>1794.912</ele>
        <time>2024-12-27T12:22:40Z</time>
      </trkpt>
      <trkpt lat="46.22991" lon="6.57324">
        <ele>1794.916</ele>
        <time>2024-12-27T12:22:45Z</time>
      </trkpt>
      <trkpt lat="46.22991" lon="6.57324">
        <ele>1794.919</ele>
        <time>2024-12-27T12:22:50Z</time>
      </trkpt>
      <trkpt lat="46.22991" lon="6.57324">
        <ele>1794.915</ele>
        <time>2024-12-27T12:22:55Z</time>
      </trkpt>
      <trkpt lat="46.22991" lon="6.57324">
        <ele>1794.917</ele>
        <time>2024-12-27T12:23:00Z</time>
      </trkpt>
      <trkpt lat="46.22991" lon="6.57324">
        <ele>1794.913</ele>
        <time>2024-12-27T12:23:05Z</time>
      </trkpt>
      <trkpt lat="46.22991" lon="6.57324">
        <ele>1794.911</ele>
        <time>2024-12-27T12:23:10Z</time>
      </trkpt>
      <trkpt lat="46.22991" lon="6.57324">
        <ele>1794.911</ele>
        <time>2024-12-27T12:23:15Z</time>
      </trkpt>
      <trkpt lat="46.22991" lon="6.57324">
        <ele>1794.911</ele>
        <time>2024-12-27T12:23:20Z</time>
      </trkpt>
      <trkpt lat="46.22991" lon="6.57324">
        <ele>1794.915</ele>
        <time>2024-12-27T12:23:25Z</time>
      </trkpt>
      <trkpt lat="46.22991" lon="6.57324">
        <ele>1794.914</ele>
        <time>2024-12-27T12:23:30Z</time>
      </trkpt>
      <trkpt lat="46.22991" lon="6.57324">
        <ele>1794.914</ele>
        <time>2024-12-27T12:23:35Z</time>
      </trkpt>
      <trkpt lat="46.22991" lon="6.57324">
        <ele>1794.915</ele>
        <time>2024-12-27T12:23:40Z</time>
      </trkpt>
      <trkpt lat="46.22991" lon="6.57324">
        <ele>1794.913</ele>
        <time>2024-12-27T12:23:45Z</time>
      </trkpt>
      <trkpt lat="46.22991" lon="6.57324">
        <ele>1794.912</ele>
        <time>2024-12-27T12:23:50Z</time>
      </trkpt>
      <trkpt lat="46.22991" lon="6.57324">
        <ele>1794.912</ele>
        <time>2024-12-27T12:23:55Z</time>
      </trkpt>
      <trkpt lat="46.22991" lon="6.57324">
        <ele>1794.909</ele>
        <time>2024-12-27T12:24:00Z</time>
      </trkpt>
      <trkpt lat="46.22991" lon="6.57324">
        <ele>1794.907</ele>
        <time>2024-12-27T12:24:05Z</time>
      </trkpt>
      <trkpt lat="46.22991" lon="6.57324">
        <ele>1794.904</ele>
        <time>2024-12-27T12:24:10Z</time>
      </trkpt>
      <trkpt lat="46.22991" lon="6.57324">
        <ele>1794.897</ele>
        <time>2024-12-27T12:24:15Z</time>
      </trkpt>
      <trkpt lat="46.22991" lon="6.57324">
        <ele>1794.896</ele>
        <time>2024-12-27T12:24:20Z</time>
      </trkpt>
      <trkpt lat="46.22991" lon="6.57324">
        <ele>1794.891</ele>
        <time>2024-12-27T12:24:25Z</time>
      </trkpt>
      <trkpt lat="46.22991" lon="6.57324">
        <ele>1794.89</ele>
        <time>2024-12-27T12:24:30Z</time>
      </trkpt>
      <trkpt lat="46.22991" lon="6.57324">
        <ele>1794.892</ele>
        <time>2024-12-27T12:24:35Z</time>
      </trkpt>
      <trkpt lat="46.22991" lon="6.57324">
        <ele>1794.897</ele>
        <time>2024-12-27T12:24:40Z</time>
      </trkpt>
      <trkpt lat="46.22991" lon="6.57324">
        <ele>1794.899</ele>
        <time>2024-12-27T12:24:45Z</time>
      </trkpt>
      <trkpt lat="46.22991" lon="6.57324">
        <ele>1794.902</ele>
        <time>2024-12-27T12:24:50Z</time>
      </trkpt>
      <trkpt lat="46.22991" lon="6.57324">
        <ele>1794.904</ele>
        <time>2024-12-27T12:24:55Z</time>
      </trkpt>
      <trkpt lat="46.22991" lon="6.57324">
        <ele>1794.904</ele>
        <time>2024-12-27T12:25:00Z</time>
      </trkpt>
      <trkpt lat="46.22991" lon="6.57324">
        <ele>1794.906</ele>
        <time>2024-12-27T12:25:05Z</time>
      </trkpt>
      <trkpt lat="46.22991" lon="6.57324">
        <ele>1794.909</ele>
        <time>2024-12-27T12:25:10Z</time>
      </trkpt>
      <trkpt lat="46.22991" lon="6.57324">
        <ele>1794.91</ele>
        <time>2024-12-27T12:25:15Z</time>
      </trkpt>
      <trkpt lat="46.22991" lon="6.57324">
        <ele>1794.911</ele>
        <time>2024-12-27T12:25:20Z</time>
      </trkpt>
      <trkpt lat="46.22991" lon="6.57324">
        <ele>1794.913</ele>
        <time>2024-12-27T12:25:25Z</time>
      </trkpt>
      <trkpt lat="46.22991" lon="6.57324">
        <ele>1794.914</ele>
        <time>2024-12-27T12:25:30Z</time>
      </trkpt>
      <trkpt lat="46.22991" lon="6.57324">
        <ele>1794.913</ele>
        <time>2024-12-27T12:25:35Z</time>
      </trkpt>
      <trkpt lat="46.22991" lon="6.57324">
        <ele>1794.917</ele>
        <time>2024-12-27T12:25:40Z</time>
      </trkpt>
      <trkpt lat="46.22991" lon="6.57324">
        <ele>1794.917</ele>
        <time>2024-12-27T12:25:45Z</time>
      </trkpt>
      <trkpt lat="46.22991" lon="6.57324">
        <ele>1794.919</ele>
        <time>2024-12-27T12:25:50Z</time>
      </trkpt>
      <trkpt lat="46.22991" lon="6.57324">
        <ele>1794.921</ele>
        <time>2024-12-27T12:25:55Z</time>
      </trkpt>
      <trkpt lat="46.22991" lon="6.57324">
        <ele>1794.923</ele>
        <time>2024-12-27T12:26:00Z</time>
      </trkpt>
      <trkpt lat="46.22991" lon="6.57324">
        <ele>1794.923</ele>
        <time>2024-12-27T12:26:05Z</time>
      </trkpt>
      <trkpt lat="46.22991" lon="6.57324">
        <ele>1794.922</ele>
        <time>2024-12-27T12:26:10Z</time>
      </trkpt>
      <trkpt lat="46.22991" lon="6.57324">
        <ele>1794.919</ele>
        <time>2024-12-27T12:26:15Z</time>
      </trkpt>
      <trkpt lat="46.22991" lon="6.57324">
        <ele>1794.917</ele>
        <time>2024-12-27T12:26:20Z</time>
      </trkpt>
      <trkpt lat="46.22991" lon="6.57324">
        <ele>1794.761</ele>
        <time>2024-12-27T12:26:25Z</time>
      </trkpt>
      <trkpt lat="46.22991" lon="6.57324">
        <ele>1794.74</ele>
        <time>2024-12-27T12:26:30Z</time>
      </trkpt>
      <trkpt lat="46.22991" lon="6.57324">
        <ele>1794.721</ele>
        <time>2024-12-27T12:26:35Z</time>
      </trkpt>
      <trkpt lat="46.22991" lon="6.57324">
        <ele>1794.718</ele>
        <time>2024-12-27T12:26:40Z</time>
      </trkpt>
      <trkpt lat="46.22991" lon="6.57324">
        <ele>1794.702</ele>
        <time>2024-12-27T12:26:45Z</time>
      </trkpt>
      <trkpt lat="46.22991" lon="6.57324">
        <ele>1794.689</ele>
        <time>2024-12-27T12:26:50Z</time>
      </trkpt>
      <trkpt lat="46.22991" lon="6.57324">
        <ele>1794.678</ele>
        <time>2024-12-27T12:26:55Z</time>
      </trkpt>
      <trkpt lat="46.22991" lon="6.57324">
        <ele>1794.66</ele>
        <time>2024-12-27T12:27:00Z</time>
      </trkpt>
      <trkpt lat="46.22991" lon="6.57324">
        <ele>1794.637</ele>
        <time>2024-12-27T12:27:05Z</time>
      </trkpt>
      <trkpt lat="46.22991" lon="6.57324">
        <ele>1794.612</ele>
        <time>2024-12-27T12:27:10Z</time>
      </trkpt>
      <trkpt lat="46.22991" lon="6.57324">
        <ele>1794.596</ele>
        <time>2024-12-27T12:27:15Z</time>
      </trkpt>
      <trkpt lat="46.22991" lon="6.57324">
        <ele>1794.572</ele>
        <time>2024-12-27T12:27:20Z</time>
      </trkpt>
      <trkpt lat="46.22991" lon="6.57324">
        <ele>1794.55</ele>
        <time>2024-12-27T12:27:25Z</time>
      </trkpt>
      <trkpt lat="46.22991" lon="6.57324">
        <ele>1794.529</ele>
        <time>2024-12-27T12:27:30Z</time>
      </trkpt>
      <trkpt lat="46.22991" lon="6.57324">
        <ele>1794.501</ele>
        <time>2024-12-27T12:27:35Z</time>
      </trkpt>
      <trkpt lat="46.22991" lon="6.57324">
        <ele>1794.469</ele>
        <time>2024-12-27T12:27:40Z</time>
      </trkpt>
      <trkpt lat="46.22991" lon="6.57324">
        <ele>1794.457</ele>
        <time>2024-12-27T12:27:45Z</time>
      </trkpt>
      <trkpt lat="46.22991" lon="6.57324">
        <ele>1794.44</ele>
        <time>2024-12-27T12:27:50Z</time>
      </trkpt>
      <trkpt lat="46.22991" lon="6.57324">
        <ele>1794.432</ele>
        <time>2024-12-27T12:27:55Z</time>
      </trkpt>
      <trkpt lat="46.22991" lon="6.57324">
        <ele>1794.424</ele>
        <time>2024-12-27T12:28:00Z</time>
      </trkpt>
      <trkpt lat="46.22991" lon="6.57324">
        <ele>1794.412</ele>
        <time>2024-12-27T12:28:05Z</time>
      </trkpt>
      <trkpt lat="46.22991" lon="6.57324">
        <ele>1794.408</ele>
        <time>2024-12-27T12:28:10Z</time>
      </trkpt>
      <trkpt lat="46.22991" lon="6.57324">
        <ele>1794.383</ele>
        <time>2024-12-27T12:28:15Z</time>
      </trkpt>
      <trkpt lat="46.22991" lon="6.57324">
        <ele>1794.352</ele>
        <time>2024-12-27T12:28:20Z</time>
      </trkpt>
      <trkpt lat="46.22991" lon="6.57324">
        <ele>1794.315</ele>
        <time>2024-12-27T12:28:25Z</time>
      </trkpt>
      <trkpt lat="46.22991" lon="6.57324">
        <ele>1794.287</ele>
        <time>2024-12-27T12:28:30Z</time>
      </trkpt>
      <trkpt lat="46.22991" lon="6.57324">
        <ele>1794.259</ele>
        <time>2024-12-27T12:28:35Z</time>
      </trkpt>
      <trkpt lat="46.22991" lon="6.57324">
        <ele>1794.229</ele>
        <time>2024-12-27T12:28:40Z</time>
      </trkpt>
      <trkpt lat="46.22991" lon="6.57324">
        <ele>1794.208</ele>
        <time>2024-12-27T12:28:45Z</time>
      </trkpt>
      <trkpt lat="46.22991" lon="6.57324">
        <ele>1794.187</ele>
        <time>2024-12-27T12:28:50Z</time>
      </trkpt>
      <trkpt lat="46.22991" lon="6.57324">
        <ele>1794.167</ele>
        <time>2024-12-27T12:28:55Z</time>
      </trkpt>
      <trkpt lat="46.22991" lon="6.57324">
        <ele>1794.152</ele>
        <time>2024-12-27T12:29:00Z</time>
      </trkpt>
      <trkpt lat="46.22991" lon="6.57324">
        <ele>1794.142</ele>
        <time>2024-12-27T12:29:05Z</time>
      </trkpt>
      <trkpt lat="46.22991" lon="6.57324">
        <ele>1794.136</ele>
        <time>2024-12-27T12:29:10Z</time>
      </trkpt>
      <trkpt lat="46.22991" lon="6.57324">
        <ele>1794.127</ele>
        <time>2024-12-27T12:29:15Z</time>
      </trkpt>
      <trkpt lat="46.22991" lon="6.57324">
        <ele>1794.106</ele>
        <time>2024-12-27T12:29:20Z</time>
      </trkpt>
      <trkpt lat="46.22991" lon="6.57324">
        <ele>1794.098</ele>
        <time>2024-12-27T12:29:25Z</time>
      </trkpt>
      <trkpt lat="46.22991" lon="6.57324">
        <ele>1794.08</ele>
        <time>2024-12-27T12:29:30Z</time>
      </trkpt>
      <trkpt lat="46.22991" lon="6.57324">
        <ele>1794.068</ele>
        <time>2024-12-27T12:29:35Z</time>
      </trkpt>
      <trkpt lat="46.22991" lon="6.57324">
        <ele>1794.046</ele>
        <time>2024-12-27T12:29:40Z</time>
      </trkpt>
      <trkpt lat="46.22991" lon="6.57324">
        <ele>1794.026</ele>
        <time>2024-12-27T12:29:45Z</time>
      </trkpt>
      <trkpt lat="46.22991" lon="6.57324">
        <ele>1794.12</ele>
        <time>2024-12-27T12:29:50Z</time>
      </trkpt>
      <trkpt lat="46.22991" lon="6.57324">
        <ele>1794.119</ele>
        <time>2024-12-27T12:29:55Z</time>
      </trkpt>
      <trkpt lat="46.22991" lon="6.57324">
        <ele>1794.124</ele>
        <time>2024-12-27T12:30:00Z</time>
      </trkpt>
      <trkpt lat="46.22991" lon="6.57324">
        <ele>1794.113</ele>
        <time>2024-12-27T12:30:05Z</time>
      </trkpt>
      <trkpt lat="46.22991" lon="6.57324">
        <ele>1794.094</ele>
        <time>2024-12-27T12:30:10Z</time>
      </trkpt>
      <trkpt lat="46.22991" lon="6.57324">
        <ele>1794.073</ele>
        <time>2024-12-27T12:30:15Z</time>
      </trkpt>
      <trkpt lat="46.22991" lon="6.57324">
        <ele>1794.051</ele>
        <time>2024-12-27T12:30:20Z</time>
      </trkpt>
      <trkpt lat="46.22991" lon="6.57324">
        <ele>1794.035</ele>
        <time>2024-12-27T12:30:25Z</time>
      </trkpt>
      <trkpt lat="46.22991" lon="6.57324">
        <ele>1794.012</ele>
        <time>2024-12-27T12:30:30Z</time>
      </trkpt>
      <trkpt lat="46.22991" lon="6.57324">
        <ele>1793.996</ele>
        <time>2024-12-27T12:30:35Z</time>
      </trkpt>
      <trkpt lat="46.22991" lon="6.57324">
        <ele>1793.985</ele>
        <time>2024-12-27T12:30:40Z</time>
      </trkpt>
      <trkpt lat="46.22991" lon="6.57324">
        <ele>1793.767</ele>
        <time>2024-12-27T12:30:45Z</time>
      </trkpt>
      <trkpt lat="46.22991" lon="6.57324">
        <ele>1793.758</ele>
        <time>2024-12-27T12:30:50Z</time>
      </trkpt>
      <trkpt lat="46.22991" lon="6.57324">
        <ele>1793.754</ele>
        <time>2024-12-27T12:30:55Z</time>
      </trkpt>
      <trkpt lat="46.22991" lon="6.57324">
        <ele>1793.76</ele>
        <time>2024-12-27T12:31:00Z</time>
      </trkpt>
      <trkpt lat="46.22991" lon="6.57324">
        <ele>1793.758</ele>
        <time>2024-12-27T12:31:05Z</time>
      </trkpt>
      <trkpt lat="46.22991" lon="6.57324">
        <ele>1793.745</ele>
        <time>2024-12-27T12:31:10Z</time>
      </trkpt>
      <trkpt lat="46.22991" lon="6.57324">
        <ele>1793.754</ele>
        <time>2024-12-27T12:31:15Z</time>
      </trkpt>
      <trkpt lat="46.22991" lon="6.57324">
        <ele>1793.764</ele>
        <time>2024-12-27T12:31:20Z</time>
      </trkpt>
      <trkpt lat="46.22991" lon="6.57324">
        <ele>1793.764</ele>
        <time>2024-12-27T12:31:25Z</time>
      </trkpt>
      <trkpt lat="46.22991" lon="6.57324">
        <ele>1793.769</ele>
        <time>2024-12-27T12:31:30Z</time>
      </trkpt>
      <trkpt lat="46.22991" lon="6.57324">
        <ele>1793.761</ele>
        <time>2024-12-27T12:31:35Z</time>
      </trkpt>
      <trkpt lat="46.22991" lon="6.57324">
        <ele>1793.754</ele>
        <time>2024-12-27T12:31:40Z</time>
      </trkpt>
      <trkpt lat="46.22991" lon="6.57324">
        <ele>1793.757</ele>
        <time>2024-12-27T12:31:45Z</time>
      </trkpt>
      <trkpt lat="46.22991" lon="6.57324">
        <ele>1793.755</ele>
        <time>2024-12-27T12:31:50Z</time>
      </trkpt>
      <trkpt lat="46.22991" lon="6.57324">
        <ele>1793.749</ele>
        <time>2024-12-27T12:31:55Z</time>
      </trkpt>
      <trkpt lat="46.22991" lon="6.57324">
        <ele>1793.746</ele>
        <time>2024-12-27T12:32:00Z</time>
      </trkpt>
      <trkpt lat="46.22991" lon="6.57324">
        <ele>1793.744</ele>
        <time>2024-12-27T12:32:05Z</time>
      </trkpt>
      <trkpt lat="46.22991" lon="6.57324">
        <ele>1793.737</ele>
        <time>2024-12-27T12:32:10Z</time>
      </trkpt>
      <trkpt lat="46.22991" lon="6.57324">
        <ele>1793.732</ele>
        <time>2024-12-27T12:32:15Z</time>
      </trkpt>
      <trkpt lat="46.22991" lon="6.57324">
        <ele>1793.726</ele>
        <time>2024-12-27T12:32:20Z</time>
      </trkpt>
      <trkpt lat="46.22991" lon="6.57324">
        <ele>1793.635</ele>
        <time>2024-12-27T12:32:25Z</time>
      </trkpt>
      <trkpt lat="46.22991" lon="6.57324">
        <ele>1793.544</ele>
        <time>2024-12-27T12:32:30Z</time>
      </trkpt>
      <trkpt lat="46.22991" lon="6.57324">
        <ele>1793.542</ele>
        <time>2024-12-27T12:32:35Z</time>
      </trkpt>
      <trkpt lat="46.22991" lon="6.57324">
        <ele>1793.535</ele>
        <time>2024-12-27T12:32:40Z</time>
      </trkpt>
      <trkpt lat="46.22991" lon="6.57324">
        <ele>1793.526</ele>
        <time>2024-12-27T12:32:45Z</time>
      </trkpt>
      <trkpt lat="46.22991" lon="6.57324">
        <ele>1793.512</ele>
        <time>2024-12-27T12:32:50Z</time>
      </trkpt>
      <trkpt lat="46.22991" lon="6.57324">
        <ele>1793.504</ele>
        <time>2024-12-27T12:32:55Z</time>
      </trkpt>
      <trkpt lat="46.22991" lon="6.57324">
        <ele>1793.488</ele>
        <time>2024-12-27T12:33:00Z</time>
      </trkpt>
      <trkpt lat="46.22991" lon="6.57324">
        <ele>1793.472</ele>
        <time>2024-12-27T12:33:05Z</time>
      </trkpt>
      <trkpt lat="46.22991" lon="6.57324">
        <ele>1793.46</ele>
        <time>2024-12-27T12:33:10Z</time>
      </trkpt>
      <trkpt lat="46.22991" lon="6.57324">
        <ele>1793.447</ele>
        <time>2024-12-27T12:33:15Z</time>
      </trkpt>
      <trkpt lat="46.22991" lon="6.57324">
        <ele>1793.437</ele>
        <time>2024-12-27T12:33:20Z</time>
      </trkpt>
      <trkpt lat="46.22991" lon="6.57324">
        <ele>1793.43</ele>
        <time>2024-12-27T12:33:25Z</time>
      </trkpt>
      <trkpt lat="46.22991" lon="6.57324">
        <ele>1793.415</ele>
        <time>2024-12-27T12:33:30Z</time>
      </trkpt>
      <trkpt lat="46.22991" lon="6.57324">
        <ele>1793.387</ele>
        <time>2024-12-27T12:33:35Z</time>
      </trkpt>
      <trkpt lat="46.22991" lon="6.57324">
        <ele>1793.374</ele>
        <time>2024-12-27T12:33:40Z</time>
      </trkpt>
      <trkpt lat="46.22991" lon="6.57324">
        <ele>1793.35</ele>
        <time>2024-12-27T12:33:45Z</time>
      </trkpt>
      <trkpt lat="46.22991" lon="6.57324">
        <ele>1793.343</ele>
        <time>2024-12-27T12:33:50Z</time>
      </trkpt>
      <trkpt lat="46.22991" lon="6.57324">
        <ele>1793.328</ele>
        <time>2024-12-27T12:33:55Z</time>
      </trkpt>
      <trkpt lat="46.22991" lon="6.57324">
        <ele>1793.157</ele>
        <time>2024-12-27T12:34:00Z</time>
      </trkpt>
      <trkpt lat="46.22991" lon="6.57324">
        <ele>1793.144</ele>
        <time>2024-12-27T12:34:05Z</time>
      </trkpt>
      <trkpt lat="46.22991" lon="6.57324">
        <ele>1793.129</ele>
        <time>2024-12-27T12:34:10Z</time>
      </trkpt>
      <trkpt lat="46.22991" lon="6.57324">
        <ele>1793.124</ele>
        <time>2024-12-27T12:34:15Z</time>
      </trkpt>
      <trkpt lat="46.22991" lon="6.57324">
        <ele>1793.119</ele>
        <time>2024-12-27T12:34:20Z</time>
      </trkpt>
      <trkpt lat="46.22991" lon="6.57324">
        <ele>1793.116</ele>
        <time>2024-12-27T12:34:25Z</time>
      </trkpt>
      <trkpt lat="46.22991" lon="6.57324">
        <ele>1793.116</ele>
        <time>2024-12-27T12:34:30Z</time>
      </trkpt>
      <trkpt lat="46.22991" lon="6.57324">
        <ele>1793.105</ele>
        <time>2024-12-27T12:34:35Z</time>
      </trkpt>
      <trkpt lat="46.22991" lon="6.57324">
        <ele>1793.088</ele>
        <time>2024-12-27T12:34:40Z</time>
      </trkpt>
      <trkpt lat="46.22991" lon="6.57324">
        <ele>1793.074</ele>
        <time>2024-12-27T12:34:45Z</time>
      </trkpt>
      <trkpt lat="46.22991" lon="6.57324">
        <ele>1793.063</ele>
        <time>2024-12-27T12:34:50Z</time>
      </trkpt>
      <trkpt lat="46.22991" lon="6.57324">
        <ele>1793.052</ele>
        <time>2024-12-27T12:34:55Z</time>
      </trkpt>
      <trkpt lat="46.22991" lon="6.57324">
        <ele>1793.041</ele>
        <time>2024-12-27T12:35:00Z</time>
      </trkpt>
      <trkpt lat="46.22991" lon="6.57324">
        <ele>1793.029</ele>
        <time>2024-12-27T12:35:05Z</time>
      </trkpt>
      <trkpt lat="46.22991" lon="6.57324">
        <ele>1793.021</ele>
        <time>2024-12-27T12:35:10Z</time>
      </trkpt>
      <trkpt lat="46.22991" lon="6.57324">
        <ele>1793.007</ele>
        <time>2024-12-27T12:35:15Z</time>
      </trkpt>
      <trkpt lat="46.22991" lon="6.57324">
        <ele>1793</ele>
        <time>2024-12-27T12:35:20Z</time>
      </trkpt>
      <trkpt lat="46.22991" lon="6.57324">
        <ele>1792.994</ele>
        <time>2024-12-27T12:35:25Z</time>
      </trkpt>
      <trkpt lat="46.22991" lon="6.57324">
        <ele>1792.985</ele>
        <time>2024-12-27T12:35:30Z</time>
      </trkpt>
      <trkpt lat="46.22991" lon="6.57324">
        <ele>1792.978</ele>
        <time>2024-12-27T12:35:35Z</time>
      </trkpt>
      <trkpt lat="46.22991" lon="6.57324">
        <ele>1792.967</ele>
        <time>2024-12-27T12:35:40Z</time>
      </trkpt>
      <trkpt lat="46.22991" lon="6.57324">
        <ele>1792.946</ele>
        <time>2024-12-27T12:35:45Z</time>
      </trkpt>
      <trkpt lat="46.22991" lon="6.57324">
        <ele>1792.936</ele>
        <time>2024-12-27T12:35:50Z</time>
      </trkpt>
      <trkpt lat="46.22991" lon="6.57324">
        <ele>1792.932</ele>
        <time>2024-12-27T12:35:55Z</time>
      </trkpt>
      <trkpt lat="46.22991" lon="6.57324">
        <ele>1792.932</ele>
        <time>2024-12-27T12:36:00Z</time>
      </trkpt>
      <trkpt lat="46.22991" lon="6.57324">
        <ele>1792.366</ele>
        <time>2024-12-27T12:36:05Z</time>
      </trkpt>
      <trkpt lat="46.22991" lon="6.57324">
        <ele>1792.503</ele>
        <time>2024-12-27T12:36:10Z</time>
      </trkpt>
      <trkpt lat="46.22991" lon="6.57324">
        <ele>1792.485</ele>
        <time>2024-12-27T12:36:15Z</time>
      </trkpt>
      <trkpt lat="46.22991" lon="6.57324">
        <ele>1792.479</ele>
        <time>2024-12-27T12:36:20Z</time>
      </trkpt>
      <trkpt lat="46.22991" lon="6.57324">
        <ele>1792.482</ele>
        <time>2024-12-27T12:36:25Z</time>
      </trkpt>
      <trkpt lat="46.22991" lon="6.57324">
        <ele>1792.247</ele>
        <time>2024-12-27T12:36:30Z</time>
      </trkpt>
      <trkpt lat="46.22991" lon="6.57324">
        <ele>1792.238</ele>
        <time>2024-12-27T12:36:35Z</time>
      </trkpt>
      <trkpt lat="46.22991" lon="6.57324">
        <ele>1792.23</ele>
        <time>2024-12-27T12:36:40Z</time>
      </trkpt>
      <trkpt lat="46.22991" lon="6.57324">
        <ele>1792.224</ele>
        <time>2024-12-27T12:36:45Z</time>
      </trkpt>
      <trkpt lat="46.22991" lon="6.57324">
        <ele>1792.214</ele>
        <time>2024-12-27T12:36:50Z</time>
      </trkpt>
      <trkpt lat="46.22991" lon="6.57324">
        <ele>1792.204</ele>
        <time>2024-12-27T12:36:55Z</time>
      </trkpt>
      <trkpt lat="46.22991" lon="6.57324">
        <ele>1792.19</ele>
        <time>2024-12-27T12:37:00Z</time>
      </trkpt>
      <trkpt lat="46.22991" lon="6.57324">
        <ele>1792.171</ele>
        <time>2024-12-27T12:37:05Z</time>
      </trkpt>
      <trkpt lat="46.22991" lon="6.57324">
        <ele>1792.156</ele>
        <time>2024-12-27T12:37:10Z</time>
      </trkpt>
      <trkpt lat="46.22991" lon="6.57324">
        <ele>1792.149</ele>
        <time>2024-12-27T12:37:15Z</time>
      </trkpt>
      <trkpt lat="46.22991" lon="6.57324">
        <ele>1792.141</ele>
        <time>2024-12-27T12:37:20Z</time>
      </trkpt>
      <trkpt lat="46.22991" lon="6.57324">
        <ele>1792.114</ele>
        <time>2024-12-27T12:37:25Z</time>
      </trkpt>
      <trkpt lat="46.22991" lon="6.57324">
        <ele>1792.096</ele>
        <time>2024-12-27T12:37:30Z</time>
      </trkpt>
      <trkpt lat="46.22991" lon="6.57324">
        <ele>1792.212</ele>
        <time>2024-12-27T12:37:35Z</time>
      </trkpt>
      <trkpt lat="46.22991" lon="6.57324">
        <ele>1791.682</ele>
        <time>2024-12-27T12:37:40Z</time>
      </trkpt>
      <trkpt lat="46.22991" lon="6.57324">
        <ele>1791.676</ele>
        <time>2024-12-27T12:37:45Z</time>
      </trkpt>
      <trkpt lat="46.22991" lon="6.57324">
        <ele>1791.57</ele>
        <time>2024-12-27T12:37:50Z</time>
      </trkpt>
      <trkpt lat="46.22991" lon="6.57324">
        <ele>1791.553</ele>
        <time>2024-12-27T12:37:55Z</time>
      </trkpt>
      <trkpt lat="46.22991" lon="6.57324">
        <ele>1791.543</ele>
        <time>2024-12-27T12:38:00Z</time>
      </trkpt>
      <trkpt lat="46.22991" lon="6.57324">
        <ele>1791.529</ele>
        <time>2024-12-27T12:38:05Z</time>
      </trkpt>
      <trkpt lat="46.22991" lon="6.57324">
        <ele>1791.517</ele>
        <time>2024-12-27T12:38:10Z</time>
      </trkpt>
      <trkpt lat="46.22991" lon="6.57324">
        <ele>1791.501</ele>
        <time>2024-12-27T12:38:15Z</time>
      </trkpt>
      <trkpt lat="46.22991" lon="6.57324">
        <ele>1791.483</ele>
        <time>2024-12-27T12:38:20Z</time>
      </trkpt>
      <trkpt lat="46.22991" lon="6.57324">
        <ele>1791.481</ele>
        <time>2024-12-27T12:38:25Z</time>
      </trkpt>
      <trkpt lat="46.22991" lon="6.57324">
        <ele>1791.48</ele>
        <time>2024-12-27T12:38:30Z</time>
      </trkpt>
      <trkpt lat="46.22991" lon="6.57324">
        <ele>1791.48</ele>
        <time>2024-12-27T12:38:35Z</time>
      </trkpt>
      <trkpt lat="46.22991" lon="6.57324">
        <ele>1791.475</ele>
        <time>2024-12-27T12:38:40Z</time>
      </trkpt>
      <trkpt lat="46.22991" lon="6.57324">
        <ele>1791.461</ele>
        <time>2024-12-27T12:38:45Z</time>
      </trkpt>
      <trkpt lat="46.22991" lon="6.57324">
        <ele>1791.449</ele>
        <time>2024-12-27T12:38:50Z</time>
      </trkpt>
      <trkpt lat="46.22991" lon="6.57324">
        <ele>1791.437</ele>
        <time>2024-12-27T12:38:55Z</time>
      </trkpt>
      <trkpt lat="46.22991" lon="6.57324">
        <ele>1791.428</ele>
        <time>2024-12-27T12:39:00Z</time>
      </trkpt>
      <trkpt lat="46.22991" lon="6.57324">
        <ele>1791.42</ele>
        <time>2024-12-27T12:39:05Z</time>
      </trkpt>
      <trkpt lat="46.22991" lon="6.57324">
        <ele>1791.421</ele>
        <time>2024-12-27T12:39:10Z</time>
      </trkpt>
      <trkpt lat="46.22991" lon="6.57324">
        <ele>1791.426</ele>
        <time>2024-12-27T12:39:15Z</time>
      </trkpt>
      <trkpt lat="46.22991" lon="6.57324">
        <ele>1791.42</ele>
        <time>2024-12-27T12:39:20Z</time>
      </trkpt>
      <trkpt lat="46.22991" lon="6.57324">
        <ele>1791.415</ele>
        <time>2024-12-27T12:39:25Z</time>
      </trkpt>
      <trkpt lat="46.22991" lon="6.57324">
        <ele>1791.413</ele>
        <time>2024-12-27T12:39:30Z</time>
      </trkpt>
      <trkpt lat="46.22991" lon="6.57324">
        <ele>1791.401</ele>
        <time>2024-12-27T12:39:35Z</time>
      </trkpt>
      <trkpt lat="46.22991" lon="6.57324">
        <ele>1791.4</ele>
        <time>2024-12-27T12:39:40Z</time>
      </trkpt>
      <trkpt lat="46.22991" lon="6.57324">
        <ele>1791.392</ele>
        <time>2024-12-27T12:39:45Z</time>
      </trkpt>
      <trkpt lat="46.22991" lon="6.57324">
        <ele>1791.379</ele>
        <time>2024-12-27T12:39:50Z</time>
      </trkpt>
      <trkpt lat="46.22991" lon="6.57324">
        <ele>1791.378</ele>
        <time>2024-12-27T12:39:55Z</time>
      </trkpt>
      <trkpt lat="46.22991" lon="6.57324">
        <ele>1791.373</ele>
        <time>2024-12-27T12:40:00Z</time>
      </trkpt>
      <trkpt lat="46.22991" lon="6.57324">
        <ele>1791.375</ele>
        <time>2024-12-27T12:40:05Z</time>
      </trkpt>
      <trkpt lat="46.22991" lon="6.57324">
        <ele>1791.365</ele>
        <time>2024-12-27T12:40:10Z</time>
      </trkpt>
      <trkpt lat="46.22991" lon="6.57324">
        <ele>1791.35</ele>
        <time>2024-12-27T12:40:15Z</time>
      </trkpt>
      <trkpt lat="46.22991" lon="6.57324">
        <ele>1791.341</ele>
        <time>2024-12-27T12:40:20Z</time>
      </trkpt>
      <trkpt lat="46.22991" lon="6.57324">
        <ele>1791.342</ele>
        <time>2024-12-27T12:40:25Z</time>
      </trkpt>
      <trkpt lat="46.22991" lon="6.57324">
        <ele>1791.339</ele>
        <time>2024-12-27T12:40:30Z</time>
      </trkpt>
      <trkpt lat="46.22991" lon="6.57324">
        <ele>1791.333</ele>
        <time>2024-12-27T12:40:35Z</time>
      </trkpt>
      <trkpt lat="46.22991" lon="6.57324">
        <ele>1791.33</ele>
        <time>2024-12-27T12:40:40Z</time>
      </trkpt>
      <trkpt lat="46.22991" lon="6.57324">
        <ele>1791.328</ele>
        <time>2024-12-27T12:40:45Z</time>
      </trkpt>
      <trkpt lat="46.22991" lon="6.57324">
        <ele>1791.262</ele>
        <time>2024-12-27T12:40:50Z</time>
      </trkpt>
      <trkpt lat="46.22991" lon="6.57324">
        <ele>1791.261</ele>
        <time>2024-12-27T12:40:55Z</time>
      </trkpt>
      <trkpt lat="46.22991" lon="6.57324">
        <ele>1791.262</ele>
        <time>2024-12-27T12:41:00Z</time>
      </trkpt>
      <trkpt lat="46.22991" lon="6.57324">
        <ele>1791.258</ele>
        <time>2024-12-27T12:41:05Z</time>
      </trkpt>
      <trkpt lat="46.22991" lon="6.57324">
        <ele>1791.254</ele>
        <time>2024-12-27T12:41:10Z</time>
      </trkpt>
      <trkpt lat="46.22991" lon="6.57324">
        <ele>1791.256</ele>
        <time>2024-12-27T12:41:15Z</time>
      </trkpt>
      <trkpt lat="46.22991" lon="6.57324">
        <ele>1791.258</ele>
        <time>2024-12-27T12:41:20Z</time>
      </trkpt>
      <trkpt lat="46.22991" lon="6.57324">
        <ele>1791.698</ele>
        <time>2024-12-27T12:41:25Z</time>
      </trkpt>
      <trkpt lat="46.22991" lon="6.57324">
        <ele>1791.723</ele>
        <time>2024-12-27T12:41:30Z</time>
      </trkpt>
      <trkpt lat="46.22991" lon="6.57324">
        <ele>1791.716</ele>
        <time>2024-12-27T12:41:35Z</time>
      </trkpt>
      <trkpt lat="46.22991" lon="6.57324">
        <ele>1791.723</ele>
        <time>2024-12-27T12:41:40Z</time>
      </trkpt>
      <trkpt lat="46.22991" lon="6.57324">
        <ele>1791.72</ele>
        <time>2024-12-27T12:41:45Z</time>
      </trkpt>
      <trkpt lat="46.22991" lon="6.57324">
        <ele>1791.715</ele>
        <time>2024-12-27T12:41:50Z</time>
      </trkpt>
      <trkpt lat="46.22991" lon="6.57324">
        <ele>1792.024</ele>
        <time>2024-12-27T12:41:55Z</time>
      </trkpt>
      <trkpt lat="46.22991" lon="6.57324">
        <ele>1792.022</ele>
        <time>2024-12-27T12:42:00Z</time>
      </trkpt>
      <trkpt lat="46.22991" lon="6.57324">
        <ele>1791.971</ele>
        <time>2024-12-27T12:42:05Z</time>
      </trkpt>
      <trkpt lat="46.22991" lon="6.57324">
        <ele>1791.968</ele>
        <time>2024-12-27T12:42:10Z</time>
      </trkpt>
      <trkpt lat="46.22991" lon="6.57324">
        <ele>1791.963</ele>
        <time>2024-12-27T12:42:15Z</time>
      </trkpt>
      <trkpt lat="46.22991" lon="6.57324">
        <ele>1791.952</ele>
        <time>2024-12-27T12:42:20Z</time>
      </trkpt>
      <trkpt lat="46.22991" lon="6.57324">
        <ele>1791.946</ele>
        <time>2024-12-27T12:42:25Z</time>
      </trkpt>
      <trkpt lat="46.22991" lon="6.57324">
        <ele>1791.949</ele>
        <time>2024-12-27T12:42:30Z</time>
      </trkpt>
      <trkpt lat="46.22991" lon="6.57324">
        <ele>1791.942</ele>
        <time>2024-12-27T12:42:35Z</time>
      </trkpt>
      <trkpt lat="46.22991" lon="6.57324">
        <ele>1791.938</ele>
        <time>2024-12-27T12:42:40Z</time>
      </trkpt>
      <trkpt lat="46.22991" lon="6.57324">
        <ele>1791.942</ele>
        <time>2024-12-27T12:42:45Z</time>
      </trkpt>
      <trkpt lat="46.22991" lon="6.57324">
        <ele>1791.941</ele>
        <time>2024-12-27T12:42:50Z</time>
      </trkpt>
      <trkpt lat="46.22991" lon="6.57324">
        <ele>1791.946</ele>
        <time>2024-12-27T12:42:55Z</time>
      </trkpt>
      <trkpt lat="46.22991" lon="6.57324">
        <ele>1791.947</ele>
        <time>2024-12-27T12:43:00Z</time>
      </trkpt>
      <trkpt lat="46.22991" lon="6.57324">
        <ele>1791.947</ele>
        <time>2024-12-27T12:43:05Z</time>
      </trkpt>
      <trkpt lat="46.22991" lon="6.57324">
        <ele>1791.948</ele>
        <time>2024-12-27T12:43:10Z</time>
      </trkpt>
      <trkpt lat="46.22991" lon="6.57324">
        <ele>1791.784</ele>
        <time>2024-12-27T12:43:15Z</time>
      </trkpt>
      <trkpt lat="46.22991" lon="6.57324">
        <ele>1791.97</ele>
        <time>2024-12-27T12:43:20Z</time>
      </trkpt>
      <trkpt lat="46.22991" lon="6.57324">
        <ele>1791.965</ele>
        <time>2024-12-27T12:43:25Z</time>
      </trkpt>
      <trkpt lat="46.22991" lon="6.57324">
        <ele>1792.005</ele>
        <time>2024-12-27T12:43:30Z</time>
      </trkpt>
      <trkpt lat="46.22991" lon="6.57324">
        <ele>1791.783</ele>
        <time>2024-12-27T12:43:35Z</time>
      </trkpt>
      <trkpt lat="46.22991" lon="6.57324">
        <ele>1791.777</ele>
        <time>2024-12-27T12:43:40Z</time>
      </trkpt>
      <trkpt lat="46.22991" lon="6.57324">
        <ele>1791.708</ele>
        <time>2024-12-27T12:43:45Z</time>
      </trkpt>
      <trkpt lat="46.22991" lon="6.57324">
        <ele>1791.714</ele>
        <time>2024-12-27T12:43:50Z</time>
      </trkpt>
      <trkpt lat="46.22992" lon="6.57326">
        <ele>1792.579</ele>
        <time>2024-12-27T12:43:55Z</time>
      </trkpt>
      <trkpt lat="46.23003" lon="6.57336">
        <ele>1791.085</ele>
        <time>2024-12-27T12:44:00Z</time>
      </trkpt>
      <trkpt lat="46.2303" lon="6.57352">
        <ele>1797.394</ele>
        <time>2024-12-27T12:44:05Z</time>
      </trkpt>
      <trkpt lat="46.23052" lon="6.57362">
        <ele>1795.686</ele>
        <time>2024-12-27T12:44:10Z</time>
      </trkpt>
      <trkpt lat="46.23052" lon="6.57363">
        <ele>1792.717</ele>
        <time>2024-12-27T12:44:15Z</time>
      </trkpt>
      <trkpt lat="46.23052" lon="6.57363">
        <ele>1790.129</ele>
        <time>2024-12-27T12:44:20Z</time>
      </trkpt>
      <trkpt lat="46.23057" lon="6.57368">
        <ele>1789.76</ele>
        <time>2024-12-27T12:44:25Z</time>
      </trkpt>
      <trkpt lat="46.23061" lon="6.57369">
        <ele>1788.305</ele>
        <time>2024-12-27T12:44:30Z</time>
      </trkpt>
      <trkpt lat="46.23066" lon="6.57372">
        <ele>1787.637</ele>
        <time>2024-12-27T12:44:35Z</time>
      </trkpt>
      <trkpt lat="46.2307" lon="6.57376">
        <ele>1786.608</ele>
        <time>2024-12-27T12:44:40Z</time>
      </trkpt>
      <trkpt lat="46.23071" lon="6.57375">
        <ele>1785.929</ele>
        <time>2024-12-27T12:44:45Z</time>
      </trkpt>
      <trkpt lat="46.23071" lon="6.57375">
        <ele>1785.165</ele>
        <time>2024-12-27T12:44:50Z</time>
      </trkpt>
      <trkpt lat="46.23071" lon="6.57374">
        <ele>1784.936</ele>
        <time>2024-12-27T12:44:55Z</time>
      </trkpt>
      <trkpt lat="46.23071" lon="6.57374">
        <ele>1784.928</ele>
        <time>2024-12-27T12:45:00Z</time>
      </trkpt>
      <trkpt lat="46.23071" lon="6.57374">
        <ele>1784.919</ele>
        <time>2024-12-27T12:45:05Z</time>
      </trkpt>
      <trkpt lat="46.23071" lon="6.57374">
        <ele>1784.914</ele>
        <time>2024-12-27T12:45:10Z</time>
      </trkpt>
      <trkpt lat="46.23071" lon="6.57374">
        <ele>1784.926</ele>
        <time>2024-12-27T12:45:15Z</time>
      </trkpt>
      <trkpt lat="46.23071" lon="6.57374">
        <ele>1784.917</ele>
        <time>2024-12-27T12:45:20Z</time>
      </trkpt>
      <trkpt lat="46.23071" lon="6.57374">
        <ele>1784.917</ele>
        <time>2024-12-27T12:45:25Z</time>
      </trkpt>
      <trkpt lat="46.23071" lon="6.57374">
        <ele>1784.908</ele>
        <time>2024-12-27T12:45:30Z</time>
      </trkpt>
      <trkpt lat="46.23071" lon="6.57374">
        <ele>1784.391</ele>
        <time>2024-12-27T12:45:35Z</time>
      </trkpt>
      <trkpt lat="46.2307" lon="6.57374">
        <ele>1783.493</ele>
        <time>2024-12-27T12:45:40Z</time>
      </trkpt>
      <trkpt lat="46.2307" lon="6.57375">
        <ele>1782.814</ele>
        <time>2024-12-27T12:45:45Z</time>
      </trkpt>
      <trkpt lat="46.2307" lon="6.57375">
        <ele>1782.239</ele>
        <time>2024-12-27T12:45:50Z</time>
      </trkpt>
      <trkpt lat="46.2307" lon="6.57375">
        <ele>1781.794</ele>
        <time>2024-12-27T12:45:55Z</time>
      </trkpt>
      <trkpt lat="46.2307" lon="6.57375">
        <ele>1781.81</ele>
        <time>2024-12-27T12:46:00Z</time>
      </trkpt>
      <trkpt lat="46.2307" lon="6.57375">
        <ele>1781.808</ele>
        <time>2024-12-27T12:46:05Z</time>
      </trkpt>
      <trkpt lat="46.2307" lon="6.57375">
        <ele>1781.812</ele>
        <time>2024-12-27T12:46:10Z</time>
      </trkpt>
      <trkpt lat="46.2307" lon="6.57375">
        <ele>1781.803</ele>
        <time>2024-12-27T12:46:15Z</time>
      </trkpt>
      <trkpt lat="46.2307" lon="6.57375">
        <ele>1781.791</ele>
        <time>2024-12-27T12:46:20Z</time>
      </trkpt>
      <trkpt lat="46.2307" lon="6.57375">
        <ele>1781.787</ele>
        <time>2024-12-27T12:46:25Z</time>
      </trkpt>
      <trkpt lat="46.2307" lon="6.57375">
        <ele>1781.781</ele>
        <time>2024-12-27T12:46:30Z</time>
      </trkpt>
      <trkpt lat="46.2307" lon="6.57375">
        <ele>1781.764</ele>
        <time>2024-12-27T12:46:35Z</time>
      </trkpt>
      <trkpt lat="46.2307" lon="6.57375">
        <ele>1781.757</ele>
        <time>2024-12-27T12:46:40Z</time>
      </trkpt>
      <trkpt lat="46.2307" lon="6.57375">
        <ele>1781.75</ele>
        <time>2024-12-27T12:46:45Z</time>
      </trkpt>
      <trkpt lat="46.23071" lon="6.57376">
        <ele>1781.376</ele>
        <time>2024-12-27T12:46:50Z</time>
      </trkpt>
      <trkpt lat="46.23074" lon="6.57386">
        <ele>1779.467</ele>
        <time>2024-12-27T12:46:55Z</time>
      </trkpt>
      <trkpt lat="46.2308" lon="6.57398">
        <ele>1777.298</ele>
        <time>2024-12-27T12:47:00Z</time>
      </trkpt>
      <trkpt lat="46.2308" lon="6.57398">
        <ele>1776.72</ele>
        <time>2024-12-27T12:47:05Z</time>
      </trkpt>
      <trkpt lat="46.2308" lon="6.57398">
        <ele>1775.806</ele>
        <time>2024-12-27T12:47:10Z</time>
      </trkpt>
      <trkpt lat="46.2308" lon="6.57398">
        <ele>1773.878</ele>
        <time>2024-12-27T12:47:15Z</time>
      </trkpt>
      <trkpt lat="46.23088" lon="6.57393">
        <ele>1774.361</ele>
        <time>2024-12-27T12:47:20Z</time>
      </trkpt>
      <trkpt lat="46.23092" lon="6.57395">
        <ele>1771.563</ele>
        <time>2024-12-27T12:47:25Z</time>
      </trkpt>
      <trkpt lat="46.23093" lon="6.57386">
        <ele>1770.948</ele>
        <time>2024-12-27T12:47:30Z</time>
      </trkpt>
      <trkpt lat="46.23093" lon="6.57386">
        <ele>1771.851</ele>
        <time>2024-12-27T12:47:35Z</time>
      </trkpt>
      <trkpt lat="46.23093" lon="6.57383">
        <ele>1770.547</ele>
        <time>2024-12-27T12:47:40Z</time>
      </trkpt>
      <trkpt lat="46.23094" lon="6.57373">
        <ele>1768.792</ele>
        <time>2024-12-27T12:47:45Z</time>
      </trkpt>
      <trkpt lat="46.23105" lon="6.57376">
        <ele>1762.171</ele>
        <time>2024-12-27T12:47:50Z</time>
      </trkpt>
      <trkpt lat="46.23115" lon="6.57365">
        <ele>1754.005</ele>
        <time>2024-12-27T12:47:55Z</time>
      </trkpt>
      <trkpt lat="46.23115" lon="6.57365">
        <ele>1753.592</ele>
        <time>2024-12-27T12:48:00Z</time>
      </trkpt>
      <trkpt lat="46.23115" lon="6.57365">
        <ele>1752.905</ele>
        <time>2024-12-27T12:48:05Z</time>
      </trkpt>
      <trkpt lat="46.23115" lon="6.57373">
        <ele>1752.832</ele>
        <time>2024-12-27T12:48:10Z</time>
      </trkpt>
      <trkpt lat="46.23115" lon="6.57373">
        <ele>1752.921</ele>
        <time>2024-12-27T12:48:15Z</time>
      </trkpt>
      <trkpt lat="46.2312" lon="6.57374">
        <ele>1750.981</ele>
        <time>2024-12-27T12:48:20Z</time>
      </trkpt>
      <trkpt lat="46.2313" lon="6.5737">
        <ele>1746.886</ele>
        <time>2024-12-27T12:48:25Z</time>
      </trkpt>
      <trkpt lat="46.23135" lon="6.57368">
        <ele>1741.237</ele>
        <time>2024-12-27T12:48:30Z</time>
      </trkpt>
      <trkpt lat="46.23147" lon="6.57362">
        <ele>1734.263</ele>
        <time>2024-12-27T12:48:35Z</time>
      </trkpt>
      <trkpt lat="46.2315" lon="6.57356">
        <ele>1731.103</ele>
        <time>2024-12-27T12:48:40Z</time>
      </trkpt>
      <trkpt lat="46.2315" lon="6.57356">
        <ele>1730.736</ele>
        <time>2024-12-27T12:48:45Z</time>
      </trkpt>
      <trkpt lat="46.2315" lon="6.57356">
        <ele>1730.027</ele>
        <time>2024-12-27T12:48:50Z</time>
      </trkpt>
      <trkpt lat="46.2315" lon="6.57356">
        <ele>1728.263</ele>
        <time>2024-12-27T12:48:55Z</time>
      </trkpt>
      <trkpt lat="46.2315" lon="6.57356">
        <ele>1727.431</ele>
        <time>2024-12-27T12:49:00Z</time>
      </trkpt>
      <trkpt lat="46.2315" lon="6.57356">
        <ele>1727.367</ele>
        <time>2024-12-27T12:49:05Z</time>
      </trkpt>
      <trkpt lat="46.2315" lon="6.57356">
        <ele>1727.351</ele>
        <time>2024-12-27T12:49:10Z</time>
      </trkpt>
      <trkpt lat="46.2315" lon="6.57356">
        <ele>1727.229</ele>
        <time>2024-12-27T12:49:15Z</time>
      </trkpt>
      <trkpt lat="46.2315" lon="6.57356">
        <ele>1725.117</ele>
        <time>2024-12-27T12:49:20Z</time>
      </trkpt>
      <trkpt lat="46.2315" lon="6.57356">
        <ele>1724.435</ele>
        <time>2024-12-27T12:49:25Z</time>
      </trkpt>
      <trkpt lat="46.2315" lon="6.57356">
        <ele>1724.299</ele>
        <time>2024-12-27T12:49:30Z</time>
      </trkpt>
      <trkpt lat="46.2315" lon="6.57356">
        <ele>1724.282</ele>
        <time>2024-12-27T12:49:35Z</time>
      </trkpt>
      <trkpt lat="46.2315" lon="6.57356">
        <ele>1724.664</ele>
        <time>2024-12-27T12:49:40Z</time>
      </trkpt>
      <trkpt lat="46.2315" lon="6.57356">
        <ele>1725.093</ele>
        <time>2024-12-27T12:49:45Z</time>
      </trkpt>
      <trkpt lat="46.2315" lon="6.57356">
        <ele>1724.447</ele>
        <time>2024-12-27T12:49:50Z</time>
      </trkpt>
      <trkpt lat="46.2315" lon="6.57356">
        <ele>1724.008</ele>
        <time>2024-12-27T12:49:55Z</time>
      </trkpt>
      <trkpt lat="46.2315" lon="6.57356">
        <ele>1723.909</ele>
        <time>2024-12-27T12:50:00Z</time>
      </trkpt>
      <trkpt lat="46.2315" lon="6.57356">
        <ele>1723.904</ele>
        <time>2024-12-27T12:50:05Z</time>
      </trkpt>
      <trkpt lat="46.2315" lon="6.57356">
        <ele>1723.96</ele>
        <time>2024-12-27T12:50:10Z</time>
      </trkpt>
      <trkpt lat="46.2315" lon="6.57356">
        <ele>1724.981</ele>
        <time>2024-12-27T12:50:15Z</time>
      </trkpt>
      <trkpt lat="46.2315" lon="6.57356">
        <ele>1724.646</ele>
        <time>2024-12-27T12:50:20Z</time>
      </trkpt>
      <trkpt lat="46.2315" lon="6.57356">
        <ele>1721.746</ele>
        <time>2024-12-27T12:50:25Z</time>
      </trkpt>
      <trkpt lat="46.2316" lon="6.57348">
        <ele>1719.095</ele>
        <time>2024-12-27T12:50:30Z</time>
      </trkpt>
      <trkpt lat="46.23161" lon="6.57344">
        <ele>1717.721</ele>
        <time>2024-12-27T12:50:35Z</time>
      </trkpt>
      <trkpt lat="46.23168" lon="6.57347">
        <ele>1716.623</ele>
        <time>2024-12-27T12:50:40Z</time>
      </trkpt>
      <trkpt lat="46.23173" lon="6.57347">
        <ele>1714.512</ele>
        <time>2024-12-27T12:50:45Z</time>
      </trkpt>
      <trkpt lat="46.23177" lon="6.57339">
        <ele>1710.16</ele>
        <time>2024-12-27T12:50:50Z</time>
      </trkpt>
      <trkpt lat="46.23182" lon="6.57342">
        <ele>1709.161</ele>
        <time>2024-12-27T12:50:55Z</time>
      </trkpt>
      <trkpt lat="46.23183" lon="6.57348">
        <ele>1710.134</ele>
        <time>2024-12-27T12:51:00Z</time>
      </trkpt>
      <trkpt lat="46.23184" lon="6.57349">
        <ele>1710.046</ele>
        <time>2024-12-27T12:51:05Z</time>
      </trkpt>
      <trkpt lat="46.23184" lon="6.57349">
        <ele>1707.929</ele>
        <time>2024-12-27T12:51:10Z</time>
      </trkpt>
      <trkpt lat="46.23184" lon="6.57349">
        <ele>1704.832</ele>
        <time>2024-12-27T12:51:15Z</time>
      </trkpt>
      <trkpt lat="46.23184" lon="6.57349">
        <ele>1704.718</ele>
        <time>2024-12-27T12:51:20Z</time>
      </trkpt>
      <trkpt lat="46.23184" lon="6.57349">
        <ele>1703.15</ele>
        <time>2024-12-27T12:51:25Z</time>
      </trkpt>
      <trkpt lat="46.23197" lon="6.57349">
        <ele>1704.507</ele>
        <time>2024-12-27T12:51:30Z</time>
      </trkpt>
      <trkpt lat="46.23201" lon="6.57341">
        <ele>1701.503</ele>
        <time>2024-12-27T12:51:35Z</time>
      </trkpt>
      <trkpt lat="46.23201" lon="6.57341">
        <ele>1702.112</ele>
        <time>2024-12-27T12:51:40Z</time>
      </trkpt>
      <trkpt lat="46.23201" lon="6.57341">
        <ele>1701.598</ele>
        <time>2024-12-27T12:51:45Z</time>
      </trkpt>
      <trkpt lat="46.23201" lon="6.57341">
        <ele>1700.817</ele>
        <time>2024-12-27T12:51:50Z</time>
      </trkpt>
      <trkpt lat="46.23201" lon="6.57341">
        <ele>1698.49</ele>
        <time>2024-12-27T12:51:55Z</time>
      </trkpt>
      <trkpt lat="46.23201" lon="6.57341">
        <ele>1697.19</ele>
        <time>2024-12-27T12:52:00Z</time>
      </trkpt>
      <trkpt lat="46.2321" lon="6.57339">
        <ele>1696.258</ele>
        <time>2024-12-27T12:52:05Z</time>
      </trkpt>
      <trkpt lat="46.23216" lon="6.57335">
        <ele>1691.999</ele>
        <time>2024-12-27T12:52:10Z</time>
      </trkpt>
      <trkpt lat="46.23216" lon="6.57335">
        <ele>1690.265</ele>
        <time>2024-12-27T12:52:15Z</time>
      </trkpt>
      <trkpt lat="46.23216" lon="6.57335">
        <ele>1690.16</ele>
        <time>2024-12-27T12:52:20Z</time>
      </trkpt>
      <trkpt lat="46.23216" lon="6.57335">
        <ele>1689.359</ele>
        <time>2024-12-27T12:52:25Z</time>
      </trkpt>
      <trkpt lat="46.23216" lon="6.57335">
        <ele>1689.34</ele>
        <time>2024-12-27T12:52:30Z</time>
      </trkpt>
      <trkpt lat="46.23216" lon="6.57335">
        <ele>1689.333</ele>
        <time>2024-12-27T12:52:35Z</time>
      </trkpt>
      <trkpt lat="46.23216" lon="6.57335">
        <ele>1689.301</ele>
        <time>2024-12-27T12:52:40Z</time>
      </trkpt>
      <trkpt lat="46.23216" lon="6.57335">
        <ele>1686.834</ele>
        <time>2024-12-27T12:52:45Z</time>
      </trkpt>
      <trkpt lat="46.23216" lon="6.57335">
        <ele>1684.866</ele>
        <time>2024-12-27T12:52:50Z</time>
      </trkpt>
      <trkpt lat="46.23216" lon="6.57335">
        <ele>1679.443</ele>
        <time>2024-12-27T12:52:55Z</time>
      </trkpt>
      <trkpt lat="46.23225" lon="6.57331">
        <ele>1680.389</ele>
        <time>2024-12-27T12:53:00Z</time>
      </trkpt>
      <trkpt lat="46.23231" lon="6.57335">
        <ele>1677.124</ele>
        <time>2024-12-27T12:53:05Z</time>
      </trkpt>
      <trkpt lat="46.23246" lon="6.57342">
        <ele>1674.078</ele>
        <time>2024-12-27T12:53:10Z</time>
      </trkpt>
      <trkpt lat="46.23255" lon="6.57331">
        <ele>1667.142</ele>
        <time>2024-12-27T12:53:15Z</time>
      </trkpt>
      <trkpt lat="46.23256" lon="6.57331">
        <ele>1664.81</ele>
        <time>2024-12-27T12:53:20Z</time>
      </trkpt>
      <trkpt lat="46.2326" lon="6.57329">
        <ele>1663.051</ele>
        <time>2024-12-27T12:53:25Z</time>
      </trkpt>
      <trkpt lat="46.23276" lon="6.57312">
        <ele>1659.571</ele>
        <time>2024-12-27T12:53:30Z</time>
      </trkpt>
      <trkpt lat="46.23309" lon="6.57302">
        <ele>1654.312</ele>
        <time>2024-12-27T12:53:35Z</time>
      </trkpt>
      <trkpt lat="46.23328" lon="6.57307">
        <ele>1649.936</ele>
        <time>2024-12-27T12:53:40Z</time>
      </trkpt>
      <trkpt lat="46.23333" lon="6.57305">
        <ele>1649.399</ele>
        <time>2024-12-27T12:53:45Z</time>
      </trkpt>
      <trkpt lat="46.23334" lon="6.57304">
        <ele>1651.452</ele>
        <time>2024-12-27T12:53:50Z</time>
      </trkpt>
      <trkpt lat="46.23334" lon="6.57303">
        <ele>1650.596</ele>
        <time>2024-12-27T12:53:55Z</time>
      </trkpt>
      <trkpt lat="46.23334" lon="6.57303">
        <ele>1650.533</ele>
        <time>2024-12-27T12:54:00Z</time>
      </trkpt>
      <trkpt lat="46.23334" lon="6.57303">
        <ele>1650.783</ele>
        <time>2024-12-27T12:54:05Z</time>
      </trkpt>
      <trkpt lat="46.23334" lon="6.57303">
        <ele>1650.547</ele>
        <time>2024-12-27T12:54:10Z</time>
      </trkpt>
      <trkpt lat="46.23334" lon="6.57303">
        <ele>1650.553</ele>
        <time>2024-12-27T12:54:15Z</time>
      </trkpt>
      <trkpt lat="46.23334" lon="6.57303">
        <ele>1650.539</ele>
        <time>2024-12-27T12:54:20Z</time>
      </trkpt>
      <trkpt lat="46.23334" lon="6.57303">
        <ele>1650.534</ele>
        <time>2024-12-27T12:54:25Z</time>
      </trkpt>
      <trkpt lat="46.23334" lon="6.57303">
        <ele>1650.533</ele>
        <time>2024-12-27T12:54:30Z</time>
      </trkpt>
      <trkpt lat="46.23334" lon="6.57303">
        <ele>1650.519</ele>
        <time>2024-12-27T12:54:35Z</time>
      </trkpt>
      <trkpt lat="46.23334" lon="6.57303">
        <ele>1650.497</ele>
        <time>2024-12-27T12:54:40Z</time>
      </trkpt>
      <trkpt lat="46.23334" lon="6.57303">
        <ele>1650.481</ele>
        <time>2024-12-27T12:54:45Z</time>
      </trkpt>
      <trkpt lat="46.23334" lon="6.57303">
        <ele>1650.449</ele>
        <time>2024-12-27T12:54:50Z</time>
      </trkpt>
      <trkpt lat="46.23334" lon="6.57303">
        <ele>1650.436</ele>
        <time>2024-12-27T12:54:55Z</time>
      </trkpt>
      <trkpt lat="46.23334" lon="6.57303">
        <ele>1650.415</ele>
        <time>2024-12-27T12:55:00Z</time>
      </trkpt>
      <trkpt lat="46.23334" lon="6.57303">
        <ele>1650.401</ele>
        <time>2024-12-27T12:55:05Z</time>
      </trkpt>
      <trkpt lat="46.23334" lon="6.57303">
        <ele>1649.459</ele>
        <time>2024-12-27T12:55:10Z</time>
      </trkpt>
      <trkpt lat="46.23334" lon="6.57303">
        <ele>1649.506</ele>
        <time>2024-12-27T12:55:15Z</time>
      </trkpt>
      <trkpt lat="46.23334" lon="6.57303">
        <ele>1648.74</ele>
        <time>2024-12-27T12:55:20Z</time>
      </trkpt>
      <trkpt lat="46.23334" lon="6.57303">
        <ele>1649.123</ele>
        <time>2024-12-27T12:55:25Z</time>
      </trkpt>
      <trkpt lat="46.23334" lon="6.57303">
        <ele>1648.699</ele>
        <time>2024-12-27T12:55:30Z</time>
      </trkpt>
      <trkpt lat="46.23334" lon="6.57303">
        <ele>1648.563</ele>
        <time>2024-12-27T12:55:35Z</time>
      </trkpt>
      <trkpt lat="46.23334" lon="6.57303">
        <ele>1648.613</ele>
        <time>2024-12-27T12:55:40Z</time>
      </trkpt>
      <trkpt lat="46.23334" lon="6.57303">
        <ele>1648.611</ele>
        <time>2024-12-27T12:55:45Z</time>
      </trkpt>
      <trkpt lat="46.23334" lon="6.57303">
        <ele>1648.598</ele>
        <time>2024-12-27T12:55:50Z</time>
      </trkpt>
      <trkpt lat="46.23334" lon="6.57303">
        <ele>1648.695</ele>
        <time>2024-12-27T12:55:55Z</time>
      </trkpt>
      <trkpt lat="46.23329" lon="6.57308">
        <ele>1643.946</ele>
        <time>2024-12-27T12:56:00Z</time>
      </trkpt>
      <trkpt lat="46.23348" lon="6.57319">
        <ele>1641.618</ele>
        <time>2024-12-27T12:56:05Z</time>
      </trkpt>
      <trkpt lat="46.23369" lon="6.5733">
        <ele>1637.361</ele>
        <time>2024-12-27T12:56:10Z</time>
      </trkpt>
      <trkpt lat="46.23389" lon="6.57351">
        <ele>1634.817</ele>
        <time>2024-12-27T12:56:15Z</time>
      </trkpt>
      <trkpt lat="46.23411" lon="6.57357">
        <ele>1631.619</ele>
        <time>2024-12-27T12:56:20Z</time>
      </trkpt>
      <trkpt lat="46.23423" lon="6.57364">
        <ele>1631.094</ele>
        <time>2024-12-27T12:56:25Z</time>
      </trkpt>
      <trkpt lat="46.23426" lon="6.57347">
        <ele>1629.953</ele>
        <time>2024-12-27T12:56:30Z</time>
      </trkpt>
      <trkpt lat="46.23428" lon="6.57328">
        <ele>1631.616</ele>
        <time>2024-12-27T12:56:35Z</time>
      </trkpt>
      <trkpt lat="46.23427" lon="6.5731">
        <ele>1632.304</ele>
        <time>2024-12-27T12:56:40Z</time>
      </trkpt>
      <trkpt lat="46.23426" lon="6.57288">
        <ele>1637.279</ele>
        <time>2024-12-27T12:56:45Z</time>
      </trkpt>
      <trkpt lat="46.2342" lon="6.57263">
        <ele>1636.135</ele>
        <time>2024-12-27T12:56:50Z</time>
      </trkpt>
      <trkpt lat="46.23419" lon="6.57242">
        <ele>1630.827</ele>
        <time>2024-12-27T12:56:55Z</time>
      </trkpt>
      <trkpt lat="46.2342" lon="6.57219">
        <ele>1630.997</ele>
        <time>2024-12-27T12:57:00Z</time>
      </trkpt>
      <trkpt lat="46.2342" lon="6.57197">
        <ele>1630.427</ele>
        <time>2024-12-27T12:57:05Z</time>
      </trkpt>
      <trkpt lat="46.23416" lon="6.57176">
        <ele>1627.493</ele>
        <time>2024-12-27T12:57:10Z</time>
      </trkpt>
      <trkpt lat="46.23416" lon="6.57176">
        <ele>1628.972</ele>
        <time>2024-12-27T12:57:15Z</time>
      </trkpt>
      <trkpt lat="46.23416" lon="6.57176">
        <ele>1629.681</ele>
        <time>2024-12-27T12:57:20Z</time>
      </trkpt>
      <trkpt lat="46.23415" lon="6.57173">
        <ele>1625.737</ele>
        <time>2024-12-27T12:57:25Z</time>
      </trkpt>
      <trkpt lat="46.23409" lon="6.57163">
        <ele>1620.181</ele>
        <time>2024-12-27T12:57:30Z</time>
      </trkpt>
      <trkpt lat="46.23395" lon="6.57129">
        <ele>1618.307</ele>
        <time>2024-12-27T12:57:35Z</time>
      </trkpt>
      <trkpt lat="46.23386" lon="6.5709">
        <ele>1620.899</ele>
        <time>2024-12-27T12:57:40Z</time>
      </trkpt>
      <trkpt lat="46.23377" lon="6.57062">
        <ele>1621.845</ele>
        <time>2024-12-27T12:57:45Z</time>
      </trkpt>
      <trkpt lat="46.23372" lon="6.57039">
        <ele>1621.008</ele>
        <time>2024-12-27T12:57:50Z</time>
      </trkpt>
      <trkpt lat="46.23366" lon="6.57011">
        <ele>1618.838</ele>
        <time>2024-12-27T12:57:55Z</time>
      </trkpt>
      <trkpt lat="46.2336" lon="6.56993">
        <ele>1620.447</ele>
        <time>2024-12-27T12:58:00Z</time>
      </trkpt>
      <trkpt lat="46.2336" lon="6.56982">
        <ele>1622.128</ele>
        <time>2024-12-27T12:58:05Z</time>
      </trkpt>
      <trkpt lat="46.23361" lon="6.56981">
        <ele>1620.123</ele>
        <time>2024-12-27T12:58:10Z</time>
      </trkpt>
      <trkpt lat="46.2336" lon="6.5698">
        <ele>1617.495</ele>
        <time>2024-12-27T12:58:15Z</time>
      </trkpt>
      <trkpt lat="46.2336" lon="6.5698">
        <ele>1615.66</ele>
        <time>2024-12-27T12:58:20Z</time>
      </trkpt>
      <trkpt lat="46.2336" lon="6.5698">
        <ele>1615.564</ele>
        <time>2024-12-27T12:58:25Z</time>
      </trkpt>
      <trkpt lat="46.23357" lon="6.56963">
        <ele>1612.473</ele>
        <time>2024-12-27T12:58:30Z</time>
      </trkpt>
      <trkpt lat="46.23358" lon="6.5695">
        <ele>1613.21</ele>
        <time>2024-12-27T12:58:35Z</time>
      </trkpt>
      <trkpt lat="46.23357" lon="6.56945">
        <ele>1609.062</ele>
        <time>2024-12-27T12:58:40Z</time>
      </trkpt>
      <trkpt lat="46.23355" lon="6.56944">
        <ele>1605.833</ele>
        <time>2024-12-27T12:58:45Z</time>
      </trkpt>
      <trkpt lat="46.23354" lon="6.56944">
        <ele>1605.991</ele>
        <time>2024-12-27T12:58:50Z</time>
      </trkpt>
      <trkpt lat="46.23353" lon="6.5694">
        <ele>1607.577</ele>
        <time>2024-12-27T12:58:55Z</time>
      </trkpt>
      <trkpt lat="46.23353" lon="6.56923">
        <ele>1608.619</ele>
        <time>2024-12-27T12:59:00Z</time>
      </trkpt>
      <trkpt lat="46.23355" lon="6.56906">
        <ele>1607.888</ele>
        <time>2024-12-27T12:59:05Z</time>
      </trkpt>
      <trkpt lat="46.23354" lon="6.56902">
        <ele>1603.997</ele>
        <time>2024-12-27T12:59:10Z</time>
      </trkpt>
      <trkpt lat="46.23352" lon="6.56896">
        <ele>1602.579</ele>
        <time>2024-12-27T12:59:15Z</time>
      </trkpt>
      <trkpt lat="46.23351" lon="6.56888">
        <ele>1600.78</ele>
        <time>2024-12-27T12:59:20Z</time>
      </trkpt>
      <trkpt lat="46.23351" lon="6.56875">
        <ele>1597.489</ele>
        <time>2024-12-27T12:59:25Z</time>
      </trkpt>
      <trkpt lat="46.23359" lon="6.56867">
        <ele>1593.355</ele>
        <time>2024-12-27T12:59:30Z</time>
      </trkpt>
      <trkpt lat="46.23367" lon="6.56857">
        <ele>1587.774</ele>
        <time>2024-12-27T12:59:35Z</time>
      </trkpt>
      <trkpt lat="46.23377" lon="6.56855">
        <ele>1586.6</ele>
        <time>2024-12-27T12:59:40Z</time>
      </trkpt>
      <trkpt lat="46.23387" lon="6.56856">
        <ele>1585.288</ele>
        <time>2024-12-27T12:59:45Z</time>
      </trkpt>
      <trkpt lat="46.2339" lon="6.56859">
        <ele>1585.945</ele>
        <time>2024-12-27T12:59:50Z</time>
      </trkpt>
      <trkpt lat="46.234" lon="6.56852">
        <ele>1583.823</ele>
        <time>2024-12-27T12:59:55Z</time>
      </trkpt>
      <trkpt lat="46.23398" lon="6.56821">
        <ele>1583.074</ele>
        <time>2024-12-27T13:00:00Z</time>
      </trkpt>
      <trkpt lat="46.2339" lon="6.56799">
        <ele>1588.362</ele>
        <time>2024-12-27T13:00:05Z</time>
      </trkpt>
      <trkpt lat="46.23385" lon="6.56786">
        <ele>1589.031</ele>
        <time>2024-12-27T13:00:10Z</time>
      </trkpt>
      <trkpt lat="46.23383" lon="6.56784">
        <ele>1586.977</ele>
        <time>2024-12-27T13:00:15Z</time>
      </trkpt>
      <trkpt lat="46.23383" lon="6.56785">
        <ele>1585.058</ele>
        <time>2024-12-27T13:00:20Z</time>
      </trkpt>
      <trkpt lat="46.23382" lon="6.56784">
        <ele>1583.851</ele>
        <time>2024-12-27T13:00:25Z</time>
      </trkpt>
      <trkpt lat="46.23382" lon="6.56784">
        <ele>1583.988</ele>
        <time>2024-12-27T13:00:30Z</time>
      </trkpt>
      <trkpt lat="46.23381" lon="6.56784">
        <ele>1582.876</ele>
        <time>2024-12-27T13:00:35Z</time>
      </trkpt>
      <trkpt lat="46.2338" lon="6.56784">
        <ele>1581.122</ele>
        <time>2024-12-27T13:00:40Z</time>
      </trkpt>
      <trkpt lat="46.2338" lon="6.56785">
        <ele>1580.712</ele>
        <time>2024-12-27T13:00:45Z</time>
      </trkpt>
      <trkpt lat="46.2338" lon="6.56785">
        <ele>1580.716</ele>
        <time>2024-12-27T13:00:50Z</time>
      </trkpt>
      <trkpt lat="46.2338" lon="6.56785">
        <ele>1580.711</ele>
        <time>2024-12-27T13:00:55Z</time>
      </trkpt>
      <trkpt lat="46.2338" lon="6.56785">
        <ele>1580.797</ele>
        <time>2024-12-27T13:01:00Z</time>
      </trkpt>
      <trkpt lat="46.2338" lon="6.56785">
        <ele>1580.784</ele>
        <time>2024-12-27T13:01:05Z</time>
      </trkpt>
      <trkpt lat="46.2338" lon="6.56785">
        <ele>1579.725</ele>
        <time>2024-12-27T13:01:10Z</time>
      </trkpt>
      <trkpt lat="46.23381" lon="6.56781">
        <ele>1582.184</ele>
        <time>2024-12-27T13:01:15Z</time>
      </trkpt>
      <trkpt lat="46.23378" lon="6.56772">
        <ele>1584.22</ele>
        <time>2024-12-27T13:01:20Z</time>
      </trkpt>
      <trkpt lat="46.23372" lon="6.56764">
        <ele>1584.202</ele>
        <time>2024-12-27T13:01:25Z</time>
      </trkpt>
      <trkpt lat="46.23369" lon="6.56755">
        <ele>1583.745</ele>
        <time>2024-12-27T13:01:30Z</time>
      </trkpt>
      <trkpt lat="46.23369" lon="6.56755">
        <ele>1584.951</ele>
        <time>2024-12-27T13:01:35Z</time>
      </trkpt>
      <trkpt lat="46.23369" lon="6.56755">
        <ele>1585.651</ele>
        <time>2024-12-27T13:01:40Z</time>
      </trkpt>
      <trkpt lat="46.23371" lon="6.56749">
        <ele>1585.782</ele>
        <time>2024-12-27T13:01:45Z</time>
      </trkpt>
      <trkpt lat="46.23373" lon="6.56739">
        <ele>1583.129</ele>
        <time>2024-12-27T13:01:50Z</time>
      </trkpt>
      <trkpt lat="46.23375" lon="6.56722">
        <ele>1579.312</ele>
        <time>2024-12-27T13:01:55Z</time>
      </trkpt>
      <trkpt lat="46.23373" lon="6.56705">
        <ele>1575.366</ele>
        <time>2024-12-27T13:02:00Z</time>
      </trkpt>
      <trkpt lat="46.23376" lon="6.56697">
        <ele>1575.64</ele>
        <time>2024-12-27T13:02:05Z</time>
      </trkpt>
      <trkpt lat="46.23377" lon="6.56686">
        <ele>1570.28</ele>
        <time>2024-12-27T13:02:10Z</time>
      </trkpt>
      <trkpt lat="46.23386" lon="6.56669">
        <ele>1561.1</ele>
        <time>2024-12-27T13:02:15Z</time>
      </trkpt>
      <trkpt lat="46.23401" lon="6.56629">
        <ele>1554.204</ele>
        <time>2024-12-27T13:02:20Z</time>
      </trkpt>
      <trkpt lat="46.23412" lon="6.56588">
        <ele>1553.721</ele>
        <time>2024-12-27T13:02:25Z</time>
      </trkpt>
      <trkpt lat="46.23414" lon="6.56582">
        <ele>1551.71</ele>
        <time>2024-12-27T13:02:30Z</time>
      </trkpt>
      <trkpt lat="46.23413" lon="6.5658">
        <ele>1550.279</ele>
        <time>2024-12-27T13:02:35Z</time>
      </trkpt>
      <trkpt lat="46.23413" lon="6.56579">
        <ele>1548.272</ele>
        <time>2024-12-27T13:02:40Z</time>
      </trkpt>
      <trkpt lat="46.23413" lon="6.56578">
        <ele>1547.551</ele>
        <time>2024-12-27T13:02:45Z</time>
      </trkpt>
      <trkpt lat="46.23413" lon="6.56577">
        <ele>1548.685</ele>
        <time>2024-12-27T13:02:50Z</time>
      </trkpt>
      <trkpt lat="46.23414" lon="6.56574">
        <ele>1547.778</ele>
        <time>2024-12-27T13:02:55Z</time>
      </trkpt>
      <trkpt lat="46.23413" lon="6.56572">
        <ele>1547.132</ele>
        <time>2024-12-27T13:03:00Z</time>
      </trkpt>
      <trkpt lat="46.23413" lon="6.56572">
        <ele>1546.482</ele>
        <time>2024-12-27T13:03:05Z</time>
      </trkpt>
      <trkpt lat="46.23413" lon="6.56572">
        <ele>1546.151</ele>
        <time>2024-12-27T13:03:10Z</time>
      </trkpt>
      <trkpt lat="46.23414" lon="6.56569">
        <ele>1547.695</ele>
        <time>2024-12-27T13:03:15Z</time>
      </trkpt>
      <trkpt lat="46.23414" lon="6.56563">
        <ele>1549.804</ele>
        <time>2024-12-27T13:03:20Z</time>
      </trkpt>
      <trkpt lat="46.23414" lon="6.56558">
        <ele>1549.881</ele>
        <time>2024-12-27T13:03:25Z</time>
      </trkpt>
      <trkpt lat="46.23412" lon="6.56555">
        <ele>1550.395</ele>
        <time>2024-12-27T13:03:30Z</time>
      </trkpt>
      <trkpt lat="46.23412" lon="6.56552">
        <ele>1550.639</ele>
        <time>2024-12-27T13:03:35Z</time>
      </trkpt>
      <trkpt lat="46.23413" lon="6.5655">
        <ele>1551.648</ele>
        <time>2024-12-27T13:03:40Z</time>
      </trkpt>
      <trkpt lat="46.23413" lon="6.56547">
        <ele>1551.591</ele>
        <time>2024-12-27T13:03:45Z</time>
      </trkpt>
      <trkpt lat="46.23412" lon="6.56545">
        <ele>1550.564</ele>
        <time>2024-12-27T13:03:50Z</time>
      </trkpt>
      <trkpt lat="46.23411" lon="6.56543">
        <ele>1550.508</ele>
        <time>2024-12-27T13:03:55Z</time>
      </trkpt>
      <trkpt lat="46.2341" lon="6.5654">
        <ele>1550.878</ele>
        <time>2024-12-27T13:04:00Z</time>
      </trkpt>
      <trkpt lat="46.23411" lon="6.56538">
        <ele>1553.415</ele>
        <time>2024-12-27T13:04:05Z</time>
      </trkpt>
      <trkpt lat="46.23409" lon="6.56536">
        <ele>1555.259</ele>
        <time>2024-12-27T13:04:10Z</time>
      </trkpt>
      <trkpt lat="46.23409" lon="6.56534">
        <ele>1555.353</ele>
        <time>2024-12-27T13:04:15Z</time>
      </trkpt>
      <trkpt lat="46.23409" lon="6.56532">
        <ele>1556.367</ele>
        <time>2024-12-27T13:04:20Z</time>
      </trkpt>
      <trkpt lat="46.23408" lon="6.5653">
        <ele>1556.201</ele>
        <time>2024-12-27T13:04:25Z</time>
      </trkpt>
      <trkpt lat="46.23408" lon="6.56528">
        <ele>1556.706</ele>
        <time>2024-12-27T13:04:30Z</time>
      </trkpt>
      <trkpt lat="46.23406" lon="6.56528">
        <ele>1556.471</ele>
        <time>2024-12-27T13:04:35Z</time>
      </trkpt>
      <trkpt lat="46.23405" lon="6.56527">
        <ele>1556.185</ele>
        <time>2024-12-27T13:04:40Z</time>
      </trkpt>
      <trkpt lat="46.23404" lon="6.56525">
        <ele>1556.652</ele>
        <time>2024-12-27T13:04:45Z</time>
      </trkpt>
      <trkpt lat="46.23403" lon="6.56523">
        <ele>1558.396</ele>
        <time>2024-12-27T13:04:50Z</time>
      </trkpt>
      <trkpt lat="46.23403" lon="6.56521">
        <ele>1560.952</ele>
        <time>2024-12-27T13:04:55Z</time>
      </trkpt>
      <trkpt lat="46.23402" lon="6.56518">
        <ele>1560.999</ele>
        <time>2024-12-27T13:05:00Z</time>
      </trkpt>
      <trkpt lat="46.23402" lon="6.56516">
        <ele>1561.705</ele>
        <time>2024-12-27T13:05:05Z</time>
      </trkpt>
      <trkpt lat="46.23402" lon="6.56514">
        <ele>1563.539</ele>
        <time>2024-12-27T13:05:10Z</time>
      </trkpt>
      <trkpt lat="46.23402" lon="6.56512">
        <ele>1563.316</ele>
        <time>2024-12-27T13:05:15Z</time>
      </trkpt>
      <trkpt lat="46.23403" lon="6.56511">
        <ele>1563.401</ele>
        <time>2024-12-27T13:05:20Z</time>
      </trkpt>
      <trkpt lat="46.23403" lon="6.56509">
        <ele>1564.162</ele>
        <time>2024-12-27T13:05:25Z</time>
      </trkpt>
      <trkpt lat="46.23403" lon="6.56508">
        <ele>1565.278</ele>
        <time>2024-12-27T13:05:30Z</time>
      </trkpt>
      <trkpt lat="46.23402" lon="6.56506">
        <ele>1567.768</ele>
        <time>2024-12-27T13:05:35Z</time>
      </trkpt>
      <trkpt lat="46.23401" lon="6.56505">
        <ele>1570.333</ele>
        <time>2024-12-27T13:05:40Z</time>
      </trkpt>
      <trkpt lat="46.234" lon="6.56503">
        <ele>1570.314</ele>
        <time>2024-12-27T13:05:45Z</time>
      </trkpt>
      <trkpt lat="46.23399" lon="6.56501">
        <ele>1571.228</ele>
        <time>2024-12-27T13:05:50Z</time>
      </trkpt>
      <trkpt lat="46.23398" lon="6.56499">
        <ele>1572.568</ele>
        <time>2024-12-27T13:05:55Z</time>
      </trkpt>
      <trkpt lat="46.23398" lon="6.56495">
        <ele>1572.561</ele>
        <time>2024-12-27T13:06:00Z</time>
      </trkpt>
      <trkpt lat="46.23398" lon="6.56492">
        <ele>1572.928</ele>
        <time>2024-12-27T13:06:05Z</time>
      </trkpt>
      <trkpt lat="46.23399" lon="6.56488">
        <ele>1573.285</ele>
        <time>2024-12-27T13:06:10Z</time>
      </trkpt>
      <trkpt lat="46.23399" lon="6.56484">
        <ele>1574.16</ele>
        <time>2024-12-27T13:06:15Z</time>
      </trkpt>
      <trkpt lat="46.23399" lon="6.56481">
        <ele>1575.075</ele>
        <time>2024-12-27T13:06:20Z</time>
      </trkpt>
      <trkpt lat="46.23399" lon="6.56478">
        <ele>1576.163</ele>
        <time>2024-12-27T13:06:25Z</time>
      </trkpt>
      <trkpt lat="46.23399" lon="6.56475">
        <ele>1575.747</ele>
        <time>2024-12-27T13:06:30Z</time>
      </trkpt>
      <trkpt lat="46.23399" lon="6.56473">
        <ele>1576.466</ele>
        <time>2024-12-27T13:06:35Z</time>
      </trkpt>
      <trkpt lat="46.23399" lon="6.5647">
        <ele>1576.372</ele>
        <time>2024-12-27T13:06:40Z</time>
      </trkpt>
      <trkpt lat="46.23397" lon="6.56468">
        <ele>1576.151</ele>
        <time>2024-12-27T13:06:45Z</time>
      </trkpt>
      <trkpt lat="46.23396" lon="6.56465">
        <ele>1576.512</ele>
        <time>2024-12-27T13:06:50Z</time>
      </trkpt>
      <trkpt lat="46.23394" lon="6.56462">
        <ele>1575.806</ele>
        <time>2024-12-27T13:06:55Z</time>
      </trkpt>
      <trkpt lat="46.23393" lon="6.56458">
        <ele>1576.95</ele>
        <time>2024-12-27T13:07:00Z</time>
      </trkpt>
      <trkpt lat="46.23391" lon="6.56454">
        <ele>1578.494</ele>
        <time>2024-12-27T13:07:05Z</time>
      </trkpt>
      <trkpt lat="46.2339" lon="6.5645">
        <ele>1580.044</ele>
        <time>2024-12-27T13:07:10Z</time>
      </trkpt>
      <trkpt lat="46.23388" lon="6.56446">
        <ele>1580.754</ele>
        <time>2024-12-27T13:07:15Z</time>
      </trkpt>
      <trkpt lat="46.23387" lon="6.56442">
        <ele>1579.832</ele>
        <time>2024-12-27T13:07:20Z</time>
      </trkpt>
      <trkpt lat="46.23386" lon="6.56438">
        <ele>1579.256</ele>
        <time>2024-12-27T13:07:25Z</time>
      </trkpt>
      <trkpt lat="46.23384" lon="6.56435">
        <ele>1578.193</ele>
        <time>2024-12-27T13:07:30Z</time>
      </trkpt>
      <trkpt lat="46.23382" lon="6.56432">
        <ele>1578.146</ele>
        <time>2024-12-27T13:07:35Z</time>
      </trkpt>
      <trkpt lat="46.2338" lon="6.56428">
        <ele>1578.56</ele>
        <time>2024-12-27T13:07:40Z</time>
      </trkpt>
      <trkpt lat="46.23378" lon="6.56424">
        <ele>1579.054</ele>
        <time>2024-12-27T13:07:45Z</time>
      </trkpt>
      <trkpt lat="46.23376" lon="6.5642">
        <ele>1579.218</ele>
        <time>2024-12-27T13:07:50Z</time>
      </trkpt>
      <trkpt lat="46.23375" lon="6.56415">
        <ele>1580.333</ele>
        <time>2024-12-27T13:07:55Z</time>
      </trkpt>
      <trkpt lat="46.23374" lon="6.56411">
        <ele>1578.731</ele>
        <time>2024-12-27T13:08:00Z</time>
      </trkpt>
      <trkpt lat="46.23372" lon="6.56408">
        <ele>1577.882</ele>
        <time>2024-12-27T13:08:05Z</time>
      </trkpt>
      <trkpt lat="46.2337" lon="6.56405">
        <ele>1577.668</ele>
        <time>2024-12-27T13:08:10Z</time>
      </trkpt>
      <trkpt lat="46.23368" lon="6.56402">
        <ele>1577.608</ele>
        <time>2024-12-27T13:08:15Z</time>
      </trkpt>
      <trkpt lat="46.23367" lon="6.56399">
        <ele>1577.977</ele>
        <time>2024-12-27T13:08:20Z</time>
      </trkpt>
      <trkpt lat="46.23364" lon="6.56395">
        <ele>1578.481</ele>
        <time>2024-12-27T13:08:25Z</time>
      </trkpt>
      <trkpt lat="46.23362" lon="6.56392">
        <ele>1578.07</ele>
        <time>2024-12-27T13:08:30Z</time>
      </trkpt>
      <trkpt lat="46.2336" lon="6.56388">
        <ele>1578.911</ele>
        <time>2024-12-27T13:08:35Z</time>
      </trkpt>
      <trkpt lat="46.23358" lon="6.56386">
        <ele>1577.805</ele>
        <time>2024-12-27T13:08:40Z</time>
      </trkpt>
      <trkpt lat="46.23356" lon="6.56381">
        <ele>1578.139</ele>
        <time>2024-12-27T13:08:45Z</time>
      </trkpt>
      <trkpt lat="46.23355" lon="6.56377">
        <ele>1578.328</ele>
        <time>2024-12-27T13:08:50Z</time>
      </trkpt>
      <trkpt lat="46.23354" lon="6.56373">
        <ele>1580.442</ele>
        <time>2024-12-27T13:08:55Z</time>
      </trkpt>
      <trkpt lat="46.23351" lon="6.56369">
        <ele>1579.694</ele>
        <time>2024-12-27T13:09:00Z</time>
      </trkpt>
      <trkpt lat="46.23349" lon="6.56367">
        <ele>1576.961</ele>
        <time>2024-12-27T13:09:05Z</time>
      </trkpt>
      <trkpt lat="46.23346" lon="6.56363">
        <ele>1577.175</ele>
        <time>2024-12-27T13:09:10Z</time>
      </trkpt>
      <trkpt lat="46.23345" lon="6.56359">
        <ele>1576.086</ele>
        <time>2024-12-27T13:09:15Z</time>
      </trkpt>
      <trkpt lat="46.23343" lon="6.56356">
        <ele>1576.567</ele>
        <time>2024-12-27T13:09:20Z</time>
      </trkpt>
      <trkpt lat="46.23341" lon="6.56352">
        <ele>1576.741</ele>
        <time>2024-12-27T13:09:25Z</time>
      </trkpt>
      <trkpt lat="46.2334" lon="6.56349">
        <ele>1576.182</ele>
        <time>2024-12-27T13:09:30Z</time>
      </trkpt>
      <trkpt lat="46.23338" lon="6.56347">
        <ele>1577.488</ele>
        <time>2024-12-27T13:09:35Z</time>
      </trkpt>
      <trkpt lat="46.23335" lon="6.56345">
        <ele>1577.551</ele>
        <time>2024-12-27T13:09:40Z</time>
      </trkpt>
      <trkpt lat="46.23334" lon="6.56341">
        <ele>1579.506</ele>
        <time>2024-12-27T13:09:45Z</time>
      </trkpt>
      <trkpt lat="46.23333" lon="6.56337">
        <ele>1579.897</ele>
        <time>2024-12-27T13:09:50Z</time>
      </trkpt>
      <trkpt lat="46.23331" lon="6.56333">
        <ele>1579.612</ele>
        <time>2024-12-27T13:09:55Z</time>
      </trkpt>
      <trkpt lat="46.23329" lon="6.5633">
        <ele>1579.008</ele>
        <time>2024-12-27T13:10:00Z</time>
      </trkpt>
      <trkpt lat="46.23329" lon="6.56328">
        <ele>1578.413</ele>
        <time>2024-12-27T13:10:05Z</time>
      </trkpt>
      <trkpt lat="46.23329" lon="6.56328">
        <ele>1578.418</ele>
        <time>2024-12-27T13:10:10Z</time>
      </trkpt>
      <trkpt lat="46.23329" lon="6.56328">
        <ele>1578.405</ele>
        <time>2024-12-27T13:10:15Z</time>
      </trkpt>
      <trkpt lat="46.23329" lon="6.56327">
        <ele>1578.392</ele>
        <time>2024-12-27T13:10:20Z</time>
      </trkpt>
      <trkpt lat="46.23329" lon="6.56327">
        <ele>1578.392</ele>
        <time>2024-12-27T13:10:25Z</time>
      </trkpt>
      <trkpt lat="46.23329" lon="6.56327">
        <ele>1578.39</ele>
        <time>2024-12-27T13:10:30Z</time>
      </trkpt>
      <trkpt lat="46.23329" lon="6.56326">
        <ele>1577.993</ele>
        <time>2024-12-27T13:10:35Z</time>
      </trkpt>
      <trkpt lat="46.23329" lon="6.56326">
        <ele>1577.982</ele>
        <time>2024-12-27T13:10:40Z</time>
      </trkpt>
      <trkpt lat="46.23329" lon="6.56326">
        <ele>1577.974</ele>
        <time>2024-12-27T13:10:45Z</time>
      </trkpt>
      <trkpt lat="46.23329" lon="6.56326">
        <ele>1577.972</ele>
        <time>2024-12-27T13:10:50Z</time>
      </trkpt>
      <trkpt lat="46.23329" lon="6.56326">
        <ele>1577.966</ele>
        <time>2024-12-27T13:10:55Z</time>
      </trkpt>
      <trkpt lat="46.23329" lon="6.56326">
        <ele>1577.959</ele>
        <time>2024-12-27T13:11:00Z</time>
      </trkpt>
      <trkpt lat="46.23329" lon="6.56326">
        <ele>1577.955</ele>
        <time>2024-12-27T13:11:05Z</time>
      </trkpt>
      <trkpt lat="46.23329" lon="6.56326">
        <ele>1577.949</ele>
        <time>2024-12-27T13:11:10Z</time>
      </trkpt>
      <trkpt lat="46.23329" lon="6.56326">
        <ele>1577.941</ele>
        <time>2024-12-27T13:11:15Z</time>
      </trkpt>
      <trkpt lat="46.23329" lon="6.56326">
        <ele>1577.937</ele>
        <time>2024-12-27T13:11:20Z</time>
      </trkpt>
      <trkpt lat="46.23329" lon="6.56326">
        <ele>1577.717</ele>
        <time>2024-12-27T13:11:25Z</time>
      </trkpt>
      <trkpt lat="46.23329" lon="6.56326">
        <ele>1577.714</ele>
        <time>2024-12-27T13:11:30Z</time>
      </trkpt>
      <trkpt lat="46.23329" lon="6.56326">
        <ele>1577.712</ele>
        <time>2024-12-27T13:11:35Z</time>
      </trkpt>
      <trkpt lat="46.23329" lon="6.56326">
        <ele>1577.707</ele>
        <time>2024-12-27T13:11:40Z</time>
      </trkpt>
      <trkpt lat="46.23329" lon="6.56326">
        <ele>1577.7</ele>
        <time>2024-12-27T13:11:45Z</time>
      </trkpt>
      <trkpt lat="46.23329" lon="6.56326">
        <ele>1577.699</ele>
        <time>2024-12-27T13:11:50Z</time>
      </trkpt>
      <trkpt lat="46.23329" lon="6.56325">
        <ele>1577.577</ele>
        <time>2024-12-27T13:11:55Z</time>
      </trkpt>
      <trkpt lat="46.23328" lon="6.56322">
        <ele>1578.133</ele>
        <time>2024-12-27T13:12:00Z</time>
      </trkpt>
      <trkpt lat="46.23327" lon="6.56318">
        <ele>1577.94</ele>
        <time>2024-12-27T13:12:05Z</time>
      </trkpt>
      <trkpt lat="46.23325" lon="6.56313">
        <ele>1577.695</ele>
        <time>2024-12-27T13:12:10Z</time>
      </trkpt>
      <trkpt lat="46.23321" lon="6.56309">
        <ele>1577.398</ele>
        <time>2024-12-27T13:12:15Z</time>
      </trkpt>
      <trkpt lat="46.2332" lon="6.56305">
        <ele>1578.741</ele>
        <time>2024-12-27T13:12:20Z</time>
      </trkpt>
      <trkpt lat="46.23318" lon="6.563">
        <ele>1578.83</ele>
        <time>2024-12-27T13:12:25Z</time>
      </trkpt>
      <trkpt lat="46.23318" lon="6.56296">
        <ele>1579.317</ele>
        <time>2024-12-27T13:12:30Z</time>
      </trkpt>
      <trkpt lat="46.23318" lon="6.56296">
        <ele>1579.294</ele>
        <time>2024-12-27T13:12:35Z</time>
      </trkpt>
      <trkpt lat="46.23316" lon="6.56292">
        <ele>1578.185</ele>
        <time>2024-12-27T13:12:40Z</time>
      </trkpt>
      <trkpt lat="46.23314" lon="6.56287">
        <ele>1577.121</ele>
        <time>2024-12-27T13:12:45Z</time>
      </trkpt>
      <trkpt lat="46.23313" lon="6.56281">
        <ele>1578.011</ele>
        <time>2024-12-27T13:12:50Z</time>
      </trkpt>
      <trkpt lat="46.2331" lon="6.56275">
        <ele>1578.02</ele>
        <time>2024-12-27T13:12:55Z</time>
      </trkpt>
      <trkpt lat="46.23309" lon="6.5627">
        <ele>1578.752</ele>
        <time>2024-12-27T13:13:00Z</time>
      </trkpt>
      <trkpt lat="46.23307" lon="6.56262">
        <ele>1579.562</ele>
        <time>2024-12-27T13:13:05Z</time>
      </trkpt>
      <trkpt lat="46.23304" lon="6.56254">
        <ele>1579.623</ele>
        <time>2024-12-27T13:13:10Z</time>
      </trkpt>
      <trkpt lat="46.23299" lon="6.56238">
        <ele>1578.067</ele>
        <time>2024-12-27T13:13:15Z</time>
      </trkpt>
      <trkpt lat="46.23292" lon="6.56211">
        <ele>1583.811</ele>
        <time>2024-12-27T13:13:20Z</time>
      </trkpt>
      <trkpt lat="46.23288" lon="6.56171">
        <ele>1578.506</ele>
        <time>2024-12-27T13:13:25Z</time>
      </trkpt>
      <trkpt lat="46.23288" lon="6.56131">
        <ele>1575.032</ele>
        <time>2024-12-27T13:13:30Z</time>
      </trkpt>
      <trkpt lat="46.23289" lon="6.56095">
        <ele>1571.446</ele>
        <time>2024-12-27T13:13:35Z</time>
      </trkpt>
      <trkpt lat="46.23286" lon="6.56062">
        <ele>1565.761</ele>
        <time>2024-12-27T13:13:40Z</time>
      </trkpt>
      <trkpt lat="46.23285" lon="6.56029">
        <ele>1560.461</ele>
        <time>2024-12-27T13:13:45Z</time>
      </trkpt>
      <trkpt lat="46.23286" lon="6.55997">
        <ele>1558.593</ele>
        <time>2024-12-27T13:13:50Z</time>
      </trkpt>
      <trkpt lat="46.23286" lon="6.55961">
        <ele>1554.301</ele>
        <time>2024-12-27T13:13:55Z</time>
      </trkpt>
      <trkpt lat="46.23287" lon="6.55926">
        <ele>1548.953</ele>
        <time>2024-12-27T13:14:00Z</time>
      </trkpt>
      <trkpt lat="46.23287" lon="6.55898">
        <ele>1545.42</ele>
        <time>2024-12-27T13:14:05Z</time>
      </trkpt>
      <trkpt lat="46.23303" lon="6.55864">
        <ele>1537.596</ele>
        <time>2024-12-27T13:14:10Z</time>
      </trkpt>
      <trkpt lat="46.23318" lon="6.55836">
        <ele>1536.616</ele>
        <time>2024-12-27T13:14:15Z</time>
      </trkpt>
      <trkpt lat="46.2333" lon="6.55809">
        <ele>1532.682</ele>
        <time>2024-12-27T13:14:20Z</time>
      </trkpt>
      <trkpt lat="46.2334" lon="6.55782">
        <ele>1526.607</ele>
        <time>2024-12-27T13:14:25Z</time>
      </trkpt>
      <trkpt lat="46.23356" lon="6.55753">
        <ele>1521.875</ele>
        <time>2024-12-27T13:14:30Z</time>
      </trkpt>
      <trkpt lat="46.23377" lon="6.55721">
        <ele>1517.327</ele>
        <time>2024-12-27T13:14:35Z</time>
      </trkpt>
      <trkpt lat="46.23398" lon="6.5569">
        <ele>1513.697</ele>
        <time>2024-12-27T13:14:40Z</time>
      </trkpt>
      <trkpt lat="46.23414" lon="6.55657">
        <ele>1512.859</ele>
        <time>2024-12-27T13:14:45Z</time>
      </trkpt>
      <trkpt lat="46.23425" lon="6.55638">
        <ele>1508.752</ele>
        <time>2024-12-27T13:14:50Z</time>
      </trkpt>
      <trkpt lat="46.23437" lon="6.55614">
        <ele>1500.246</ele>
        <time>2024-12-27T13:14:55Z</time>
      </trkpt>
      <trkpt lat="46.23448" lon="6.55586">
        <ele>1493.335</ele>
        <time>2024-12-27T13:15:00Z</time>
      </trkpt>
      <trkpt lat="46.23451" lon="6.55573">
        <ele>1492.063</ele>
        <time>2024-12-27T13:15:05Z</time>
      </trkpt>
      <trkpt lat="46.23447" lon="6.5557">
        <ele>1491.839</ele>
        <time>2024-12-27T13:15:10Z</time>
      </trkpt>
      <trkpt lat="46.23447" lon="6.5557">
        <ele>1491.222</ele>
        <time>2024-12-27T13:15:15Z</time>
      </trkpt>
      <trkpt lat="46.23447" lon="6.55571">
        <ele>1490.987</ele>
        <time>2024-12-27T13:15:20Z</time>
      </trkpt>
      <trkpt lat="46.23446" lon="6.55571">
        <ele>1490.215</ele>
        <time>2024-12-27T13:15:25Z</time>
      </trkpt>
      <trkpt lat="46.2344" lon="6.55571">
        <ele>1489.942</ele>
        <time>2024-12-27T13:15:30Z</time>
      </trkpt>
      <trkpt lat="46.2343" lon="6.55571">
        <ele>1488.53</ele>
        <time>2024-12-27T13:15:35Z</time>
      </trkpt>
      <trkpt lat="46.23425" lon="6.55572">
        <ele>1489.252</ele>
        <time>2024-12-27T13:15:40Z</time>
      </trkpt>
      <trkpt lat="46.2342" lon="6.55575">
        <ele>1488.418</ele>
        <time>2024-12-27T13:15:45Z</time>
      </trkpt>
      <trkpt lat="46.23417" lon="6.55577">
        <ele>1488.531</ele>
        <time>2024-12-27T13:15:50Z</time>
      </trkpt>
      <trkpt lat="46.23401" lon="6.55576">
        <ele>1485.221</ele>
        <time>2024-12-27T13:15:55Z</time>
      </trkpt>
      <trkpt lat="46.23398" lon="6.55552">
        <ele>1480.439</ele>
        <time>2024-12-27T13:16:00Z</time>
      </trkpt>
      <trkpt lat="46.23389" lon="6.55524">
        <ele>1477.265</ele>
        <time>2024-12-27T13:16:05Z</time>
      </trkpt>
      <trkpt lat="46.23374" lon="6.55516">
        <ele>1472.883</ele>
        <time>2024-12-27T13:16:10Z</time>
      </trkpt>
      <trkpt lat="46.23352" lon="6.55499">
        <ele>1470.116</ele>
        <time>2024-12-27T13:16:15Z</time>
      </trkpt>
      <trkpt lat="46.23333" lon="6.55484">
        <ele>1468.445</ele>
        <time>2024-12-27T13:16:20Z</time>
      </trkpt>
      <trkpt lat="46.2332" lon="6.55491">
        <ele>1465.962</ele>
        <time>2024-12-27T13:16:25Z</time>
      </trkpt>
      <trkpt lat="46.23319" lon="6.5549">
        <ele>1465.877</ele>
        <time>2024-12-27T13:16:30Z</time>
      </trkpt>
      <trkpt lat="46.23319" lon="6.5549">
        <ele>1465.592</ele>
        <time>2024-12-27T13:16:35Z</time>
      </trkpt>
      <trkpt lat="46.23319" lon="6.5549">
        <ele>1466.443</ele>
        <time>2024-12-27T13:16:40Z</time>
      </trkpt>
      <trkpt lat="46.23319" lon="6.5549">
        <ele>1467.368</ele>
        <time>2024-12-27T13:16:45Z</time>
      </trkpt>
      <trkpt lat="46.23319" lon="6.5549">
        <ele>1467.424</ele>
        <time>2024-12-27T13:16:50Z</time>
      </trkpt>
      <trkpt lat="46.23319" lon="6.5549">
        <ele>1467.427</ele>
        <time>2024-12-27T13:16:55Z</time>
      </trkpt>
      <trkpt lat="46.23319" lon="6.5549">
        <ele>1467.441</ele>
        <time>2024-12-27T13:17:00Z</time>
      </trkpt>
      <trkpt lat="46.23319" lon="6.5549">
        <ele>1467.46</ele>
        <time>2024-12-27T13:17:05Z</time>
      </trkpt>
      <trkpt lat="46.23319" lon="6.5549">
        <ele>1467.468</ele>
        <time>2024-12-27T13:17:10Z</time>
      </trkpt>
      <trkpt lat="46.23317" lon="6.55476">
        <ele>1467.834</ele>
        <time>2024-12-27T13:17:15Z</time>
      </trkpt>
      <trkpt lat="46.23298" lon="6.55471">
        <ele>1457.857</ele>
        <time>2024-12-27T13:17:20Z</time>
      </trkpt>
      <trkpt lat="46.23279" lon="6.55461">
        <ele>1454.755</ele>
        <time>2024-12-27T13:17:25Z</time>
      </trkpt>
      <trkpt lat="46.23258" lon="6.55447">
        <ele>1452.954</ele>
        <time>2024-12-27T13:17:30Z</time>
      </trkpt>
      <trkpt lat="46.23244" lon="6.55421">
        <ele>1444.895</ele>
        <time>2024-12-27T13:17:35Z</time>
      </trkpt>
      <trkpt lat="46.23223" lon="6.55416">
        <ele>1437.645</ele>
        <time>2024-12-27T13:17:40Z</time>
      </trkpt>
      <trkpt lat="46.23213" lon="6.55409">
        <ele>1433.692</ele>
        <time>2024-12-27T13:17:45Z</time>
      </trkpt>
      <trkpt lat="46.23212" lon="6.55407">
        <ele>1436.65</ele>
        <time>2024-12-27T13:17:50Z</time>
      </trkpt>
      <trkpt lat="46.23212" lon="6.55407">
        <ele>1436.526</ele>
        <time>2024-12-27T13:17:55Z</time>
      </trkpt>
      <trkpt lat="46.23212" lon="6.55407">
        <ele>1436.997</ele>
        <time>2024-12-27T13:18:00Z</time>
      </trkpt>
      <trkpt lat="46.23212" lon="6.55407">
        <ele>1436.998</ele>
        <time>2024-12-27T13:18:05Z</time>
      </trkpt>
      <trkpt lat="46.23212" lon="6.55407">
        <ele>1436.993</ele>
        <time>2024-12-27T13:18:10Z</time>
      </trkpt>
      <trkpt lat="46.23212" lon="6.55407">
        <ele>1436.985</ele>
        <time>2024-12-27T13:18:15Z</time>
      </trkpt>
      <trkpt lat="46.23212" lon="6.55407">
        <ele>1436.961</ele>
        <time>2024-12-27T13:18:20Z</time>
      </trkpt>
      <trkpt lat="46.23211" lon="6.55406">
        <ele>1434.15</ele>
        <time>2024-12-27T13:18:25Z</time>
      </trkpt>
      <trkpt lat="46.23189" lon="6.55399">
        <ele>1421.9</ele>
        <time>2024-12-27T13:18:30Z</time>
      </trkpt>
      <trkpt lat="46.2317" lon="6.55381">
        <ele>1412.83</ele>
        <time>2024-12-27T13:18:35Z</time>
      </trkpt>
      <trkpt lat="46.23147" lon="6.55378">
        <ele>1406.01</ele>
        <time>2024-12-27T13:18:40Z</time>
      </trkpt>
      <trkpt lat="46.23124" lon="6.55379">
        <ele>1396.348</ele>
        <time>2024-12-27T13:18:45Z</time>
      </trkpt>
      <trkpt lat="46.231" lon="6.55381">
        <ele>1387.711</ele>
        <time>2024-12-27T13:18:50Z</time>
      </trkpt>
      <trkpt lat="46.23084" lon="6.55377">
        <ele>1381.417</ele>
        <time>2024-12-27T13:18:55Z</time>
      </trkpt>
      <trkpt lat="46.23084" lon="6.55377">
        <ele>1377.846</ele>
        <time>2024-12-27T13:19:00Z</time>
      </trkpt>
      <trkpt lat="46.23079" lon="6.55372">
        <ele>1374.851</ele>
        <time>2024-12-27T13:19:05Z</time>
      </trkpt>
      <trkpt lat="46.23075" lon="6.55359">
        <ele>1372.297</ele>
        <time>2024-12-27T13:19:10Z</time>
      </trkpt>
      <trkpt lat="46.23074" lon="6.55359">
        <ele>1373.346</ele>
        <time>2024-12-27T13:19:15Z</time>
      </trkpt>
      <trkpt lat="46.23074" lon="6.55359">
        <ele>1373.597</ele>
        <time>2024-12-27T13:19:20Z</time>
      </trkpt>
      <trkpt lat="46.23074" lon="6.55359">
        <ele>1374.804</ele>
        <time>2024-12-27T13:19:25Z</time>
      </trkpt>
      <trkpt lat="46.23074" lon="6.55359">
        <ele>1374.796</ele>
        <time>2024-12-27T13:19:30Z</time>
      </trkpt>
      <trkpt lat="46.23074" lon="6.55359">
        <ele>1374.804</ele>
        <time>2024-12-27T13:19:35Z</time>
      </trkpt>
      <trkpt lat="46.23074" lon="6.55359">
        <ele>1374.792</ele>
        <time>2024-12-27T13:19:40Z</time>
      </trkpt>
      <trkpt lat="46.23074" lon="6.55359">
        <ele>1374.764</ele>
        <time>2024-12-27T13:19:45Z</time>
      </trkpt>
      <trkpt lat="46.23074" lon="6.55359">
        <ele>1374.757</ele>
        <time>2024-12-27T13:19:50Z</time>
      </trkpt>
      <trkpt lat="46.23074" lon="6.55359">
        <ele>1374.71</ele>
        <time>2024-12-27T13:19:55Z</time>
      </trkpt>
      <trkpt lat="46.23074" lon="6.55359">
        <ele>1374.691</ele>
        <time>2024-12-27T13:20:00Z</time>
      </trkpt>
      <trkpt lat="46.23074" lon="6.55359">
        <ele>1374.652</ele>
        <time>2024-12-27T13:20:05Z</time>
      </trkpt>
      <trkpt lat="46.23074" lon="6.55359">
        <ele>1374.602</ele>
        <time>2024-12-27T13:20:10Z</time>
      </trkpt>
      <trkpt lat="46.23074" lon="6.55359">
        <ele>1374.505</ele>
        <time>2024-12-27T13:20:15Z</time>
      </trkpt>
      <trkpt lat="46.23074" lon="6.55359">
        <ele>1374.803</ele>
        <time>2024-12-27T13:20:20Z</time>
      </trkpt>
      <trkpt lat="46.23074" lon="6.55359">
        <ele>1372.688</ele>
        <time>2024-12-27T13:20:25Z</time>
      </trkpt>
      <trkpt lat="46.23074" lon="6.55359">
        <ele>1372.041</ele>
        <time>2024-12-27T13:20:30Z</time>
      </trkpt>
      <trkpt lat="46.23074" lon="6.55359">
        <ele>1371.968</ele>
        <time>2024-12-27T13:20:35Z</time>
      </trkpt>
      <trkpt lat="46.23074" lon="6.55359">
        <ele>1371.967</ele>
        <time>2024-12-27T13:20:40Z</time>
      </trkpt>
      <trkpt lat="46.23074" lon="6.55359">
        <ele>1371.053</ele>
        <time>2024-12-27T13:20:45Z</time>
      </trkpt>
      <trkpt lat="46.23074" lon="6.55359">
        <ele>1369.146</ele>
        <time>2024-12-27T13:20:50Z</time>
      </trkpt>
      <trkpt lat="46.23074" lon="6.55359">
        <ele>1368.319</ele>
        <time>2024-12-27T13:20:55Z</time>
      </trkpt>
      <trkpt lat="46.23074" lon="6.55359">
        <ele>1368.95</ele>
        <time>2024-12-27T13:21:00Z</time>
      </trkpt>
      <trkpt lat="46.23074" lon="6.55359">
        <ele>1368.961</ele>
        <time>2024-12-27T13:21:05Z</time>
      </trkpt>
      <trkpt lat="46.23076" lon="6.55359">
        <ele>1368.964</ele>
        <time>2024-12-27T13:21:10Z</time>
      </trkpt>
      <trkpt lat="46.23076" lon="6.55359">
        <ele>1368.963</ele>
        <time>2024-12-27T13:21:15Z</time>
      </trkpt>
      <trkpt lat="46.23076" lon="6.55359">
        <ele>1368.967</ele>
        <time>2024-12-27T13:21:20Z</time>
      </trkpt>
      <trkpt lat="46.23076" lon="6.55359">
        <ele>1368.966</ele>
        <time>2024-12-27T13:21:25Z</time>
      </trkpt>
      <trkpt lat="46.23076" lon="6.55359">
        <ele>1368.96</ele>
        <time>2024-12-27T13:21:30Z</time>
      </trkpt>
      <trkpt lat="46.23075" lon="6.55358">
        <ele>1369.166</ele>
        <time>2024-12-27T13:21:35Z</time>
      </trkpt>
      <trkpt lat="46.2306" lon="6.55344">
        <ele>1366.094</ele>
        <time>2024-12-27T13:21:40Z</time>
      </trkpt>
      <trkpt lat="46.23038" lon="6.55338">
        <ele>1358.236</ele>
        <time>2024-12-27T13:21:45Z</time>
      </trkpt>
      <trkpt lat="46.23013" lon="6.55338">
        <ele>1350.975</ele>
        <time>2024-12-27T13:21:50Z</time>
      </trkpt>
      <trkpt lat="46.2299" lon="6.55332">
        <ele>1341.247</ele>
        <time>2024-12-27T13:21:55Z</time>
      </trkpt>
      <trkpt lat="46.22966" lon="6.55321">
        <ele>1335.563</ele>
        <time>2024-12-27T13:22:00Z</time>
      </trkpt>
      <trkpt lat="46.22967" lon="6.55308">
        <ele>1334.772</ele>
        <time>2024-12-27T13:22:05Z</time>
      </trkpt>
      <trkpt lat="46.22966" lon="6.55305">
        <ele>1333.686</ele>
        <time>2024-12-27T13:22:10Z</time>
      </trkpt>
      <trkpt lat="46.22964" lon="6.55306">
        <ele>1330.542</ele>
        <time>2024-12-27T13:22:15Z</time>
      </trkpt>
      <trkpt lat="46.22963" lon="6.55306">
        <ele>1328.181</ele>
        <time>2024-12-27T13:22:20Z</time>
      </trkpt>
      <trkpt lat="46.22963" lon="6.55306">
        <ele>1327.841</ele>
        <time>2024-12-27T13:22:25Z</time>
      </trkpt>
      <trkpt lat="46.22963" lon="6.55306">
        <ele>1327.827</ele>
        <time>2024-12-27T13:22:30Z</time>
      </trkpt>
      <trkpt lat="46.22963" lon="6.55306">
        <ele>1327.838</ele>
        <time>2024-12-27T13:22:35Z</time>
      </trkpt>
      <trkpt lat="46.22963" lon="6.55306">
        <ele>1327.82</ele>
        <time>2024-12-27T13:22:40Z</time>
      </trkpt>
      <trkpt lat="46.22963" lon="6.55306">
        <ele>1327.819</ele>
        <time>2024-12-27T13:22:45Z</time>
      </trkpt>
      <trkpt lat="46.22963" lon="6.55306">
        <ele>1327.814</ele>
        <time>2024-12-27T13:22:50Z</time>
      </trkpt>
      <trkpt lat="46.22963" lon="6.55306">
        <ele>1327.807</ele>
        <time>2024-12-27T13:22:55Z</time>
      </trkpt>
      <trkpt lat="46.22963" lon="6.55306">
        <ele>1327.819</ele>
        <time>2024-12-27T13:23:00Z</time>
      </trkpt>
      <trkpt lat="46.22963" lon="6.55306">
        <ele>1327.812</ele>
        <time>2024-12-27T13:23:05Z</time>
      </trkpt>
      <trkpt lat="46.22963" lon="6.55306">
        <ele>1327.796</ele>
        <time>2024-12-27T13:23:10Z</time>
      </trkpt>
      <trkpt lat="46.22963" lon="6.55306">
        <ele>1327.779</ele>
        <time>2024-12-27T13:23:15Z</time>
      </trkpt>
      <trkpt lat="46.22963" lon="6.55306">
        <ele>1327.771</ele>
        <time>2024-12-27T13:23:20Z</time>
      </trkpt>
      <trkpt lat="46.22959" lon="6.55311">
        <ele>1324.391</ele>
        <time>2024-12-27T13:23:25Z</time>
      </trkpt>
      <trkpt lat="46.22954" lon="6.55326">
        <ele>1321.89</ele>
        <time>2024-12-27T13:23:30Z</time>
      </trkpt>
      <trkpt lat="46.22954" lon="6.55328">
        <ele>1320.671</ele>
        <time>2024-12-27T13:23:35Z</time>
      </trkpt>
      <trkpt lat="46.22954" lon="6.55328">
        <ele>1319.797</ele>
        <time>2024-12-27T13:23:40Z</time>
      </trkpt>
      <trkpt lat="46.22949" lon="6.55329">
        <ele>1316.97</ele>
        <time>2024-12-27T13:23:45Z</time>
      </trkpt>
      <trkpt lat="46.22933" lon="6.55316">
        <ele>1311.703</ele>
        <time>2024-12-27T13:23:50Z</time>
      </trkpt>
      <trkpt lat="46.22918" lon="6.55326">
        <ele>1304.845</ele>
        <time>2024-12-27T13:23:55Z</time>
      </trkpt>
      <trkpt lat="46.22909" lon="6.55323">
        <ele>1301.936</ele>
        <time>2024-12-27T13:24:00Z</time>
      </trkpt>
      <trkpt lat="46.22896" lon="6.55312">
        <ele>1299.78</ele>
        <time>2024-12-27T13:24:05Z</time>
      </trkpt>
      <trkpt lat="46.22887" lon="6.55342">
        <ele>1294.577</ele>
        <time>2024-12-27T13:24:10Z</time>
      </trkpt>
      <trkpt lat="46.22875" lon="6.55355">
        <ele>1289.166</ele>
        <time>2024-12-27T13:24:15Z</time>
      </trkpt>
      <trkpt lat="46.22864" lon="6.55393">
        <ele>1289.135</ele>
        <time>2024-12-27T13:24:20Z</time>
      </trkpt>
      <trkpt lat="46.22848" lon="6.5541">
        <ele>1287.839</ele>
        <time>2024-12-27T13:24:25Z</time>
      </trkpt>
      <trkpt lat="46.22828" lon="6.55424">
        <ele>1282.004</ele>
        <time>2024-12-27T13:24:30Z</time>
      </trkpt>
      <trkpt lat="46.22815" lon="6.55425">
        <ele>1278.415</ele>
        <time>2024-12-27T13:24:35Z</time>
      </trkpt>
      <trkpt lat="46.22815" lon="6.55424">
        <ele>1276.57</ele>
        <time>2024-12-27T13:24:40Z</time>
      </trkpt>
      <trkpt lat="46.22815" lon="6.55424">
        <ele>1276.588</ele>
        <time>2024-12-27T13:24:45Z</time>
      </trkpt>
      <trkpt lat="46.22815" lon="6.55424">
        <ele>1277.295</ele>
        <time>2024-12-27T13:24:49Z</time>
      </trkpt>
      <trkpt lat="46.22815" lon="6.55424">
        <ele>1277.206</ele>
        <time>2024-12-27T13:24:55Z</time>
      </trkpt>
      <trkpt lat="46.22817" lon="6.55422">
        <ele>1279.415</ele>
        <time>2024-12-27T13:25:00Z</time>
      </trkpt>
      <trkpt lat="46.22821" lon="6.55416">
        <ele>1283.112</ele>
        <time>2024-12-27T13:25:05Z</time>
      </trkpt>
      <trkpt lat="46.22822" lon="6.55412">
        <ele>1285.977</ele>
        <time>2024-12-27T13:25:10Z</time>
      </trkpt>
      <trkpt lat="46.2282" lon="6.55402">
        <ele>1285.201</ele>
        <time>2024-12-27T13:25:15Z</time>
      </trkpt>
      <trkpt lat="46.22811" lon="6.55406">
        <ele>1280.468</ele>
        <time>2024-12-27T13:25:20Z</time>
      </trkpt>
      <trkpt lat="46.22792" lon="6.55382">
        <ele>1276.324</ele>
        <time>2024-12-27T13:25:25Z</time>
      </trkpt>
      <trkpt lat="46.22774" lon="6.55365">
        <ele>1270.865</ele>
        <time>2024-12-27T13:25:30Z</time>
      </trkpt>
      <trkpt lat="46.22751" lon="6.55385">
        <ele>1266.044</ele>
        <time>2024-12-27T13:25:35Z</time>
      </trkpt>
      <trkpt lat="46.22749" lon="6.55394">
        <ele>1263.738</ele>
        <time>2024-12-27T13:25:40Z</time>
      </trkpt>
      <trkpt lat="46.22748" lon="6.55398">
        <ele>1262.527</ele>
        <time>2024-12-27T13:25:45Z</time>
      </trkpt>
      <trkpt lat="46.22749" lon="6.55401">
        <ele>1262.906</ele>
        <time>2024-12-27T13:25:50Z</time>
      </trkpt>
      <trkpt lat="46.2275" lon="6.55403">
        <ele>1262.307</ele>
        <time>2024-12-27T13:25:55Z</time>
      </trkpt>
      <trkpt lat="46.2275" lon="6.55406">
        <ele>1262.87</ele>
        <time>2024-12-27T13:26:00Z</time>
      </trkpt>
      <trkpt lat="46.2275" lon="6.55409">
        <ele>1263.398</ele>
        <time>2024-12-27T13:26:05Z</time>
      </trkpt>
      <trkpt lat="46.2275" lon="6.55415">
        <ele>1261.368</ele>
        <time>2024-12-27T13:26:10Z</time>
      </trkpt>
      <trkpt lat="46.22747" lon="6.55427">
        <ele>1260.502</ele>
        <time>2024-12-27T13:26:15Z</time>
      </trkpt>
      <trkpt lat="46.2274" lon="6.55436">
        <ele>1258.991</ele>
        <time>2024-12-27T13:26:20Z</time>
      </trkpt>
      <trkpt lat="46.22738" lon="6.55438">
        <ele>1260.152</ele>
        <time>2024-12-27T13:26:25Z</time>
      </trkpt>
      <trkpt lat="46.22737" lon="6.55441">
        <ele>1260.204</ele>
        <time>2024-12-27T13:26:30Z</time>
      </trkpt>
      <trkpt lat="46.22736" lon="6.55443">
        <ele>1261.611</ele>
        <time>2024-12-27T13:26:35Z</time>
      </trkpt>
      <trkpt lat="46.22733" lon="6.55449">
        <ele>1261.561</ele>
        <time>2024-12-27T13:26:40Z</time>
      </trkpt>
      <trkpt lat="46.22729" lon="6.55463">
        <ele>1260.704</ele>
        <time>2024-12-27T13:26:45Z</time>
      </trkpt>
      <trkpt lat="46.22727" lon="6.55468">
        <ele>1261.536</ele>
        <time>2024-12-27T13:26:50Z</time>
      </trkpt>
      <trkpt lat="46.22727" lon="6.55468">
        <ele>1261.543</ele>
        <time>2024-12-27T13:26:55Z</time>
      </trkpt>
      <trkpt lat="46.22727" lon="6.55468">
        <ele>1261.219</ele>
        <time>2024-12-27T13:27:00Z</time>
      </trkpt>
      <trkpt lat="46.22727" lon="6.55468">
        <ele>1261.178</ele>
        <time>2024-12-27T13:27:05Z</time>
      </trkpt>
      <trkpt lat="46.22727" lon="6.55468">
        <ele>1261.165</ele>
        <time>2024-12-27T13:27:10Z</time>
      </trkpt>
      <trkpt lat="46.22727" lon="6.55468">
        <ele>1261.184</ele>
        <time>2024-12-27T13:27:15Z</time>
      </trkpt>
      <trkpt lat="46.22727" lon="6.55468">
        <ele>1262.14</ele>
        <time>2024-12-27T13:27:20Z</time>
      </trkpt>
      <trkpt lat="46.22727" lon="6.55468">
        <ele>1262.048</ele>
        <time>2024-12-27T13:27:25Z</time>
      </trkpt>
      <trkpt lat="46.22727" lon="6.55468">
        <ele>1259.871</ele>
        <time>2024-12-27T13:27:30Z</time>
      </trkpt>
      <trkpt lat="46.22727" lon="6.55468">
        <ele>1261.167</ele>
        <time>2024-12-27T13:27:35Z</time>
      </trkpt>
      <trkpt lat="46.22724" lon="6.55474">
        <ele>1260.502</ele>
        <time>2024-12-27T13:27:40Z</time>
      </trkpt>
      <trkpt lat="46.22715" lon="6.55471">
        <ele>1260.808</ele>
        <time>2024-12-27T13:27:45Z</time>
      </trkpt>
      <trkpt lat="46.22714" lon="6.55465">
        <ele>1259.631</ele>
        <time>2024-12-27T13:27:50Z</time>
      </trkpt>
      <trkpt lat="46.22698" lon="6.5547">
        <ele>1255.613</ele>
        <time>2024-12-27T13:27:55Z</time>
      </trkpt>
      <trkpt lat="46.22672" lon="6.55497">
        <ele>1250.527</ele>
        <time>2024-12-27T13:28:00Z</time>
      </trkpt>
      <trkpt lat="46.22654" lon="6.5552">
        <ele>1247.316</ele>
        <time>2024-12-27T13:28:05Z</time>
      </trkpt>
      <trkpt lat="46.22633" lon="6.55537">
        <ele>1245.174</ele>
        <time>2024-12-27T13:28:10Z</time>
      </trkpt>
      <trkpt lat="46.22624" lon="6.55522">
        <ele>1237.254</ele>
        <time>2024-12-27T13:28:15Z</time>
      </trkpt>
      <trkpt lat="46.22622" lon="6.55517">
        <ele>1236.702</ele>
        <time>2024-12-27T13:28:20Z</time>
      </trkpt>
      <trkpt lat="46.22622" lon="6.55517">
        <ele>1237.41</ele>
        <time>2024-12-27T13:28:25Z</time>
      </trkpt>
      <trkpt lat="46.22622" lon="6.55517">
        <ele>1237.824</ele>
        <time>2024-12-27T13:28:30Z</time>
      </trkpt>
      <trkpt lat="46.22622" lon="6.55517">
        <ele>1237.545</ele>
        <time>2024-12-27T13:28:35Z</time>
      </trkpt>
      <trkpt lat="46.22622" lon="6.55517">
        <ele>1237.978</ele>
        <time>2024-12-27T13:28:40Z</time>
      </trkpt>
      <trkpt lat="46.22622" lon="6.55517">
        <ele>1240.134</ele>
        <time>2024-12-27T13:28:45Z</time>
      </trkpt>
      <trkpt lat="46.22622" lon="6.55517">
        <ele>1238.522</ele>
        <time>2024-12-27T13:28:50Z</time>
      </trkpt>
      <trkpt lat="46.22622" lon="6.55517">
        <ele>1238.368</ele>
        <time>2024-12-27T13:28:55Z</time>
      </trkpt>
      <trkpt lat="46.22612" lon="6.55527">
        <ele>1238.219</ele>
        <time>2024-12-27T13:29:00Z</time>
      </trkpt>
      <trkpt lat="46.22609" lon="6.55529">
        <ele>1238.124</ele>
        <time>2024-12-27T13:29:05Z</time>
      </trkpt>
      <trkpt lat="46.22605" lon="6.55532">
        <ele>1239.171</ele>
        <time>2024-12-27T13:29:10Z</time>
      </trkpt>
      <trkpt lat="46.22602" lon="6.55536">
        <ele>1238.942</ele>
        <time>2024-12-27T13:29:15Z</time>
      </trkpt>
      <trkpt lat="46.226" lon="6.55539">
        <ele>1240.277</ele>
        <time>2024-12-27T13:29:20Z</time>
      </trkpt>
      <trkpt lat="46.22597" lon="6.55542">
        <ele>1242.15</ele>
        <time>2024-12-27T13:29:25Z</time>
      </trkpt>
      <trkpt lat="46.22593" lon="6.55545">
        <ele>1242.535</ele>
        <time>2024-12-27T13:29:30Z</time>
      </trkpt>
      <trkpt lat="46.2259" lon="6.55547">
        <ele>1240.577</ele>
        <time>2024-12-27T13:29:35Z</time>
      </trkpt>
      <trkpt lat="46.22588" lon="6.55547">
        <ele>1239.432</ele>
        <time>2024-12-27T13:29:40Z</time>
      </trkpt>
      <trkpt lat="46.22584" lon="6.55554">
        <ele>1236.758</ele>
        <time>2024-12-27T13:29:45Z</time>
      </trkpt>
      <trkpt lat="46.22569" lon="6.55572">
        <ele>1233.449</ele>
        <time>2024-12-27T13:29:50Z</time>
      </trkpt>
      <trkpt lat="46.22564" lon="6.55584">
        <ele>1232.252</ele>
        <time>2024-12-27T13:29:55Z</time>
      </trkpt>
      <trkpt lat="46.22558" lon="6.55597">
        <ele>1231.047</ele>
        <time>2024-12-27T13:30:00Z</time>
      </trkpt>
      <trkpt lat="46.22548" lon="6.55625">
        <ele>1234.859</ele>
        <time>2024-12-27T13:30:05Z</time>
      </trkpt>
      <trkpt lat="46.22532" lon="6.55629">
        <ele>1227.972</ele>
        <time>2024-12-27T13:30:10Z</time>
      </trkpt>
      <trkpt lat="46.22518" lon="6.5563">
        <ele>1222.275</ele>
        <time>2024-12-27T13:30:15Z</time>
      </trkpt>
      <trkpt lat="46.22507" lon="6.55638">
        <ele>1217.331</ele>
        <time>2024-12-27T13:30:20Z</time>
      </trkpt>
      <trkpt lat="46.22494" lon="6.55651">
        <ele>1213.847</ele>
        <time>2024-12-27T13:30:25Z</time>
      </trkpt>
      <trkpt lat="46.22479" lon="6.55676">
        <ele>1213.514</ele>
        <time>2024-12-27T13:30:30Z</time>
      </trkpt>
      <trkpt lat="46.22479" lon="6.55676">
        <ele>1213.401</ele>
        <time>2024-12-27T13:30:35Z</time>
      </trkpt>
      <trkpt lat="46.22479" lon="6.55676">
        <ele>1212.528</ele>
        <time>2024-12-27T13:30:40Z</time>
      </trkpt>
      <trkpt lat="46.22479" lon="6.55676">
        <ele>1212.293</ele>
        <time>2024-12-27T13:30:45Z</time>
      </trkpt>
      <trkpt lat="46.22479" lon="6.55676">
        <ele>1212.258</ele>
        <time>2024-12-27T13:30:50Z</time>
      </trkpt>
      <trkpt lat="46.22482" lon="6.55678">
        <ele>1212.095</ele>
        <time>2024-12-27T13:30:55Z</time>
      </trkpt>
      <trkpt lat="46.22476" lon="6.55697">
        <ele>1209.27</ele>
        <time>2024-12-27T13:31:00Z</time>
      </trkpt>
      <trkpt lat="46.2247" lon="6.55721">
        <ele>1207.025</ele>
        <time>2024-12-27T13:31:05Z</time>
      </trkpt>
      <trkpt lat="46.22458" lon="6.55745">
        <ele>1205.842</ele>
        <time>2024-12-27T13:31:10Z</time>
      </trkpt>
      <trkpt lat="46.22446" lon="6.55753">
        <ele>1205.959</ele>
        <time>2024-12-27T13:31:15Z</time>
      </trkpt>
      <trkpt lat="46.22442" lon="6.55755">
        <ele>1206.113</ele>
        <time>2024-12-27T13:31:20Z</time>
      </trkpt>
      <trkpt lat="46.22442" lon="6.55755">
        <ele>1205.61</ele>
        <time>2024-12-27T13:31:25Z</time>
      </trkpt>
      <trkpt lat="46.22442" lon="6.55755">
        <ele>1205.718</ele>
        <time>2024-12-27T13:31:30Z</time>
      </trkpt>
      <trkpt lat="46.22442" lon="6.55755">
        <ele>1205.774</ele>
        <time>2024-12-27T13:31:35Z</time>
      </trkpt>
      <trkpt lat="46.22442" lon="6.55755">
        <ele>1205.772</ele>
        <time>2024-12-27T13:31:40Z</time>
      </trkpt>
      <trkpt lat="46.22442" lon="6.55755">
        <ele>1205.787</ele>
        <time>2024-12-27T13:31:45Z</time>
      </trkpt>
      <trkpt lat="46.22442" lon="6.55755">
        <ele>1205.787</ele>
        <time>2024-12-27T13:31:50Z</time>
      </trkpt>
      <trkpt lat="46.22431" lon="6.55748">
        <ele>1200.787</ele>
        <time>2024-12-27T13:31:55Z</time>
      </trkpt>
      <trkpt lat="46.22414" lon="6.55742">
        <ele>1195.977</ele>
        <time>2024-12-27T13:32:00Z</time>
      </trkpt>
      <trkpt lat="46.22414" lon="6.55733">
        <ele>1195.792</ele>
        <time>2024-12-27T13:32:05Z</time>
      </trkpt>
      <trkpt lat="46.22414" lon="6.55729">
        <ele>1197.017</ele>
        <time>2024-12-27T13:32:10Z</time>
      </trkpt>
      <trkpt lat="46.22408" lon="6.55723">
        <ele>1193.974</ele>
        <time>2024-12-27T13:32:15Z</time>
      </trkpt>
      <trkpt lat="46.224" lon="6.55722">
        <ele>1189.371</ele>
        <time>2024-12-27T13:32:20Z</time>
      </trkpt>
      <trkpt lat="46.22378" lon="6.55718">
        <ele>1184.886</ele>
        <time>2024-12-27T13:32:25Z</time>
      </trkpt>
      <trkpt lat="46.22356" lon="6.55711">
        <ele>1181.25</ele>
        <time>2024-12-27T13:32:30Z</time>
      </trkpt>
      <trkpt lat="46.22339" lon="6.55708">
        <ele>1176.825</ele>
        <time>2024-12-27T13:32:35Z</time>
      </trkpt>
      <trkpt lat="46.22332" lon="6.55698">
        <ele>1173.804</ele>
        <time>2024-12-27T13:32:40Z</time>
      </trkpt>
      <trkpt lat="46.22332" lon="6.55698">
        <ele>1173.419</ele>
        <time>2024-12-27T13:32:45Z</time>
      </trkpt>
      <trkpt lat="46.22332" lon="6.55698">
        <ele>1172.835</ele>
        <time>2024-12-27T13:32:49Z</time>
      </trkpt>
      <trkpt lat="46.22332" lon="6.55698">
        <ele>1173.148</ele>
        <time>2024-12-27T13:32:55Z</time>
      </trkpt>
      <trkpt lat="46.22332" lon="6.55698">
        <ele>1173.127</ele>
        <time>2024-12-27T13:33:00Z</time>
      </trkpt>
      <trkpt lat="46.22332" lon="6.55698">
        <ele>1173.122</ele>
        <time>2024-12-27T13:33:05Z</time>
      </trkpt>
      <trkpt lat="46.22332" lon="6.55698">
        <ele>1173.114</ele>
        <time>2024-12-27T13:33:10Z</time>
      </trkpt>
      <trkpt lat="46.22332" lon="6.55698">
        <ele>1173.091</ele>
        <time>2024-12-27T13:33:15Z</time>
      </trkpt>
      <trkpt lat="46.22332" lon="6.55698">
        <ele>1173.088</ele>
        <time>2024-12-27T13:33:20Z</time>
      </trkpt>
      <trkpt lat="46.22332" lon="6.55698">
        <ele>1173.079</ele>
        <time>2024-12-27T13:33:25Z</time>
      </trkpt>
      <trkpt lat="46.22332" lon="6.55698">
        <ele>1173.077</ele>
        <time>2024-12-27T13:33:30Z</time>
      </trkpt>
      <trkpt lat="46.22332" lon="6.55698">
        <ele>1173.075</ele>
        <time>2024-12-27T13:33:35Z</time>
      </trkpt>
      <trkpt lat="46.22332" lon="6.55698">
        <ele>1173.075</ele>
        <time>2024-12-27T13:33:40Z</time>
      </trkpt>
      <trkpt lat="46.22332" lon="6.55698">
        <ele>1173.073</ele>
        <time>2024-12-27T13:33:45Z</time>
      </trkpt>
      <trkpt lat="46.22332" lon="6.55698">
        <ele>1173.071</ele>
        <time>2024-12-27T13:33:50Z</time>
      </trkpt>
      <trkpt lat="46.22332" lon="6.55698">
        <ele>1173.069</ele>
        <time>2024-12-27T13:33:55Z</time>
      </trkpt>
      <trkpt lat="46.2233" lon="6.55703">
        <ele>1175.301</ele>
        <time>2024-12-27T13:34:00Z</time>
      </trkpt>
      <trkpt lat="46.2232" lon="6.55703">
        <ele>1169.626</ele>
        <time>2024-12-27T13:34:05Z</time>
      </trkpt>
      <trkpt lat="46.22303" lon="6.557">
        <ele>1165.916</ele>
        <time>2024-12-27T13:34:10Z</time>
      </trkpt>
      <trkpt lat="46.22289" lon="6.55692">
        <ele>1164.661</ele>
        <time>2024-12-27T13:34:15Z</time>
      </trkpt>
      <trkpt lat="46.22287" lon="6.55686">
        <ele>1165.988</ele>
        <time>2024-12-27T13:34:21Z</time>
      </trkpt>
      <trkpt lat="46.22286" lon="6.55682">
        <ele>1167.213</ele>
        <time>2024-12-27T13:34:26Z</time>
      </trkpt>
      <trkpt lat="46.22284" lon="6.55675">
        <ele>1166.969</ele>
        <time>2024-12-27T13:34:31Z</time>
      </trkpt>
      <trkpt lat="46.22282" lon="6.55681">
        <ele>1165.823</ele>
        <time>2024-12-27T13:34:36Z</time>
      </trkpt>
      <trkpt lat="46.22281" lon="6.55699">
        <ele>1163.548</ele>
        <time>2024-12-27T13:34:41Z</time>
      </trkpt>
      <trkpt lat="46.22266" lon="6.55683">
        <ele>1159.794</ele>
        <time>2024-12-27T13:34:46Z</time>
      </trkpt>
      <trkpt lat="46.22244" lon="6.55682">
        <ele>1153.344</ele>
        <time>2024-12-27T13:34:51Z</time>
      </trkpt>
      <trkpt lat="46.22236" lon="6.55686">
        <ele>1151.254</ele>
        <time>2024-12-27T13:34:56Z</time>
      </trkpt>
      <trkpt lat="46.22234" lon="6.55686">
        <ele>1151.558</ele>
        <time>2024-12-27T13:35:01Z</time>
      </trkpt>
      <trkpt lat="46.22229" lon="6.55689">
        <ele>1148.069</ele>
        <time>2024-12-27T13:35:06Z</time>
      </trkpt>
      <trkpt lat="46.22206" lon="6.5568">
        <ele>1147.579</ele>
        <time>2024-12-27T13:35:11Z</time>
      </trkpt>
      <trkpt lat="46.22193" lon="6.55685">
        <ele>1145.69</ele>
        <time>2024-12-27T13:35:16Z</time>
      </trkpt>
      <trkpt lat="46.22174" lon="6.55692">
        <ele>1143.816</ele>
        <time>2024-12-27T13:35:21Z</time>
      </trkpt>
      <trkpt lat="46.22158" lon="6.55682">
        <ele>1143.72</ele>
        <time>2024-12-27T13:35:26Z</time>
      </trkpt>
      <trkpt lat="46.22167" lon="6.55656">
        <ele>1140.915</ele>
        <time>2024-12-27T13:35:31Z</time>
      </trkpt>
      <trkpt lat="46.22182" lon="6.55643">
        <ele>1139.571</ele>
        <time>2024-12-27T13:35:36Z</time>
      </trkpt>
      <trkpt lat="46.22202" lon="6.55642">
        <ele>1139.971</ele>
        <time>2024-12-27T13:35:41Z</time>
      </trkpt>
      <trkpt lat="46.2222" lon="6.55642">
        <ele>1139.509</ele>
        <time>2024-12-27T13:35:46Z</time>
      </trkpt>
      <trkpt lat="46.22234" lon="6.55632">
        <ele>1136.707</ele>
        <time>2024-12-27T13:35:51Z</time>
      </trkpt>
      <trkpt lat="46.22247" lon="6.5562">
        <ele>1134.784</ele>
        <time>2024-12-27T13:35:56Z</time>
      </trkpt>
      <trkpt lat="46.2226" lon="6.55607">
        <ele>1132.239</ele>
        <time>2024-12-27T13:36:01Z</time>
      </trkpt>
      <trkpt lat="46.22269" lon="6.55591">
        <ele>1125.78</ele>
        <time>2024-12-27T13:36:06Z</time>
      </trkpt>
      <trkpt lat="46.22283" lon="6.55571">
        <ele>1122.391</ele>
        <time>2024-12-27T13:36:11Z</time>
      </trkpt>
      <trkpt lat="46.22307" lon="6.55556">
        <ele>1121.953</ele>
        <time>2024-12-27T13:36:16Z</time>
      </trkpt>
      <trkpt lat="46.22329" lon="6.55546">
        <ele>1116.156</ele>
        <time>2024-12-27T13:36:21Z</time>
      </trkpt>
      <trkpt lat="46.22323" lon="6.55526">
        <ele>1105.808</ele>
        <time>2024-12-27T13:36:26Z</time>
      </trkpt>
      <trkpt lat="46.22303" lon="6.55515">
        <ele>1100.331</ele>
        <time>2024-12-27T13:36:31Z</time>
      </trkpt>
      <trkpt lat="46.22287" lon="6.55518">
        <ele>1102.101</ele>
        <time>2024-12-27T13:36:36Z</time>
      </trkpt>
      <trkpt lat="46.22263" lon="6.55525">
        <ele>1100.671</ele>
        <time>2024-12-27T13:36:41Z</time>
      </trkpt>
      <trkpt lat="46.22233" lon="6.55521">
        <ele>1097.456</ele>
        <time>2024-12-27T13:36:46Z</time>
      </trkpt>
      <trkpt lat="46.22211" lon="6.55491">
        <ele>1094.88</ele>
        <time>2024-12-27T13:36:51Z</time>
      </trkpt>
      <trkpt lat="46.22208" lon="6.55475">
        <ele>1095.561</ele>
        <time>2024-12-27T13:36:56Z</time>
      </trkpt>
      <trkpt lat="46.22208" lon="6.55474">
        <ele>1094.72</ele>
        <time>2024-12-27T13:37:01Z</time>
      </trkpt>
      <trkpt lat="46.22208" lon="6.55473">
        <ele>1095.795</ele>
        <time>2024-12-27T13:37:06Z</time>
      </trkpt>
      <trkpt lat="46.22208" lon="6.55473">
        <ele>1095.546</ele>
        <time>2024-12-27T13:37:11Z</time>
      </trkpt>
      <trkpt lat="46.22207" lon="6.55472">
        <ele>1095.467</ele>
        <time>2024-12-27T13:37:16Z</time>
      </trkpt>
      <trkpt lat="46.22207" lon="6.55472">
        <ele>1095.603</ele>
        <time>2024-12-27T13:37:21Z</time>
      </trkpt>
      <trkpt lat="46.22207" lon="6.55472">
        <ele>1095.738</ele>
        <time>2024-12-27T13:37:26Z</time>
      </trkpt>
      <trkpt lat="46.222" lon="6.55465">
        <ele>1096.209</ele>
        <time>2024-12-27T13:37:31Z</time>
      </trkpt>
      <trkpt lat="46.22187" lon="6.55444">
        <ele>1093.807</ele>
        <time>2024-12-27T13:37:36Z</time>
      </trkpt>
      <trkpt lat="46.22168" lon="6.5545">
        <ele>1093.469</ele>
        <time>2024-12-27T13:37:41Z</time>
      </trkpt>
      <trkpt lat="46.22152" lon="6.55446">
        <ele>1086.763</ele>
        <time>2024-12-27T13:37:46Z</time>
      </trkpt>
      <trkpt lat="46.22138" lon="6.55445">
        <ele>1083.645</ele>
        <time>2024-12-27T13:37:51Z</time>
      </trkpt>
      <trkpt lat="46.22127" lon="6.55452">
        <ele>1079.543</ele>
        <time>2024-12-27T13:37:56Z</time>
      </trkpt>
      <trkpt lat="46.22119" lon="6.55456">
        <ele>1078.097</ele>
        <time>2024-12-27T13:38:01Z</time>
      </trkpt>
      <trkpt lat="46.2211" lon="6.55483">
        <ele>1074.304</ele>
        <time>2024-12-27T13:38:06Z</time>
      </trkpt>
      <trkpt lat="46.22108" lon="6.5548">
        <ele>1073.048</ele>
        <time>2024-12-27T13:38:11Z</time>
      </trkpt>
      <trkpt lat="46.22097" lon="6.55491">
        <ele>1070.436</ele>
        <time>2024-12-27T13:38:16Z</time>
      </trkpt>
      <trkpt lat="46.22093" lon="6.55489">
        <ele>1071.09</ele>
        <time>2024-12-27T13:38:21Z</time>
      </trkpt>
      <trkpt lat="46.22093" lon="6.55484">
        <ele>1071.808</ele>
        <time>2024-12-27T13:38:26Z</time>
      </trkpt>
      <trkpt lat="46.22094" lon="6.55483">
        <ele>1071.886</ele>
        <time>2024-12-27T13:38:31Z</time>
      </trkpt>
      <trkpt lat="46.22094" lon="6.55483">
        <ele>1072.169</ele>
        <time>2024-12-27T13:38:36Z</time>
      </trkpt>
      <trkpt lat="46.22094" lon="6.55483">
        <ele>1072.345</ele>
        <time>2024-12-27T13:38:41Z</time>
      </trkpt>
      <trkpt lat="46.22094" lon="6.55483">
        <ele>1072.719</ele>
        <time>2024-12-27T13:38:46Z</time>
      </trkpt>
      <trkpt lat="46.22094" lon="6.55483">
        <ele>1072.471</ele>
        <time>2024-12-27T13:38:51Z</time>
      </trkpt>
      <trkpt lat="46.22094" lon="6.55483">
        <ele>1072.372</ele>
        <time>2024-12-27T13:38:56Z</time>
      </trkpt>
      <trkpt lat="46.22094" lon="6.55483">
        <ele>1072.396</ele>
        <time>2024-12-27T13:39:01Z</time>
      </trkpt>
      <trkpt lat="46.22094" lon="6.55483">
        <ele>1072.331</ele>
        <time>2024-12-27T13:39:06Z</time>
      </trkpt>
      <trkpt lat="46.22094" lon="6.55483">
        <ele>1071.599</ele>
        <time>2024-12-27T13:39:11Z</time>
      </trkpt>
      <trkpt lat="46.22094" lon="6.55483">
        <ele>1070.23</ele>
        <time>2024-12-27T13:39:16Z</time>
      </trkpt>
      <trkpt lat="46.22094" lon="6.55483">
        <ele>1069.78</ele>
        <time>2024-12-27T13:39:21Z</time>
      </trkpt>
      <trkpt lat="46.22094" lon="6.55483">
        <ele>1070.039</ele>
        <time>2024-12-27T13:39:26Z</time>
      </trkpt>
      <trkpt lat="46.22094" lon="6.55483">
        <ele>1070.774</ele>
        <time>2024-12-27T13:39:31Z</time>
      </trkpt>
      <trkpt lat="46.22094" lon="6.55483">
        <ele>1070.708</ele>
        <time>2024-12-27T13:39:36Z</time>
      </trkpt>
      <trkpt lat="46.22094" lon="6.55483">
        <ele>1070.157</ele>
        <time>2024-12-27T13:39:41Z</time>
      </trkpt>
      <trkpt lat="46.22094" lon="6.55483">
        <ele>1070.025</ele>
        <time>2024-12-27T13:39:46Z</time>
      </trkpt>
      <trkpt lat="46.22094" lon="6.55483">
        <ele>1069.722</ele>
        <time>2024-12-27T13:39:51Z</time>
      </trkpt>
      <trkpt lat="46.22094" lon="6.55483">
        <ele>1069.223</ele>
        <time>2024-12-27T13:39:56Z</time>
      </trkpt>
      <trkpt lat="46.22094" lon="6.55483">
        <ele>1069.335</ele>
        <time>2024-12-27T13:40:01Z</time>
      </trkpt>
      <trkpt lat="46.22094" lon="6.55483">
        <ele>1069.493</ele>
        <time>2024-12-27T13:40:06Z</time>
      </trkpt>
      <trkpt lat="46.22094" lon="6.55483">
        <ele>1069.569</ele>
        <time>2024-12-27T13:40:11Z</time>
      </trkpt>
      <trkpt lat="46.22094" lon="6.55483">
        <ele>1069.582</ele>
        <time>2024-12-27T13:40:16Z</time>
      </trkpt>
      <trkpt lat="46.22094" lon="6.55483">
        <ele>1070.313</ele>
        <time>2024-12-27T13:40:21Z</time>
      </trkpt>
      <trkpt lat="46.22092" lon="6.55485">
        <ele>1070.619</ele>
        <time>2024-12-27T13:40:26Z</time>
      </trkpt>
      <trkpt lat="46.22088" lon="6.55489">
        <ele>1069.105</ele>
        <time>2024-12-27T13:40:31Z</time>
      </trkpt>
      <trkpt lat="46.22084" lon="6.55493">
        <ele>1067.585</ele>
        <time>2024-12-27T13:40:36Z</time>
      </trkpt>
      <trkpt lat="46.2208" lon="6.55496">
        <ele>1067.4</ele>
        <time>2024-12-27T13:40:41Z</time>
      </trkpt>
      <trkpt lat="46.22076" lon="6.55499">
        <ele>1067.631</ele>
        <time>2024-12-27T13:40:46Z</time>
      </trkpt>
      <trkpt lat="46.22073" lon="6.555">
        <ele>1066.904</ele>
        <time>2024-12-27T13:40:51Z</time>
      </trkpt>
      <trkpt lat="46.2207" lon="6.55501">
        <ele>1067.294</ele>
        <time>2024-12-27T13:40:56Z</time>
      </trkpt>
      <trkpt lat="46.22067" lon="6.55504">
        <ele>1067.032</ele>
        <time>2024-12-27T13:41:01Z</time>
      </trkpt>
      <trkpt lat="46.22062" lon="6.55509">
        <ele>1066.2</ele>
        <time>2024-12-27T13:41:06Z</time>
      </trkpt>
      <trkpt lat="46.22058" lon="6.55512">
        <ele>1065.522</ele>
        <time>2024-12-27T13:41:11Z</time>
      </trkpt>
      <trkpt lat="46.22054" lon="6.55514">
        <ele>1065.175</ele>
        <time>2024-12-27T13:41:16Z</time>
      </trkpt>
      <trkpt lat="46.2205" lon="6.55516">
        <ele>1064.903</ele>
        <time>2024-12-27T13:41:21Z</time>
      </trkpt>
      <trkpt lat="46.22047" lon="6.55517">
        <ele>1066.304</ele>
        <time>2024-12-27T13:41:26Z</time>
      </trkpt>
      <trkpt lat="46.22043" lon="6.55519">
        <ele>1067.566</ele>
        <time>2024-12-27T13:41:31Z</time>
      </trkpt>
      <trkpt lat="46.22039" lon="6.55522">
        <ele>1069.059</ele>
        <time>2024-12-27T13:41:36Z</time>
      </trkpt>
      <trkpt lat="46.22036" lon="6.55525">
        <ele>1070.053</ele>
        <time>2024-12-27T13:41:41Z</time>
      </trkpt>
      <trkpt lat="46.22033" lon="6.55526">
        <ele>1071.275</ele>
        <time>2024-12-27T13:41:46Z</time>
      </trkpt>
      <trkpt lat="46.22029" lon="6.55528">
        <ele>1072.697</ele>
        <time>2024-12-27T13:41:51Z</time>
      </trkpt>
      <trkpt lat="46.22026" lon="6.55529">
        <ele>1071.88</ele>
        <time>2024-12-27T13:41:56Z</time>
      </trkpt>
      <trkpt lat="46.22024" lon="6.55531">
        <ele>1070.323</ele>
        <time>2024-12-27T13:42:01Z</time>
      </trkpt>
      <trkpt lat="46.22021" lon="6.55531">
        <ele>1070.468</ele>
        <time>2024-12-27T13:42:06Z</time>
      </trkpt>
      <trkpt lat="46.22018" lon="6.55529">
        <ele>1071.73</ele>
        <time>2024-12-27T13:42:11Z</time>
      </trkpt>
      <trkpt lat="46.22018" lon="6.55529">
        <ele>1071.972</ele>
        <time>2024-12-27T13:42:16Z</time>
      </trkpt>
      <trkpt lat="46.22018" lon="6.55529">
        <ele>1071.879</ele>
        <time>2024-12-27T13:42:21Z</time>
      </trkpt>
      <trkpt lat="46.22018" lon="6.55529">
        <ele>1071.868</ele>
        <time>2024-12-27T13:42:26Z</time>
      </trkpt>
      <trkpt lat="46.22018" lon="6.55529">
        <ele>1071.81</ele>
        <time>2024-12-27T13:42:31Z</time>
      </trkpt>
      <trkpt lat="46.22018" lon="6.55529">
        <ele>1072.107</ele>
        <time>2024-12-27T13:42:36Z</time>
      </trkpt>
      <trkpt lat="46.22018" lon="6.55529">
        <ele>1072.109</ele>
        <time>2024-12-27T13:42:41Z</time>
      </trkpt>
      <trkpt lat="46.22018" lon="6.55529">
        <ele>1072.113</ele>
        <time>2024-12-27T13:42:46Z</time>
      </trkpt>
      <trkpt lat="46.22018" lon="6.55529">
        <ele>1072.128</ele>
        <time>2024-12-27T13:42:51Z</time>
      </trkpt>
      <trkpt lat="46.22018" lon="6.55529">
        <ele>1072.114</ele>
        <time>2024-12-27T13:42:56Z</time>
      </trkpt>
      <trkpt lat="46.22018" lon="6.55529">
        <ele>1072.537</ele>
        <time>2024-12-27T13:43:01Z</time>
      </trkpt>
      <trkpt lat="46.22018" lon="6.55529">
        <ele>1072.563</ele>
        <time>2024-12-27T13:43:06Z</time>
      </trkpt>
      <trkpt lat="46.22018" lon="6.55529">
        <ele>1073.093</ele>
        <time>2024-12-27T13:43:11Z</time>
      </trkpt>
      <trkpt lat="46.22018" lon="6.55529">
        <ele>1073.113</ele>
        <time>2024-12-27T13:43:16Z</time>
      </trkpt>
      <trkpt lat="46.22018" lon="6.55529">
        <ele>1073.134</ele>
        <time>2024-12-27T13:43:21Z</time>
      </trkpt>
      <trkpt lat="46.22018" lon="6.55529">
        <ele>1073.156</ele>
        <time>2024-12-27T13:43:26Z</time>
      </trkpt>
      <trkpt lat="46.22018" lon="6.55529">
        <ele>1073.157</ele>
        <time>2024-12-27T13:43:31Z</time>
      </trkpt>
      <trkpt lat="46.22018" lon="6.55529">
        <ele>1072.838</ele>
        <time>2024-12-27T13:43:36Z</time>
      </trkpt>
      <trkpt lat="46.22018" lon="6.55529">
        <ele>1072.84</ele>
        <time>2024-12-27T13:43:41Z</time>
      </trkpt>
      <trkpt lat="46.22018" lon="6.55529">
        <ele>1072.852</ele>
        <time>2024-12-27T13:43:46Z</time>
      </trkpt>
      <trkpt lat="46.22018" lon="6.55529">
        <ele>1072.859</ele>
        <time>2024-12-27T13:43:51Z</time>
      </trkpt>
      <trkpt lat="46.22018" lon="6.55529">
        <ele>1072.929</ele>
        <time>2024-12-27T13:43:56Z</time>
      </trkpt>
      <trkpt lat="46.22018" lon="6.55529">
        <ele>1072.949</ele>
        <time>2024-12-27T13:44:01Z</time>
      </trkpt>
      <trkpt lat="46.22018" lon="6.55529">
        <ele>1072.954</ele>
        <time>2024-12-27T13:44:06Z</time>
      </trkpt>
      <trkpt lat="46.22018" lon="6.55529">
        <ele>1072.957</ele>
        <time>2024-12-27T13:44:11Z</time>
      </trkpt>
      <trkpt lat="46.22018" lon="6.55529">
        <ele>1072.965</ele>
        <time>2024-12-27T13:44:16Z</time>
      </trkpt>
      <trkpt lat="46.22018" lon="6.55529">
        <ele>1072.978</ele>
        <time>2024-12-27T13:44:21Z</time>
      </trkpt>
      <trkpt lat="46.22018" lon="6.55529">
        <ele>1073.007</ele>
        <time>2024-12-27T13:44:26Z</time>
      </trkpt>
      <trkpt lat="46.22018" lon="6.55529">
        <ele>1073.068</ele>
        <time>2024-12-27T13:44:31Z</time>
      </trkpt>
      <trkpt lat="46.22018" lon="6.55529">
        <ele>1073.042</ele>
        <time>2024-12-27T13:44:36Z</time>
      </trkpt>
      <trkpt lat="46.22018" lon="6.55529">
        <ele>1073.038</ele>
        <time>2024-12-27T13:44:41Z</time>
      </trkpt>
      <trkpt lat="46.22018" lon="6.55529">
        <ele>1073.438</ele>
        <time>2024-12-27T13:44:46Z</time>
      </trkpt>
      <trkpt lat="46.22018" lon="6.55529">
        <ele>1073.461</ele>
        <time>2024-12-27T13:44:51Z</time>
      </trkpt>
      <trkpt lat="46.22018" lon="6.55529">
        <ele>1073.414</ele>
        <time>2024-12-27T13:44:56Z</time>
      </trkpt>
      <trkpt lat="46.22018" lon="6.55529">
        <ele>1073.407</ele>
        <time>2024-12-27T13:45:01Z</time>
      </trkpt>
      <trkpt lat="46.22018" lon="6.55529">
        <ele>1073.462</ele>
        <time>2024-12-27T13:45:06Z</time>
      </trkpt>
      <trkpt lat="46.22018" lon="6.55529">
        <ele>1073.458</ele>
        <time>2024-12-27T13:45:11Z</time>
      </trkpt>
      <trkpt lat="46.22018" lon="6.55529">
        <ele>1073.481</ele>
        <time>2024-12-27T13:45:16Z</time>
      </trkpt>
      <trkpt lat="46.22018" lon="6.55529">
        <ele>1073.489</ele>
        <time>2024-12-27T13:45:21Z</time>
      </trkpt>
      <trkpt lat="46.22018" lon="6.55529">
        <ele>1073.49</ele>
        <time>2024-12-27T13:45:26Z</time>
      </trkpt>
      <trkpt lat="46.22018" lon="6.55529">
        <ele>1073.488</ele>
        <time>2024-12-27T13:45:31Z</time>
      </trkpt>
      <trkpt lat="46.22018" lon="6.55529">
        <ele>1073.49</ele>
        <time>2024-12-27T13:45:36Z</time>
      </trkpt>
      <trkpt lat="46.22018" lon="6.55529">
        <ele>1073.484</ele>
        <time>2024-12-27T13:45:41Z</time>
      </trkpt>
      <trkpt lat="46.22018" lon="6.55529">
        <ele>1073.47</ele>
        <time>2024-12-27T13:45:46Z</time>
      </trkpt>
      <trkpt lat="46.22018" lon="6.55529">
        <ele>1073.471</ele>
        <time>2024-12-27T13:45:51Z</time>
      </trkpt>
      <trkpt lat="46.22018" lon="6.55529">
        <ele>1073.498</ele>
        <time>2024-12-27T13:45:56Z</time>
      </trkpt>
      <trkpt lat="46.22018" lon="6.55529">
        <ele>1073.543</ele>
        <time>2024-12-27T13:46:01Z</time>
      </trkpt>
      <trkpt lat="46.22018" lon="6.55529">
        <ele>1072.472</ele>
        <time>2024-12-27T13:46:06Z</time>
      </trkpt>
      <trkpt lat="46.22018" lon="6.55529">
        <ele>1072.498</ele>
        <time>2024-12-27T13:46:11Z</time>
      </trkpt>
      <trkpt lat="46.22018" lon="6.55529">
        <ele>1072.096</ele>
        <time>2024-12-27T13:46:16Z</time>
      </trkpt>
      <trkpt lat="46.22018" lon="6.55529">
        <ele>1072.1</ele>
        <time>2024-12-27T13:46:21Z</time>
      </trkpt>
      <trkpt lat="46.22018" lon="6.55529">
        <ele>1072.14</ele>
        <time>2024-12-27T13:46:26Z</time>
      </trkpt>
      <trkpt lat="46.22018" lon="6.55529">
        <ele>1072.142</ele>
        <time>2024-12-27T13:46:31Z</time>
      </trkpt>
      <trkpt lat="46.22018" lon="6.55529">
        <ele>1072.139</ele>
        <time>2024-12-27T13:46:36Z</time>
      </trkpt>
      <trkpt lat="46.22018" lon="6.55529">
        <ele>1072.378</ele>
        <time>2024-12-27T13:46:41Z</time>
      </trkpt>
      <trkpt lat="46.22018" lon="6.55529">
        <ele>1072.401</ele>
        <time>2024-12-27T13:46:46Z</time>
      </trkpt>
      <trkpt lat="46.22018" lon="6.55529">
        <ele>1073.323</ele>
        <time>2024-12-27T13:46:51Z</time>
      </trkpt>
      <trkpt lat="46.22018" lon="6.55529">
        <ele>1073.299</ele>
        <time>2024-12-27T13:46:56Z</time>
      </trkpt>
      <trkpt lat="46.22018" lon="6.55529">
        <ele>1073.301</ele>
        <time>2024-12-27T13:47:01Z</time>
      </trkpt>
      <trkpt lat="46.22018" lon="6.55529">
        <ele>1073.304</ele>
        <time>2024-12-27T13:47:06Z</time>
      </trkpt>
      <trkpt lat="46.22018" lon="6.55529">
        <ele>1073.597</ele>
        <time>2024-12-27T13:47:11Z</time>
      </trkpt>
      <trkpt lat="46.22018" lon="6.55529">
        <ele>1073.619</ele>
        <time>2024-12-27T13:47:16Z</time>
      </trkpt>
      <trkpt lat="46.22018" lon="6.55529">
        <ele>1073.637</ele>
        <time>2024-12-27T13:47:21Z</time>
      </trkpt>
      <trkpt lat="46.22018" lon="6.55529">
        <ele>1073.647</ele>
        <time>2024-12-27T13:47:26Z</time>
      </trkpt>
      <trkpt lat="46.22018" lon="6.55529">
        <ele>1073.663</ele>
        <time>2024-12-27T13:47:31Z</time>
      </trkpt>
      <trkpt lat="46.22018" lon="6.55529">
        <ele>1073.686</ele>
        <time>2024-12-27T13:47:36Z</time>
      </trkpt>
      <trkpt lat="46.22018" lon="6.55529">
        <ele>1073.709</ele>
        <time>2024-12-27T13:47:41Z</time>
      </trkpt>
      <trkpt lat="46.22018" lon="6.55529">
        <ele>1073.725</ele>
        <time>2024-12-27T13:47:46Z</time>
      </trkpt>
      <trkpt lat="46.22018" lon="6.55529">
        <ele>1073.742</ele>
        <time>2024-12-27T13:47:51Z</time>
      </trkpt>
      <trkpt lat="46.22018" lon="6.55529">
        <ele>1073.138</ele>
        <time>2024-12-27T13:47:56Z</time>
      </trkpt>
      <trkpt lat="46.22018" lon="6.55529">
        <ele>1073.644</ele>
        <time>2024-12-27T13:48:01Z</time>
      </trkpt>
      <trkpt lat="46.22018" lon="6.55529">
        <ele>1073.954</ele>
        <time>2024-12-27T13:48:06Z</time>
      </trkpt>
      <trkpt lat="46.22018" lon="6.55529">
        <ele>1073.987</ele>
        <time>2024-12-27T13:48:11Z</time>
      </trkpt>
      <trkpt lat="46.22018" lon="6.55529">
        <ele>1073.242</ele>
        <time>2024-12-27T13:48:16Z</time>
      </trkpt>
      <trkpt lat="46.22018" lon="6.55529">
        <ele>1073.483</ele>
        <time>2024-12-27T13:48:21Z</time>
      </trkpt>
      <trkpt lat="46.22018" lon="6.55529">
        <ele>1073.484</ele>
        <time>2024-12-27T13:48:26Z</time>
      </trkpt>
      <trkpt lat="46.22018" lon="6.55529">
        <ele>1072.349</ele>
        <time>2024-12-27T13:48:31Z</time>
      </trkpt>
      <trkpt lat="46.22018" lon="6.55529">
        <ele>1071.465</ele>
        <time>2024-12-27T13:48:36Z</time>
      </trkpt>
      <trkpt lat="46.22018" lon="6.55529">
        <ele>1071.471</ele>
        <time>2024-12-27T13:48:41Z</time>
      </trkpt>
      <trkpt lat="46.22013" lon="6.55526">
        <ele>1071.683</ele>
        <time>2024-12-27T13:48:46Z</time>
      </trkpt>
    </trkseg>
  </trk>
</gpx>